<?xml version="1.0" encoding="UTF-8" standalone="no" ?>
<gpx xmlns="http://www.topografix.com/GPX/1/1" xmlns:xsi="http://www.w3.org/2001/XMLSchema-instance" xsi:schemaLocation="http://www.topografix.com/GPX/1/1 http://www.topografix.com/GPX/1/1/gpx.xsd" version="1.1" creator="VisuGPX - https://www.visugpx.com">
  <metadata>
    <name>3T_08_25_taza_fes</name>
    <desc><![CDATA[Sur les traces des pionniers de l'aéropostale
taza_fes]]></desc>
  </metadata>
  <trk>
    <name><![CDATA[2023-08-25_14-56_Fri]]></name>
    <trkseg>
      <trkpt lat="34.04708" lon="-4.42145">
        <ele>640.2</ele>
        <time>2023-08-25T13:56:06.000Z</time>
      </trkpt>
      <trkpt lat="34.04707" lon="-4.42145">
        <ele>642</ele>
        <time>2023-08-25T13:56:10.000Z</time>
      </trkpt>
      <trkpt lat="34.04706" lon="-4.42147">
        <ele>640.2</ele>
        <time>2023-08-25T13:56:13.000Z</time>
      </trkpt>
      <trkpt lat="34.04708" lon="-4.42151">
        <ele>640.2</ele>
        <time>2023-08-25T13:56:23.000Z</time>
      </trkpt>
      <trkpt lat="34.04709" lon="-4.42146">
        <ele>640.2</ele>
        <time>2023-08-25T14:00:19.000Z</time>
      </trkpt>
      <trkpt lat="34.04712" lon="-4.42149">
        <ele>640.2</ele>
        <time>2023-08-25T14:00:22.000Z</time>
      </trkpt>
      <trkpt lat="34.04719" lon="-4.42162">
        <ele>640.2</ele>
        <time>2023-08-25T14:00:25.000Z</time>
      </trkpt>
      <trkpt lat="34.04724" lon="-4.4217">
        <ele>640.2</ele>
        <time>2023-08-25T14:00:29.000Z</time>
      </trkpt>
      <trkpt lat="34.04729" lon="-4.42179">
        <ele>640.2</ele>
        <time>2023-08-25T14:00:33.000Z</time>
      </trkpt>
      <trkpt lat="34.04737" lon="-4.4219">
        <ele>640.2</ele>
        <time>2023-08-25T14:00:37.000Z</time>
      </trkpt>
      <trkpt lat="34.04745" lon="-4.42199">
        <ele>640.2</ele>
        <time>2023-08-25T14:00:40.000Z</time>
      </trkpt>
      <trkpt lat="34.04755" lon="-4.42211">
        <ele>640.2</ele>
        <time>2023-08-25T14:00:44.000Z</time>
      </trkpt>
      <trkpt lat="34.04763" lon="-4.42222">
        <ele>640.2</ele>
        <time>2023-08-25T14:00:48.000Z</time>
      </trkpt>
      <trkpt lat="34.04768" lon="-4.42232">
        <ele>640.2</ele>
        <time>2023-08-25T14:00:52.000Z</time>
      </trkpt>
      <trkpt lat="34.04771" lon="-4.4224">
        <ele>640.2</ele>
        <time>2023-08-25T14:00:56.000Z</time>
      </trkpt>
      <trkpt lat="34.04777" lon="-4.42247">
        <ele>640.2</ele>
        <time>2023-08-25T14:01:00.000Z</time>
      </trkpt>
      <trkpt lat="34.04778" lon="-4.42249">
        <ele>640.2</ele>
        <time>2023-08-25T14:01:03.000Z</time>
      </trkpt>
      <trkpt lat="34.04778" lon="-4.42249">
        <ele>640.2</ele>
        <time>2023-08-25T14:01:06.000Z</time>
      </trkpt>
      <trkpt lat="34.04781" lon="-4.42251">
        <ele>638.4</ele>
        <time>2023-08-25T14:01:23.000Z</time>
      </trkpt>
      <trkpt lat="34.04788" lon="-4.42262">
        <ele>639.6</ele>
        <time>2023-08-25T14:01:27.000Z</time>
      </trkpt>
      <trkpt lat="34.04795" lon="-4.42275">
        <ele>638.4</ele>
        <time>2023-08-25T14:01:31.000Z</time>
      </trkpt>
      <trkpt lat="34.04802" lon="-4.42286">
        <ele>638.4</ele>
        <time>2023-08-25T14:01:35.000Z</time>
      </trkpt>
      <trkpt lat="34.04807" lon="-4.42294">
        <ele>638.4</ele>
        <time>2023-08-25T14:01:38.000Z</time>
      </trkpt>
      <trkpt lat="34.04812" lon="-4.42304">
        <ele>638.8</ele>
        <time>2023-08-25T14:01:41.000Z</time>
      </trkpt>
      <trkpt lat="34.0482" lon="-4.42315">
        <ele>638.8</ele>
        <time>2023-08-25T14:01:45.000Z</time>
      </trkpt>
      <trkpt lat="34.04823" lon="-4.42323">
        <ele>638.4</ele>
        <time>2023-08-25T14:01:48.000Z</time>
      </trkpt>
      <trkpt lat="34.04828" lon="-4.4233">
        <ele>638.4</ele>
        <time>2023-08-25T14:01:51.000Z</time>
      </trkpt>
      <trkpt lat="34.04835" lon="-4.42337">
        <ele>636.3</ele>
        <time>2023-08-25T14:01:55.000Z</time>
      </trkpt>
      <trkpt lat="34.04841" lon="-4.42341">
        <ele>638.3</ele>
        <time>2023-08-25T14:01:58.000Z</time>
      </trkpt>
      <trkpt lat="34.04846" lon="-4.42346">
        <ele>635.9</ele>
        <time>2023-08-25T14:02:01.000Z</time>
      </trkpt>
      <trkpt lat="34.04853" lon="-4.42355">
        <ele>638.3</ele>
        <time>2023-08-25T14:02:05.000Z</time>
      </trkpt>
      <trkpt lat="34.04857" lon="-4.4236">
        <ele>638.3</ele>
        <time>2023-08-25T14:02:08.000Z</time>
      </trkpt>
      <trkpt lat="34.0486" lon="-4.42363">
        <ele>638.3</ele>
        <time>2023-08-25T14:02:12.000Z</time>
      </trkpt>
      <trkpt lat="34.04862" lon="-4.42362">
        <ele>638.3</ele>
        <time>2023-08-25T14:02:15.000Z</time>
      </trkpt>
      <trkpt lat="34.04865" lon="-4.42363">
        <ele>638.3</ele>
        <time>2023-08-25T14:02:19.000Z</time>
      </trkpt>
      <trkpt lat="34.04869" lon="-4.42364">
        <ele>638.3</ele>
        <time>2023-08-25T14:02:22.000Z</time>
      </trkpt>
      <trkpt lat="34.04873" lon="-4.4237">
        <ele>638.3</ele>
        <time>2023-08-25T14:02:26.000Z</time>
      </trkpt>
      <trkpt lat="34.04876" lon="-4.42377">
        <ele>638.3</ele>
        <time>2023-08-25T14:02:29.000Z</time>
      </trkpt>
      <trkpt lat="34.0488" lon="-4.42384">
        <ele>638.3</ele>
        <time>2023-08-25T14:02:32.000Z</time>
      </trkpt>
      <trkpt lat="34.04885" lon="-4.42397">
        <ele>638.3</ele>
        <time>2023-08-25T14:02:36.000Z</time>
      </trkpt>
      <trkpt lat="34.0489" lon="-4.42407">
        <ele>638.3</ele>
        <time>2023-08-25T14:02:39.000Z</time>
      </trkpt>
      <trkpt lat="34.04894" lon="-4.42415">
        <ele>638.3</ele>
        <time>2023-08-25T14:02:42.000Z</time>
      </trkpt>
      <trkpt lat="34.049" lon="-4.42425">
        <ele>638.3</ele>
        <time>2023-08-25T14:02:46.000Z</time>
      </trkpt>
      <trkpt lat="34.04908" lon="-4.42439">
        <ele>638.3</ele>
        <time>2023-08-25T14:02:50.000Z</time>
      </trkpt>
      <trkpt lat="34.04912" lon="-4.42445">
        <ele>638.3</ele>
        <time>2023-08-25T14:02:53.000Z</time>
      </trkpt>
      <trkpt lat="34.04916" lon="-4.4245">
        <ele>638.3</ele>
        <time>2023-08-25T14:02:56.000Z</time>
      </trkpt>
      <trkpt lat="34.04917" lon="-4.42447">
        <ele>638.3</ele>
        <time>2023-08-25T14:03:00.000Z</time>
      </trkpt>
      <trkpt lat="34.04918" lon="-4.42442">
        <ele>638.3</ele>
        <time>2023-08-25T14:03:11.000Z</time>
      </trkpt>
      <trkpt lat="34.0492" lon="-4.42429">
        <ele>639.3</ele>
        <time>2023-08-25T14:04:09.000Z</time>
      </trkpt>
      <trkpt lat="34.04915" lon="-4.42425">
        <ele>639.1</ele>
        <time>2023-08-25T14:04:13.000Z</time>
      </trkpt>
      <trkpt lat="34.04902" lon="-4.4241">
        <ele>639.9</ele>
        <time>2023-08-25T14:04:26.000Z</time>
      </trkpt>
      <trkpt lat="34.04898" lon="-4.42405">
        <ele>639.9</ele>
        <time>2023-08-25T14:04:29.000Z</time>
      </trkpt>
      <trkpt lat="34.04894" lon="-4.424">
        <ele>639.5</ele>
        <time>2023-08-25T14:04:32.000Z</time>
      </trkpt>
      <trkpt lat="34.04889" lon="-4.42396">
        <ele>639.8</ele>
        <time>2023-08-25T14:04:35.000Z</time>
      </trkpt>
      <trkpt lat="34.04886" lon="-4.42393">
        <ele>640.2</ele>
        <time>2023-08-25T14:04:39.000Z</time>
      </trkpt>
      <trkpt lat="34.04883" lon="-4.42389">
        <ele>640.1</ele>
        <time>2023-08-25T14:04:42.000Z</time>
      </trkpt>
      <trkpt lat="34.04882" lon="-4.42385">
        <ele>639.5</ele>
        <time>2023-08-25T14:04:45.000Z</time>
      </trkpt>
      <trkpt lat="34.04881" lon="-4.42381">
        <ele>640.1</ele>
        <time>2023-08-25T14:04:49.000Z</time>
      </trkpt>
      <trkpt lat="34.04882" lon="-4.42381">
        <ele>640.8</ele>
        <time>2023-08-25T14:04:52.000Z</time>
      </trkpt>
      <trkpt lat="34.04882" lon="-4.42382">
        <ele>640.2</ele>
        <time>2023-08-25T14:04:55.000Z</time>
      </trkpt>
      <trkpt lat="34.04888" lon="-4.42384">
        <ele>640.4</ele>
        <time>2023-08-25T14:05:49.000Z</time>
      </trkpt>
      <trkpt lat="34.04893" lon="-4.42386">
        <ele>637.6</ele>
        <time>2023-08-25T14:05:52.000Z</time>
      </trkpt>
      <trkpt lat="34.04897" lon="-4.42387">
        <ele>640.1</ele>
        <time>2023-08-25T14:05:55.000Z</time>
      </trkpt>
      <trkpt lat="34.04899" lon="-4.42393">
        <ele>640.1</ele>
        <time>2023-08-25T14:05:59.000Z</time>
      </trkpt>
      <trkpt lat="34.049" lon="-4.42396">
        <ele>640.1</ele>
        <time>2023-08-25T14:06:02.000Z</time>
      </trkpt>
      <trkpt lat="34.04902" lon="-4.42399">
        <ele>640.1</ele>
        <time>2023-08-25T14:06:05.000Z</time>
      </trkpt>
      <trkpt lat="34.04904" lon="-4.42401">
        <ele>639.1</ele>
        <time>2023-08-25T14:06:08.000Z</time>
      </trkpt>
      <trkpt lat="34.04906" lon="-4.42405">
        <ele>638.7</ele>
        <time>2023-08-25T14:06:12.000Z</time>
      </trkpt>
      <trkpt lat="34.04908" lon="-4.42409">
        <ele>638.8</ele>
        <time>2023-08-25T14:06:15.000Z</time>
      </trkpt>
      <trkpt lat="34.0491" lon="-4.42412">
        <ele>639.3</ele>
        <time>2023-08-25T14:06:18.000Z</time>
      </trkpt>
      <trkpt lat="34.04913" lon="-4.42416">
        <ele>638.8</ele>
        <time>2023-08-25T14:06:22.000Z</time>
      </trkpt>
      <trkpt lat="34.04914" lon="-4.42419">
        <ele>638.4</ele>
        <time>2023-08-25T14:06:25.000Z</time>
      </trkpt>
      <trkpt lat="34.04914" lon="-4.42422">
        <ele>637.2</ele>
        <time>2023-08-25T14:06:29.000Z</time>
      </trkpt>
      <trkpt lat="34.04913" lon="-4.42421">
        <ele>638.9</ele>
        <time>2023-08-25T14:06:32.000Z</time>
      </trkpt>
      <trkpt lat="34.04917" lon="-4.42436">
        <ele>641.4</ele>
        <time>2023-08-25T14:11:09.000Z</time>
      </trkpt>
      <trkpt lat="34.04915" lon="-4.42444">
        <ele>639</ele>
        <time>2023-08-25T14:11:13.000Z</time>
      </trkpt>
      <trkpt lat="34.04912" lon="-4.4246">
        <ele>639.4</ele>
        <time>2023-08-25T14:11:16.000Z</time>
      </trkpt>
      <trkpt lat="34.04913" lon="-4.42475">
        <ele>638.5</ele>
        <time>2023-08-25T14:11:20.000Z</time>
      </trkpt>
      <trkpt lat="34.04915" lon="-4.4249">
        <ele>638.3</ele>
        <time>2023-08-25T14:11:23.000Z</time>
      </trkpt>
      <trkpt lat="34.04919" lon="-4.42507">
        <ele>637.9</ele>
        <time>2023-08-25T14:11:27.000Z</time>
      </trkpt>
      <trkpt lat="34.04921" lon="-4.42524">
        <ele>637.6</ele>
        <time>2023-08-25T14:11:32.000Z</time>
      </trkpt>
      <trkpt lat="34.04923" lon="-4.42529">
        <ele>638.1</ele>
        <time>2023-08-25T14:11:35.000Z</time>
      </trkpt>
      <trkpt lat="34.04926" lon="-4.42536">
        <ele>637.6</ele>
        <time>2023-08-25T14:11:39.000Z</time>
      </trkpt>
      <trkpt lat="34.04929" lon="-4.42545">
        <ele>637.8</ele>
        <time>2023-08-25T14:11:42.000Z</time>
      </trkpt>
      <trkpt lat="34.04932" lon="-4.42555">
        <ele>637.8</ele>
        <time>2023-08-25T14:11:45.000Z</time>
      </trkpt>
      <trkpt lat="34.04937" lon="-4.42573">
        <ele>637.5</ele>
        <time>2023-08-25T14:11:49.000Z</time>
      </trkpt>
      <trkpt lat="34.04941" lon="-4.42594">
        <ele>637.6</ele>
        <time>2023-08-25T14:11:52.000Z</time>
      </trkpt>
      <trkpt lat="34.04948" lon="-4.42621">
        <ele>637.3</ele>
        <time>2023-08-25T14:11:56.000Z</time>
      </trkpt>
      <trkpt lat="34.04959" lon="-4.4266">
        <ele>636.8</ele>
        <time>2023-08-25T14:12:00.000Z</time>
      </trkpt>
      <trkpt lat="34.04969" lon="-4.42684">
        <ele>636.5</ele>
        <time>2023-08-25T14:12:03.000Z</time>
      </trkpt>
      <trkpt lat="34.04983" lon="-4.42704">
        <ele>635.2</ele>
        <time>2023-08-25T14:12:07.000Z</time>
      </trkpt>
      <trkpt lat="34.04995" lon="-4.4272">
        <ele>635.4</ele>
        <time>2023-08-25T14:12:10.000Z</time>
      </trkpt>
      <trkpt lat="34.05011" lon="-4.4274">
        <ele>634.7</ele>
        <time>2023-08-25T14:12:14.000Z</time>
      </trkpt>
      <trkpt lat="34.05023" lon="-4.42755">
        <ele>634.6</ele>
        <time>2023-08-25T14:12:17.000Z</time>
      </trkpt>
      <trkpt lat="34.0503" lon="-4.42769">
        <ele>634.5</ele>
        <time>2023-08-25T14:12:20.000Z</time>
      </trkpt>
      <trkpt lat="34.05038" lon="-4.42794">
        <ele>633.8</ele>
        <time>2023-08-25T14:12:24.000Z</time>
      </trkpt>
      <trkpt lat="34.05043" lon="-4.42812">
        <ele>633.9</ele>
        <time>2023-08-25T14:12:27.000Z</time>
      </trkpt>
      <trkpt lat="34.05049" lon="-4.42831">
        <ele>633.4</ele>
        <time>2023-08-25T14:12:30.000Z</time>
      </trkpt>
      <trkpt lat="34.05056" lon="-4.42859">
        <ele>632.2</ele>
        <time>2023-08-25T14:12:34.000Z</time>
      </trkpt>
      <trkpt lat="34.05056" lon="-4.42885">
        <ele>630.6</ele>
        <time>2023-08-25T14:12:38.000Z</time>
      </trkpt>
      <trkpt lat="34.05057" lon="-4.42915">
        <ele>628.4</ele>
        <time>2023-08-25T14:12:42.000Z</time>
      </trkpt>
      <trkpt lat="34.05058" lon="-4.42934">
        <ele>626.4</ele>
        <time>2023-08-25T14:12:46.000Z</time>
      </trkpt>
      <trkpt lat="34.05058" lon="-4.42937">
        <ele>626.5</ele>
        <time>2023-08-25T14:12:52.000Z</time>
      </trkpt>
      <trkpt lat="34.05061" lon="-4.42942">
        <ele>626.1</ele>
        <time>2023-08-25T14:12:55.000Z</time>
      </trkpt>
      <trkpt lat="34.05078" lon="-4.4294">
        <ele>625.5</ele>
        <time>2023-08-25T14:12:59.000Z</time>
      </trkpt>
      <trkpt lat="34.0509" lon="-4.4294">
        <ele>625.4</ele>
        <time>2023-08-25T14:13:02.000Z</time>
      </trkpt>
      <trkpt lat="34.05107" lon="-4.42939">
        <ele>625.4</ele>
        <time>2023-08-25T14:13:06.000Z</time>
      </trkpt>
      <trkpt lat="34.05122" lon="-4.4294">
        <ele>625.1</ele>
        <time>2023-08-25T14:13:10.000Z</time>
      </trkpt>
      <trkpt lat="34.05129" lon="-4.42954">
        <ele>623.1</ele>
        <time>2023-08-25T14:13:14.000Z</time>
      </trkpt>
      <trkpt lat="34.05136" lon="-4.42983">
        <ele>621.6</ele>
        <time>2023-08-25T14:13:18.000Z</time>
      </trkpt>
      <trkpt lat="34.05137" lon="-4.42999">
        <ele>620.5</ele>
        <time>2023-08-25T14:13:21.000Z</time>
      </trkpt>
      <trkpt lat="34.05139" lon="-4.43023">
        <ele>618.9</ele>
        <time>2023-08-25T14:13:25.000Z</time>
      </trkpt>
      <trkpt lat="34.05139" lon="-4.43039">
        <ele>618.3</ele>
        <time>2023-08-25T14:13:29.000Z</time>
      </trkpt>
      <trkpt lat="34.05139" lon="-4.43047">
        <ele>617.7</ele>
        <time>2023-08-25T14:13:33.000Z</time>
      </trkpt>
      <trkpt lat="34.0514" lon="-4.43068">
        <ele>616.4</ele>
        <time>2023-08-25T14:13:37.000Z</time>
      </trkpt>
      <trkpt lat="34.05141" lon="-4.43081">
        <ele>616.2</ele>
        <time>2023-08-25T14:13:40.000Z</time>
      </trkpt>
      <trkpt lat="34.05141" lon="-4.43101">
        <ele>614.9</ele>
        <time>2023-08-25T14:13:44.000Z</time>
      </trkpt>
      <trkpt lat="34.05142" lon="-4.43116">
        <ele>614.5</ele>
        <time>2023-08-25T14:13:47.000Z</time>
      </trkpt>
      <trkpt lat="34.05142" lon="-4.43135">
        <ele>613.2</ele>
        <time>2023-08-25T14:13:51.000Z</time>
      </trkpt>
      <trkpt lat="34.05141" lon="-4.43153">
        <ele>612.3</ele>
        <time>2023-08-25T14:13:55.000Z</time>
      </trkpt>
      <trkpt lat="34.05132" lon="-4.43176">
        <ele>611.3</ele>
        <time>2023-08-25T14:13:59.000Z</time>
      </trkpt>
      <trkpt lat="34.05118" lon="-4.43188">
        <ele>611.3</ele>
        <time>2023-08-25T14:14:02.000Z</time>
      </trkpt>
      <trkpt lat="34.05102" lon="-4.43215">
        <ele>610.9</ele>
        <time>2023-08-25T14:14:06.000Z</time>
      </trkpt>
      <trkpt lat="34.051" lon="-4.43248">
        <ele>610</ele>
        <time>2023-08-25T14:14:10.000Z</time>
      </trkpt>
      <trkpt lat="34.05102" lon="-4.43275">
        <ele>609.5</ele>
        <time>2023-08-25T14:14:13.000Z</time>
      </trkpt>
      <trkpt lat="34.05103" lon="-4.43318">
        <ele>608.4</ele>
        <time>2023-08-25T14:14:17.000Z</time>
      </trkpt>
      <trkpt lat="34.05104" lon="-4.43358">
        <ele>607.7</ele>
        <time>2023-08-25T14:14:21.000Z</time>
      </trkpt>
      <trkpt lat="34.05106" lon="-4.43397">
        <ele>607</ele>
        <time>2023-08-25T14:14:25.000Z</time>
      </trkpt>
      <trkpt lat="34.05106" lon="-4.43435">
        <ele>606.9</ele>
        <time>2023-08-25T14:14:29.000Z</time>
      </trkpt>
      <trkpt lat="34.05109" lon="-4.43467">
        <ele>606.5</ele>
        <time>2023-08-25T14:14:32.000Z</time>
      </trkpt>
      <trkpt lat="34.05115" lon="-4.43505">
        <ele>606.8</ele>
        <time>2023-08-25T14:14:36.000Z</time>
      </trkpt>
      <trkpt lat="34.05131" lon="-4.43542">
        <ele>606.9</ele>
        <time>2023-08-25T14:14:40.000Z</time>
      </trkpt>
      <trkpt lat="34.0515" lon="-4.43572">
        <ele>606.9</ele>
        <time>2023-08-25T14:14:44.000Z</time>
      </trkpt>
      <trkpt lat="34.05168" lon="-4.43592">
        <ele>607.7</ele>
        <time>2023-08-25T14:14:47.000Z</time>
      </trkpt>
      <trkpt lat="34.05185" lon="-4.43614">
        <ele>608.1</ele>
        <time>2023-08-25T14:14:50.000Z</time>
      </trkpt>
      <trkpt lat="34.05209" lon="-4.43643">
        <ele>608.5</ele>
        <time>2023-08-25T14:14:54.000Z</time>
      </trkpt>
      <trkpt lat="34.05232" lon="-4.43671">
        <ele>610.3</ele>
        <time>2023-08-25T14:14:58.000Z</time>
      </trkpt>
      <trkpt lat="34.05249" lon="-4.43691">
        <ele>612.1</ele>
        <time>2023-08-25T14:15:01.000Z</time>
      </trkpt>
      <trkpt lat="34.05271" lon="-4.43719">
        <ele>613.1</ele>
        <time>2023-08-25T14:15:05.000Z</time>
      </trkpt>
      <trkpt lat="34.05287" lon="-4.43737">
        <ele>613.5</ele>
        <time>2023-08-25T14:15:08.000Z</time>
      </trkpt>
      <trkpt lat="34.05306" lon="-4.43762">
        <ele>615</ele>
        <time>2023-08-25T14:15:12.000Z</time>
      </trkpt>
      <trkpt lat="34.0532" lon="-4.43779">
        <ele>616</ele>
        <time>2023-08-25T14:15:15.000Z</time>
      </trkpt>
      <trkpt lat="34.05339" lon="-4.43802">
        <ele>617.7</ele>
        <time>2023-08-25T14:15:19.000Z</time>
      </trkpt>
      <trkpt lat="34.05358" lon="-4.43827">
        <ele>619.9</ele>
        <time>2023-08-25T14:15:23.000Z</time>
      </trkpt>
      <trkpt lat="34.05377" lon="-4.43851">
        <ele>621.5</ele>
        <time>2023-08-25T14:15:27.000Z</time>
      </trkpt>
      <trkpt lat="34.05392" lon="-4.43869">
        <ele>623.2</ele>
        <time>2023-08-25T14:15:30.000Z</time>
      </trkpt>
      <trkpt lat="34.05411" lon="-4.43894">
        <ele>625</ele>
        <time>2023-08-25T14:15:34.000Z</time>
      </trkpt>
      <trkpt lat="34.0543" lon="-4.43917">
        <ele>626.9</ele>
        <time>2023-08-25T14:15:38.000Z</time>
      </trkpt>
      <trkpt lat="34.05445" lon="-4.43935">
        <ele>628.3</ele>
        <time>2023-08-25T14:15:41.000Z</time>
      </trkpt>
      <trkpt lat="34.05467" lon="-4.43956">
        <ele>629.7</ele>
        <time>2023-08-25T14:15:45.000Z</time>
      </trkpt>
      <trkpt lat="34.05492" lon="-4.43973">
        <ele>631</ele>
        <time>2023-08-25T14:15:49.000Z</time>
      </trkpt>
      <trkpt lat="34.05513" lon="-4.43983">
        <ele>632</ele>
        <time>2023-08-25T14:15:52.000Z</time>
      </trkpt>
      <trkpt lat="34.05536" lon="-4.43992">
        <ele>632.5</ele>
        <time>2023-08-25T14:15:55.000Z</time>
      </trkpt>
      <trkpt lat="34.0557" lon="-4.44005">
        <ele>631.8</ele>
        <time>2023-08-25T14:15:59.000Z</time>
      </trkpt>
      <trkpt lat="34.05596" lon="-4.44015">
        <ele>630.7</ele>
        <time>2023-08-25T14:16:02.000Z</time>
      </trkpt>
      <trkpt lat="34.05631" lon="-4.44026">
        <ele>629.3</ele>
        <time>2023-08-25T14:16:06.000Z</time>
      </trkpt>
      <trkpt lat="34.05662" lon="-4.44038">
        <ele>628.4</ele>
        <time>2023-08-25T14:16:10.000Z</time>
      </trkpt>
      <trkpt lat="34.05691" lon="-4.4405">
        <ele>627.4</ele>
        <time>2023-08-25T14:16:14.000Z</time>
      </trkpt>
      <trkpt lat="34.05711" lon="-4.44064">
        <ele>626.6</ele>
        <time>2023-08-25T14:16:17.000Z</time>
      </trkpt>
      <trkpt lat="34.05728" lon="-4.44084">
        <ele>626.1</ele>
        <time>2023-08-25T14:16:20.000Z</time>
      </trkpt>
      <trkpt lat="34.05746" lon="-4.44124">
        <ele>626.4</ele>
        <time>2023-08-25T14:16:24.000Z</time>
      </trkpt>
      <trkpt lat="34.05761" lon="-4.4416">
        <ele>626.5</ele>
        <time>2023-08-25T14:16:28.000Z</time>
      </trkpt>
      <trkpt lat="34.05773" lon="-4.44186">
        <ele>626.8</ele>
        <time>2023-08-25T14:16:31.000Z</time>
      </trkpt>
      <trkpt lat="34.05784" lon="-4.44213">
        <ele>626.8</ele>
        <time>2023-08-25T14:16:34.000Z</time>
      </trkpt>
      <trkpt lat="34.058" lon="-4.44249">
        <ele>626.6</ele>
        <time>2023-08-25T14:16:38.000Z</time>
      </trkpt>
      <trkpt lat="34.05812" lon="-4.44274">
        <ele>626.7</ele>
        <time>2023-08-25T14:16:41.000Z</time>
      </trkpt>
      <trkpt lat="34.05825" lon="-4.443">
        <ele>627.1</ele>
        <time>2023-08-25T14:16:44.000Z</time>
      </trkpt>
      <trkpt lat="34.05842" lon="-4.44333">
        <ele>627.3</ele>
        <time>2023-08-25T14:16:48.000Z</time>
      </trkpt>
      <trkpt lat="34.05861" lon="-4.44366">
        <ele>627</ele>
        <time>2023-08-25T14:16:52.000Z</time>
      </trkpt>
      <trkpt lat="34.05876" lon="-4.44386">
        <ele>627.2</ele>
        <time>2023-08-25T14:16:55.000Z</time>
      </trkpt>
      <trkpt lat="34.059" lon="-4.44408">
        <ele>626.9</ele>
        <time>2023-08-25T14:16:59.000Z</time>
      </trkpt>
      <trkpt lat="34.05922" lon="-4.44423">
        <ele>627</ele>
        <time>2023-08-25T14:17:02.000Z</time>
      </trkpt>
      <trkpt lat="34.05943" lon="-4.4444">
        <ele>627.1</ele>
        <time>2023-08-25T14:17:05.000Z</time>
      </trkpt>
      <trkpt lat="34.0597" lon="-4.44462">
        <ele>627</ele>
        <time>2023-08-25T14:17:09.000Z</time>
      </trkpt>
      <trkpt lat="34.05991" lon="-4.44481">
        <ele>627.6</ele>
        <time>2023-08-25T14:17:12.000Z</time>
      </trkpt>
      <trkpt lat="34.06019" lon="-4.44502">
        <ele>627.3</ele>
        <time>2023-08-25T14:17:16.000Z</time>
      </trkpt>
      <trkpt lat="34.0604" lon="-4.44517">
        <ele>627</ele>
        <time>2023-08-25T14:17:19.000Z</time>
      </trkpt>
      <trkpt lat="34.0606" lon="-4.44532">
        <ele>626.7</ele>
        <time>2023-08-25T14:17:22.000Z</time>
      </trkpt>
      <trkpt lat="34.06084" lon="-4.44552">
        <ele>625.2</ele>
        <time>2023-08-25T14:17:26.000Z</time>
      </trkpt>
      <trkpt lat="34.06108" lon="-4.44573">
        <ele>626.4</ele>
        <time>2023-08-25T14:17:30.000Z</time>
      </trkpt>
      <trkpt lat="34.06133" lon="-4.44594">
        <ele>624</ele>
        <time>2023-08-25T14:17:34.000Z</time>
      </trkpt>
      <trkpt lat="34.06158" lon="-4.44617">
        <ele>622.7</ele>
        <time>2023-08-25T14:17:38.000Z</time>
      </trkpt>
      <trkpt lat="34.06175" lon="-4.44636">
        <ele>621.6</ele>
        <time>2023-08-25T14:17:41.000Z</time>
      </trkpt>
      <trkpt lat="34.06199" lon="-4.44666">
        <ele>619.7</ele>
        <time>2023-08-25T14:17:45.000Z</time>
      </trkpt>
      <trkpt lat="34.06225" lon="-4.44698">
        <ele>617.8</ele>
        <time>2023-08-25T14:17:49.000Z</time>
      </trkpt>
      <trkpt lat="34.06245" lon="-4.44721">
        <ele>616.5</ele>
        <time>2023-08-25T14:17:52.000Z</time>
      </trkpt>
      <trkpt lat="34.06271" lon="-4.44751">
        <ele>614.5</ele>
        <time>2023-08-25T14:17:56.000Z</time>
      </trkpt>
      <trkpt lat="34.06298" lon="-4.44782">
        <ele>613.6</ele>
        <time>2023-08-25T14:18:00.000Z</time>
      </trkpt>
      <trkpt lat="34.06326" lon="-4.44814">
        <ele>609.5</ele>
        <time>2023-08-25T14:18:04.000Z</time>
      </trkpt>
      <trkpt lat="34.06344" lon="-4.44835">
        <ele>610.6</ele>
        <time>2023-08-25T14:18:07.000Z</time>
      </trkpt>
      <trkpt lat="34.06363" lon="-4.44856">
        <ele>608.2</ele>
        <time>2023-08-25T14:18:10.000Z</time>
      </trkpt>
      <trkpt lat="34.06389" lon="-4.44886">
        <ele>606.8</ele>
        <time>2023-08-25T14:18:14.000Z</time>
      </trkpt>
      <trkpt lat="34.06414" lon="-4.44911">
        <ele>606.2</ele>
        <time>2023-08-25T14:18:18.000Z</time>
      </trkpt>
      <trkpt lat="34.06431" lon="-4.4493">
        <ele>605.5</ele>
        <time>2023-08-25T14:18:21.000Z</time>
      </trkpt>
      <trkpt lat="34.06456" lon="-4.44958">
        <ele>607</ele>
        <time>2023-08-25T14:18:25.000Z</time>
      </trkpt>
      <trkpt lat="34.06481" lon="-4.44986">
        <ele>604.9</ele>
        <time>2023-08-25T14:18:29.000Z</time>
      </trkpt>
      <trkpt lat="34.06506" lon="-4.45011">
        <ele>604.9</ele>
        <time>2023-08-25T14:18:33.000Z</time>
      </trkpt>
      <trkpt lat="34.06524" lon="-4.45031">
        <ele>605.1</ele>
        <time>2023-08-25T14:18:36.000Z</time>
      </trkpt>
      <trkpt lat="34.0654" lon="-4.4505">
        <ele>605.2</ele>
        <time>2023-08-25T14:18:39.000Z</time>
      </trkpt>
      <trkpt lat="34.06557" lon="-4.45069">
        <ele>605.5</ele>
        <time>2023-08-25T14:18:42.000Z</time>
      </trkpt>
      <trkpt lat="34.0658" lon="-4.45096">
        <ele>605.2</ele>
        <time>2023-08-25T14:18:46.000Z</time>
      </trkpt>
      <trkpt lat="34.06604" lon="-4.45122">
        <ele>605.6</ele>
        <time>2023-08-25T14:18:50.000Z</time>
      </trkpt>
      <trkpt lat="34.06628" lon="-4.45149">
        <ele>606.2</ele>
        <time>2023-08-25T14:18:54.000Z</time>
      </trkpt>
      <trkpt lat="34.06651" lon="-4.45175">
        <ele>607.2</ele>
        <time>2023-08-25T14:18:58.000Z</time>
      </trkpt>
      <trkpt lat="34.06675" lon="-4.45201">
        <ele>608.3</ele>
        <time>2023-08-25T14:19:02.000Z</time>
      </trkpt>
      <trkpt lat="34.06698" lon="-4.45227">
        <ele>609.9</ele>
        <time>2023-08-25T14:19:06.000Z</time>
      </trkpt>
      <trkpt lat="34.06719" lon="-4.45251">
        <ele>611.5</ele>
        <time>2023-08-25T14:19:10.000Z</time>
      </trkpt>
      <trkpt lat="34.06732" lon="-4.45266">
        <ele>614.9</ele>
        <time>2023-08-25T14:19:13.000Z</time>
      </trkpt>
      <trkpt lat="34.06748" lon="-4.45283">
        <ele>614.7</ele>
        <time>2023-08-25T14:19:16.000Z</time>
      </trkpt>
      <trkpt lat="34.06769" lon="-4.45305">
        <ele>615.6</ele>
        <time>2023-08-25T14:19:20.000Z</time>
      </trkpt>
      <trkpt lat="34.06782" lon="-4.45321">
        <ele>617</ele>
        <time>2023-08-25T14:19:23.000Z</time>
      </trkpt>
      <trkpt lat="34.06802" lon="-4.45342">
        <ele>618.2</ele>
        <time>2023-08-25T14:19:27.000Z</time>
      </trkpt>
      <trkpt lat="34.06824" lon="-4.45367">
        <ele>620.1</ele>
        <time>2023-08-25T14:19:31.000Z</time>
      </trkpt>
      <trkpt lat="34.06845" lon="-4.45394">
        <ele>621.6</ele>
        <time>2023-08-25T14:19:35.000Z</time>
      </trkpt>
      <trkpt lat="34.06867" lon="-4.45422">
        <ele>621.9</ele>
        <time>2023-08-25T14:19:39.000Z</time>
      </trkpt>
      <trkpt lat="34.06881" lon="-4.45446">
        <ele>621.4</ele>
        <time>2023-08-25T14:19:42.000Z</time>
      </trkpt>
      <trkpt lat="34.06893" lon="-4.4547">
        <ele>620.2</ele>
        <time>2023-08-25T14:19:45.000Z</time>
      </trkpt>
      <trkpt lat="34.06908" lon="-4.45503">
        <ele>616.6</ele>
        <time>2023-08-25T14:19:49.000Z</time>
      </trkpt>
      <trkpt lat="34.0692" lon="-4.45531">
        <ele>616.5</ele>
        <time>2023-08-25T14:19:53.000Z</time>
      </trkpt>
      <trkpt lat="34.06929" lon="-4.45554">
        <ele>614.9</ele>
        <time>2023-08-25T14:19:56.000Z</time>
      </trkpt>
      <trkpt lat="34.06942" lon="-4.45585">
        <ele>610.7</ele>
        <time>2023-08-25T14:20:00.000Z</time>
      </trkpt>
      <trkpt lat="34.06952" lon="-4.45608">
        <ele>609.3</ele>
        <time>2023-08-25T14:20:03.000Z</time>
      </trkpt>
      <trkpt lat="34.06962" lon="-4.45633">
        <ele>606.9</ele>
        <time>2023-08-25T14:20:06.000Z</time>
      </trkpt>
      <trkpt lat="34.06978" lon="-4.45668">
        <ele>603.9</ele>
        <time>2023-08-25T14:20:10.000Z</time>
      </trkpt>
      <trkpt lat="34.0699" lon="-4.45694">
        <ele>601.2</ele>
        <time>2023-08-25T14:20:13.000Z</time>
      </trkpt>
      <trkpt lat="34.07006" lon="-4.45727">
        <ele>600.8</ele>
        <time>2023-08-25T14:20:17.000Z</time>
      </trkpt>
      <trkpt lat="34.07014" lon="-4.45748">
        <ele>600.1</ele>
        <time>2023-08-25T14:20:20.000Z</time>
      </trkpt>
      <trkpt lat="34.07023" lon="-4.4577">
        <ele>598.6</ele>
        <time>2023-08-25T14:20:23.000Z</time>
      </trkpt>
      <trkpt lat="34.07032" lon="-4.45792">
        <ele>597</ele>
        <time>2023-08-25T14:20:26.000Z</time>
      </trkpt>
      <trkpt lat="34.07046" lon="-4.45825">
        <ele>595.8</ele>
        <time>2023-08-25T14:20:30.000Z</time>
      </trkpt>
      <trkpt lat="34.07057" lon="-4.45852">
        <ele>594.3</ele>
        <time>2023-08-25T14:20:33.000Z</time>
      </trkpt>
      <trkpt lat="34.07073" lon="-4.45891">
        <ele>592.2</ele>
        <time>2023-08-25T14:20:37.000Z</time>
      </trkpt>
      <trkpt lat="34.0709" lon="-4.45929">
        <ele>590.2</ele>
        <time>2023-08-25T14:20:41.000Z</time>
      </trkpt>
      <trkpt lat="34.07107" lon="-4.45968">
        <ele>587.9</ele>
        <time>2023-08-25T14:20:45.000Z</time>
      </trkpt>
      <trkpt lat="34.07125" lon="-4.4601">
        <ele>585.2</ele>
        <time>2023-08-25T14:20:49.000Z</time>
      </trkpt>
      <trkpt lat="34.07143" lon="-4.46056">
        <ele>583</ele>
        <time>2023-08-25T14:20:53.000Z</time>
      </trkpt>
      <trkpt lat="34.07158" lon="-4.46091">
        <ele>581.7</ele>
        <time>2023-08-25T14:20:56.000Z</time>
      </trkpt>
      <trkpt lat="34.07177" lon="-4.46137">
        <ele>579.6</ele>
        <time>2023-08-25T14:21:00.000Z</time>
      </trkpt>
      <trkpt lat="34.0719" lon="-4.46167">
        <ele>579</ele>
        <time>2023-08-25T14:21:03.000Z</time>
      </trkpt>
      <trkpt lat="34.07205" lon="-4.46201">
        <ele>577.5</ele>
        <time>2023-08-25T14:21:07.000Z</time>
      </trkpt>
      <trkpt lat="34.07216" lon="-4.46224">
        <ele>576.6</ele>
        <time>2023-08-25T14:21:11.000Z</time>
      </trkpt>
      <trkpt lat="34.07223" lon="-4.46239">
        <ele>576.5</ele>
        <time>2023-08-25T14:21:14.000Z</time>
      </trkpt>
      <trkpt lat="34.07232" lon="-4.46263">
        <ele>576.1</ele>
        <time>2023-08-25T14:21:18.000Z</time>
      </trkpt>
      <trkpt lat="34.07245" lon="-4.46294">
        <ele>575.1</ele>
        <time>2023-08-25T14:21:22.000Z</time>
      </trkpt>
      <trkpt lat="34.0726" lon="-4.46331">
        <ele>574.1</ele>
        <time>2023-08-25T14:21:26.000Z</time>
      </trkpt>
      <trkpt lat="34.07273" lon="-4.46358">
        <ele>573.5</ele>
        <time>2023-08-25T14:21:29.000Z</time>
      </trkpt>
      <trkpt lat="34.07284" lon="-4.46386">
        <ele>572.5</ele>
        <time>2023-08-25T14:21:32.000Z</time>
      </trkpt>
      <trkpt lat="34.073" lon="-4.46422">
        <ele>571.3</ele>
        <time>2023-08-25T14:21:36.000Z</time>
      </trkpt>
      <trkpt lat="34.07316" lon="-4.46457">
        <ele>569.4</ele>
        <time>2023-08-25T14:21:40.000Z</time>
      </trkpt>
      <trkpt lat="34.07332" lon="-4.46496">
        <ele>568.1</ele>
        <time>2023-08-25T14:21:44.000Z</time>
      </trkpt>
      <trkpt lat="34.07349" lon="-4.46539">
        <ele>566.1</ele>
        <time>2023-08-25T14:21:48.000Z</time>
      </trkpt>
      <trkpt lat="34.07367" lon="-4.4658">
        <ele>563.5</ele>
        <time>2023-08-25T14:21:52.000Z</time>
      </trkpt>
      <trkpt lat="34.07384" lon="-4.4662">
        <ele>562.4</ele>
        <time>2023-08-25T14:21:56.000Z</time>
      </trkpt>
      <trkpt lat="34.07397" lon="-4.46648">
        <ele>561.8</ele>
        <time>2023-08-25T14:21:59.000Z</time>
      </trkpt>
      <trkpt lat="34.07408" lon="-4.46675">
        <ele>561.2</ele>
        <time>2023-08-25T14:22:02.000Z</time>
      </trkpt>
      <trkpt lat="34.07419" lon="-4.467">
        <ele>560.1</ele>
        <time>2023-08-25T14:22:05.000Z</time>
      </trkpt>
      <trkpt lat="34.07431" lon="-4.46727">
        <ele>559.4</ele>
        <time>2023-08-25T14:22:08.000Z</time>
      </trkpt>
      <trkpt lat="34.07445" lon="-4.46763">
        <ele>557.8</ele>
        <time>2023-08-25T14:22:12.000Z</time>
      </trkpt>
      <trkpt lat="34.0746" lon="-4.46799">
        <ele>556.4</ele>
        <time>2023-08-25T14:22:16.000Z</time>
      </trkpt>
      <trkpt lat="34.07474" lon="-4.46833">
        <ele>555.7</ele>
        <time>2023-08-25T14:22:20.000Z</time>
      </trkpt>
      <trkpt lat="34.07486" lon="-4.4686">
        <ele>554.7</ele>
        <time>2023-08-25T14:22:23.000Z</time>
      </trkpt>
      <trkpt lat="34.07497" lon="-4.46887">
        <ele>553.8</ele>
        <time>2023-08-25T14:22:26.000Z</time>
      </trkpt>
      <trkpt lat="34.07513" lon="-4.46922">
        <ele>553</ele>
        <time>2023-08-25T14:22:30.000Z</time>
      </trkpt>
      <trkpt lat="34.07528" lon="-4.46957">
        <ele>552.2</ele>
        <time>2023-08-25T14:22:34.000Z</time>
      </trkpt>
      <trkpt lat="34.07538" lon="-4.46984">
        <ele>551.7</ele>
        <time>2023-08-25T14:22:37.000Z</time>
      </trkpt>
      <trkpt lat="34.0755" lon="-4.47011">
        <ele>551.1</ele>
        <time>2023-08-25T14:22:40.000Z</time>
      </trkpt>
      <trkpt lat="34.07565" lon="-4.47045">
        <ele>550.4</ele>
        <time>2023-08-25T14:22:44.000Z</time>
      </trkpt>
      <trkpt lat="34.07577" lon="-4.4707">
        <ele>550.1</ele>
        <time>2023-08-25T14:22:47.000Z</time>
      </trkpt>
      <trkpt lat="34.07599" lon="-4.47101">
        <ele>548.9</ele>
        <time>2023-08-25T14:22:51.000Z</time>
      </trkpt>
      <trkpt lat="34.07623" lon="-4.47131">
        <ele>547.2</ele>
        <time>2023-08-25T14:22:55.000Z</time>
      </trkpt>
      <trkpt lat="34.07641" lon="-4.47154">
        <ele>546.3</ele>
        <time>2023-08-25T14:22:58.000Z</time>
      </trkpt>
      <trkpt lat="34.07667" lon="-4.47185">
        <ele>543.6</ele>
        <time>2023-08-25T14:23:02.000Z</time>
      </trkpt>
      <trkpt lat="34.07686" lon="-4.47209">
        <ele>542.3</ele>
        <time>2023-08-25T14:23:05.000Z</time>
      </trkpt>
      <trkpt lat="34.07706" lon="-4.47233">
        <ele>541.1</ele>
        <time>2023-08-25T14:23:08.000Z</time>
      </trkpt>
      <trkpt lat="34.07736" lon="-4.47262">
        <ele>539.7</ele>
        <time>2023-08-25T14:23:12.000Z</time>
      </trkpt>
      <trkpt lat="34.07759" lon="-4.47282">
        <ele>538.6</ele>
        <time>2023-08-25T14:23:15.000Z</time>
      </trkpt>
      <trkpt lat="34.07788" lon="-4.47306">
        <ele>536.7</ele>
        <time>2023-08-25T14:23:19.000Z</time>
      </trkpt>
      <trkpt lat="34.07818" lon="-4.4733">
        <ele>534.6</ele>
        <time>2023-08-25T14:23:23.000Z</time>
      </trkpt>
      <trkpt lat="34.07839" lon="-4.47348">
        <ele>532.8</ele>
        <time>2023-08-25T14:23:26.000Z</time>
      </trkpt>
      <trkpt lat="34.0787" lon="-4.47373">
        <ele>531.7</ele>
        <time>2023-08-25T14:23:30.000Z</time>
      </trkpt>
      <trkpt lat="34.07893" lon="-4.47389">
        <ele>530.3</ele>
        <time>2023-08-25T14:23:33.000Z</time>
      </trkpt>
      <trkpt lat="34.07917" lon="-4.47402">
        <ele>529</ele>
        <time>2023-08-25T14:23:36.000Z</time>
      </trkpt>
      <trkpt lat="34.07943" lon="-4.47414">
        <ele>527.5</ele>
        <time>2023-08-25T14:23:39.000Z</time>
      </trkpt>
      <trkpt lat="34.07975" lon="-4.4743">
        <ele>525.2</ele>
        <time>2023-08-25T14:23:43.000Z</time>
      </trkpt>
      <trkpt lat="34.08001" lon="-4.47442">
        <ele>523.7</ele>
        <time>2023-08-25T14:23:46.000Z</time>
      </trkpt>
      <trkpt lat="34.08038" lon="-4.47461">
        <ele>521</ele>
        <time>2023-08-25T14:23:50.000Z</time>
      </trkpt>
      <trkpt lat="34.08061" lon="-4.47472">
        <ele>518.5</ele>
        <time>2023-08-25T14:23:53.000Z</time>
      </trkpt>
      <trkpt lat="34.08072" lon="-4.47477">
        <ele>518.5</ele>
        <time>2023-08-25T14:23:57.000Z</time>
      </trkpt>
      <trkpt lat="34.08086" lon="-4.47483">
        <ele>517.5</ele>
        <time>2023-08-25T14:24:01.000Z</time>
      </trkpt>
      <trkpt lat="34.08112" lon="-4.47487">
        <ele>516.3</ele>
        <time>2023-08-25T14:24:05.000Z</time>
      </trkpt>
      <trkpt lat="34.08137" lon="-4.47488">
        <ele>515</ele>
        <time>2023-08-25T14:24:08.000Z</time>
      </trkpt>
      <trkpt lat="34.08164" lon="-4.47486">
        <ele>514</ele>
        <time>2023-08-25T14:24:11.000Z</time>
      </trkpt>
      <trkpt lat="34.082" lon="-4.47484">
        <ele>512.6</ele>
        <time>2023-08-25T14:24:15.000Z</time>
      </trkpt>
      <trkpt lat="34.08235" lon="-4.47483">
        <ele>512.2</ele>
        <time>2023-08-25T14:24:19.000Z</time>
      </trkpt>
      <trkpt lat="34.08267" lon="-4.47482">
        <ele>512.2</ele>
        <time>2023-08-25T14:24:23.000Z</time>
      </trkpt>
      <trkpt lat="34.083" lon="-4.47482">
        <ele>511.4</ele>
        <time>2023-08-25T14:24:27.000Z</time>
      </trkpt>
      <trkpt lat="34.08327" lon="-4.47482">
        <ele>511.6</ele>
        <time>2023-08-25T14:24:30.000Z</time>
      </trkpt>
      <trkpt lat="34.0836" lon="-4.47481">
        <ele>509.5</ele>
        <time>2023-08-25T14:24:34.000Z</time>
      </trkpt>
      <trkpt lat="34.08394" lon="-4.47481">
        <ele>509.9</ele>
        <time>2023-08-25T14:24:38.000Z</time>
      </trkpt>
      <trkpt lat="34.08426" lon="-4.47481">
        <ele>506.8</ele>
        <time>2023-08-25T14:24:42.000Z</time>
      </trkpt>
      <trkpt lat="34.08448" lon="-4.4748">
        <ele>507.3</ele>
        <time>2023-08-25T14:24:45.000Z</time>
      </trkpt>
      <trkpt lat="34.08478" lon="-4.47481">
        <ele>505.1</ele>
        <time>2023-08-25T14:24:49.000Z</time>
      </trkpt>
      <trkpt lat="34.085" lon="-4.47485">
        <ele>503.6</ele>
        <time>2023-08-25T14:24:52.000Z</time>
      </trkpt>
      <trkpt lat="34.0853" lon="-4.475">
        <ele>503.6</ele>
        <time>2023-08-25T14:24:56.000Z</time>
      </trkpt>
      <trkpt lat="34.08555" lon="-4.47521">
        <ele>500.4</ele>
        <time>2023-08-25T14:25:00.000Z</time>
      </trkpt>
      <trkpt lat="34.08568" lon="-4.47538">
        <ele>499.2</ele>
        <time>2023-08-25T14:25:03.000Z</time>
      </trkpt>
      <trkpt lat="34.08579" lon="-4.47554">
        <ele>497.3</ele>
        <time>2023-08-25T14:25:07.000Z</time>
      </trkpt>
      <trkpt lat="34.08584" lon="-4.47562">
        <ele>496.9</ele>
        <time>2023-08-25T14:25:10.000Z</time>
      </trkpt>
      <trkpt lat="34.08586" lon="-4.47584">
        <ele>498.2</ele>
        <time>2023-08-25T14:25:14.000Z</time>
      </trkpt>
      <trkpt lat="34.0858" lon="-4.47605">
        <ele>498.7</ele>
        <time>2023-08-25T14:25:17.000Z</time>
      </trkpt>
      <trkpt lat="34.08571" lon="-4.47635">
        <ele>499.3</ele>
        <time>2023-08-25T14:25:21.000Z</time>
      </trkpt>
      <trkpt lat="34.08562" lon="-4.47673">
        <ele>500.8</ele>
        <time>2023-08-25T14:25:25.000Z</time>
      </trkpt>
      <trkpt lat="34.08556" lon="-4.47711">
        <ele>500.2</ele>
        <time>2023-08-25T14:25:29.000Z</time>
      </trkpt>
      <trkpt lat="34.0855" lon="-4.47747">
        <ele>500.3</ele>
        <time>2023-08-25T14:25:33.000Z</time>
      </trkpt>
      <trkpt lat="34.08545" lon="-4.47776">
        <ele>500.3</ele>
        <time>2023-08-25T14:25:36.000Z</time>
      </trkpt>
      <trkpt lat="34.08538" lon="-4.47815">
        <ele>500.6</ele>
        <time>2023-08-25T14:25:40.000Z</time>
      </trkpt>
      <trkpt lat="34.08534" lon="-4.47844">
        <ele>502.7</ele>
        <time>2023-08-25T14:25:43.000Z</time>
      </trkpt>
      <trkpt lat="34.08528" lon="-4.47881">
        <ele>502.9</ele>
        <time>2023-08-25T14:25:47.000Z</time>
      </trkpt>
      <trkpt lat="34.08521" lon="-4.47919">
        <ele>501.8</ele>
        <time>2023-08-25T14:25:51.000Z</time>
      </trkpt>
      <trkpt lat="34.08516" lon="-4.47958">
        <ele>504.4</ele>
        <time>2023-08-25T14:25:55.000Z</time>
      </trkpt>
      <trkpt lat="34.0851" lon="-4.47994">
        <ele>502.9</ele>
        <time>2023-08-25T14:25:59.000Z</time>
      </trkpt>
      <trkpt lat="34.08506" lon="-4.48023">
        <ele>501.8</ele>
        <time>2023-08-25T14:26:02.000Z</time>
      </trkpt>
      <trkpt lat="34.08498" lon="-4.48062">
        <ele>501.9</ele>
        <time>2023-08-25T14:26:06.000Z</time>
      </trkpt>
      <trkpt lat="34.08488" lon="-4.48089">
        <ele>501.5</ele>
        <time>2023-08-25T14:26:09.000Z</time>
      </trkpt>
      <trkpt lat="34.08471" lon="-4.48124">
        <ele>500.2</ele>
        <time>2023-08-25T14:26:13.000Z</time>
      </trkpt>
      <trkpt lat="34.08457" lon="-4.48159">
        <ele>499.5</ele>
        <time>2023-08-25T14:26:17.000Z</time>
      </trkpt>
      <trkpt lat="34.08446" lon="-4.48184">
        <ele>499.2</ele>
        <time>2023-08-25T14:26:20.000Z</time>
      </trkpt>
      <trkpt lat="34.08436" lon="-4.48211">
        <ele>500.1</ele>
        <time>2023-08-25T14:26:24.000Z</time>
      </trkpt>
      <trkpt lat="34.08434" lon="-4.48221">
        <ele>499.5</ele>
        <time>2023-08-25T14:26:27.000Z</time>
      </trkpt>
      <trkpt lat="34.08434" lon="-4.48245">
        <ele>499</ele>
        <time>2023-08-25T14:26:30.000Z</time>
      </trkpt>
      <trkpt lat="34.08436" lon="-4.48281">
        <ele>497.2</ele>
        <time>2023-08-25T14:26:34.000Z</time>
      </trkpt>
      <trkpt lat="34.08437" lon="-4.48316">
        <ele>496.5</ele>
        <time>2023-08-25T14:26:38.000Z</time>
      </trkpt>
      <trkpt lat="34.08438" lon="-4.48342">
        <ele>494.6</ele>
        <time>2023-08-25T14:26:41.000Z</time>
      </trkpt>
      <trkpt lat="34.08438" lon="-4.48375">
        <ele>493.4</ele>
        <time>2023-08-25T14:26:45.000Z</time>
      </trkpt>
      <trkpt lat="34.08437" lon="-4.484">
        <ele>491.4</ele>
        <time>2023-08-25T14:26:48.000Z</time>
      </trkpt>
      <trkpt lat="34.08437" lon="-4.48426">
        <ele>490.7</ele>
        <time>2023-08-25T14:26:51.000Z</time>
      </trkpt>
      <trkpt lat="34.08436" lon="-4.48455">
        <ele>490.5</ele>
        <time>2023-08-25T14:26:54.000Z</time>
      </trkpt>
      <trkpt lat="34.0843" lon="-4.48489">
        <ele>491.1</ele>
        <time>2023-08-25T14:26:58.000Z</time>
      </trkpt>
      <trkpt lat="34.08417" lon="-4.48515">
        <ele>490.1</ele>
        <time>2023-08-25T14:27:01.000Z</time>
      </trkpt>
      <trkpt lat="34.08399" lon="-4.48549">
        <ele>491.7</ele>
        <time>2023-08-25T14:27:05.000Z</time>
      </trkpt>
      <trkpt lat="34.08377" lon="-4.48579">
        <ele>491.2</ele>
        <time>2023-08-25T14:27:09.000Z</time>
      </trkpt>
      <trkpt lat="34.08362" lon="-4.48603">
        <ele>491.1</ele>
        <time>2023-08-25T14:27:12.000Z</time>
      </trkpt>
      <trkpt lat="34.08345" lon="-4.48626">
        <ele>490.2</ele>
        <time>2023-08-25T14:27:15.000Z</time>
      </trkpt>
      <trkpt lat="34.08321" lon="-4.48651">
        <ele>492.7</ele>
        <time>2023-08-25T14:27:19.000Z</time>
      </trkpt>
      <trkpt lat="34.08294" lon="-4.48671">
        <ele>493.1</ele>
        <time>2023-08-25T14:27:23.000Z</time>
      </trkpt>
      <trkpt lat="34.08272" lon="-4.48687">
        <ele>494.6</ele>
        <time>2023-08-25T14:27:26.000Z</time>
      </trkpt>
      <trkpt lat="34.08245" lon="-4.48707">
        <ele>495.3</ele>
        <time>2023-08-25T14:27:30.000Z</time>
      </trkpt>
      <trkpt lat="34.08225" lon="-4.48722">
        <ele>496.5</ele>
        <time>2023-08-25T14:27:33.000Z</time>
      </trkpt>
      <trkpt lat="34.08207" lon="-4.48736">
        <ele>494.8</ele>
        <time>2023-08-25T14:27:36.000Z</time>
      </trkpt>
      <trkpt lat="34.08189" lon="-4.48752">
        <ele>496</ele>
        <time>2023-08-25T14:27:39.000Z</time>
      </trkpt>
      <trkpt lat="34.08171" lon="-4.48779">
        <ele>493.2</ele>
        <time>2023-08-25T14:27:43.000Z</time>
      </trkpt>
      <trkpt lat="34.08165" lon="-4.48808">
        <ele>494</ele>
        <time>2023-08-25T14:27:46.000Z</time>
      </trkpt>
      <trkpt lat="34.08174" lon="-4.4884">
        <ele>494.1</ele>
        <time>2023-08-25T14:27:50.000Z</time>
      </trkpt>
      <trkpt lat="34.0819" lon="-4.48857">
        <ele>494.1</ele>
        <time>2023-08-25T14:27:53.000Z</time>
      </trkpt>
      <trkpt lat="34.08207" lon="-4.48873">
        <ele>492.4</ele>
        <time>2023-08-25T14:27:56.000Z</time>
      </trkpt>
      <trkpt lat="34.08234" lon="-4.48895">
        <ele>493.5</ele>
        <time>2023-08-25T14:28:00.000Z</time>
      </trkpt>
      <trkpt lat="34.08255" lon="-4.48913">
        <ele>491.1</ele>
        <time>2023-08-25T14:28:03.000Z</time>
      </trkpt>
      <trkpt lat="34.08281" lon="-4.48948">
        <ele>491.2</ele>
        <time>2023-08-25T14:28:07.000Z</time>
      </trkpt>
      <trkpt lat="34.08291" lon="-4.48976">
        <ele>490.1</ele>
        <time>2023-08-25T14:28:10.000Z</time>
      </trkpt>
      <trkpt lat="34.08287" lon="-4.49011">
        <ele>490.2</ele>
        <time>2023-08-25T14:28:14.000Z</time>
      </trkpt>
      <trkpt lat="34.08271" lon="-4.49036">
        <ele>489.6</ele>
        <time>2023-08-25T14:28:17.000Z</time>
      </trkpt>
      <trkpt lat="34.08251" lon="-4.49067">
        <ele>489.5</ele>
        <time>2023-08-25T14:28:21.000Z</time>
      </trkpt>
      <trkpt lat="34.08239" lon="-4.49092">
        <ele>489.6</ele>
        <time>2023-08-25T14:28:24.000Z</time>
      </trkpt>
      <trkpt lat="34.08228" lon="-4.49127">
        <ele>487.9</ele>
        <time>2023-08-25T14:28:28.000Z</time>
      </trkpt>
      <trkpt lat="34.08223" lon="-4.4915">
        <ele>487.9</ele>
        <time>2023-08-25T14:28:31.000Z</time>
      </trkpt>
      <trkpt lat="34.08217" lon="-4.49179">
        <ele>488.9</ele>
        <time>2023-08-25T14:28:35.000Z</time>
      </trkpt>
      <trkpt lat="34.08213" lon="-4.49198">
        <ele>486.9</ele>
        <time>2023-08-25T14:28:38.000Z</time>
      </trkpt>
      <trkpt lat="34.08207" lon="-4.49225">
        <ele>487</ele>
        <time>2023-08-25T14:28:42.000Z</time>
      </trkpt>
      <trkpt lat="34.08201" lon="-4.49249">
        <ele>488.3</ele>
        <time>2023-08-25T14:28:45.000Z</time>
      </trkpt>
      <trkpt lat="34.08193" lon="-4.49286">
        <ele>488</ele>
        <time>2023-08-25T14:28:49.000Z</time>
      </trkpt>
      <trkpt lat="34.08185" lon="-4.49313">
        <ele>488</ele>
        <time>2023-08-25T14:28:52.000Z</time>
      </trkpt>
      <trkpt lat="34.08178" lon="-4.4935">
        <ele>485</ele>
        <time>2023-08-25T14:28:56.000Z</time>
      </trkpt>
      <trkpt lat="34.0817" lon="-4.49386">
        <ele>484.5</ele>
        <time>2023-08-25T14:29:00.000Z</time>
      </trkpt>
      <trkpt lat="34.08164" lon="-4.49413">
        <ele>485.4</ele>
        <time>2023-08-25T14:29:03.000Z</time>
      </trkpt>
      <trkpt lat="34.08155" lon="-4.49448">
        <ele>483.5</ele>
        <time>2023-08-25T14:29:07.000Z</time>
      </trkpt>
      <trkpt lat="34.0815" lon="-4.49473">
        <ele>482.6</ele>
        <time>2023-08-25T14:29:10.000Z</time>
      </trkpt>
      <trkpt lat="34.08141" lon="-4.49508">
        <ele>482.9</ele>
        <time>2023-08-25T14:29:14.000Z</time>
      </trkpt>
      <trkpt lat="34.08134" lon="-4.49545">
        <ele>482.7</ele>
        <time>2023-08-25T14:29:18.000Z</time>
      </trkpt>
      <trkpt lat="34.0813" lon="-4.4957">
        <ele>482.4</ele>
        <time>2023-08-25T14:29:21.000Z</time>
      </trkpt>
      <trkpt lat="34.08126" lon="-4.496">
        <ele>480.5</ele>
        <time>2023-08-25T14:29:24.000Z</time>
      </trkpt>
      <trkpt lat="34.08127" lon="-4.4964">
        <ele>477.7</ele>
        <time>2023-08-25T14:29:28.000Z</time>
      </trkpt>
      <trkpt lat="34.08132" lon="-4.49676">
        <ele>477.2</ele>
        <time>2023-08-25T14:29:32.000Z</time>
      </trkpt>
      <trkpt lat="34.08138" lon="-4.49703">
        <ele>477.3</ele>
        <time>2023-08-25T14:29:35.000Z</time>
      </trkpt>
      <trkpt lat="34.08149" lon="-4.49739">
        <ele>477.4</ele>
        <time>2023-08-25T14:29:39.000Z</time>
      </trkpt>
      <trkpt lat="34.0816" lon="-4.49774">
        <ele>477.8</ele>
        <time>2023-08-25T14:29:43.000Z</time>
      </trkpt>
      <trkpt lat="34.08167" lon="-4.49799">
        <ele>475.6</ele>
        <time>2023-08-25T14:29:46.000Z</time>
      </trkpt>
      <trkpt lat="34.08175" lon="-4.49832">
        <ele>475.9</ele>
        <time>2023-08-25T14:29:50.000Z</time>
      </trkpt>
      <trkpt lat="34.08182" lon="-4.49858">
        <ele>474.1</ele>
        <time>2023-08-25T14:29:53.000Z</time>
      </trkpt>
      <trkpt lat="34.08189" lon="-4.49892">
        <ele>470.9</ele>
        <time>2023-08-25T14:29:57.000Z</time>
      </trkpt>
      <trkpt lat="34.08197" lon="-4.49919">
        <ele>470.3</ele>
        <time>2023-08-25T14:30:00.000Z</time>
      </trkpt>
      <trkpt lat="34.08205" lon="-4.4995">
        <ele>469</ele>
        <time>2023-08-25T14:30:04.000Z</time>
      </trkpt>
      <trkpt lat="34.08212" lon="-4.49974">
        <ele>468.1</ele>
        <time>2023-08-25T14:30:07.000Z</time>
      </trkpt>
      <trkpt lat="34.08221" lon="-4.50003">
        <ele>468</ele>
        <time>2023-08-25T14:30:11.000Z</time>
      </trkpt>
      <trkpt lat="34.08227" lon="-4.50024">
        <ele>467.1</ele>
        <time>2023-08-25T14:30:14.000Z</time>
      </trkpt>
      <trkpt lat="34.08236" lon="-4.50053">
        <ele>467.2</ele>
        <time>2023-08-25T14:30:18.000Z</time>
      </trkpt>
      <trkpt lat="34.08243" lon="-4.50075">
        <ele>465.3</ele>
        <time>2023-08-25T14:30:21.000Z</time>
      </trkpt>
      <trkpt lat="34.08248" lon="-4.50091">
        <ele>463.5</ele>
        <time>2023-08-25T14:30:24.000Z</time>
      </trkpt>
      <trkpt lat="34.08251" lon="-4.501">
        <ele>462.8</ele>
        <time>2023-08-25T14:30:28.000Z</time>
      </trkpt>
      <trkpt lat="34.08258" lon="-4.50121">
        <ele>462.6</ele>
        <time>2023-08-25T14:30:32.000Z</time>
      </trkpt>
      <trkpt lat="34.08266" lon="-4.50153">
        <ele>461.6</ele>
        <time>2023-08-25T14:30:36.000Z</time>
      </trkpt>
      <trkpt lat="34.08272" lon="-4.50176">
        <ele>462.3</ele>
        <time>2023-08-25T14:30:39.000Z</time>
      </trkpt>
      <trkpt lat="34.08284" lon="-4.50206">
        <ele>460.5</ele>
        <time>2023-08-25T14:30:43.000Z</time>
      </trkpt>
      <trkpt lat="34.08288" lon="-4.50225">
        <ele>459.5</ele>
        <time>2023-08-25T14:30:46.000Z</time>
      </trkpt>
      <trkpt lat="34.08289" lon="-4.50251">
        <ele>460.6</ele>
        <time>2023-08-25T14:30:50.000Z</time>
      </trkpt>
      <trkpt lat="34.08288" lon="-4.50285">
        <ele>458.2</ele>
        <time>2023-08-25T14:30:54.000Z</time>
      </trkpt>
      <trkpt lat="34.08286" lon="-4.50313">
        <ele>458.4</ele>
        <time>2023-08-25T14:30:57.000Z</time>
      </trkpt>
      <trkpt lat="34.08282" lon="-4.50339">
        <ele>457.5</ele>
        <time>2023-08-25T14:31:00.000Z</time>
      </trkpt>
      <trkpt lat="34.08279" lon="-4.50365">
        <ele>458</ele>
        <time>2023-08-25T14:31:03.000Z</time>
      </trkpt>
      <trkpt lat="34.08276" lon="-4.50398">
        <ele>456.3</ele>
        <time>2023-08-25T14:31:07.000Z</time>
      </trkpt>
      <trkpt lat="34.08275" lon="-4.50421">
        <ele>456.3</ele>
        <time>2023-08-25T14:31:10.000Z</time>
      </trkpt>
      <trkpt lat="34.08273" lon="-4.50446">
        <ele>456.1</ele>
        <time>2023-08-25T14:31:13.000Z</time>
      </trkpt>
      <trkpt lat="34.08272" lon="-4.50481">
        <ele>455</ele>
        <time>2023-08-25T14:31:17.000Z</time>
      </trkpt>
      <trkpt lat="34.08269" lon="-4.50515">
        <ele>453.7</ele>
        <time>2023-08-25T14:31:21.000Z</time>
      </trkpt>
      <trkpt lat="34.08266" lon="-4.5054">
        <ele>453</ele>
        <time>2023-08-25T14:31:24.000Z</time>
      </trkpt>
      <trkpt lat="34.08263" lon="-4.50566">
        <ele>452.5</ele>
        <time>2023-08-25T14:31:27.000Z</time>
      </trkpt>
      <trkpt lat="34.08261" lon="-4.50591">
        <ele>451.4</ele>
        <time>2023-08-25T14:31:30.000Z</time>
      </trkpt>
      <trkpt lat="34.08257" lon="-4.50623">
        <ele>449.8</ele>
        <time>2023-08-25T14:31:34.000Z</time>
      </trkpt>
      <trkpt lat="34.08253" lon="-4.50648">
        <ele>447.5</ele>
        <time>2023-08-25T14:31:37.000Z</time>
      </trkpt>
      <trkpt lat="34.08249" lon="-4.50684">
        <ele>446.5</ele>
        <time>2023-08-25T14:31:41.000Z</time>
      </trkpt>
      <trkpt lat="34.08245" lon="-4.50708">
        <ele>444.6</ele>
        <time>2023-08-25T14:31:44.000Z</time>
      </trkpt>
      <trkpt lat="34.0824" lon="-4.50738">
        <ele>442.2</ele>
        <time>2023-08-25T14:31:48.000Z</time>
      </trkpt>
      <trkpt lat="34.08234" lon="-4.50772">
        <ele>441.5</ele>
        <time>2023-08-25T14:31:52.000Z</time>
      </trkpt>
      <trkpt lat="34.08231" lon="-4.50794">
        <ele>440.1</ele>
        <time>2023-08-25T14:31:55.000Z</time>
      </trkpt>
      <trkpt lat="34.08229" lon="-4.50826">
        <ele>438.9</ele>
        <time>2023-08-25T14:31:59.000Z</time>
      </trkpt>
      <trkpt lat="34.0823" lon="-4.50858">
        <ele>437.1</ele>
        <time>2023-08-25T14:32:03.000Z</time>
      </trkpt>
      <trkpt lat="34.08235" lon="-4.50879">
        <ele>435.3</ele>
        <time>2023-08-25T14:32:06.000Z</time>
      </trkpt>
      <trkpt lat="34.08242" lon="-4.50902">
        <ele>433.8</ele>
        <time>2023-08-25T14:32:10.000Z</time>
      </trkpt>
      <trkpt lat="34.08253" lon="-4.50926">
        <ele>431.9</ele>
        <time>2023-08-25T14:32:14.000Z</time>
      </trkpt>
      <trkpt lat="34.0827" lon="-4.50947">
        <ele>428.1</ele>
        <time>2023-08-25T14:32:18.000Z</time>
      </trkpt>
      <trkpt lat="34.08286" lon="-4.5096">
        <ele>427</ele>
        <time>2023-08-25T14:32:21.000Z</time>
      </trkpt>
      <trkpt lat="34.08306" lon="-4.50974">
        <ele>423.6</ele>
        <time>2023-08-25T14:32:24.000Z</time>
      </trkpt>
      <trkpt lat="34.0833" lon="-4.50987">
        <ele>421.4</ele>
        <time>2023-08-25T14:32:28.000Z</time>
      </trkpt>
      <trkpt lat="34.08353" lon="-4.51">
        <ele>418.6</ele>
        <time>2023-08-25T14:32:32.000Z</time>
      </trkpt>
      <trkpt lat="34.08368" lon="-4.51012">
        <ele>415</ele>
        <time>2023-08-25T14:32:36.000Z</time>
      </trkpt>
      <trkpt lat="34.08368" lon="-4.51013">
        <ele>414.8</ele>
        <time>2023-08-25T14:32:40.000Z</time>
      </trkpt>
      <trkpt lat="34.08376" lon="-4.51026">
        <ele>413.8</ele>
        <time>2023-08-25T14:32:44.000Z</time>
      </trkpt>
      <trkpt lat="34.08391" lon="-4.51058">
        <ele>412</ele>
        <time>2023-08-25T14:32:48.000Z</time>
      </trkpt>
      <trkpt lat="34.08406" lon="-4.51088">
        <ele>409.9</ele>
        <time>2023-08-25T14:32:52.000Z</time>
      </trkpt>
      <trkpt lat="34.0842" lon="-4.51107">
        <ele>408.4</ele>
        <time>2023-08-25T14:32:55.000Z</time>
      </trkpt>
      <trkpt lat="34.08434" lon="-4.51122">
        <ele>408.2</ele>
        <time>2023-08-25T14:32:58.000Z</time>
      </trkpt>
      <trkpt lat="34.0845" lon="-4.51138">
        <ele>407.1</ele>
        <time>2023-08-25T14:33:02.000Z</time>
      </trkpt>
      <trkpt lat="34.08456" lon="-4.51153">
        <ele>406</ele>
        <time>2023-08-25T14:33:05.000Z</time>
      </trkpt>
      <trkpt lat="34.08451" lon="-4.51185">
        <ele>404</ele>
        <time>2023-08-25T14:33:09.000Z</time>
      </trkpt>
      <trkpt lat="34.08443" lon="-4.5121">
        <ele>402.9</ele>
        <time>2023-08-25T14:33:12.000Z</time>
      </trkpt>
      <trkpt lat="34.08432" lon="-4.51244">
        <ele>401.2</ele>
        <time>2023-08-25T14:33:16.000Z</time>
      </trkpt>
      <trkpt lat="34.08424" lon="-4.5127">
        <ele>400.5</ele>
        <time>2023-08-25T14:33:19.000Z</time>
      </trkpt>
      <trkpt lat="34.08415" lon="-4.51296">
        <ele>398</ele>
        <time>2023-08-25T14:33:22.000Z</time>
      </trkpt>
      <trkpt lat="34.08403" lon="-4.51329">
        <ele>396.4</ele>
        <time>2023-08-25T14:33:26.000Z</time>
      </trkpt>
      <trkpt lat="34.08392" lon="-4.5136">
        <ele>395.7</ele>
        <time>2023-08-25T14:33:30.000Z</time>
      </trkpt>
      <trkpt lat="34.08386" lon="-4.51386">
        <ele>394.1</ele>
        <time>2023-08-25T14:33:33.000Z</time>
      </trkpt>
      <trkpt lat="34.08385" lon="-4.51413">
        <ele>392.4</ele>
        <time>2023-08-25T14:33:36.000Z</time>
      </trkpt>
      <trkpt lat="34.08387" lon="-4.51448">
        <ele>389.7</ele>
        <time>2023-08-25T14:33:40.000Z</time>
      </trkpt>
      <trkpt lat="34.0839" lon="-4.51477">
        <ele>388.1</ele>
        <time>2023-08-25T14:33:44.000Z</time>
      </trkpt>
      <trkpt lat="34.08393" lon="-4.51493">
        <ele>386.3</ele>
        <time>2023-08-25T14:33:47.000Z</time>
      </trkpt>
      <trkpt lat="34.08394" lon="-4.51512">
        <ele>384</ele>
        <time>2023-08-25T14:33:51.000Z</time>
      </trkpt>
      <trkpt lat="34.08395" lon="-4.51538">
        <ele>382.7</ele>
        <time>2023-08-25T14:33:55.000Z</time>
      </trkpt>
      <trkpt lat="34.084" lon="-4.51566">
        <ele>381.5</ele>
        <time>2023-08-25T14:33:59.000Z</time>
      </trkpt>
      <trkpt lat="34.08407" lon="-4.51589">
        <ele>380.2</ele>
        <time>2023-08-25T14:34:02.000Z</time>
      </trkpt>
      <trkpt lat="34.08419" lon="-4.51623">
        <ele>378.2</ele>
        <time>2023-08-25T14:34:06.000Z</time>
      </trkpt>
      <trkpt lat="34.08432" lon="-4.51646">
        <ele>375.9</ele>
        <time>2023-08-25T14:34:09.000Z</time>
      </trkpt>
      <trkpt lat="34.08443" lon="-4.51667">
        <ele>374.8</ele>
        <time>2023-08-25T14:34:12.000Z</time>
      </trkpt>
      <trkpt lat="34.08453" lon="-4.51687">
        <ele>373.4</ele>
        <time>2023-08-25T14:34:15.000Z</time>
      </trkpt>
      <trkpt lat="34.08468" lon="-4.51719">
        <ele>371.2</ele>
        <time>2023-08-25T14:34:19.000Z</time>
      </trkpt>
      <trkpt lat="34.0848" lon="-4.51745">
        <ele>369.9</ele>
        <time>2023-08-25T14:34:22.000Z</time>
      </trkpt>
      <trkpt lat="34.08496" lon="-4.51779">
        <ele>368.1</ele>
        <time>2023-08-25T14:34:26.000Z</time>
      </trkpt>
      <trkpt lat="34.08509" lon="-4.5181">
        <ele>366.3</ele>
        <time>2023-08-25T14:34:30.000Z</time>
      </trkpt>
      <trkpt lat="34.08523" lon="-4.5184">
        <ele>364.9</ele>
        <time>2023-08-25T14:34:34.000Z</time>
      </trkpt>
      <trkpt lat="34.08533" lon="-4.51864">
        <ele>363.4</ele>
        <time>2023-08-25T14:34:37.000Z</time>
      </trkpt>
      <trkpt lat="34.08547" lon="-4.51894">
        <ele>358.7</ele>
        <time>2023-08-25T14:34:41.000Z</time>
      </trkpt>
      <trkpt lat="34.08557" lon="-4.51915">
        <ele>359</ele>
        <time>2023-08-25T14:34:44.000Z</time>
      </trkpt>
      <trkpt lat="34.08569" lon="-4.51936">
        <ele>355.4</ele>
        <time>2023-08-25T14:34:47.000Z</time>
      </trkpt>
      <trkpt lat="34.08584" lon="-4.51954">
        <ele>354</ele>
        <time>2023-08-25T14:34:50.000Z</time>
      </trkpt>
      <trkpt lat="34.08606" lon="-4.51971">
        <ele>353.1</ele>
        <time>2023-08-25T14:34:54.000Z</time>
      </trkpt>
      <trkpt lat="34.08625" lon="-4.51983">
        <ele>353.1</ele>
        <time>2023-08-25T14:34:57.000Z</time>
      </trkpt>
      <trkpt lat="34.08653" lon="-4.52001">
        <ele>352.1</ele>
        <time>2023-08-25T14:35:01.000Z</time>
      </trkpt>
      <trkpt lat="34.08674" lon="-4.52017">
        <ele>351.7</ele>
        <time>2023-08-25T14:35:04.000Z</time>
      </trkpt>
      <trkpt lat="34.08702" lon="-4.52036">
        <ele>348.4</ele>
        <time>2023-08-25T14:35:08.000Z</time>
      </trkpt>
      <trkpt lat="34.08729" lon="-4.52055">
        <ele>348</ele>
        <time>2023-08-25T14:35:12.000Z</time>
      </trkpt>
      <trkpt lat="34.08749" lon="-4.5207">
        <ele>348.6</ele>
        <time>2023-08-25T14:35:15.000Z</time>
      </trkpt>
      <trkpt lat="34.08775" lon="-4.52091">
        <ele>350.9</ele>
        <time>2023-08-25T14:35:19.000Z</time>
      </trkpt>
      <trkpt lat="34.08795" lon="-4.52107">
        <ele>351.9</ele>
        <time>2023-08-25T14:35:22.000Z</time>
      </trkpt>
      <trkpt lat="34.08818" lon="-4.52126">
        <ele>353.6</ele>
        <time>2023-08-25T14:35:26.000Z</time>
      </trkpt>
      <trkpt lat="34.08836" lon="-4.52139">
        <ele>353.2</ele>
        <time>2023-08-25T14:35:29.000Z</time>
      </trkpt>
      <trkpt lat="34.08855" lon="-4.52154">
        <ele>353</ele>
        <time>2023-08-25T14:35:32.000Z</time>
      </trkpt>
      <trkpt lat="34.08873" lon="-4.52169">
        <ele>351.6</ele>
        <time>2023-08-25T14:35:36.000Z</time>
      </trkpt>
      <trkpt lat="34.08887" lon="-4.52182">
        <ele>350.6</ele>
        <time>2023-08-25T14:35:39.000Z</time>
      </trkpt>
      <trkpt lat="34.08906" lon="-4.52202">
        <ele>349.7</ele>
        <time>2023-08-25T14:35:43.000Z</time>
      </trkpt>
      <trkpt lat="34.08916" lon="-4.52219">
        <ele>348.7</ele>
        <time>2023-08-25T14:35:46.000Z</time>
      </trkpt>
      <trkpt lat="34.08922" lon="-4.52242">
        <ele>347.9</ele>
        <time>2023-08-25T14:35:49.000Z</time>
      </trkpt>
      <trkpt lat="34.08925" lon="-4.52282">
        <ele>346.5</ele>
        <time>2023-08-25T14:35:53.000Z</time>
      </trkpt>
      <trkpt lat="34.0892" lon="-4.52315">
        <ele>343.2</ele>
        <time>2023-08-25T14:35:57.000Z</time>
      </trkpt>
      <trkpt lat="34.08908" lon="-4.5234">
        <ele>342.6</ele>
        <time>2023-08-25T14:36:01.000Z</time>
      </trkpt>
      <trkpt lat="34.08889" lon="-4.52365">
        <ele>339.5</ele>
        <time>2023-08-25T14:36:05.000Z</time>
      </trkpt>
      <trkpt lat="34.08873" lon="-4.52382">
        <ele>338.8</ele>
        <time>2023-08-25T14:36:08.000Z</time>
      </trkpt>
      <trkpt lat="34.08854" lon="-4.524">
        <ele>338.2</ele>
        <time>2023-08-25T14:36:11.000Z</time>
      </trkpt>
      <trkpt lat="34.0883" lon="-4.52425">
        <ele>336.4</ele>
        <time>2023-08-25T14:36:15.000Z</time>
      </trkpt>
      <trkpt lat="34.08815" lon="-4.52448">
        <ele>335.6</ele>
        <time>2023-08-25T14:36:18.000Z</time>
      </trkpt>
      <trkpt lat="34.08807" lon="-4.5248">
        <ele>334.3</ele>
        <time>2023-08-25T14:36:22.000Z</time>
      </trkpt>
      <trkpt lat="34.08813" lon="-4.52507">
        <ele>334</ele>
        <time>2023-08-25T14:36:25.000Z</time>
      </trkpt>
      <trkpt lat="34.08822" lon="-4.52531">
        <ele>333.4</ele>
        <time>2023-08-25T14:36:28.000Z</time>
      </trkpt>
      <trkpt lat="34.08836" lon="-4.52566">
        <ele>333.4</ele>
        <time>2023-08-25T14:36:32.000Z</time>
      </trkpt>
      <trkpt lat="34.08853" lon="-4.52601">
        <ele>333.8</ele>
        <time>2023-08-25T14:36:36.000Z</time>
      </trkpt>
      <trkpt lat="34.08864" lon="-4.52625">
        <ele>333.3</ele>
        <time>2023-08-25T14:36:39.000Z</time>
      </trkpt>
      <trkpt lat="34.08879" lon="-4.52658">
        <ele>333.4</ele>
        <time>2023-08-25T14:36:43.000Z</time>
      </trkpt>
      <trkpt lat="34.08892" lon="-4.5269">
        <ele>334</ele>
        <time>2023-08-25T14:36:47.000Z</time>
      </trkpt>
      <trkpt lat="34.08901" lon="-4.52713">
        <ele>333.3</ele>
        <time>2023-08-25T14:36:50.000Z</time>
      </trkpt>
      <trkpt lat="34.08915" lon="-4.52744">
        <ele>332.2</ele>
        <time>2023-08-25T14:36:54.000Z</time>
      </trkpt>
      <trkpt lat="34.08928" lon="-4.52768">
        <ele>331.9</ele>
        <time>2023-08-25T14:36:57.000Z</time>
      </trkpt>
      <trkpt lat="34.08943" lon="-4.52805">
        <ele>331.7</ele>
        <time>2023-08-25T14:37:01.000Z</time>
      </trkpt>
      <trkpt lat="34.08956" lon="-4.5284">
        <ele>332.5</ele>
        <time>2023-08-25T14:37:05.000Z</time>
      </trkpt>
      <trkpt lat="34.08965" lon="-4.52865">
        <ele>331.2</ele>
        <time>2023-08-25T14:37:08.000Z</time>
      </trkpt>
      <trkpt lat="34.08974" lon="-4.52889">
        <ele>331.8</ele>
        <time>2023-08-25T14:37:11.000Z</time>
      </trkpt>
      <trkpt lat="34.08987" lon="-4.52923">
        <ele>330.7</ele>
        <time>2023-08-25T14:37:15.000Z</time>
      </trkpt>
      <trkpt lat="34.08996" lon="-4.52951">
        <ele>330.7</ele>
        <time>2023-08-25T14:37:18.000Z</time>
      </trkpt>
      <trkpt lat="34.09008" lon="-4.52986">
        <ele>331.9</ele>
        <time>2023-08-25T14:37:22.000Z</time>
      </trkpt>
      <trkpt lat="34.0902" lon="-4.53024">
        <ele>333.2</ele>
        <time>2023-08-25T14:37:26.000Z</time>
      </trkpt>
      <trkpt lat="34.0903" lon="-4.5305">
        <ele>333.4</ele>
        <time>2023-08-25T14:37:29.000Z</time>
      </trkpt>
      <trkpt lat="34.0904" lon="-4.5308">
        <ele>336.1</ele>
        <time>2023-08-25T14:37:33.000Z</time>
      </trkpt>
      <trkpt lat="34.09045" lon="-4.53111">
        <ele>337.6</ele>
        <time>2023-08-25T14:37:37.000Z</time>
      </trkpt>
      <trkpt lat="34.09045" lon="-4.53147">
        <ele>339.4</ele>
        <time>2023-08-25T14:37:41.000Z</time>
      </trkpt>
      <trkpt lat="34.09046" lon="-4.5318">
        <ele>340.4</ele>
        <time>2023-08-25T14:37:45.000Z</time>
      </trkpt>
      <trkpt lat="34.09049" lon="-4.53239">
        <ele>322.8</ele>
        <time>2023-08-25T14:37:52.000Z</time>
      </trkpt>
      <trkpt lat="34.09051" lon="-4.53259">
        <ele>321.8</ele>
        <time>2023-08-25T14:37:55.000Z</time>
      </trkpt>
      <trkpt lat="34.09054" lon="-4.53296">
        <ele>321.7</ele>
        <time>2023-08-25T14:37:59.000Z</time>
      </trkpt>
      <trkpt lat="34.09056" lon="-4.53323">
        <ele>322.6</ele>
        <time>2023-08-25T14:38:02.000Z</time>
      </trkpt>
      <trkpt lat="34.09056" lon="-4.53356">
        <ele>323.6</ele>
        <time>2023-08-25T14:38:06.000Z</time>
      </trkpt>
      <trkpt lat="34.09057" lon="-4.53379">
        <ele>324.6</ele>
        <time>2023-08-25T14:38:09.000Z</time>
      </trkpt>
      <trkpt lat="34.09058" lon="-4.53404">
        <ele>325.6</ele>
        <time>2023-08-25T14:38:12.000Z</time>
      </trkpt>
      <trkpt lat="34.09059" lon="-4.53439">
        <ele>327.7</ele>
        <time>2023-08-25T14:38:16.000Z</time>
      </trkpt>
      <trkpt lat="34.09066" lon="-4.5347">
        <ele>330</ele>
        <time>2023-08-25T14:38:20.000Z</time>
      </trkpt>
      <trkpt lat="34.09081" lon="-4.53495">
        <ele>332.1</ele>
        <time>2023-08-25T14:38:24.000Z</time>
      </trkpt>
      <trkpt lat="34.09106" lon="-4.53514">
        <ele>333</ele>
        <time>2023-08-25T14:38:28.000Z</time>
      </trkpt>
      <trkpt lat="34.09132" lon="-4.53531">
        <ele>334.1</ele>
        <time>2023-08-25T14:38:32.000Z</time>
      </trkpt>
      <trkpt lat="34.0915" lon="-4.53543">
        <ele>335.1</ele>
        <time>2023-08-25T14:38:35.000Z</time>
      </trkpt>
      <trkpt lat="34.09177" lon="-4.53559">
        <ele>336.1</ele>
        <time>2023-08-25T14:38:39.000Z</time>
      </trkpt>
      <trkpt lat="34.09201" lon="-4.53576">
        <ele>337.4</ele>
        <time>2023-08-25T14:38:43.000Z</time>
      </trkpt>
      <trkpt lat="34.09225" lon="-4.53592">
        <ele>339.1</ele>
        <time>2023-08-25T14:38:47.000Z</time>
      </trkpt>
      <trkpt lat="34.09243" lon="-4.53606">
        <ele>340.3</ele>
        <time>2023-08-25T14:38:50.000Z</time>
      </trkpt>
      <trkpt lat="34.09259" lon="-4.5362">
        <ele>341.8</ele>
        <time>2023-08-25T14:38:53.000Z</time>
      </trkpt>
      <trkpt lat="34.09275" lon="-4.53641">
        <ele>342.9</ele>
        <time>2023-08-25T14:38:57.000Z</time>
      </trkpt>
      <trkpt lat="34.09283" lon="-4.53668">
        <ele>345</ele>
        <time>2023-08-25T14:39:01.000Z</time>
      </trkpt>
      <trkpt lat="34.09285" lon="-4.53696">
        <ele>346.7</ele>
        <time>2023-08-25T14:39:05.000Z</time>
      </trkpt>
      <trkpt lat="34.09288" lon="-4.53719">
        <ele>348.3</ele>
        <time>2023-08-25T14:39:08.000Z</time>
      </trkpt>
      <trkpt lat="34.09292" lon="-4.53749">
        <ele>350</ele>
        <time>2023-08-25T14:39:12.000Z</time>
      </trkpt>
      <trkpt lat="34.09298" lon="-4.5378">
        <ele>351.6</ele>
        <time>2023-08-25T14:39:16.000Z</time>
      </trkpt>
      <trkpt lat="34.09302" lon="-4.53804">
        <ele>353.3</ele>
        <time>2023-08-25T14:39:19.000Z</time>
      </trkpt>
      <trkpt lat="34.0931" lon="-4.53837">
        <ele>354.3</ele>
        <time>2023-08-25T14:39:23.000Z</time>
      </trkpt>
      <trkpt lat="34.0932" lon="-4.53868">
        <ele>355.8</ele>
        <time>2023-08-25T14:39:27.000Z</time>
      </trkpt>
      <trkpt lat="34.09329" lon="-4.53889">
        <ele>356.9</ele>
        <time>2023-08-25T14:39:30.000Z</time>
      </trkpt>
      <trkpt lat="34.09342" lon="-4.5392">
        <ele>358.4</ele>
        <time>2023-08-25T14:39:34.000Z</time>
      </trkpt>
      <trkpt lat="34.09351" lon="-4.53943">
        <ele>358.9</ele>
        <time>2023-08-25T14:39:37.000Z</time>
      </trkpt>
      <trkpt lat="34.09363" lon="-4.53973">
        <ele>360</ele>
        <time>2023-08-25T14:39:41.000Z</time>
      </trkpt>
      <trkpt lat="34.09373" lon="-4.53999">
        <ele>361.7</ele>
        <time>2023-08-25T14:39:45.000Z</time>
      </trkpt>
      <trkpt lat="34.09384" lon="-4.54027">
        <ele>363.9</ele>
        <time>2023-08-25T14:39:49.000Z</time>
      </trkpt>
      <trkpt lat="34.09391" lon="-4.54045">
        <ele>365.3</ele>
        <time>2023-08-25T14:39:52.000Z</time>
      </trkpt>
      <trkpt lat="34.09402" lon="-4.54072">
        <ele>367.6</ele>
        <time>2023-08-25T14:39:56.000Z</time>
      </trkpt>
      <trkpt lat="34.09411" lon="-4.54093">
        <ele>368.8</ele>
        <time>2023-08-25T14:39:59.000Z</time>
      </trkpt>
      <trkpt lat="34.09421" lon="-4.54115">
        <ele>370.1</ele>
        <time>2023-08-25T14:40:02.000Z</time>
      </trkpt>
      <trkpt lat="34.09433" lon="-4.54148">
        <ele>370.1</ele>
        <time>2023-08-25T14:40:06.000Z</time>
      </trkpt>
      <trkpt lat="34.09442" lon="-4.54171">
        <ele>369.8</ele>
        <time>2023-08-25T14:40:09.000Z</time>
      </trkpt>
      <trkpt lat="34.09455" lon="-4.54202">
        <ele>369.4</ele>
        <time>2023-08-25T14:40:13.000Z</time>
      </trkpt>
      <trkpt lat="34.0947" lon="-4.54238">
        <ele>369.1</ele>
        <time>2023-08-25T14:40:17.000Z</time>
      </trkpt>
      <trkpt lat="34.09482" lon="-4.54271">
        <ele>369.6</ele>
        <time>2023-08-25T14:40:21.000Z</time>
      </trkpt>
      <trkpt lat="34.09491" lon="-4.54296">
        <ele>368.7</ele>
        <time>2023-08-25T14:40:24.000Z</time>
      </trkpt>
      <trkpt lat="34.09501" lon="-4.54321">
        <ele>369.9</ele>
        <time>2023-08-25T14:40:27.000Z</time>
      </trkpt>
      <trkpt lat="34.09513" lon="-4.54355">
        <ele>370.4</ele>
        <time>2023-08-25T14:40:31.000Z</time>
      </trkpt>
      <trkpt lat="34.09522" lon="-4.54379">
        <ele>369.9</ele>
        <time>2023-08-25T14:40:34.000Z</time>
      </trkpt>
      <trkpt lat="34.09536" lon="-4.54412">
        <ele>369.9</ele>
        <time>2023-08-25T14:40:38.000Z</time>
      </trkpt>
      <trkpt lat="34.09549" lon="-4.54444">
        <ele>370</ele>
        <time>2023-08-25T14:40:42.000Z</time>
      </trkpt>
      <trkpt lat="34.09562" lon="-4.54475">
        <ele>369.5</ele>
        <time>2023-08-25T14:40:46.000Z</time>
      </trkpt>
      <trkpt lat="34.09573" lon="-4.54499">
        <ele>369.4</ele>
        <time>2023-08-25T14:40:49.000Z</time>
      </trkpt>
      <trkpt lat="34.09587" lon="-4.5453">
        <ele>368.9</ele>
        <time>2023-08-25T14:40:53.000Z</time>
      </trkpt>
      <trkpt lat="34.09601" lon="-4.54562">
        <ele>368.9</ele>
        <time>2023-08-25T14:40:57.000Z</time>
      </trkpt>
      <trkpt lat="34.09612" lon="-4.54586">
        <ele>368.8</ele>
        <time>2023-08-25T14:41:00.000Z</time>
      </trkpt>
      <trkpt lat="34.09623" lon="-4.54609">
        <ele>368.4</ele>
        <time>2023-08-25T14:41:03.000Z</time>
      </trkpt>
      <trkpt lat="34.09637" lon="-4.5464">
        <ele>368.1</ele>
        <time>2023-08-25T14:41:07.000Z</time>
      </trkpt>
      <trkpt lat="34.09651" lon="-4.54672">
        <ele>367.8</ele>
        <time>2023-08-25T14:41:11.000Z</time>
      </trkpt>
      <trkpt lat="34.09664" lon="-4.54701">
        <ele>367.4</ele>
        <time>2023-08-25T14:41:15.000Z</time>
      </trkpt>
      <trkpt lat="34.09673" lon="-4.54723">
        <ele>367.4</ele>
        <time>2023-08-25T14:41:18.000Z</time>
      </trkpt>
      <trkpt lat="34.09686" lon="-4.54753">
        <ele>366.9</ele>
        <time>2023-08-25T14:41:22.000Z</time>
      </trkpt>
      <trkpt lat="34.097" lon="-4.54783">
        <ele>366.7</ele>
        <time>2023-08-25T14:41:26.000Z</time>
      </trkpt>
      <trkpt lat="34.09711" lon="-4.54809">
        <ele>366.2</ele>
        <time>2023-08-25T14:41:29.000Z</time>
      </trkpt>
      <trkpt lat="34.09724" lon="-4.54839">
        <ele>365.7</ele>
        <time>2023-08-25T14:41:33.000Z</time>
      </trkpt>
      <trkpt lat="34.09732" lon="-4.54856">
        <ele>365.7</ele>
        <time>2023-08-25T14:41:36.000Z</time>
      </trkpt>
      <trkpt lat="34.0974" lon="-4.54875">
        <ele>365.5</ele>
        <time>2023-08-25T14:41:40.000Z</time>
      </trkpt>
      <trkpt lat="34.09748" lon="-4.54892">
        <ele>365.1</ele>
        <time>2023-08-25T14:41:43.000Z</time>
      </trkpt>
      <trkpt lat="34.09756" lon="-4.54906">
        <ele>364.8</ele>
        <time>2023-08-25T14:41:46.000Z</time>
      </trkpt>
      <trkpt lat="34.09771" lon="-4.54922">
        <ele>364.7</ele>
        <time>2023-08-25T14:41:50.000Z</time>
      </trkpt>
      <trkpt lat="34.09791" lon="-4.54944">
        <ele>363.9</ele>
        <time>2023-08-25T14:41:54.000Z</time>
      </trkpt>
      <trkpt lat="34.09807" lon="-4.5496">
        <ele>363.9</ele>
        <time>2023-08-25T14:41:57.000Z</time>
      </trkpt>
      <trkpt lat="34.09829" lon="-4.54983">
        <ele>363</ele>
        <time>2023-08-25T14:42:01.000Z</time>
      </trkpt>
      <trkpt lat="34.09847" lon="-4.55">
        <ele>362.8</ele>
        <time>2023-08-25T14:42:04.000Z</time>
      </trkpt>
      <trkpt lat="34.09871" lon="-4.55022">
        <ele>362.4</ele>
        <time>2023-08-25T14:42:08.000Z</time>
      </trkpt>
      <trkpt lat="34.09894" lon="-4.55046">
        <ele>362.2</ele>
        <time>2023-08-25T14:42:12.000Z</time>
      </trkpt>
      <trkpt lat="34.0991" lon="-4.55063">
        <ele>362.1</ele>
        <time>2023-08-25T14:42:15.000Z</time>
      </trkpt>
      <trkpt lat="34.09927" lon="-4.5508">
        <ele>361.3</ele>
        <time>2023-08-25T14:42:18.000Z</time>
      </trkpt>
      <trkpt lat="34.09944" lon="-4.55097">
        <ele>360.7</ele>
        <time>2023-08-25T14:42:21.000Z</time>
      </trkpt>
      <trkpt lat="34.09965" lon="-4.55119">
        <ele>360.7</ele>
        <time>2023-08-25T14:42:25.000Z</time>
      </trkpt>
      <trkpt lat="34.09979" lon="-4.55136">
        <ele>361</ele>
        <time>2023-08-25T14:42:28.000Z</time>
      </trkpt>
      <trkpt lat="34.09999" lon="-4.55157">
        <ele>361</ele>
        <time>2023-08-25T14:42:32.000Z</time>
      </trkpt>
      <trkpt lat="34.10019" lon="-4.55178">
        <ele>361.9</ele>
        <time>2023-08-25T14:42:36.000Z</time>
      </trkpt>
      <trkpt lat="34.10039" lon="-4.55198">
        <ele>360.6</ele>
        <time>2023-08-25T14:42:40.000Z</time>
      </trkpt>
      <trkpt lat="34.10049" lon="-4.55217">
        <ele>360.3</ele>
        <time>2023-08-25T14:42:43.000Z</time>
      </trkpt>
      <trkpt lat="34.10055" lon="-4.55252">
        <ele>360.3</ele>
        <time>2023-08-25T14:42:47.000Z</time>
      </trkpt>
      <trkpt lat="34.10052" lon="-4.5529">
        <ele>360.8</ele>
        <time>2023-08-25T14:42:51.000Z</time>
      </trkpt>
      <trkpt lat="34.10048" lon="-4.55318">
        <ele>360.4</ele>
        <time>2023-08-25T14:42:55.000Z</time>
      </trkpt>
      <trkpt lat="34.10045" lon="-4.55345">
        <ele>359.7</ele>
        <time>2023-08-25T14:42:59.000Z</time>
      </trkpt>
      <trkpt lat="34.10044" lon="-4.55369">
        <ele>359.2</ele>
        <time>2023-08-25T14:43:02.000Z</time>
      </trkpt>
      <trkpt lat="34.10044" lon="-4.55397">
        <ele>358.4</ele>
        <time>2023-08-25T14:43:06.000Z</time>
      </trkpt>
      <trkpt lat="34.10043" lon="-4.55421">
        <ele>358.9</ele>
        <time>2023-08-25T14:43:10.000Z</time>
      </trkpt>
      <trkpt lat="34.10047" lon="-4.55451">
        <ele>358.5</ele>
        <time>2023-08-25T14:43:14.000Z</time>
      </trkpt>
      <trkpt lat="34.1005" lon="-4.55476">
        <ele>358.8</ele>
        <time>2023-08-25T14:43:17.000Z</time>
      </trkpt>
      <trkpt lat="34.10055" lon="-4.55507">
        <ele>357.4</ele>
        <time>2023-08-25T14:43:21.000Z</time>
      </trkpt>
      <trkpt lat="34.10056" lon="-4.55519">
        <ele>358.3</ele>
        <time>2023-08-25T14:43:24.000Z</time>
      </trkpt>
      <trkpt lat="34.10058" lon="-4.55528">
        <ele>357.4</ele>
        <time>2023-08-25T14:43:27.000Z</time>
      </trkpt>
      <trkpt lat="34.10061" lon="-4.55539">
        <ele>356.5</ele>
        <time>2023-08-25T14:43:31.000Z</time>
      </trkpt>
      <trkpt lat="34.10061" lon="-4.55545">
        <ele>356.5</ele>
        <time>2023-08-25T14:43:34.000Z</time>
      </trkpt>
      <trkpt lat="34.10064" lon="-4.55566">
        <ele>354.8</ele>
        <time>2023-08-25T14:43:38.000Z</time>
      </trkpt>
      <trkpt lat="34.10067" lon="-4.55589">
        <ele>354.8</ele>
        <time>2023-08-25T14:43:41.000Z</time>
      </trkpt>
      <trkpt lat="34.10072" lon="-4.55612">
        <ele>353.2</ele>
        <time>2023-08-25T14:43:44.000Z</time>
      </trkpt>
      <trkpt lat="34.10079" lon="-4.55645">
        <ele>351</ele>
        <time>2023-08-25T14:43:48.000Z</time>
      </trkpt>
      <trkpt lat="34.10084" lon="-4.55668">
        <ele>350</ele>
        <time>2023-08-25T14:43:51.000Z</time>
      </trkpt>
      <trkpt lat="34.10088" lon="-4.55688">
        <ele>348.3</ele>
        <time>2023-08-25T14:43:54.000Z</time>
      </trkpt>
      <trkpt lat="34.10092" lon="-4.55703">
        <ele>347.8</ele>
        <time>2023-08-25T14:43:58.000Z</time>
      </trkpt>
      <trkpt lat="34.10101" lon="-4.55725">
        <ele>346.8</ele>
        <time>2023-08-25T14:44:02.000Z</time>
      </trkpt>
      <trkpt lat="34.10115" lon="-4.55753">
        <ele>345.7</ele>
        <time>2023-08-25T14:44:06.000Z</time>
      </trkpt>
      <trkpt lat="34.10123" lon="-4.55777">
        <ele>343.3</ele>
        <time>2023-08-25T14:44:09.000Z</time>
      </trkpt>
      <trkpt lat="34.10126" lon="-4.55802">
        <ele>342.2</ele>
        <time>2023-08-25T14:44:12.000Z</time>
      </trkpt>
      <trkpt lat="34.10125" lon="-4.55827">
        <ele>342</ele>
        <time>2023-08-25T14:44:15.000Z</time>
      </trkpt>
      <trkpt lat="34.1012" lon="-4.55843">
        <ele>340.7</ele>
        <time>2023-08-25T14:44:18.000Z</time>
      </trkpt>
      <trkpt lat="34.10113" lon="-4.55858">
        <ele>339.4</ele>
        <time>2023-08-25T14:44:22.000Z</time>
      </trkpt>
      <trkpt lat="34.10102" lon="-4.55883">
        <ele>338.4</ele>
        <time>2023-08-25T14:44:26.000Z</time>
      </trkpt>
      <trkpt lat="34.10092" lon="-4.55905">
        <ele>336</ele>
        <time>2023-08-25T14:44:30.000Z</time>
      </trkpt>
      <trkpt lat="34.10088" lon="-4.55914">
        <ele>335.3</ele>
        <time>2023-08-25T14:44:34.000Z</time>
      </trkpt>
      <trkpt lat="34.10089" lon="-4.55922">
        <ele>335.1</ele>
        <time>2023-08-25T14:44:37.000Z</time>
      </trkpt>
      <trkpt lat="34.10094" lon="-4.55942">
        <ele>334.1</ele>
        <time>2023-08-25T14:44:41.000Z</time>
      </trkpt>
      <trkpt lat="34.10106" lon="-4.55963">
        <ele>333.2</ele>
        <time>2023-08-25T14:44:45.000Z</time>
      </trkpt>
      <trkpt lat="34.10115" lon="-4.55979">
        <ele>332.2</ele>
        <time>2023-08-25T14:44:48.000Z</time>
      </trkpt>
      <trkpt lat="34.10123" lon="-4.55996">
        <ele>330.3</ele>
        <time>2023-08-25T14:44:51.000Z</time>
      </trkpt>
      <trkpt lat="34.10135" lon="-4.56016">
        <ele>330.5</ele>
        <time>2023-08-25T14:44:55.000Z</time>
      </trkpt>
      <trkpt lat="34.10147" lon="-4.56037">
        <ele>328.1</ele>
        <time>2023-08-25T14:44:59.000Z</time>
      </trkpt>
      <trkpt lat="34.1016" lon="-4.56061">
        <ele>326.7</ele>
        <time>2023-08-25T14:45:03.000Z</time>
      </trkpt>
      <trkpt lat="34.10171" lon="-4.56087">
        <ele>325.1</ele>
        <time>2023-08-25T14:45:07.000Z</time>
      </trkpt>
      <trkpt lat="34.10179" lon="-4.56108">
        <ele>323.7</ele>
        <time>2023-08-25T14:45:11.000Z</time>
      </trkpt>
      <trkpt lat="34.10183" lon="-4.56126">
        <ele>322.8</ele>
        <time>2023-08-25T14:45:15.000Z</time>
      </trkpt>
      <trkpt lat="34.10188" lon="-4.56147">
        <ele>321.8</ele>
        <time>2023-08-25T14:45:18.000Z</time>
      </trkpt>
      <trkpt lat="34.10193" lon="-4.5617">
        <ele>320.8</ele>
        <time>2023-08-25T14:45:22.000Z</time>
      </trkpt>
      <trkpt lat="34.10196" lon="-4.56187">
        <ele>319.8</ele>
        <time>2023-08-25T14:45:25.000Z</time>
      </trkpt>
      <trkpt lat="34.10198" lon="-4.56214">
        <ele>319.4</ele>
        <time>2023-08-25T14:45:29.000Z</time>
      </trkpt>
      <trkpt lat="34.10199" lon="-4.56241">
        <ele>317.1</ele>
        <time>2023-08-25T14:45:33.000Z</time>
      </trkpt>
      <trkpt lat="34.10203" lon="-4.5626">
        <ele>316.4</ele>
        <time>2023-08-25T14:45:36.000Z</time>
      </trkpt>
      <trkpt lat="34.10211" lon="-4.56275">
        <ele>316.3</ele>
        <time>2023-08-25T14:45:39.000Z</time>
      </trkpt>
      <trkpt lat="34.10225" lon="-4.56292">
        <ele>314.1</ele>
        <time>2023-08-25T14:45:43.000Z</time>
      </trkpt>
      <trkpt lat="34.10236" lon="-4.56304">
        <ele>313.5</ele>
        <time>2023-08-25T14:45:46.000Z</time>
      </trkpt>
      <trkpt lat="34.10253" lon="-4.56322">
        <ele>313.3</ele>
        <time>2023-08-25T14:45:50.000Z</time>
      </trkpt>
      <trkpt lat="34.10268" lon="-4.56336">
        <ele>311.7</ele>
        <time>2023-08-25T14:45:53.000Z</time>
      </trkpt>
      <trkpt lat="34.10284" lon="-4.56355">
        <ele>310.4</ele>
        <time>2023-08-25T14:45:57.000Z</time>
      </trkpt>
      <trkpt lat="34.10302" lon="-4.56379">
        <ele>309.6</ele>
        <time>2023-08-25T14:46:01.000Z</time>
      </trkpt>
      <trkpt lat="34.10314" lon="-4.56395">
        <ele>309.1</ele>
        <time>2023-08-25T14:46:04.000Z</time>
      </trkpt>
      <trkpt lat="34.10322" lon="-4.56409">
        <ele>309.1</ele>
        <time>2023-08-25T14:46:07.000Z</time>
      </trkpt>
      <trkpt lat="34.10328" lon="-4.56433">
        <ele>308.5</ele>
        <time>2023-08-25T14:46:11.000Z</time>
      </trkpt>
      <trkpt lat="34.10331" lon="-4.56468">
        <ele>309.1</ele>
        <time>2023-08-25T14:46:15.000Z</time>
      </trkpt>
      <trkpt lat="34.10332" lon="-4.56494">
        <ele>308.4</ele>
        <time>2023-08-25T14:46:18.000Z</time>
      </trkpt>
      <trkpt lat="34.10332" lon="-4.56521">
        <ele>307.7</ele>
        <time>2023-08-25T14:46:21.000Z</time>
      </trkpt>
      <trkpt lat="34.10332" lon="-4.56546">
        <ele>307.7</ele>
        <time>2023-08-25T14:46:24.000Z</time>
      </trkpt>
      <trkpt lat="34.10329" lon="-4.5658">
        <ele>307.9</ele>
        <time>2023-08-25T14:46:28.000Z</time>
      </trkpt>
      <trkpt lat="34.10326" lon="-4.56614">
        <ele>307.2</ele>
        <time>2023-08-25T14:46:32.000Z</time>
      </trkpt>
      <trkpt lat="34.10322" lon="-4.56647">
        <ele>307.3</ele>
        <time>2023-08-25T14:46:36.000Z</time>
      </trkpt>
      <trkpt lat="34.10319" lon="-4.56682">
        <ele>307.2</ele>
        <time>2023-08-25T14:46:40.000Z</time>
      </trkpt>
      <trkpt lat="34.10316" lon="-4.56707">
        <ele>307.2</ele>
        <time>2023-08-25T14:46:43.000Z</time>
      </trkpt>
      <trkpt lat="34.10314" lon="-4.56741">
        <ele>306.1</ele>
        <time>2023-08-25T14:46:47.000Z</time>
      </trkpt>
      <trkpt lat="34.1031" lon="-4.56773">
        <ele>305.8</ele>
        <time>2023-08-25T14:46:51.000Z</time>
      </trkpt>
      <trkpt lat="34.10302" lon="-4.56792">
        <ele>305.8</ele>
        <time>2023-08-25T14:46:54.000Z</time>
      </trkpt>
      <trkpt lat="34.10288" lon="-4.56807">
        <ele>305.4</ele>
        <time>2023-08-25T14:46:58.000Z</time>
      </trkpt>
      <trkpt lat="34.10275" lon="-4.56815">
        <ele>305</ele>
        <time>2023-08-25T14:47:02.000Z</time>
      </trkpt>
      <trkpt lat="34.10257" lon="-4.56821">
        <ele>305</ele>
        <time>2023-08-25T14:47:05.000Z</time>
      </trkpt>
      <trkpt lat="34.10232" lon="-4.56819">
        <ele>304.6</ele>
        <time>2023-08-25T14:47:09.000Z</time>
      </trkpt>
      <trkpt lat="34.10213" lon="-4.56812">
        <ele>304.7</ele>
        <time>2023-08-25T14:47:12.000Z</time>
      </trkpt>
      <trkpt lat="34.10191" lon="-4.56802">
        <ele>304.1</ele>
        <time>2023-08-25T14:47:16.000Z</time>
      </trkpt>
      <trkpt lat="34.10168" lon="-4.56794">
        <ele>303.8</ele>
        <time>2023-08-25T14:47:20.000Z</time>
      </trkpt>
      <trkpt lat="34.10144" lon="-4.56785">
        <ele>303.2</ele>
        <time>2023-08-25T14:47:24.000Z</time>
      </trkpt>
      <trkpt lat="34.10127" lon="-4.56782">
        <ele>302.5</ele>
        <time>2023-08-25T14:47:27.000Z</time>
      </trkpt>
      <trkpt lat="34.10105" lon="-4.56791">
        <ele>301.3</ele>
        <time>2023-08-25T14:47:31.000Z</time>
      </trkpt>
      <trkpt lat="34.10094" lon="-4.56817">
        <ele>299.6</ele>
        <time>2023-08-25T14:47:35.000Z</time>
      </trkpt>
      <trkpt lat="34.10096" lon="-4.56836">
        <ele>299.4</ele>
        <time>2023-08-25T14:47:38.000Z</time>
      </trkpt>
      <trkpt lat="34.10105" lon="-4.56845">
        <ele>298.4</ele>
        <time>2023-08-25T14:47:41.000Z</time>
      </trkpt>
      <trkpt lat="34.10129" lon="-4.5685">
        <ele>297.7</ele>
        <time>2023-08-25T14:47:45.000Z</time>
      </trkpt>
      <trkpt lat="34.10147" lon="-4.5685">
        <ele>296.1</ele>
        <time>2023-08-25T14:47:48.000Z</time>
      </trkpt>
      <trkpt lat="34.10165" lon="-4.56849">
        <ele>295.5</ele>
        <time>2023-08-25T14:47:51.000Z</time>
      </trkpt>
      <trkpt lat="34.10183" lon="-4.5685">
        <ele>294.6</ele>
        <time>2023-08-25T14:47:55.000Z</time>
      </trkpt>
      <trkpt lat="34.10203" lon="-4.56856">
        <ele>293.8</ele>
        <time>2023-08-25T14:47:59.000Z</time>
      </trkpt>
      <trkpt lat="34.10224" lon="-4.56871">
        <ele>292.7</ele>
        <time>2023-08-25T14:48:03.000Z</time>
      </trkpt>
      <trkpt lat="34.10239" lon="-4.56881">
        <ele>291.7</ele>
        <time>2023-08-25T14:48:06.000Z</time>
      </trkpt>
      <trkpt lat="34.10254" lon="-4.5689">
        <ele>291</ele>
        <time>2023-08-25T14:48:09.000Z</time>
      </trkpt>
      <trkpt lat="34.10277" lon="-4.569">
        <ele>290.6</ele>
        <time>2023-08-25T14:48:13.000Z</time>
      </trkpt>
      <trkpt lat="34.10292" lon="-4.56906">
        <ele>289.6</ele>
        <time>2023-08-25T14:48:16.000Z</time>
      </trkpt>
      <trkpt lat="34.10306" lon="-4.56911">
        <ele>288.9</ele>
        <time>2023-08-25T14:48:20.000Z</time>
      </trkpt>
      <trkpt lat="34.10319" lon="-4.56914">
        <ele>288.8</ele>
        <time>2023-08-25T14:48:23.000Z</time>
      </trkpt>
      <trkpt lat="34.10328" lon="-4.56915">
        <ele>288.2</ele>
        <time>2023-08-25T14:48:26.000Z</time>
      </trkpt>
      <trkpt lat="34.10336" lon="-4.56915">
        <ele>288.4</ele>
        <time>2023-08-25T14:48:29.000Z</time>
      </trkpt>
      <trkpt lat="34.10345" lon="-4.56913">
        <ele>288.1</ele>
        <time>2023-08-25T14:48:33.000Z</time>
      </trkpt>
      <trkpt lat="34.10349" lon="-4.56914">
        <ele>288.3</ele>
        <time>2023-08-25T14:48:36.000Z</time>
      </trkpt>
      <trkpt lat="34.10355" lon="-4.56923">
        <ele>288.2</ele>
        <time>2023-08-25T14:48:39.000Z</time>
      </trkpt>
      <trkpt lat="34.10351" lon="-4.56958">
        <ele>287.4</ele>
        <time>2023-08-25T14:48:43.000Z</time>
      </trkpt>
      <trkpt lat="34.10346" lon="-4.56985">
        <ele>287.6</ele>
        <time>2023-08-25T14:48:46.000Z</time>
      </trkpt>
      <trkpt lat="34.10341" lon="-4.57025">
        <ele>287.3</ele>
        <time>2023-08-25T14:48:50.000Z</time>
      </trkpt>
      <trkpt lat="34.10334" lon="-4.57067">
        <ele>288.5</ele>
        <time>2023-08-25T14:48:54.000Z</time>
      </trkpt>
      <trkpt lat="34.10328" lon="-4.57108">
        <ele>287.6</ele>
        <time>2023-08-25T14:48:58.000Z</time>
      </trkpt>
      <trkpt lat="34.10325" lon="-4.57137">
        <ele>287.6</ele>
        <time>2023-08-25T14:49:01.000Z</time>
      </trkpt>
      <trkpt lat="34.10322" lon="-4.57176">
        <ele>287.6</ele>
        <time>2023-08-25T14:49:05.000Z</time>
      </trkpt>
      <trkpt lat="34.1032" lon="-4.57205">
        <ele>287.8</ele>
        <time>2023-08-25T14:49:08.000Z</time>
      </trkpt>
      <trkpt lat="34.1032" lon="-4.57233">
        <ele>287.6</ele>
        <time>2023-08-25T14:49:11.000Z</time>
      </trkpt>
      <trkpt lat="34.10321" lon="-4.57268">
        <ele>287.6</ele>
        <time>2023-08-25T14:49:15.000Z</time>
      </trkpt>
      <trkpt lat="34.10324" lon="-4.57307">
        <ele>288</ele>
        <time>2023-08-25T14:49:19.000Z</time>
      </trkpt>
      <trkpt lat="34.10326" lon="-4.57338">
        <ele>288.5</ele>
        <time>2023-08-25T14:49:22.000Z</time>
      </trkpt>
      <trkpt lat="34.10331" lon="-4.57378">
        <ele>289.4</ele>
        <time>2023-08-25T14:49:26.000Z</time>
      </trkpt>
      <trkpt lat="34.10336" lon="-4.57415">
        <ele>290.2</ele>
        <time>2023-08-25T14:49:30.000Z</time>
      </trkpt>
      <trkpt lat="34.10341" lon="-4.57453">
        <ele>290.3</ele>
        <time>2023-08-25T14:49:34.000Z</time>
      </trkpt>
      <trkpt lat="34.10345" lon="-4.57481">
        <ele>291.1</ele>
        <time>2023-08-25T14:49:37.000Z</time>
      </trkpt>
      <trkpt lat="34.10349" lon="-4.5751">
        <ele>291.6</ele>
        <time>2023-08-25T14:49:40.000Z</time>
      </trkpt>
      <trkpt lat="34.10354" lon="-4.57548">
        <ele>292.2</ele>
        <time>2023-08-25T14:49:44.000Z</time>
      </trkpt>
      <trkpt lat="34.10358" lon="-4.57576">
        <ele>292.6</ele>
        <time>2023-08-25T14:49:47.000Z</time>
      </trkpt>
      <trkpt lat="34.10361" lon="-4.57605">
        <ele>292.8</ele>
        <time>2023-08-25T14:49:50.000Z</time>
      </trkpt>
      <trkpt lat="34.10367" lon="-4.57643">
        <ele>293.9</ele>
        <time>2023-08-25T14:49:54.000Z</time>
      </trkpt>
      <trkpt lat="34.10372" lon="-4.57682">
        <ele>294.3</ele>
        <time>2023-08-25T14:49:58.000Z</time>
      </trkpt>
      <trkpt lat="34.10377" lon="-4.57724">
        <ele>294.5</ele>
        <time>2023-08-25T14:50:02.000Z</time>
      </trkpt>
      <trkpt lat="34.10381" lon="-4.57754">
        <ele>294.7</ele>
        <time>2023-08-25T14:50:05.000Z</time>
      </trkpt>
      <trkpt lat="34.10385" lon="-4.57783">
        <ele>295.3</ele>
        <time>2023-08-25T14:50:08.000Z</time>
      </trkpt>
      <trkpt lat="34.10391" lon="-4.57823">
        <ele>295.2</ele>
        <time>2023-08-25T14:50:12.000Z</time>
      </trkpt>
      <trkpt lat="34.10395" lon="-4.57852">
        <ele>295.3</ele>
        <time>2023-08-25T14:50:15.000Z</time>
      </trkpt>
      <trkpt lat="34.10399" lon="-4.57891">
        <ele>295</ele>
        <time>2023-08-25T14:50:19.000Z</time>
      </trkpt>
      <trkpt lat="34.10404" lon="-4.57929">
        <ele>295</ele>
        <time>2023-08-25T14:50:23.000Z</time>
      </trkpt>
      <trkpt lat="34.10407" lon="-4.57959">
        <ele>294.7</ele>
        <time>2023-08-25T14:50:26.000Z</time>
      </trkpt>
      <trkpt lat="34.10411" lon="-4.58">
        <ele>294.2</ele>
        <time>2023-08-25T14:50:30.000Z</time>
      </trkpt>
      <trkpt lat="34.10415" lon="-4.58039">
        <ele>293.6</ele>
        <time>2023-08-25T14:50:34.000Z</time>
      </trkpt>
      <trkpt lat="34.1042" lon="-4.58077">
        <ele>294.2</ele>
        <time>2023-08-25T14:50:38.000Z</time>
      </trkpt>
      <trkpt lat="34.10423" lon="-4.58104">
        <ele>294.2</ele>
        <time>2023-08-25T14:50:41.000Z</time>
      </trkpt>
      <trkpt lat="34.10427" lon="-4.58135">
        <ele>293.7</ele>
        <time>2023-08-25T14:50:45.000Z</time>
      </trkpt>
      <trkpt lat="34.1043" lon="-4.58164">
        <ele>293.4</ele>
        <time>2023-08-25T14:50:48.000Z</time>
      </trkpt>
      <trkpt lat="34.10434" lon="-4.58195">
        <ele>293.2</ele>
        <time>2023-08-25T14:50:51.000Z</time>
      </trkpt>
      <trkpt lat="34.10439" lon="-4.58234">
        <ele>291.2</ele>
        <time>2023-08-25T14:50:55.000Z</time>
      </trkpt>
      <trkpt lat="34.10442" lon="-4.58264">
        <ele>290.3</ele>
        <time>2023-08-25T14:50:58.000Z</time>
      </trkpt>
      <trkpt lat="34.10447" lon="-4.58303">
        <ele>290.6</ele>
        <time>2023-08-25T14:51:02.000Z</time>
      </trkpt>
      <trkpt lat="34.10452" lon="-4.5834">
        <ele>290.2</ele>
        <time>2023-08-25T14:51:06.000Z</time>
      </trkpt>
      <trkpt lat="34.10455" lon="-4.58366">
        <ele>289.3</ele>
        <time>2023-08-25T14:51:09.000Z</time>
      </trkpt>
      <trkpt lat="34.10461" lon="-4.58406">
        <ele>290.2</ele>
        <time>2023-08-25T14:51:13.000Z</time>
      </trkpt>
      <trkpt lat="34.10463" lon="-4.58433">
        <ele>290.8</ele>
        <time>2023-08-25T14:51:16.000Z</time>
      </trkpt>
      <trkpt lat="34.10465" lon="-4.5846">
        <ele>291.5</ele>
        <time>2023-08-25T14:51:20.000Z</time>
      </trkpt>
      <trkpt lat="34.10466" lon="-4.58487">
        <ele>291.1</ele>
        <time>2023-08-25T14:51:23.000Z</time>
      </trkpt>
      <trkpt lat="34.10467" lon="-4.58524">
        <ele>290.9</ele>
        <time>2023-08-25T14:51:27.000Z</time>
      </trkpt>
      <trkpt lat="34.10467" lon="-4.58557">
        <ele>290</ele>
        <time>2023-08-25T14:51:31.000Z</time>
      </trkpt>
      <trkpt lat="34.10462" lon="-4.58591">
        <ele>289.2</ele>
        <time>2023-08-25T14:51:35.000Z</time>
      </trkpt>
      <trkpt lat="34.10458" lon="-4.58617">
        <ele>289</ele>
        <time>2023-08-25T14:51:38.000Z</time>
      </trkpt>
      <trkpt lat="34.10452" lon="-4.58654">
        <ele>289</ele>
        <time>2023-08-25T14:51:42.000Z</time>
      </trkpt>
      <trkpt lat="34.10443" lon="-4.58686">
        <ele>289</ele>
        <time>2023-08-25T14:51:46.000Z</time>
      </trkpt>
      <trkpt lat="34.10437" lon="-4.58703">
        <ele>288.2</ele>
        <time>2023-08-25T14:51:49.000Z</time>
      </trkpt>
      <trkpt lat="34.10429" lon="-4.58721">
        <ele>288.7</ele>
        <time>2023-08-25T14:51:52.000Z</time>
      </trkpt>
      <trkpt lat="34.10419" lon="-4.5875">
        <ele>288.5</ele>
        <time>2023-08-25T14:51:56.000Z</time>
      </trkpt>
      <trkpt lat="34.10403" lon="-4.58784">
        <ele>287.6</ele>
        <time>2023-08-25T14:52:00.000Z</time>
      </trkpt>
      <trkpt lat="34.10391" lon="-4.58812">
        <ele>287.2</ele>
        <time>2023-08-25T14:52:03.000Z</time>
      </trkpt>
      <trkpt lat="34.10375" lon="-4.58845">
        <ele>288.8</ele>
        <time>2023-08-25T14:52:07.000Z</time>
      </trkpt>
      <trkpt lat="34.1036" lon="-4.58865">
        <ele>289.3</ele>
        <time>2023-08-25T14:52:10.000Z</time>
      </trkpt>
      <trkpt lat="34.10342" lon="-4.58887">
        <ele>289.7</ele>
        <time>2023-08-25T14:52:13.000Z</time>
      </trkpt>
      <trkpt lat="34.10315" lon="-4.58915">
        <ele>290.4</ele>
        <time>2023-08-25T14:52:17.000Z</time>
      </trkpt>
      <trkpt lat="34.10295" lon="-4.58937">
        <ele>291.3</ele>
        <time>2023-08-25T14:52:20.000Z</time>
      </trkpt>
      <trkpt lat="34.1027" lon="-4.58966">
        <ele>290.8</ele>
        <time>2023-08-25T14:52:24.000Z</time>
      </trkpt>
      <trkpt lat="34.10248" lon="-4.58994">
        <ele>291.9</ele>
        <time>2023-08-25T14:52:28.000Z</time>
      </trkpt>
      <trkpt lat="34.10232" lon="-4.59016">
        <ele>291.6</ele>
        <time>2023-08-25T14:52:31.000Z</time>
      </trkpt>
      <trkpt lat="34.10216" lon="-4.5904">
        <ele>291.1</ele>
        <time>2023-08-25T14:52:34.000Z</time>
      </trkpt>
      <trkpt lat="34.10201" lon="-4.59064">
        <ele>292.2</ele>
        <time>2023-08-25T14:52:37.000Z</time>
      </trkpt>
      <trkpt lat="34.10186" lon="-4.59088">
        <ele>291.2</ele>
        <time>2023-08-25T14:52:40.000Z</time>
      </trkpt>
      <trkpt lat="34.10167" lon="-4.59122">
        <ele>290.8</ele>
        <time>2023-08-25T14:52:44.000Z</time>
      </trkpt>
      <trkpt lat="34.10149" lon="-4.59156">
        <ele>291.2</ele>
        <time>2023-08-25T14:52:48.000Z</time>
      </trkpt>
      <trkpt lat="34.10132" lon="-4.5919">
        <ele>290.7</ele>
        <time>2023-08-25T14:52:52.000Z</time>
      </trkpt>
      <trkpt lat="34.10118" lon="-4.59215">
        <ele>288.1</ele>
        <time>2023-08-25T14:52:55.000Z</time>
      </trkpt>
      <trkpt lat="34.10101" lon="-4.59248">
        <ele>287.7</ele>
        <time>2023-08-25T14:52:59.000Z</time>
      </trkpt>
      <trkpt lat="34.10087" lon="-4.59272">
        <ele>289.8</ele>
        <time>2023-08-25T14:53:02.000Z</time>
      </trkpt>
      <trkpt lat="34.10073" lon="-4.59297">
        <ele>289.2</ele>
        <time>2023-08-25T14:53:05.000Z</time>
      </trkpt>
      <trkpt lat="34.10054" lon="-4.5933">
        <ele>289.1</ele>
        <time>2023-08-25T14:53:09.000Z</time>
      </trkpt>
      <trkpt lat="34.1004" lon="-4.59354">
        <ele>288.6</ele>
        <time>2023-08-25T14:53:12.000Z</time>
      </trkpt>
      <trkpt lat="34.10022" lon="-4.59387">
        <ele>287.7</ele>
        <time>2023-08-25T14:53:16.000Z</time>
      </trkpt>
      <trkpt lat="34.10003" lon="-4.5942">
        <ele>287.5</ele>
        <time>2023-08-25T14:53:20.000Z</time>
      </trkpt>
      <trkpt lat="34.09989" lon="-4.59445">
        <ele>286.2</ele>
        <time>2023-08-25T14:53:23.000Z</time>
      </trkpt>
      <trkpt lat="34.09971" lon="-4.59477">
        <ele>287.3</ele>
        <time>2023-08-25T14:53:27.000Z</time>
      </trkpt>
      <trkpt lat="34.09957" lon="-4.59502">
        <ele>287.3</ele>
        <time>2023-08-25T14:53:30.000Z</time>
      </trkpt>
      <trkpt lat="34.09946" lon="-4.59529">
        <ele>287.9</ele>
        <time>2023-08-25T14:53:33.000Z</time>
      </trkpt>
      <trkpt lat="34.09934" lon="-4.59564">
        <ele>289</ele>
        <time>2023-08-25T14:53:37.000Z</time>
      </trkpt>
      <trkpt lat="34.09927" lon="-4.59601">
        <ele>290.4</ele>
        <time>2023-08-25T14:53:41.000Z</time>
      </trkpt>
      <trkpt lat="34.09921" lon="-4.59636">
        <ele>292.8</ele>
        <time>2023-08-25T14:53:45.000Z</time>
      </trkpt>
      <trkpt lat="34.09916" lon="-4.59661">
        <ele>293.2</ele>
        <time>2023-08-25T14:53:48.000Z</time>
      </trkpt>
      <trkpt lat="34.09912" lon="-4.59688">
        <ele>294</ele>
        <time>2023-08-25T14:53:51.000Z</time>
      </trkpt>
      <trkpt lat="34.09906" lon="-4.59724">
        <ele>296.8</ele>
        <time>2023-08-25T14:53:55.000Z</time>
      </trkpt>
      <trkpt lat="34.09901" lon="-4.59761">
        <ele>297.6</ele>
        <time>2023-08-25T14:53:59.000Z</time>
      </trkpt>
      <trkpt lat="34.09896" lon="-4.59798">
        <ele>299.1</ele>
        <time>2023-08-25T14:54:03.000Z</time>
      </trkpt>
      <trkpt lat="34.09892" lon="-4.59827">
        <ele>300.1</ele>
        <time>2023-08-25T14:54:06.000Z</time>
      </trkpt>
      <trkpt lat="34.09888" lon="-4.59854">
        <ele>300.8</ele>
        <time>2023-08-25T14:54:09.000Z</time>
      </trkpt>
      <trkpt lat="34.09882" lon="-4.59891">
        <ele>302</ele>
        <time>2023-08-25T14:54:13.000Z</time>
      </trkpt>
      <trkpt lat="34.09879" lon="-4.59919">
        <ele>303.2</ele>
        <time>2023-08-25T14:54:16.000Z</time>
      </trkpt>
      <trkpt lat="34.09873" lon="-4.59957">
        <ele>303.1</ele>
        <time>2023-08-25T14:54:20.000Z</time>
      </trkpt>
      <trkpt lat="34.09869" lon="-4.59985">
        <ele>302.9</ele>
        <time>2023-08-25T14:54:23.000Z</time>
      </trkpt>
      <trkpt lat="34.09863" lon="-4.60024">
        <ele>303.7</ele>
        <time>2023-08-25T14:54:27.000Z</time>
      </trkpt>
      <trkpt lat="34.09857" lon="-4.60064">
        <ele>305</ele>
        <time>2023-08-25T14:54:31.000Z</time>
      </trkpt>
      <trkpt lat="34.09851" lon="-4.60104">
        <ele>306.2</ele>
        <time>2023-08-25T14:54:35.000Z</time>
      </trkpt>
      <trkpt lat="34.09842" lon="-4.60143">
        <ele>307</ele>
        <time>2023-08-25T14:54:39.000Z</time>
      </trkpt>
      <trkpt lat="34.09836" lon="-4.6017">
        <ele>307.3</ele>
        <time>2023-08-25T14:54:42.000Z</time>
      </trkpt>
      <trkpt lat="34.09824" lon="-4.60206">
        <ele>308.3</ele>
        <time>2023-08-25T14:54:46.000Z</time>
      </trkpt>
      <trkpt lat="34.09811" lon="-4.60238">
        <ele>309.3</ele>
        <time>2023-08-25T14:54:50.000Z</time>
      </trkpt>
      <trkpt lat="34.09794" lon="-4.60268">
        <ele>308.7</ele>
        <time>2023-08-25T14:54:54.000Z</time>
      </trkpt>
      <trkpt lat="34.0978" lon="-4.60289">
        <ele>310.6</ele>
        <time>2023-08-25T14:54:57.000Z</time>
      </trkpt>
      <trkpt lat="34.09767" lon="-4.60307">
        <ele>311.2</ele>
        <time>2023-08-25T14:55:00.000Z</time>
      </trkpt>
      <trkpt lat="34.09747" lon="-4.60329">
        <ele>313.4</ele>
        <time>2023-08-25T14:55:04.000Z</time>
      </trkpt>
      <trkpt lat="34.09729" lon="-4.60347">
        <ele>315.1</ele>
        <time>2023-08-25T14:55:07.000Z</time>
      </trkpt>
      <trkpt lat="34.09705" lon="-4.6037">
        <ele>317.2</ele>
        <time>2023-08-25T14:55:11.000Z</time>
      </trkpt>
      <trkpt lat="34.09687" lon="-4.60386">
        <ele>317.7</ele>
        <time>2023-08-25T14:55:14.000Z</time>
      </trkpt>
      <trkpt lat="34.09671" lon="-4.604">
        <ele>318.6</ele>
        <time>2023-08-25T14:55:17.000Z</time>
      </trkpt>
      <trkpt lat="34.0965" lon="-4.60418">
        <ele>321</ele>
        <time>2023-08-25T14:55:21.000Z</time>
      </trkpt>
      <trkpt lat="34.09626" lon="-4.60436">
        <ele>321.9</ele>
        <time>2023-08-25T14:55:25.000Z</time>
      </trkpt>
      <trkpt lat="34.09601" lon="-4.60454">
        <ele>324.2</ele>
        <time>2023-08-25T14:55:29.000Z</time>
      </trkpt>
      <trkpt lat="34.09574" lon="-4.60469">
        <ele>324.1</ele>
        <time>2023-08-25T14:55:33.000Z</time>
      </trkpt>
      <trkpt lat="34.09555" lon="-4.60477">
        <ele>325.9</ele>
        <time>2023-08-25T14:55:36.000Z</time>
      </trkpt>
      <trkpt lat="34.09527" lon="-4.60482">
        <ele>327.4</ele>
        <time>2023-08-25T14:55:40.000Z</time>
      </trkpt>
      <trkpt lat="34.09496" lon="-4.60484">
        <ele>328.2</ele>
        <time>2023-08-25T14:55:44.000Z</time>
      </trkpt>
      <trkpt lat="34.09465" lon="-4.60483">
        <ele>329.2</ele>
        <time>2023-08-25T14:55:48.000Z</time>
      </trkpt>
      <trkpt lat="34.09441" lon="-4.6048">
        <ele>330.6</ele>
        <time>2023-08-25T14:55:51.000Z</time>
      </trkpt>
      <trkpt lat="34.09413" lon="-4.60473">
        <ele>332.4</ele>
        <time>2023-08-25T14:55:55.000Z</time>
      </trkpt>
      <trkpt lat="34.09391" lon="-4.60463">
        <ele>333.6</ele>
        <time>2023-08-25T14:55:58.000Z</time>
      </trkpt>
      <trkpt lat="34.09361" lon="-4.60448">
        <ele>334.2</ele>
        <time>2023-08-25T14:56:02.000Z</time>
      </trkpt>
      <trkpt lat="34.09341" lon="-4.60434">
        <ele>336</ele>
        <time>2023-08-25T14:56:05.000Z</time>
      </trkpt>
      <trkpt lat="34.09316" lon="-4.60414">
        <ele>337.4</ele>
        <time>2023-08-25T14:56:09.000Z</time>
      </trkpt>
      <trkpt lat="34.09296" lon="-4.60398">
        <ele>337.7</ele>
        <time>2023-08-25T14:56:12.000Z</time>
      </trkpt>
      <trkpt lat="34.09276" lon="-4.60383">
        <ele>339.5</ele>
        <time>2023-08-25T14:56:15.000Z</time>
      </trkpt>
      <trkpt lat="34.09251" lon="-4.60362">
        <ele>340.8</ele>
        <time>2023-08-25T14:56:19.000Z</time>
      </trkpt>
      <trkpt lat="34.09232" lon="-4.60347">
        <ele>340.6</ele>
        <time>2023-08-25T14:56:22.000Z</time>
      </trkpt>
      <trkpt lat="34.09204" lon="-4.60327">
        <ele>342.7</ele>
        <time>2023-08-25T14:56:26.000Z</time>
      </trkpt>
      <trkpt lat="34.09178" lon="-4.60309">
        <ele>343.1</ele>
        <time>2023-08-25T14:56:30.000Z</time>
      </trkpt>
      <trkpt lat="34.09158" lon="-4.60294">
        <ele>344.4</ele>
        <time>2023-08-25T14:56:33.000Z</time>
      </trkpt>
      <trkpt lat="34.09138" lon="-4.60279">
        <ele>346</ele>
        <time>2023-08-25T14:56:36.000Z</time>
      </trkpt>
      <trkpt lat="34.09118" lon="-4.60265">
        <ele>347.5</ele>
        <time>2023-08-25T14:56:39.000Z</time>
      </trkpt>
      <trkpt lat="34.09091" lon="-4.60248">
        <ele>349.2</ele>
        <time>2023-08-25T14:56:43.000Z</time>
      </trkpt>
      <trkpt lat="34.09069" lon="-4.60239">
        <ele>350.4</ele>
        <time>2023-08-25T14:56:46.000Z</time>
      </trkpt>
      <trkpt lat="34.09039" lon="-4.6023">
        <ele>350.4</ele>
        <time>2023-08-25T14:56:50.000Z</time>
      </trkpt>
      <trkpt lat="34.09017" lon="-4.60225">
        <ele>351.1</ele>
        <time>2023-08-25T14:56:53.000Z</time>
      </trkpt>
      <trkpt lat="34.08992" lon="-4.60217">
        <ele>352.1</ele>
        <time>2023-08-25T14:56:57.000Z</time>
      </trkpt>
      <trkpt lat="34.08973" lon="-4.60208">
        <ele>352.6</ele>
        <time>2023-08-25T14:57:00.000Z</time>
      </trkpt>
      <trkpt lat="34.08944" lon="-4.60193">
        <ele>357</ele>
        <time>2023-08-25T14:57:04.000Z</time>
      </trkpt>
      <trkpt lat="34.08924" lon="-4.60182">
        <ele>358.1</ele>
        <time>2023-08-25T14:57:07.000Z</time>
      </trkpt>
      <trkpt lat="34.08899" lon="-4.60168">
        <ele>358.8</ele>
        <time>2023-08-25T14:57:11.000Z</time>
      </trkpt>
      <trkpt lat="34.0888" lon="-4.60157">
        <ele>359.5</ele>
        <time>2023-08-25T14:57:14.000Z</time>
      </trkpt>
      <trkpt lat="34.08852" lon="-4.60144">
        <ele>360</ele>
        <time>2023-08-25T14:57:18.000Z</time>
      </trkpt>
      <trkpt lat="34.0883" lon="-4.60133">
        <ele>360.4</ele>
        <time>2023-08-25T14:57:21.000Z</time>
      </trkpt>
      <trkpt lat="34.08799" lon="-4.60118">
        <ele>360.6</ele>
        <time>2023-08-25T14:57:25.000Z</time>
      </trkpt>
      <trkpt lat="34.08776" lon="-4.60107">
        <ele>361.1</ele>
        <time>2023-08-25T14:57:28.000Z</time>
      </trkpt>
      <trkpt lat="34.08744" lon="-4.60092">
        <ele>361.9</ele>
        <time>2023-08-25T14:57:32.000Z</time>
      </trkpt>
      <trkpt lat="34.08721" lon="-4.6008">
        <ele>361.6</ele>
        <time>2023-08-25T14:57:35.000Z</time>
      </trkpt>
      <trkpt lat="34.08691" lon="-4.60066">
        <ele>362.4</ele>
        <time>2023-08-25T14:57:39.000Z</time>
      </trkpt>
      <trkpt lat="34.0866" lon="-4.60055">
        <ele>362</ele>
        <time>2023-08-25T14:57:43.000Z</time>
      </trkpt>
      <trkpt lat="34.08635" lon="-4.60048">
        <ele>361.7</ele>
        <time>2023-08-25T14:57:46.000Z</time>
      </trkpt>
      <trkpt lat="34.08611" lon="-4.60042">
        <ele>361.6</ele>
        <time>2023-08-25T14:57:49.000Z</time>
      </trkpt>
      <trkpt lat="34.08587" lon="-4.60038">
        <ele>364</ele>
        <time>2023-08-25T14:57:52.000Z</time>
      </trkpt>
      <trkpt lat="34.08552" lon="-4.60035">
        <ele>362.6</ele>
        <time>2023-08-25T14:57:56.000Z</time>
      </trkpt>
      <trkpt lat="34.08526" lon="-4.60034">
        <ele>360</ele>
        <time>2023-08-25T14:57:59.000Z</time>
      </trkpt>
      <trkpt lat="34.08501" lon="-4.60033">
        <ele>362.4</ele>
        <time>2023-08-25T14:58:02.000Z</time>
      </trkpt>
      <trkpt lat="34.08468" lon="-4.60032">
        <ele>363.8</ele>
        <time>2023-08-25T14:58:06.000Z</time>
      </trkpt>
      <trkpt lat="34.08442" lon="-4.60031">
        <ele>364.3</ele>
        <time>2023-08-25T14:58:09.000Z</time>
      </trkpt>
      <trkpt lat="34.08411" lon="-4.60029">
        <ele>365.5</ele>
        <time>2023-08-25T14:58:13.000Z</time>
      </trkpt>
      <trkpt lat="34.08388" lon="-4.60027">
        <ele>366.3</ele>
        <time>2023-08-25T14:58:16.000Z</time>
      </trkpt>
      <trkpt lat="34.08363" lon="-4.60025">
        <ele>366.2</ele>
        <time>2023-08-25T14:58:19.000Z</time>
      </trkpt>
      <trkpt lat="34.08329" lon="-4.60024">
        <ele>367.4</ele>
        <time>2023-08-25T14:58:23.000Z</time>
      </trkpt>
      <trkpt lat="34.08305" lon="-4.60023">
        <ele>367.6</ele>
        <time>2023-08-25T14:58:26.000Z</time>
      </trkpt>
      <trkpt lat="34.08271" lon="-4.60021">
        <ele>369.3</ele>
        <time>2023-08-25T14:58:30.000Z</time>
      </trkpt>
      <trkpt lat="34.08245" lon="-4.6002">
        <ele>369.8</ele>
        <time>2023-08-25T14:58:33.000Z</time>
      </trkpt>
      <trkpt lat="34.08213" lon="-4.60018">
        <ele>370.4</ele>
        <time>2023-08-25T14:58:37.000Z</time>
      </trkpt>
      <trkpt lat="34.08181" lon="-4.60016">
        <ele>370.9</ele>
        <time>2023-08-25T14:58:41.000Z</time>
      </trkpt>
      <trkpt lat="34.08157" lon="-4.60014">
        <ele>371.3</ele>
        <time>2023-08-25T14:58:44.000Z</time>
      </trkpt>
      <trkpt lat="34.08124" lon="-4.60012">
        <ele>371.4</ele>
        <time>2023-08-25T14:58:48.000Z</time>
      </trkpt>
      <trkpt lat="34.08091" lon="-4.6001">
        <ele>370.5</ele>
        <time>2023-08-25T14:58:52.000Z</time>
      </trkpt>
      <trkpt lat="34.08058" lon="-4.60008">
        <ele>371.2</ele>
        <time>2023-08-25T14:58:56.000Z</time>
      </trkpt>
      <trkpt lat="34.08033" lon="-4.60006">
        <ele>372.5</ele>
        <time>2023-08-25T14:58:59.000Z</time>
      </trkpt>
      <trkpt lat="34.07999" lon="-4.60004">
        <ele>373.7</ele>
        <time>2023-08-25T14:59:03.000Z</time>
      </trkpt>
      <trkpt lat="34.07964" lon="-4.60001">
        <ele>373.7</ele>
        <time>2023-08-25T14:59:07.000Z</time>
      </trkpt>
      <trkpt lat="34.07932" lon="-4.6">
        <ele>374.6</ele>
        <time>2023-08-25T14:59:11.000Z</time>
      </trkpt>
      <trkpt lat="34.07907" lon="-4.59999">
        <ele>375.3</ele>
        <time>2023-08-25T14:59:14.000Z</time>
      </trkpt>
      <trkpt lat="34.07873" lon="-4.59997">
        <ele>375.1</ele>
        <time>2023-08-25T14:59:18.000Z</time>
      </trkpt>
      <trkpt lat="34.07848" lon="-4.59995">
        <ele>375.9</ele>
        <time>2023-08-25T14:59:21.000Z</time>
      </trkpt>
      <trkpt lat="34.07818" lon="-4.59992">
        <ele>376.3</ele>
        <time>2023-08-25T14:59:25.000Z</time>
      </trkpt>
      <trkpt lat="34.07784" lon="-4.59991">
        <ele>377.2</ele>
        <time>2023-08-25T14:59:29.000Z</time>
      </trkpt>
      <trkpt lat="34.07751" lon="-4.59988">
        <ele>378.3</ele>
        <time>2023-08-25T14:59:33.000Z</time>
      </trkpt>
      <trkpt lat="34.07718" lon="-4.59986">
        <ele>378.1</ele>
        <time>2023-08-25T14:59:37.000Z</time>
      </trkpt>
      <trkpt lat="34.07685" lon="-4.59984">
        <ele>379.2</ele>
        <time>2023-08-25T14:59:41.000Z</time>
      </trkpt>
      <trkpt lat="34.07652" lon="-4.59982">
        <ele>379.5</ele>
        <time>2023-08-25T14:59:45.000Z</time>
      </trkpt>
      <trkpt lat="34.07627" lon="-4.5998">
        <ele>379.8</ele>
        <time>2023-08-25T14:59:48.000Z</time>
      </trkpt>
      <trkpt lat="34.07593" lon="-4.59977">
        <ele>379.9</ele>
        <time>2023-08-25T14:59:52.000Z</time>
      </trkpt>
      <trkpt lat="34.07569" lon="-4.59976">
        <ele>380.5</ele>
        <time>2023-08-25T14:59:55.000Z</time>
      </trkpt>
      <trkpt lat="34.07537" lon="-4.59975">
        <ele>381.5</ele>
        <time>2023-08-25T14:59:59.000Z</time>
      </trkpt>
      <trkpt lat="34.07505" lon="-4.59972">
        <ele>381.7</ele>
        <time>2023-08-25T15:00:03.000Z</time>
      </trkpt>
      <trkpt lat="34.07479" lon="-4.5997">
        <ele>382.1</ele>
        <time>2023-08-25T15:00:06.000Z</time>
      </trkpt>
      <trkpt lat="34.07446" lon="-4.5997">
        <ele>381.9</ele>
        <time>2023-08-25T15:00:10.000Z</time>
      </trkpt>
      <trkpt lat="34.07421" lon="-4.59969">
        <ele>383.2</ele>
        <time>2023-08-25T15:00:13.000Z</time>
      </trkpt>
      <trkpt lat="34.07389" lon="-4.59966">
        <ele>384.5</ele>
        <time>2023-08-25T15:00:17.000Z</time>
      </trkpt>
      <trkpt lat="34.07356" lon="-4.59964">
        <ele>384.6</ele>
        <time>2023-08-25T15:00:21.000Z</time>
      </trkpt>
      <trkpt lat="34.07331" lon="-4.59962">
        <ele>385.5</ele>
        <time>2023-08-25T15:00:24.000Z</time>
      </trkpt>
      <trkpt lat="34.07307" lon="-4.5996">
        <ele>386.7</ele>
        <time>2023-08-25T15:00:27.000Z</time>
      </trkpt>
      <trkpt lat="34.07274" lon="-4.59956">
        <ele>387.9</ele>
        <time>2023-08-25T15:00:31.000Z</time>
      </trkpt>
      <trkpt lat="34.07239" lon="-4.59955">
        <ele>388.1</ele>
        <time>2023-08-25T15:00:35.000Z</time>
      </trkpt>
      <trkpt lat="34.07206" lon="-4.59954">
        <ele>388.9</ele>
        <time>2023-08-25T15:00:39.000Z</time>
      </trkpt>
      <trkpt lat="34.07182" lon="-4.59954">
        <ele>389.4</ele>
        <time>2023-08-25T15:00:42.000Z</time>
      </trkpt>
      <trkpt lat="34.07159" lon="-4.59952">
        <ele>390.3</ele>
        <time>2023-08-25T15:00:45.000Z</time>
      </trkpt>
      <trkpt lat="34.07125" lon="-4.5995">
        <ele>390.8</ele>
        <time>2023-08-25T15:00:49.000Z</time>
      </trkpt>
      <trkpt lat="34.07092" lon="-4.59948">
        <ele>392.1</ele>
        <time>2023-08-25T15:00:53.000Z</time>
      </trkpt>
      <trkpt lat="34.07061" lon="-4.59947">
        <ele>392.4</ele>
        <time>2023-08-25T15:00:57.000Z</time>
      </trkpt>
      <trkpt lat="34.07029" lon="-4.59944">
        <ele>393.6</ele>
        <time>2023-08-25T15:01:01.000Z</time>
      </trkpt>
      <trkpt lat="34.06995" lon="-4.59943">
        <ele>394</ele>
        <time>2023-08-25T15:01:05.000Z</time>
      </trkpt>
      <trkpt lat="34.06972" lon="-4.59941">
        <ele>394.2</ele>
        <time>2023-08-25T15:01:08.000Z</time>
      </trkpt>
      <trkpt lat="34.06951" lon="-4.5994">
        <ele>394.8</ele>
        <time>2023-08-25T15:01:11.000Z</time>
      </trkpt>
      <trkpt lat="34.0692" lon="-4.59937">
        <ele>396.5</ele>
        <time>2023-08-25T15:01:15.000Z</time>
      </trkpt>
      <trkpt lat="34.06887" lon="-4.59935">
        <ele>397.3</ele>
        <time>2023-08-25T15:01:19.000Z</time>
      </trkpt>
      <trkpt lat="34.06855" lon="-4.59934">
        <ele>398.8</ele>
        <time>2023-08-25T15:01:23.000Z</time>
      </trkpt>
      <trkpt lat="34.06832" lon="-4.59932">
        <ele>400.2</ele>
        <time>2023-08-25T15:01:26.000Z</time>
      </trkpt>
      <trkpt lat="34.06801" lon="-4.5993">
        <ele>400.7</ele>
        <time>2023-08-25T15:01:30.000Z</time>
      </trkpt>
      <trkpt lat="34.06771" lon="-4.59928">
        <ele>401.2</ele>
        <time>2023-08-25T15:01:34.000Z</time>
      </trkpt>
      <trkpt lat="34.0674" lon="-4.59927">
        <ele>401.8</ele>
        <time>2023-08-25T15:01:38.000Z</time>
      </trkpt>
      <trkpt lat="34.06707" lon="-4.59926">
        <ele>403.1</ele>
        <time>2023-08-25T15:01:42.000Z</time>
      </trkpt>
      <trkpt lat="34.06678" lon="-4.59925">
        <ele>404</ele>
        <time>2023-08-25T15:01:46.000Z</time>
      </trkpt>
      <trkpt lat="34.06654" lon="-4.59923">
        <ele>404.7</ele>
        <time>2023-08-25T15:01:49.000Z</time>
      </trkpt>
      <trkpt lat="34.06625" lon="-4.5992">
        <ele>406</ele>
        <time>2023-08-25T15:01:53.000Z</time>
      </trkpt>
      <trkpt lat="34.06593" lon="-4.59917">
        <ele>408.5</ele>
        <time>2023-08-25T15:01:57.000Z</time>
      </trkpt>
      <trkpt lat="34.06571" lon="-4.59915">
        <ele>408.7</ele>
        <time>2023-08-25T15:02:00.000Z</time>
      </trkpt>
      <trkpt lat="34.06541" lon="-4.59914">
        <ele>409.7</ele>
        <time>2023-08-25T15:02:04.000Z</time>
      </trkpt>
      <trkpt lat="34.0651" lon="-4.59912">
        <ele>411.5</ele>
        <time>2023-08-25T15:02:08.000Z</time>
      </trkpt>
      <trkpt lat="34.0648" lon="-4.5991">
        <ele>412.2</ele>
        <time>2023-08-25T15:02:12.000Z</time>
      </trkpt>
      <trkpt lat="34.06458" lon="-4.59908">
        <ele>413.8</ele>
        <time>2023-08-25T15:02:15.000Z</time>
      </trkpt>
      <trkpt lat="34.06431" lon="-4.59907">
        <ele>414.3</ele>
        <time>2023-08-25T15:02:19.000Z</time>
      </trkpt>
      <trkpt lat="34.06407" lon="-4.59907">
        <ele>415.3</ele>
        <time>2023-08-25T15:02:23.000Z</time>
      </trkpt>
      <trkpt lat="34.06384" lon="-4.59904">
        <ele>416.5</ele>
        <time>2023-08-25T15:02:27.000Z</time>
      </trkpt>
      <trkpt lat="34.06365" lon="-4.59902">
        <ele>416.5</ele>
        <time>2023-08-25T15:02:30.000Z</time>
      </trkpt>
      <trkpt lat="34.06341" lon="-4.59901">
        <ele>417.2</ele>
        <time>2023-08-25T15:02:34.000Z</time>
      </trkpt>
      <trkpt lat="34.06314" lon="-4.59899">
        <ele>418.2</ele>
        <time>2023-08-25T15:02:38.000Z</time>
      </trkpt>
      <trkpt lat="34.06292" lon="-4.59898">
        <ele>418.9</ele>
        <time>2023-08-25T15:02:41.000Z</time>
      </trkpt>
      <trkpt lat="34.06261" lon="-4.59896">
        <ele>419.8</ele>
        <time>2023-08-25T15:02:45.000Z</time>
      </trkpt>
      <trkpt lat="34.06239" lon="-4.59895">
        <ele>419.8</ele>
        <time>2023-08-25T15:02:48.000Z</time>
      </trkpt>
      <trkpt lat="34.06223" lon="-4.59893">
        <ele>420.9</ele>
        <time>2023-08-25T15:02:51.000Z</time>
      </trkpt>
      <trkpt lat="34.06202" lon="-4.59891">
        <ele>422.4</ele>
        <time>2023-08-25T15:02:55.000Z</time>
      </trkpt>
      <trkpt lat="34.06175" lon="-4.59891">
        <ele>422.6</ele>
        <time>2023-08-25T15:02:59.000Z</time>
      </trkpt>
      <trkpt lat="34.06148" lon="-4.59889">
        <ele>424.1</ele>
        <time>2023-08-25T15:03:03.000Z</time>
      </trkpt>
      <trkpt lat="34.06128" lon="-4.59889">
        <ele>425.2</ele>
        <time>2023-08-25T15:03:06.000Z</time>
      </trkpt>
      <trkpt lat="34.06108" lon="-4.5989">
        <ele>426.1</ele>
        <time>2023-08-25T15:03:09.000Z</time>
      </trkpt>
      <trkpt lat="34.0608" lon="-4.59893">
        <ele>428.5</ele>
        <time>2023-08-25T15:03:13.000Z</time>
      </trkpt>
      <trkpt lat="34.0606" lon="-4.59895">
        <ele>429.6</ele>
        <time>2023-08-25T15:03:16.000Z</time>
      </trkpt>
      <trkpt lat="34.06032" lon="-4.59902">
        <ele>430</ele>
        <time>2023-08-25T15:03:20.000Z</time>
      </trkpt>
      <trkpt lat="34.06004" lon="-4.59908">
        <ele>432.3</ele>
        <time>2023-08-25T15:03:24.000Z</time>
      </trkpt>
      <trkpt lat="34.05973" lon="-4.59915">
        <ele>432.9</ele>
        <time>2023-08-25T15:03:28.000Z</time>
      </trkpt>
      <trkpt lat="34.05951" lon="-4.59919">
        <ele>433.3</ele>
        <time>2023-08-25T15:03:31.000Z</time>
      </trkpt>
      <trkpt lat="34.0592" lon="-4.59926">
        <ele>434.3</ele>
        <time>2023-08-25T15:03:35.000Z</time>
      </trkpt>
      <trkpt lat="34.05889" lon="-4.59932">
        <ele>435.3</ele>
        <time>2023-08-25T15:03:39.000Z</time>
      </trkpt>
      <trkpt lat="34.05869" lon="-4.59936">
        <ele>435.8</ele>
        <time>2023-08-25T15:03:42.000Z</time>
      </trkpt>
      <trkpt lat="34.05857" lon="-4.59938">
        <ele>436.5</ele>
        <time>2023-08-25T15:03:45.000Z</time>
      </trkpt>
      <trkpt lat="34.05847" lon="-4.59941">
        <ele>435.9</ele>
        <time>2023-08-25T15:03:48.000Z</time>
      </trkpt>
      <trkpt lat="34.05831" lon="-4.59946">
        <ele>437.4</ele>
        <time>2023-08-25T15:03:52.000Z</time>
      </trkpt>
      <trkpt lat="34.05808" lon="-4.59952">
        <ele>436.6</ele>
        <time>2023-08-25T15:03:56.000Z</time>
      </trkpt>
      <trkpt lat="34.05784" lon="-4.59957">
        <ele>437.3</ele>
        <time>2023-08-25T15:04:00.000Z</time>
      </trkpt>
      <trkpt lat="34.05756" lon="-4.59961">
        <ele>437.9</ele>
        <time>2023-08-25T15:04:04.000Z</time>
      </trkpt>
      <trkpt lat="34.05725" lon="-4.59966">
        <ele>438.8</ele>
        <time>2023-08-25T15:04:08.000Z</time>
      </trkpt>
      <trkpt lat="34.05695" lon="-4.59974">
        <ele>439.5</ele>
        <time>2023-08-25T15:04:12.000Z</time>
      </trkpt>
      <trkpt lat="34.05661" lon="-4.59982">
        <ele>438.7</ele>
        <time>2023-08-25T15:04:16.000Z</time>
      </trkpt>
      <trkpt lat="34.05635" lon="-4.59988">
        <ele>438.9</ele>
        <time>2023-08-25T15:04:19.000Z</time>
      </trkpt>
      <trkpt lat="34.05609" lon="-4.59994">
        <ele>439.1</ele>
        <time>2023-08-25T15:04:22.000Z</time>
      </trkpt>
      <trkpt lat="34.05575" lon="-4.60002">
        <ele>438</ele>
        <time>2023-08-25T15:04:26.000Z</time>
      </trkpt>
      <trkpt lat="34.05542" lon="-4.6001">
        <ele>437.1</ele>
        <time>2023-08-25T15:04:30.000Z</time>
      </trkpt>
      <trkpt lat="34.05509" lon="-4.60018">
        <ele>437.8</ele>
        <time>2023-08-25T15:04:34.000Z</time>
      </trkpt>
      <trkpt lat="34.05486" lon="-4.60025">
        <ele>437.7</ele>
        <time>2023-08-25T15:04:37.000Z</time>
      </trkpt>
      <trkpt lat="34.05454" lon="-4.60033">
        <ele>437.8</ele>
        <time>2023-08-25T15:04:41.000Z</time>
      </trkpt>
      <trkpt lat="34.05422" lon="-4.60039">
        <ele>436.3</ele>
        <time>2023-08-25T15:04:45.000Z</time>
      </trkpt>
      <trkpt lat="34.05388" lon="-4.60046">
        <ele>437.2</ele>
        <time>2023-08-25T15:04:49.000Z</time>
      </trkpt>
      <trkpt lat="34.05363" lon="-4.60052">
        <ele>436.9</ele>
        <time>2023-08-25T15:04:52.000Z</time>
      </trkpt>
      <trkpt lat="34.05331" lon="-4.60062">
        <ele>436.6</ele>
        <time>2023-08-25T15:04:56.000Z</time>
      </trkpt>
      <trkpt lat="34.05307" lon="-4.60068">
        <ele>435.4</ele>
        <time>2023-08-25T15:04:59.000Z</time>
      </trkpt>
      <trkpt lat="34.05285" lon="-4.60072">
        <ele>436.4</ele>
        <time>2023-08-25T15:05:02.000Z</time>
      </trkpt>
      <trkpt lat="34.05253" lon="-4.60078">
        <ele>437</ele>
        <time>2023-08-25T15:05:06.000Z</time>
      </trkpt>
      <trkpt lat="34.05229" lon="-4.60085">
        <ele>438</ele>
        <time>2023-08-25T15:05:09.000Z</time>
      </trkpt>
      <trkpt lat="34.05196" lon="-4.60094">
        <ele>438.3</ele>
        <time>2023-08-25T15:05:13.000Z</time>
      </trkpt>
      <trkpt lat="34.05171" lon="-4.60099">
        <ele>438.6</ele>
        <time>2023-08-25T15:05:16.000Z</time>
      </trkpt>
      <trkpt lat="34.05141" lon="-4.60108">
        <ele>441.3</ele>
        <time>2023-08-25T15:05:20.000Z</time>
      </trkpt>
      <trkpt lat="34.05111" lon="-4.60116">
        <ele>441.8</ele>
        <time>2023-08-25T15:05:24.000Z</time>
      </trkpt>
      <trkpt lat="34.05084" lon="-4.60123">
        <ele>442.6</ele>
        <time>2023-08-25T15:05:28.000Z</time>
      </trkpt>
      <trkpt lat="34.05065" lon="-4.60127">
        <ele>444.7</ele>
        <time>2023-08-25T15:05:31.000Z</time>
      </trkpt>
      <trkpt lat="34.05039" lon="-4.60135">
        <ele>445.7</ele>
        <time>2023-08-25T15:05:35.000Z</time>
      </trkpt>
      <trkpt lat="34.05013" lon="-4.60141">
        <ele>447.9</ele>
        <time>2023-08-25T15:05:39.000Z</time>
      </trkpt>
      <trkpt lat="34.04994" lon="-4.60144">
        <ele>448.6</ele>
        <time>2023-08-25T15:05:42.000Z</time>
      </trkpt>
      <trkpt lat="34.04969" lon="-4.60148">
        <ele>450.3</ele>
        <time>2023-08-25T15:05:46.000Z</time>
      </trkpt>
      <trkpt lat="34.04948" lon="-4.60151">
        <ele>452.1</ele>
        <time>2023-08-25T15:05:49.000Z</time>
      </trkpt>
      <trkpt lat="34.04927" lon="-4.60154">
        <ele>452</ele>
        <time>2023-08-25T15:05:52.000Z</time>
      </trkpt>
      <trkpt lat="34.04898" lon="-4.60157">
        <ele>453.1</ele>
        <time>2023-08-25T15:05:56.000Z</time>
      </trkpt>
      <trkpt lat="34.04869" lon="-4.60159">
        <ele>454.5</ele>
        <time>2023-08-25T15:06:00.000Z</time>
      </trkpt>
      <trkpt lat="34.04837" lon="-4.60163">
        <ele>455.3</ele>
        <time>2023-08-25T15:06:04.000Z</time>
      </trkpt>
      <trkpt lat="34.04807" lon="-4.60166">
        <ele>456.6</ele>
        <time>2023-08-25T15:06:08.000Z</time>
      </trkpt>
      <trkpt lat="34.04782" lon="-4.60168">
        <ele>457.4</ele>
        <time>2023-08-25T15:06:11.000Z</time>
      </trkpt>
      <trkpt lat="34.04749" lon="-4.60171">
        <ele>458.8</ele>
        <time>2023-08-25T15:06:15.000Z</time>
      </trkpt>
      <trkpt lat="34.04715" lon="-4.60174">
        <ele>459.8</ele>
        <time>2023-08-25T15:06:19.000Z</time>
      </trkpt>
      <trkpt lat="34.04692" lon="-4.60176">
        <ele>460</ele>
        <time>2023-08-25T15:06:22.000Z</time>
      </trkpt>
      <trkpt lat="34.04659" lon="-4.6018">
        <ele>460.3</ele>
        <time>2023-08-25T15:06:26.000Z</time>
      </trkpt>
      <trkpt lat="34.04625" lon="-4.60185">
        <ele>461.1</ele>
        <time>2023-08-25T15:06:30.000Z</time>
      </trkpt>
      <trkpt lat="34.046" lon="-4.60187">
        <ele>460.9</ele>
        <time>2023-08-25T15:06:33.000Z</time>
      </trkpt>
      <trkpt lat="34.04567" lon="-4.6019">
        <ele>461.3</ele>
        <time>2023-08-25T15:06:37.000Z</time>
      </trkpt>
      <trkpt lat="34.04541" lon="-4.60193">
        <ele>461.6</ele>
        <time>2023-08-25T15:06:40.000Z</time>
      </trkpt>
      <trkpt lat="34.04508" lon="-4.602">
        <ele>461.4</ele>
        <time>2023-08-25T15:06:44.000Z</time>
      </trkpt>
      <trkpt lat="34.04475" lon="-4.60208">
        <ele>460.8</ele>
        <time>2023-08-25T15:06:48.000Z</time>
      </trkpt>
      <trkpt lat="34.04451" lon="-4.60216">
        <ele>460.3</ele>
        <time>2023-08-25T15:06:51.000Z</time>
      </trkpt>
      <trkpt lat="34.04426" lon="-4.60223">
        <ele>459.1</ele>
        <time>2023-08-25T15:06:54.000Z</time>
      </trkpt>
      <trkpt lat="34.04403" lon="-4.60232">
        <ele>458.9</ele>
        <time>2023-08-25T15:06:57.000Z</time>
      </trkpt>
      <trkpt lat="34.04373" lon="-4.60245">
        <ele>458.1</ele>
        <time>2023-08-25T15:07:01.000Z</time>
      </trkpt>
      <trkpt lat="34.0434" lon="-4.60256">
        <ele>458.9</ele>
        <time>2023-08-25T15:07:05.000Z</time>
      </trkpt>
      <trkpt lat="34.04316" lon="-4.60266">
        <ele>458</ele>
        <time>2023-08-25T15:07:08.000Z</time>
      </trkpt>
      <trkpt lat="34.04286" lon="-4.60279">
        <ele>458.6</ele>
        <time>2023-08-25T15:07:12.000Z</time>
      </trkpt>
      <trkpt lat="34.04262" lon="-4.60289">
        <ele>459.6</ele>
        <time>2023-08-25T15:07:15.000Z</time>
      </trkpt>
      <trkpt lat="34.04231" lon="-4.60303">
        <ele>459.8</ele>
        <time>2023-08-25T15:07:19.000Z</time>
      </trkpt>
      <trkpt lat="34.04208" lon="-4.60313">
        <ele>460.3</ele>
        <time>2023-08-25T15:07:22.000Z</time>
      </trkpt>
      <trkpt lat="34.04179" lon="-4.60327">
        <ele>461</ele>
        <time>2023-08-25T15:07:26.000Z</time>
      </trkpt>
      <trkpt lat="34.04157" lon="-4.60339">
        <ele>461.5</ele>
        <time>2023-08-25T15:07:29.000Z</time>
      </trkpt>
      <trkpt lat="34.04126" lon="-4.60356">
        <ele>463</ele>
        <time>2023-08-25T15:07:33.000Z</time>
      </trkpt>
      <trkpt lat="34.04095" lon="-4.60376">
        <ele>462.9</ele>
        <time>2023-08-25T15:07:37.000Z</time>
      </trkpt>
      <trkpt lat="34.04073" lon="-4.60394">
        <ele>463</ele>
        <time>2023-08-25T15:07:40.000Z</time>
      </trkpt>
      <trkpt lat="34.04048" lon="-4.60417">
        <ele>463.5</ele>
        <time>2023-08-25T15:07:44.000Z</time>
      </trkpt>
      <trkpt lat="34.04022" lon="-4.60439">
        <ele>463.1</ele>
        <time>2023-08-25T15:07:48.000Z</time>
      </trkpt>
      <trkpt lat="34.03994" lon="-4.60462">
        <ele>462.8</ele>
        <time>2023-08-25T15:07:52.000Z</time>
      </trkpt>
      <trkpt lat="34.03975" lon="-4.60479">
        <ele>463.3</ele>
        <time>2023-08-25T15:07:55.000Z</time>
      </trkpt>
      <trkpt lat="34.03956" lon="-4.60496">
        <ele>463.2</ele>
        <time>2023-08-25T15:07:58.000Z</time>
      </trkpt>
      <trkpt lat="34.03928" lon="-4.60518">
        <ele>464.6</ele>
        <time>2023-08-25T15:08:02.000Z</time>
      </trkpt>
      <trkpt lat="34.03899" lon="-4.60535">
        <ele>465.3</ele>
        <time>2023-08-25T15:08:06.000Z</time>
      </trkpt>
      <trkpt lat="34.03867" lon="-4.60552">
        <ele>466.5</ele>
        <time>2023-08-25T15:08:10.000Z</time>
      </trkpt>
      <trkpt lat="34.03845" lon="-4.60563">
        <ele>467.7</ele>
        <time>2023-08-25T15:08:13.000Z</time>
      </trkpt>
      <trkpt lat="34.03816" lon="-4.60575">
        <ele>467.7</ele>
        <time>2023-08-25T15:08:17.000Z</time>
      </trkpt>
      <trkpt lat="34.03793" lon="-4.60585">
        <ele>468.5</ele>
        <time>2023-08-25T15:08:20.000Z</time>
      </trkpt>
      <trkpt lat="34.03772" lon="-4.60593">
        <ele>469.1</ele>
        <time>2023-08-25T15:08:23.000Z</time>
      </trkpt>
      <trkpt lat="34.03743" lon="-4.60603">
        <ele>469.6</ele>
        <time>2023-08-25T15:08:27.000Z</time>
      </trkpt>
      <trkpt lat="34.03721" lon="-4.6061">
        <ele>470.8</ele>
        <time>2023-08-25T15:08:30.000Z</time>
      </trkpt>
      <trkpt lat="34.03692" lon="-4.60618">
        <ele>472.5</ele>
        <time>2023-08-25T15:08:34.000Z</time>
      </trkpt>
      <trkpt lat="34.03669" lon="-4.60624">
        <ele>472.4</ele>
        <time>2023-08-25T15:08:37.000Z</time>
      </trkpt>
      <trkpt lat="34.03639" lon="-4.60633">
        <ele>475</ele>
        <time>2023-08-25T15:08:41.000Z</time>
      </trkpt>
      <trkpt lat="34.03617" lon="-4.60639">
        <ele>475.8</ele>
        <time>2023-08-25T15:08:44.000Z</time>
      </trkpt>
      <trkpt lat="34.03589" lon="-4.60646">
        <ele>477.3</ele>
        <time>2023-08-25T15:08:48.000Z</time>
      </trkpt>
      <trkpt lat="34.03564" lon="-4.60655">
        <ele>478.2</ele>
        <time>2023-08-25T15:08:52.000Z</time>
      </trkpt>
      <trkpt lat="34.03538" lon="-4.60665">
        <ele>479.7</ele>
        <time>2023-08-25T15:08:56.000Z</time>
      </trkpt>
      <trkpt lat="34.03516" lon="-4.60673">
        <ele>481.1</ele>
        <time>2023-08-25T15:08:59.000Z</time>
      </trkpt>
      <trkpt lat="34.03494" lon="-4.6068">
        <ele>483.4</ele>
        <time>2023-08-25T15:09:02.000Z</time>
      </trkpt>
      <trkpt lat="34.03464" lon="-4.60691">
        <ele>483.3</ele>
        <time>2023-08-25T15:09:06.000Z</time>
      </trkpt>
      <trkpt lat="34.03443" lon="-4.60698">
        <ele>485.3</ele>
        <time>2023-08-25T15:09:09.000Z</time>
      </trkpt>
      <trkpt lat="34.03421" lon="-4.60706">
        <ele>486</ele>
        <time>2023-08-25T15:09:12.000Z</time>
      </trkpt>
      <trkpt lat="34.03389" lon="-4.60718">
        <ele>486.6</ele>
        <time>2023-08-25T15:09:16.000Z</time>
      </trkpt>
      <trkpt lat="34.03367" lon="-4.60727">
        <ele>486.8</ele>
        <time>2023-08-25T15:09:19.000Z</time>
      </trkpt>
      <trkpt lat="34.03339" lon="-4.60738">
        <ele>488.2</ele>
        <time>2023-08-25T15:09:23.000Z</time>
      </trkpt>
      <trkpt lat="34.03311" lon="-4.60748">
        <ele>489.2</ele>
        <time>2023-08-25T15:09:27.000Z</time>
      </trkpt>
      <trkpt lat="34.03289" lon="-4.60758">
        <ele>490.9</ele>
        <time>2023-08-25T15:09:30.000Z</time>
      </trkpt>
      <trkpt lat="34.03267" lon="-4.60768">
        <ele>491.6</ele>
        <time>2023-08-25T15:09:33.000Z</time>
      </trkpt>
      <trkpt lat="34.03235" lon="-4.6078">
        <ele>491.7</ele>
        <time>2023-08-25T15:09:37.000Z</time>
      </trkpt>
      <trkpt lat="34.03204" lon="-4.60791">
        <ele>493.6</ele>
        <time>2023-08-25T15:09:41.000Z</time>
      </trkpt>
      <trkpt lat="34.03181" lon="-4.608">
        <ele>493.4</ele>
        <time>2023-08-25T15:09:44.000Z</time>
      </trkpt>
      <trkpt lat="34.03156" lon="-4.60809">
        <ele>493.6</ele>
        <time>2023-08-25T15:09:47.000Z</time>
      </trkpt>
      <trkpt lat="34.03124" lon="-4.6082">
        <ele>494.5</ele>
        <time>2023-08-25T15:09:51.000Z</time>
      </trkpt>
      <trkpt lat="34.03092" lon="-4.60833">
        <ele>495.5</ele>
        <time>2023-08-25T15:09:55.000Z</time>
      </trkpt>
      <trkpt lat="34.03059" lon="-4.60844">
        <ele>497.5</ele>
        <time>2023-08-25T15:09:59.000Z</time>
      </trkpt>
      <trkpt lat="34.03036" lon="-4.60852">
        <ele>498.3</ele>
        <time>2023-08-25T15:10:02.000Z</time>
      </trkpt>
      <trkpt lat="34.03013" lon="-4.60861">
        <ele>498.2</ele>
        <time>2023-08-25T15:10:05.000Z</time>
      </trkpt>
      <trkpt lat="34.02981" lon="-4.60873">
        <ele>500.5</ele>
        <time>2023-08-25T15:10:09.000Z</time>
      </trkpt>
      <trkpt lat="34.0295" lon="-4.60886">
        <ele>499.4</ele>
        <time>2023-08-25T15:10:13.000Z</time>
      </trkpt>
      <trkpt lat="34.02919" lon="-4.60897">
        <ele>499.4</ele>
        <time>2023-08-25T15:10:17.000Z</time>
      </trkpt>
      <trkpt lat="34.02888" lon="-4.60909">
        <ele>500.9</ele>
        <time>2023-08-25T15:10:21.000Z</time>
      </trkpt>
      <trkpt lat="34.02856" lon="-4.60921">
        <ele>502.5</ele>
        <time>2023-08-25T15:10:25.000Z</time>
      </trkpt>
      <trkpt lat="34.02832" lon="-4.60929">
        <ele>504</ele>
        <time>2023-08-25T15:10:28.000Z</time>
      </trkpt>
      <trkpt lat="34.028" lon="-4.60942">
        <ele>504.9</ele>
        <time>2023-08-25T15:10:32.000Z</time>
      </trkpt>
      <trkpt lat="34.02777" lon="-4.60951">
        <ele>505.9</ele>
        <time>2023-08-25T15:10:35.000Z</time>
      </trkpt>
      <trkpt lat="34.02746" lon="-4.60963">
        <ele>507.5</ele>
        <time>2023-08-25T15:10:39.000Z</time>
      </trkpt>
      <trkpt lat="34.02724" lon="-4.60973">
        <ele>507.1</ele>
        <time>2023-08-25T15:10:42.000Z</time>
      </trkpt>
      <trkpt lat="34.02692" lon="-4.60985">
        <ele>506.9</ele>
        <time>2023-08-25T15:10:46.000Z</time>
      </trkpt>
      <trkpt lat="34.02669" lon="-4.60992">
        <ele>507.4</ele>
        <time>2023-08-25T15:10:49.000Z</time>
      </trkpt>
      <trkpt lat="34.02637" lon="-4.61004">
        <ele>508.7</ele>
        <time>2023-08-25T15:10:53.000Z</time>
      </trkpt>
      <trkpt lat="34.02605" lon="-4.61017">
        <ele>510</ele>
        <time>2023-08-25T15:10:57.000Z</time>
      </trkpt>
      <trkpt lat="34.02581" lon="-4.61026">
        <ele>509.9</ele>
        <time>2023-08-25T15:11:00.000Z</time>
      </trkpt>
      <trkpt lat="34.0255" lon="-4.61038">
        <ele>511</ele>
        <time>2023-08-25T15:11:04.000Z</time>
      </trkpt>
      <trkpt lat="34.02517" lon="-4.6105">
        <ele>512.1</ele>
        <time>2023-08-25T15:11:08.000Z</time>
      </trkpt>
      <trkpt lat="34.02493" lon="-4.61059">
        <ele>512.6</ele>
        <time>2023-08-25T15:11:11.000Z</time>
      </trkpt>
      <trkpt lat="34.02461" lon="-4.6107">
        <ele>510</ele>
        <time>2023-08-25T15:11:15.000Z</time>
      </trkpt>
      <trkpt lat="34.02429" lon="-4.61083">
        <ele>510.5</ele>
        <time>2023-08-25T15:11:19.000Z</time>
      </trkpt>
      <trkpt lat="34.02399" lon="-4.61095">
        <ele>512.8</ele>
        <time>2023-08-25T15:11:23.000Z</time>
      </trkpt>
      <trkpt lat="34.02376" lon="-4.61105">
        <ele>513.1</ele>
        <time>2023-08-25T15:11:26.000Z</time>
      </trkpt>
      <trkpt lat="34.02345" lon="-4.61117">
        <ele>512.4</ele>
        <time>2023-08-25T15:11:30.000Z</time>
      </trkpt>
      <trkpt lat="34.02321" lon="-4.61125">
        <ele>513.5</ele>
        <time>2023-08-25T15:11:33.000Z</time>
      </trkpt>
      <trkpt lat="34.0229" lon="-4.61139">
        <ele>514.7</ele>
        <time>2023-08-25T15:11:37.000Z</time>
      </trkpt>
      <trkpt lat="34.02267" lon="-4.61148">
        <ele>515.9</ele>
        <time>2023-08-25T15:11:40.000Z</time>
      </trkpt>
      <trkpt lat="34.02237" lon="-4.61161">
        <ele>516.6</ele>
        <time>2023-08-25T15:11:44.000Z</time>
      </trkpt>
      <trkpt lat="34.02212" lon="-4.6117">
        <ele>516.9</ele>
        <time>2023-08-25T15:11:47.000Z</time>
      </trkpt>
      <trkpt lat="34.0218" lon="-4.61182">
        <ele>517.2</ele>
        <time>2023-08-25T15:11:51.000Z</time>
      </trkpt>
      <trkpt lat="34.02157" lon="-4.61191">
        <ele>518.2</ele>
        <time>2023-08-25T15:11:54.000Z</time>
      </trkpt>
      <trkpt lat="34.02126" lon="-4.61203">
        <ele>518.6</ele>
        <time>2023-08-25T15:11:58.000Z</time>
      </trkpt>
      <trkpt lat="34.02104" lon="-4.6121">
        <ele>522.2</ele>
        <time>2023-08-25T15:12:01.000Z</time>
      </trkpt>
      <trkpt lat="34.02075" lon="-4.6122">
        <ele>523.4</ele>
        <time>2023-08-25T15:12:05.000Z</time>
      </trkpt>
      <trkpt lat="34.02045" lon="-4.61231">
        <ele>524</ele>
        <time>2023-08-25T15:12:09.000Z</time>
      </trkpt>
      <trkpt lat="34.02014" lon="-4.61243">
        <ele>525.1</ele>
        <time>2023-08-25T15:12:13.000Z</time>
      </trkpt>
      <trkpt lat="34.01992" lon="-4.61251">
        <ele>525.2</ele>
        <time>2023-08-25T15:12:16.000Z</time>
      </trkpt>
      <trkpt lat="34.01967" lon="-4.6126">
        <ele>526.6</ele>
        <time>2023-08-25T15:12:19.000Z</time>
      </trkpt>
      <trkpt lat="34.01935" lon="-4.61271">
        <ele>526.9</ele>
        <time>2023-08-25T15:12:23.000Z</time>
      </trkpt>
      <trkpt lat="34.01906" lon="-4.61283">
        <ele>529.2</ele>
        <time>2023-08-25T15:12:27.000Z</time>
      </trkpt>
      <trkpt lat="34.01884" lon="-4.61294">
        <ele>530.2</ele>
        <time>2023-08-25T15:12:30.000Z</time>
      </trkpt>
      <trkpt lat="34.01854" lon="-4.61307">
        <ele>531.3</ele>
        <time>2023-08-25T15:12:34.000Z</time>
      </trkpt>
      <trkpt lat="34.01825" lon="-4.61319">
        <ele>532.3</ele>
        <time>2023-08-25T15:12:38.000Z</time>
      </trkpt>
      <trkpt lat="34.01796" lon="-4.61331">
        <ele>534.3</ele>
        <time>2023-08-25T15:12:42.000Z</time>
      </trkpt>
      <trkpt lat="34.01767" lon="-4.61344">
        <ele>533.6</ele>
        <time>2023-08-25T15:12:46.000Z</time>
      </trkpt>
      <trkpt lat="34.01736" lon="-4.61354">
        <ele>535.5</ele>
        <time>2023-08-25T15:12:50.000Z</time>
      </trkpt>
      <trkpt lat="34.01707" lon="-4.61363">
        <ele>536.8</ele>
        <time>2023-08-25T15:12:54.000Z</time>
      </trkpt>
      <trkpt lat="34.01685" lon="-4.6137">
        <ele>537.4</ele>
        <time>2023-08-25T15:12:57.000Z</time>
      </trkpt>
      <trkpt lat="34.01657" lon="-4.61381">
        <ele>540.5</ele>
        <time>2023-08-25T15:13:01.000Z</time>
      </trkpt>
      <trkpt lat="34.01636" lon="-4.61388">
        <ele>541.9</ele>
        <time>2023-08-25T15:13:04.000Z</time>
      </trkpt>
      <trkpt lat="34.01617" lon="-4.61395">
        <ele>543.7</ele>
        <time>2023-08-25T15:13:07.000Z</time>
      </trkpt>
      <trkpt lat="34.01592" lon="-4.61406">
        <ele>543.6</ele>
        <time>2023-08-25T15:13:11.000Z</time>
      </trkpt>
      <trkpt lat="34.01572" lon="-4.61413">
        <ele>543.9</ele>
        <time>2023-08-25T15:13:14.000Z</time>
      </trkpt>
      <trkpt lat="34.01544" lon="-4.61424">
        <ele>545.6</ele>
        <time>2023-08-25T15:13:18.000Z</time>
      </trkpt>
      <trkpt lat="34.01515" lon="-4.61435">
        <ele>546.2</ele>
        <time>2023-08-25T15:13:22.000Z</time>
      </trkpt>
      <trkpt lat="34.01483" lon="-4.61445">
        <ele>547.4</ele>
        <time>2023-08-25T15:13:26.000Z</time>
      </trkpt>
      <trkpt lat="34.01461" lon="-4.61453">
        <ele>548.9</ele>
        <time>2023-08-25T15:13:29.000Z</time>
      </trkpt>
      <trkpt lat="34.01433" lon="-4.61465">
        <ele>550.7</ele>
        <time>2023-08-25T15:13:33.000Z</time>
      </trkpt>
      <trkpt lat="34.01404" lon="-4.61477">
        <ele>552.1</ele>
        <time>2023-08-25T15:13:37.000Z</time>
      </trkpt>
      <trkpt lat="34.0138" lon="-4.61486">
        <ele>554.3</ele>
        <time>2023-08-25T15:13:40.000Z</time>
      </trkpt>
      <trkpt lat="34.01348" lon="-4.61498">
        <ele>552.9</ele>
        <time>2023-08-25T15:13:44.000Z</time>
      </trkpt>
      <trkpt lat="34.01315" lon="-4.61512">
        <ele>556.7</ele>
        <time>2023-08-25T15:13:48.000Z</time>
      </trkpt>
      <trkpt lat="34.01282" lon="-4.61523">
        <ele>557.4</ele>
        <time>2023-08-25T15:13:52.000Z</time>
      </trkpt>
      <trkpt lat="34.01251" lon="-4.61535">
        <ele>557.9</ele>
        <time>2023-08-25T15:13:56.000Z</time>
      </trkpt>
      <trkpt lat="34.0122" lon="-4.61547">
        <ele>559.7</ele>
        <time>2023-08-25T15:14:00.000Z</time>
      </trkpt>
      <trkpt lat="34.01197" lon="-4.61557">
        <ele>558.4</ele>
        <time>2023-08-25T15:14:03.000Z</time>
      </trkpt>
      <trkpt lat="34.01173" lon="-4.61565">
        <ele>559.7</ele>
        <time>2023-08-25T15:14:06.000Z</time>
      </trkpt>
      <trkpt lat="34.01143" lon="-4.61577">
        <ele>562.9</ele>
        <time>2023-08-25T15:14:10.000Z</time>
      </trkpt>
      <trkpt lat="34.01122" lon="-4.61586">
        <ele>563.4</ele>
        <time>2023-08-25T15:14:13.000Z</time>
      </trkpt>
      <trkpt lat="34.01094" lon="-4.61599">
        <ele>564.4</ele>
        <time>2023-08-25T15:14:17.000Z</time>
      </trkpt>
      <trkpt lat="34.01074" lon="-4.6161">
        <ele>566.3</ele>
        <time>2023-08-25T15:14:20.000Z</time>
      </trkpt>
      <trkpt lat="34.01054" lon="-4.61622">
        <ele>567.2</ele>
        <time>2023-08-25T15:14:23.000Z</time>
      </trkpt>
      <trkpt lat="34.01029" lon="-4.61639">
        <ele>568.1</ele>
        <time>2023-08-25T15:14:27.000Z</time>
      </trkpt>
      <trkpt lat="34.01003" lon="-4.61656">
        <ele>569.3</ele>
        <time>2023-08-25T15:14:31.000Z</time>
      </trkpt>
      <trkpt lat="34.00983" lon="-4.61671">
        <ele>568.5</ele>
        <time>2023-08-25T15:14:34.000Z</time>
      </trkpt>
      <trkpt lat="34.00964" lon="-4.61686">
        <ele>570</ele>
        <time>2023-08-25T15:14:37.000Z</time>
      </trkpt>
      <trkpt lat="34.00936" lon="-4.61707">
        <ele>572.1</ele>
        <time>2023-08-25T15:14:41.000Z</time>
      </trkpt>
      <trkpt lat="34.00906" lon="-4.61727">
        <ele>572.3</ele>
        <time>2023-08-25T15:14:45.000Z</time>
      </trkpt>
      <trkpt lat="34.00878" lon="-4.61747">
        <ele>573.2</ele>
        <time>2023-08-25T15:14:49.000Z</time>
      </trkpt>
      <trkpt lat="34.00848" lon="-4.61766">
        <ele>573.3</ele>
        <time>2023-08-25T15:14:53.000Z</time>
      </trkpt>
      <trkpt lat="34.00818" lon="-4.61788">
        <ele>575.4</ele>
        <time>2023-08-25T15:14:57.000Z</time>
      </trkpt>
      <trkpt lat="34.00789" lon="-4.61808">
        <ele>576.2</ele>
        <time>2023-08-25T15:15:01.000Z</time>
      </trkpt>
      <trkpt lat="34.00761" lon="-4.61828">
        <ele>577.1</ele>
        <time>2023-08-25T15:15:05.000Z</time>
      </trkpt>
      <trkpt lat="34.00731" lon="-4.61848">
        <ele>578.4</ele>
        <time>2023-08-25T15:15:09.000Z</time>
      </trkpt>
      <trkpt lat="34.00709" lon="-4.61863">
        <ele>578.6</ele>
        <time>2023-08-25T15:15:12.000Z</time>
      </trkpt>
      <trkpt lat="34.00687" lon="-4.61879">
        <ele>579.2</ele>
        <time>2023-08-25T15:15:15.000Z</time>
      </trkpt>
      <trkpt lat="34.00658" lon="-4.61899">
        <ele>580.2</ele>
        <time>2023-08-25T15:15:19.000Z</time>
      </trkpt>
      <trkpt lat="34.00631" lon="-4.61917">
        <ele>580.3</ele>
        <time>2023-08-25T15:15:23.000Z</time>
      </trkpt>
      <trkpt lat="34.00602" lon="-4.61937">
        <ele>581.5</ele>
        <time>2023-08-25T15:15:27.000Z</time>
      </trkpt>
      <trkpt lat="34.00574" lon="-4.61957">
        <ele>582.1</ele>
        <time>2023-08-25T15:15:31.000Z</time>
      </trkpt>
      <trkpt lat="34.00553" lon="-4.61972">
        <ele>583</ele>
        <time>2023-08-25T15:15:34.000Z</time>
      </trkpt>
      <trkpt lat="34.00525" lon="-4.61991">
        <ele>583.5</ele>
        <time>2023-08-25T15:15:38.000Z</time>
      </trkpt>
      <trkpt lat="34.00496" lon="-4.62011">
        <ele>584.6</ele>
        <time>2023-08-25T15:15:42.000Z</time>
      </trkpt>
      <trkpt lat="34.00467" lon="-4.62031">
        <ele>584.8</ele>
        <time>2023-08-25T15:15:46.000Z</time>
      </trkpt>
      <trkpt lat="34.00439" lon="-4.62051">
        <ele>585.8</ele>
        <time>2023-08-25T15:15:50.000Z</time>
      </trkpt>
      <trkpt lat="34.0041" lon="-4.62071">
        <ele>585.7</ele>
        <time>2023-08-25T15:15:54.000Z</time>
      </trkpt>
      <trkpt lat="34.00381" lon="-4.62091">
        <ele>587</ele>
        <time>2023-08-25T15:15:58.000Z</time>
      </trkpt>
      <trkpt lat="34.00353" lon="-4.62112">
        <ele>587.2</ele>
        <time>2023-08-25T15:16:02.000Z</time>
      </trkpt>
      <trkpt lat="34.00324" lon="-4.62132">
        <ele>587.5</ele>
        <time>2023-08-25T15:16:06.000Z</time>
      </trkpt>
      <trkpt lat="34.00304" lon="-4.62146">
        <ele>588.2</ele>
        <time>2023-08-25T15:16:09.000Z</time>
      </trkpt>
      <trkpt lat="34.00279" lon="-4.62164">
        <ele>589.3</ele>
        <time>2023-08-25T15:16:13.000Z</time>
      </trkpt>
      <trkpt lat="34.0026" lon="-4.62178">
        <ele>590.9</ele>
        <time>2023-08-25T15:16:16.000Z</time>
      </trkpt>
      <trkpt lat="34.00241" lon="-4.62193">
        <ele>591.9</ele>
        <time>2023-08-25T15:16:19.000Z</time>
      </trkpt>
      <trkpt lat="34.00215" lon="-4.62213">
        <ele>592.5</ele>
        <time>2023-08-25T15:16:23.000Z</time>
      </trkpt>
      <trkpt lat="34.00196" lon="-4.62226">
        <ele>594.9</ele>
        <time>2023-08-25T15:16:26.000Z</time>
      </trkpt>
      <trkpt lat="34.00176" lon="-4.62239">
        <ele>595.1</ele>
        <time>2023-08-25T15:16:29.000Z</time>
      </trkpt>
      <trkpt lat="34.00149" lon="-4.62257">
        <ele>596.1</ele>
        <time>2023-08-25T15:16:33.000Z</time>
      </trkpt>
      <trkpt lat="34.00126" lon="-4.62272">
        <ele>596.6</ele>
        <time>2023-08-25T15:16:36.000Z</time>
      </trkpt>
      <trkpt lat="34.00105" lon="-4.62287">
        <ele>597.3</ele>
        <time>2023-08-25T15:16:39.000Z</time>
      </trkpt>
      <trkpt lat="34.00077" lon="-4.62305">
        <ele>598.4</ele>
        <time>2023-08-25T15:16:43.000Z</time>
      </trkpt>
      <trkpt lat="34.00053" lon="-4.62323">
        <ele>598.8</ele>
        <time>2023-08-25T15:16:47.000Z</time>
      </trkpt>
      <trkpt lat="34.00027" lon="-4.62343">
        <ele>599.9</ele>
        <time>2023-08-25T15:16:51.000Z</time>
      </trkpt>
      <trkpt lat="34.00002" lon="-4.62365">
        <ele>601.1</ele>
        <time>2023-08-25T15:16:55.000Z</time>
      </trkpt>
      <trkpt lat="33.99985" lon="-4.62383">
        <ele>601.2</ele>
        <time>2023-08-25T15:16:58.000Z</time>
      </trkpt>
      <trkpt lat="33.99964" lon="-4.6241">
        <ele>601.1</ele>
        <time>2023-08-25T15:17:02.000Z</time>
      </trkpt>
      <trkpt lat="33.99947" lon="-4.62439">
        <ele>601.4</ele>
        <time>2023-08-25T15:17:06.000Z</time>
      </trkpt>
      <trkpt lat="33.99931" lon="-4.62472">
        <ele>602.8</ele>
        <time>2023-08-25T15:17:10.000Z</time>
      </trkpt>
      <trkpt lat="33.99917" lon="-4.62507">
        <ele>602.1</ele>
        <time>2023-08-25T15:17:14.000Z</time>
      </trkpt>
      <trkpt lat="33.99903" lon="-4.62543">
        <ele>602.6</ele>
        <time>2023-08-25T15:17:18.000Z</time>
      </trkpt>
      <trkpt lat="33.99892" lon="-4.62577">
        <ele>603.5</ele>
        <time>2023-08-25T15:17:22.000Z</time>
      </trkpt>
      <trkpt lat="33.99883" lon="-4.62612">
        <ele>603.1</ele>
        <time>2023-08-25T15:17:26.000Z</time>
      </trkpt>
      <trkpt lat="33.99871" lon="-4.62645">
        <ele>603.9</ele>
        <time>2023-08-25T15:17:30.000Z</time>
      </trkpt>
      <trkpt lat="33.99856" lon="-4.62676">
        <ele>603.4</ele>
        <time>2023-08-25T15:17:34.000Z</time>
      </trkpt>
      <trkpt lat="33.99842" lon="-4.62707">
        <ele>603.8</ele>
        <time>2023-08-25T15:17:38.000Z</time>
      </trkpt>
      <trkpt lat="33.99823" lon="-4.62737">
        <ele>604.4</ele>
        <time>2023-08-25T15:17:42.000Z</time>
      </trkpt>
      <trkpt lat="33.99809" lon="-4.62759">
        <ele>604.2</ele>
        <time>2023-08-25T15:17:45.000Z</time>
      </trkpt>
      <trkpt lat="33.99793" lon="-4.62789">
        <ele>604.6</ele>
        <time>2023-08-25T15:17:49.000Z</time>
      </trkpt>
      <trkpt lat="33.99782" lon="-4.62812">
        <ele>604.3</ele>
        <time>2023-08-25T15:17:52.000Z</time>
      </trkpt>
      <trkpt lat="33.99767" lon="-4.62846">
        <ele>604.9</ele>
        <time>2023-08-25T15:17:56.000Z</time>
      </trkpt>
      <trkpt lat="33.99754" lon="-4.62878">
        <ele>604.8</ele>
        <time>2023-08-25T15:18:00.000Z</time>
      </trkpt>
      <trkpt lat="33.99745" lon="-4.62905">
        <ele>606.4</ele>
        <time>2023-08-25T15:18:03.000Z</time>
      </trkpt>
      <trkpt lat="33.99737" lon="-4.62932">
        <ele>604.8</ele>
        <time>2023-08-25T15:18:06.000Z</time>
      </trkpt>
      <trkpt lat="33.99726" lon="-4.62966">
        <ele>606.5</ele>
        <time>2023-08-25T15:18:10.000Z</time>
      </trkpt>
      <trkpt lat="33.99718" lon="-4.62994">
        <ele>605.7</ele>
        <time>2023-08-25T15:18:13.000Z</time>
      </trkpt>
      <trkpt lat="33.99712" lon="-4.6303">
        <ele>606</ele>
        <time>2023-08-25T15:18:17.000Z</time>
      </trkpt>
      <trkpt lat="33.99711" lon="-4.63064">
        <ele>605.4</ele>
        <time>2023-08-25T15:18:21.000Z</time>
      </trkpt>
      <trkpt lat="33.99712" lon="-4.63101">
        <ele>605.6</ele>
        <time>2023-08-25T15:18:25.000Z</time>
      </trkpt>
      <trkpt lat="33.99713" lon="-4.63138">
        <ele>606.4</ele>
        <time>2023-08-25T15:18:29.000Z</time>
      </trkpt>
      <trkpt lat="33.99712" lon="-4.63175">
        <ele>606.8</ele>
        <time>2023-08-25T15:18:33.000Z</time>
      </trkpt>
      <trkpt lat="33.99712" lon="-4.63203">
        <ele>606.9</ele>
        <time>2023-08-25T15:18:36.000Z</time>
      </trkpt>
      <trkpt lat="33.99711" lon="-4.63231">
        <ele>608.5</ele>
        <time>2023-08-25T15:18:39.000Z</time>
      </trkpt>
      <trkpt lat="33.99706" lon="-4.63267">
        <ele>608.2</ele>
        <time>2023-08-25T15:18:43.000Z</time>
      </trkpt>
      <trkpt lat="33.99695" lon="-4.63301">
        <ele>608.7</ele>
        <time>2023-08-25T15:18:47.000Z</time>
      </trkpt>
      <trkpt lat="33.99685" lon="-4.63326">
        <ele>608.1</ele>
        <time>2023-08-25T15:18:50.000Z</time>
      </trkpt>
      <trkpt lat="33.99674" lon="-4.6335">
        <ele>608.2</ele>
        <time>2023-08-25T15:18:53.000Z</time>
      </trkpt>
      <trkpt lat="33.99657" lon="-4.63381">
        <ele>609</ele>
        <time>2023-08-25T15:18:57.000Z</time>
      </trkpt>
      <trkpt lat="33.99641" lon="-4.63402">
        <ele>608.8</ele>
        <time>2023-08-25T15:19:00.000Z</time>
      </trkpt>
      <trkpt lat="33.99626" lon="-4.63422">
        <ele>608.9</ele>
        <time>2023-08-25T15:19:03.000Z</time>
      </trkpt>
      <trkpt lat="33.99602" lon="-4.63445">
        <ele>607.6</ele>
        <time>2023-08-25T15:19:07.000Z</time>
      </trkpt>
      <trkpt lat="33.99581" lon="-4.6346">
        <ele>606.8</ele>
        <time>2023-08-25T15:19:10.000Z</time>
      </trkpt>
      <trkpt lat="33.99559" lon="-4.63474">
        <ele>604.9</ele>
        <time>2023-08-25T15:19:13.000Z</time>
      </trkpt>
      <trkpt lat="33.9953" lon="-4.63489">
        <ele>604.9</ele>
        <time>2023-08-25T15:19:17.000Z</time>
      </trkpt>
      <trkpt lat="33.99501" lon="-4.63503">
        <ele>602.8</ele>
        <time>2023-08-25T15:19:21.000Z</time>
      </trkpt>
      <trkpt lat="33.99479" lon="-4.63513">
        <ele>602.5</ele>
        <time>2023-08-25T15:19:24.000Z</time>
      </trkpt>
      <trkpt lat="33.9945" lon="-4.63527">
        <ele>602</ele>
        <time>2023-08-25T15:19:28.000Z</time>
      </trkpt>
      <trkpt lat="33.99429" lon="-4.63538">
        <ele>600.5</ele>
        <time>2023-08-25T15:19:31.000Z</time>
      </trkpt>
      <trkpt lat="33.99408" lon="-4.63548">
        <ele>600.2</ele>
        <time>2023-08-25T15:19:34.000Z</time>
      </trkpt>
      <trkpt lat="33.9938" lon="-4.63563">
        <ele>598.7</ele>
        <time>2023-08-25T15:19:38.000Z</time>
      </trkpt>
      <trkpt lat="33.99351" lon="-4.63577">
        <ele>596.2</ele>
        <time>2023-08-25T15:19:42.000Z</time>
      </trkpt>
      <trkpt lat="33.9933" lon="-4.63587">
        <ele>597</ele>
        <time>2023-08-25T15:19:45.000Z</time>
      </trkpt>
      <trkpt lat="33.99304" lon="-4.636">
        <ele>596.1</ele>
        <time>2023-08-25T15:19:49.000Z</time>
      </trkpt>
      <trkpt lat="33.99279" lon="-4.63613">
        <ele>596.6</ele>
        <time>2023-08-25T15:19:53.000Z</time>
      </trkpt>
      <trkpt lat="33.99257" lon="-4.63623">
        <ele>597.2</ele>
        <time>2023-08-25T15:19:56.000Z</time>
      </trkpt>
      <trkpt lat="33.99237" lon="-4.63635">
        <ele>597.9</ele>
        <time>2023-08-25T15:19:59.000Z</time>
      </trkpt>
      <trkpt lat="33.99209" lon="-4.63649">
        <ele>599.5</ele>
        <time>2023-08-25T15:20:03.000Z</time>
      </trkpt>
      <trkpt lat="33.99181" lon="-4.63664">
        <ele>599.6</ele>
        <time>2023-08-25T15:20:07.000Z</time>
      </trkpt>
      <trkpt lat="33.99161" lon="-4.63674">
        <ele>600.6</ele>
        <time>2023-08-25T15:20:10.000Z</time>
      </trkpt>
      <trkpt lat="33.99132" lon="-4.63687">
        <ele>601</ele>
        <time>2023-08-25T15:20:14.000Z</time>
      </trkpt>
      <trkpt lat="33.99111" lon="-4.63697">
        <ele>600.4</ele>
        <time>2023-08-25T15:20:17.000Z</time>
      </trkpt>
      <trkpt lat="33.99086" lon="-4.63708">
        <ele>599.8</ele>
        <time>2023-08-25T15:20:21.000Z</time>
      </trkpt>
      <trkpt lat="33.9906" lon="-4.63719">
        <ele>600.5</ele>
        <time>2023-08-25T15:20:25.000Z</time>
      </trkpt>
      <trkpt lat="33.99041" lon="-4.6373">
        <ele>600.8</ele>
        <time>2023-08-25T15:20:28.000Z</time>
      </trkpt>
      <trkpt lat="33.99017" lon="-4.63743">
        <ele>600.9</ele>
        <time>2023-08-25T15:20:32.000Z</time>
      </trkpt>
      <trkpt lat="33.98988" lon="-4.63757">
        <ele>599.4</ele>
        <time>2023-08-25T15:20:36.000Z</time>
      </trkpt>
      <trkpt lat="33.98967" lon="-4.63768">
        <ele>600</ele>
        <time>2023-08-25T15:20:39.000Z</time>
      </trkpt>
      <trkpt lat="33.98946" lon="-4.63779">
        <ele>600.3</ele>
        <time>2023-08-25T15:20:42.000Z</time>
      </trkpt>
      <trkpt lat="33.98917" lon="-4.63794">
        <ele>601</ele>
        <time>2023-08-25T15:20:46.000Z</time>
      </trkpt>
      <trkpt lat="33.98888" lon="-4.63808">
        <ele>600.4</ele>
        <time>2023-08-25T15:20:50.000Z</time>
      </trkpt>
      <trkpt lat="33.98868" lon="-4.63819">
        <ele>601.5</ele>
        <time>2023-08-25T15:20:53.000Z</time>
      </trkpt>
      <trkpt lat="33.98841" lon="-4.63832">
        <ele>602.6</ele>
        <time>2023-08-25T15:20:57.000Z</time>
      </trkpt>
      <trkpt lat="33.98819" lon="-4.63844">
        <ele>604.2</ele>
        <time>2023-08-25T15:21:00.000Z</time>
      </trkpt>
      <trkpt lat="33.98789" lon="-4.63858">
        <ele>604.6</ele>
        <time>2023-08-25T15:21:04.000Z</time>
      </trkpt>
      <trkpt lat="33.98762" lon="-4.63872">
        <ele>605.5</ele>
        <time>2023-08-25T15:21:08.000Z</time>
      </trkpt>
      <trkpt lat="33.98736" lon="-4.63886">
        <ele>605.8</ele>
        <time>2023-08-25T15:21:12.000Z</time>
      </trkpt>
      <trkpt lat="33.98714" lon="-4.63896">
        <ele>606.9</ele>
        <time>2023-08-25T15:21:15.000Z</time>
      </trkpt>
      <trkpt lat="33.98686" lon="-4.6391">
        <ele>607.4</ele>
        <time>2023-08-25T15:21:19.000Z</time>
      </trkpt>
      <trkpt lat="33.98665" lon="-4.63921">
        <ele>607.1</ele>
        <time>2023-08-25T15:21:22.000Z</time>
      </trkpt>
      <trkpt lat="33.98637" lon="-4.63937">
        <ele>607.8</ele>
        <time>2023-08-25T15:21:26.000Z</time>
      </trkpt>
      <trkpt lat="33.98616" lon="-4.63946">
        <ele>608.8</ele>
        <time>2023-08-25T15:21:29.000Z</time>
      </trkpt>
      <trkpt lat="33.98596" lon="-4.63957">
        <ele>608.3</ele>
        <time>2023-08-25T15:21:32.000Z</time>
      </trkpt>
      <trkpt lat="33.98567" lon="-4.63972">
        <ele>609.7</ele>
        <time>2023-08-25T15:21:36.000Z</time>
      </trkpt>
      <trkpt lat="33.98547" lon="-4.63982">
        <ele>610.3</ele>
        <time>2023-08-25T15:21:39.000Z</time>
      </trkpt>
      <trkpt lat="33.98517" lon="-4.63996">
        <ele>611.6</ele>
        <time>2023-08-25T15:21:43.000Z</time>
      </trkpt>
      <trkpt lat="33.98489" lon="-4.6401">
        <ele>612</ele>
        <time>2023-08-25T15:21:47.000Z</time>
      </trkpt>
      <trkpt lat="33.98463" lon="-4.64023">
        <ele>613.3</ele>
        <time>2023-08-25T15:21:51.000Z</time>
      </trkpt>
      <trkpt lat="33.98435" lon="-4.64036">
        <ele>612.7</ele>
        <time>2023-08-25T15:21:55.000Z</time>
      </trkpt>
      <trkpt lat="33.98414" lon="-4.64048">
        <ele>614.3</ele>
        <time>2023-08-25T15:21:58.000Z</time>
      </trkpt>
      <trkpt lat="33.98394" lon="-4.64062">
        <ele>614.3</ele>
        <time>2023-08-25T15:22:01.000Z</time>
      </trkpt>
      <trkpt lat="33.98368" lon="-4.6408">
        <ele>615.1</ele>
        <time>2023-08-25T15:22:05.000Z</time>
      </trkpt>
      <trkpt lat="33.9835" lon="-4.64094">
        <ele>615.2</ele>
        <time>2023-08-25T15:22:08.000Z</time>
      </trkpt>
      <trkpt lat="33.98332" lon="-4.64111">
        <ele>616.3</ele>
        <time>2023-08-25T15:22:11.000Z</time>
      </trkpt>
      <trkpt lat="33.98307" lon="-4.64134">
        <ele>619</ele>
        <time>2023-08-25T15:22:15.000Z</time>
      </trkpt>
      <trkpt lat="33.98283" lon="-4.64157">
        <ele>618.8</ele>
        <time>2023-08-25T15:22:19.000Z</time>
      </trkpt>
      <trkpt lat="33.98265" lon="-4.64175">
        <ele>619.8</ele>
        <time>2023-08-25T15:22:22.000Z</time>
      </trkpt>
      <trkpt lat="33.98248" lon="-4.64192">
        <ele>620.1</ele>
        <time>2023-08-25T15:22:25.000Z</time>
      </trkpt>
      <trkpt lat="33.98231" lon="-4.64209">
        <ele>621</ele>
        <time>2023-08-25T15:22:28.000Z</time>
      </trkpt>
      <trkpt lat="33.98207" lon="-4.6423">
        <ele>621.7</ele>
        <time>2023-08-25T15:22:32.000Z</time>
      </trkpt>
      <trkpt lat="33.98185" lon="-4.64252">
        <ele>623.7</ele>
        <time>2023-08-25T15:22:36.000Z</time>
      </trkpt>
      <trkpt lat="33.98168" lon="-4.6427">
        <ele>623.1</ele>
        <time>2023-08-25T15:22:39.000Z</time>
      </trkpt>
      <trkpt lat="33.98143" lon="-4.64295">
        <ele>626.5</ele>
        <time>2023-08-25T15:22:43.000Z</time>
      </trkpt>
      <trkpt lat="33.98125" lon="-4.64312">
        <ele>627.3</ele>
        <time>2023-08-25T15:22:46.000Z</time>
      </trkpt>
      <trkpt lat="33.98107" lon="-4.6433">
        <ele>627.9</ele>
        <time>2023-08-25T15:22:49.000Z</time>
      </trkpt>
      <trkpt lat="33.98084" lon="-4.64354">
        <ele>628.8</ele>
        <time>2023-08-25T15:22:53.000Z</time>
      </trkpt>
      <trkpt lat="33.98061" lon="-4.64376">
        <ele>628.9</ele>
        <time>2023-08-25T15:22:57.000Z</time>
      </trkpt>
      <trkpt lat="33.98042" lon="-4.64391">
        <ele>628.8</ele>
        <time>2023-08-25T15:23:00.000Z</time>
      </trkpt>
      <trkpt lat="33.98022" lon="-4.64408">
        <ele>630.2</ele>
        <time>2023-08-25T15:23:03.000Z</time>
      </trkpt>
      <trkpt lat="33.97999" lon="-4.6443">
        <ele>630.7</ele>
        <time>2023-08-25T15:23:07.000Z</time>
      </trkpt>
      <trkpt lat="33.97975" lon="-4.64454">
        <ele>630.7</ele>
        <time>2023-08-25T15:23:11.000Z</time>
      </trkpt>
      <trkpt lat="33.97958" lon="-4.64472">
        <ele>630.9</ele>
        <time>2023-08-25T15:23:14.000Z</time>
      </trkpt>
      <trkpt lat="33.97936" lon="-4.64498">
        <ele>631.2</ele>
        <time>2023-08-25T15:23:18.000Z</time>
      </trkpt>
      <trkpt lat="33.9792" lon="-4.64518">
        <ele>630.8</ele>
        <time>2023-08-25T15:23:21.000Z</time>
      </trkpt>
      <trkpt lat="33.97902" lon="-4.64547">
        <ele>629.6</ele>
        <time>2023-08-25T15:23:25.000Z</time>
      </trkpt>
      <trkpt lat="33.97888" lon="-4.64577">
        <ele>627.3</ele>
        <time>2023-08-25T15:23:29.000Z</time>
      </trkpt>
      <trkpt lat="33.97878" lon="-4.646">
        <ele>627.8</ele>
        <time>2023-08-25T15:23:32.000Z</time>
      </trkpt>
      <trkpt lat="33.9787" lon="-4.64635">
        <ele>625.9</ele>
        <time>2023-08-25T15:23:36.000Z</time>
      </trkpt>
      <trkpt lat="33.97862" lon="-4.64671">
        <ele>623.7</ele>
        <time>2023-08-25T15:23:40.000Z</time>
      </trkpt>
      <trkpt lat="33.97858" lon="-4.64707">
        <ele>623</ele>
        <time>2023-08-25T15:23:44.000Z</time>
      </trkpt>
      <trkpt lat="33.97858" lon="-4.64735">
        <ele>620.9</ele>
        <time>2023-08-25T15:23:47.000Z</time>
      </trkpt>
      <trkpt lat="33.97862" lon="-4.64773">
        <ele>619.5</ele>
        <time>2023-08-25T15:23:51.000Z</time>
      </trkpt>
      <trkpt lat="33.97869" lon="-4.64811">
        <ele>618.1</ele>
        <time>2023-08-25T15:23:55.000Z</time>
      </trkpt>
      <trkpt lat="33.97874" lon="-4.64841">
        <ele>615.9</ele>
        <time>2023-08-25T15:23:58.000Z</time>
      </trkpt>
      <trkpt lat="33.9788" lon="-4.64879">
        <ele>615.4</ele>
        <time>2023-08-25T15:24:02.000Z</time>
      </trkpt>
      <trkpt lat="33.97885" lon="-4.64918">
        <ele>613.7</ele>
        <time>2023-08-25T15:24:06.000Z</time>
      </trkpt>
      <trkpt lat="33.97891" lon="-4.64956">
        <ele>613.1</ele>
        <time>2023-08-25T15:24:10.000Z</time>
      </trkpt>
      <trkpt lat="33.97894" lon="-4.64985">
        <ele>612.9</ele>
        <time>2023-08-25T15:24:13.000Z</time>
      </trkpt>
      <trkpt lat="33.979" lon="-4.65027">
        <ele>612.6</ele>
        <time>2023-08-25T15:24:17.000Z</time>
      </trkpt>
      <trkpt lat="33.97905" lon="-4.65067">
        <ele>611.3</ele>
        <time>2023-08-25T15:24:21.000Z</time>
      </trkpt>
      <trkpt lat="33.9791" lon="-4.65103">
        <ele>610.6</ele>
        <time>2023-08-25T15:24:25.000Z</time>
      </trkpt>
      <trkpt lat="33.97914" lon="-4.65132">
        <ele>610.6</ele>
        <time>2023-08-25T15:24:28.000Z</time>
      </trkpt>
      <trkpt lat="33.97919" lon="-4.65172">
        <ele>609.7</ele>
        <time>2023-08-25T15:24:32.000Z</time>
      </trkpt>
      <trkpt lat="33.97924" lon="-4.65213">
        <ele>609.4</ele>
        <time>2023-08-25T15:24:36.000Z</time>
      </trkpt>
      <trkpt lat="33.97929" lon="-4.65252">
        <ele>607.7</ele>
        <time>2023-08-25T15:24:40.000Z</time>
      </trkpt>
      <trkpt lat="33.97933" lon="-4.65281">
        <ele>607.2</ele>
        <time>2023-08-25T15:24:43.000Z</time>
      </trkpt>
      <trkpt lat="33.97938" lon="-4.65321">
        <ele>607.6</ele>
        <time>2023-08-25T15:24:47.000Z</time>
      </trkpt>
      <trkpt lat="33.97942" lon="-4.65351">
        <ele>606.7</ele>
        <time>2023-08-25T15:24:50.000Z</time>
      </trkpt>
      <trkpt lat="33.97945" lon="-4.6538">
        <ele>605.8</ele>
        <time>2023-08-25T15:24:53.000Z</time>
      </trkpt>
      <trkpt lat="33.9795" lon="-4.65419">
        <ele>606.1</ele>
        <time>2023-08-25T15:24:57.000Z</time>
      </trkpt>
      <trkpt lat="33.97954" lon="-4.65458">
        <ele>605.2</ele>
        <time>2023-08-25T15:25:01.000Z</time>
      </trkpt>
      <trkpt lat="33.97958" lon="-4.65499">
        <ele>605.8</ele>
        <time>2023-08-25T15:25:05.000Z</time>
      </trkpt>
      <trkpt lat="33.97962" lon="-4.65529">
        <ele>604.8</ele>
        <time>2023-08-25T15:25:08.000Z</time>
      </trkpt>
      <trkpt lat="33.97966" lon="-4.65557">
        <ele>604.9</ele>
        <time>2023-08-25T15:25:11.000Z</time>
      </trkpt>
      <trkpt lat="33.97969" lon="-4.65586">
        <ele>605.4</ele>
        <time>2023-08-25T15:25:14.000Z</time>
      </trkpt>
      <trkpt lat="33.97974" lon="-4.65624">
        <ele>605.5</ele>
        <time>2023-08-25T15:25:18.000Z</time>
      </trkpt>
      <trkpt lat="33.97978" lon="-4.65653">
        <ele>605.2</ele>
        <time>2023-08-25T15:25:21.000Z</time>
      </trkpt>
      <trkpt lat="33.97984" lon="-4.65693">
        <ele>605.4</ele>
        <time>2023-08-25T15:25:25.000Z</time>
      </trkpt>
      <trkpt lat="33.97989" lon="-4.65731">
        <ele>604.6</ele>
        <time>2023-08-25T15:25:29.000Z</time>
      </trkpt>
      <trkpt lat="33.97995" lon="-4.65769">
        <ele>604.3</ele>
        <time>2023-08-25T15:25:33.000Z</time>
      </trkpt>
      <trkpt lat="33.97998" lon="-4.65798">
        <ele>603.1</ele>
        <time>2023-08-25T15:25:36.000Z</time>
      </trkpt>
      <trkpt lat="33.98002" lon="-4.65828">
        <ele>603.7</ele>
        <time>2023-08-25T15:25:39.000Z</time>
      </trkpt>
      <trkpt lat="33.98007" lon="-4.65864">
        <ele>603.1</ele>
        <time>2023-08-25T15:25:43.000Z</time>
      </trkpt>
      <trkpt lat="33.98009" lon="-4.65892">
        <ele>604.1</ele>
        <time>2023-08-25T15:25:46.000Z</time>
      </trkpt>
      <trkpt lat="33.98014" lon="-4.65929">
        <ele>603.4</ele>
        <time>2023-08-25T15:25:50.000Z</time>
      </trkpt>
      <trkpt lat="33.98017" lon="-4.65956">
        <ele>603.1</ele>
        <time>2023-08-25T15:25:53.000Z</time>
      </trkpt>
      <trkpt lat="33.98022" lon="-4.65993">
        <ele>602.5</ele>
        <time>2023-08-25T15:25:57.000Z</time>
      </trkpt>
      <trkpt lat="33.98027" lon="-4.6603">
        <ele>602.1</ele>
        <time>2023-08-25T15:26:01.000Z</time>
      </trkpt>
      <trkpt lat="33.9803" lon="-4.66057">
        <ele>601.4</ele>
        <time>2023-08-25T15:26:04.000Z</time>
      </trkpt>
      <trkpt lat="33.98034" lon="-4.66095">
        <ele>600.9</ele>
        <time>2023-08-25T15:26:08.000Z</time>
      </trkpt>
      <trkpt lat="33.98037" lon="-4.66123">
        <ele>601.7</ele>
        <time>2023-08-25T15:26:11.000Z</time>
      </trkpt>
      <trkpt lat="33.9804" lon="-4.6616">
        <ele>602.5</ele>
        <time>2023-08-25T15:26:15.000Z</time>
      </trkpt>
      <trkpt lat="33.98046" lon="-4.66194">
        <ele>602</ele>
        <time>2023-08-25T15:26:19.000Z</time>
      </trkpt>
      <trkpt lat="33.98051" lon="-4.6623">
        <ele>601.8</ele>
        <time>2023-08-25T15:26:23.000Z</time>
      </trkpt>
      <trkpt lat="33.98054" lon="-4.66257">
        <ele>601.6</ele>
        <time>2023-08-25T15:26:26.000Z</time>
      </trkpt>
      <trkpt lat="33.9806" lon="-4.66283">
        <ele>600.9</ele>
        <time>2023-08-25T15:26:29.000Z</time>
      </trkpt>
      <trkpt lat="33.98067" lon="-4.66318">
        <ele>600.4</ele>
        <time>2023-08-25T15:26:33.000Z</time>
      </trkpt>
      <trkpt lat="33.98076" lon="-4.66353">
        <ele>599.5</ele>
        <time>2023-08-25T15:26:37.000Z</time>
      </trkpt>
      <trkpt lat="33.98084" lon="-4.66389">
        <ele>600.3</ele>
        <time>2023-08-25T15:26:41.000Z</time>
      </trkpt>
      <trkpt lat="33.98089" lon="-4.66415">
        <ele>600.1</ele>
        <time>2023-08-25T15:26:44.000Z</time>
      </trkpt>
      <trkpt lat="33.98098" lon="-4.66453">
        <ele>598.7</ele>
        <time>2023-08-25T15:26:48.000Z</time>
      </trkpt>
      <trkpt lat="33.98107" lon="-4.66489">
        <ele>598.3</ele>
        <time>2023-08-25T15:26:52.000Z</time>
      </trkpt>
      <trkpt lat="33.98118" lon="-4.66523">
        <ele>597.4</ele>
        <time>2023-08-25T15:26:56.000Z</time>
      </trkpt>
      <trkpt lat="33.98127" lon="-4.66549">
        <ele>596.4</ele>
        <time>2023-08-25T15:26:59.000Z</time>
      </trkpt>
      <trkpt lat="33.98135" lon="-4.66575">
        <ele>594.4</ele>
        <time>2023-08-25T15:27:02.000Z</time>
      </trkpt>
      <trkpt lat="33.98146" lon="-4.6661">
        <ele>592.1</ele>
        <time>2023-08-25T15:27:06.000Z</time>
      </trkpt>
      <trkpt lat="33.98154" lon="-4.66647">
        <ele>592.6</ele>
        <time>2023-08-25T15:27:10.000Z</time>
      </trkpt>
      <trkpt lat="33.98161" lon="-4.66684">
        <ele>590.9</ele>
        <time>2023-08-25T15:27:14.000Z</time>
      </trkpt>
      <trkpt lat="33.98164" lon="-4.66716">
        <ele>588.9</ele>
        <time>2023-08-25T15:27:18.000Z</time>
      </trkpt>
      <trkpt lat="33.98165" lon="-4.66749">
        <ele>588</ele>
        <time>2023-08-25T15:27:22.000Z</time>
      </trkpt>
      <trkpt lat="33.98166" lon="-4.66777">
        <ele>587.6</ele>
        <time>2023-08-25T15:27:25.000Z</time>
      </trkpt>
      <trkpt lat="33.98166" lon="-4.6682">
        <ele>586.5</ele>
        <time>2023-08-25T15:27:29.000Z</time>
      </trkpt>
      <trkpt lat="33.98167" lon="-4.66849">
        <ele>584.2</ele>
        <time>2023-08-25T15:27:32.000Z</time>
      </trkpt>
      <trkpt lat="33.98169" lon="-4.66878">
        <ele>585</ele>
        <time>2023-08-25T15:27:35.000Z</time>
      </trkpt>
      <trkpt lat="33.98172" lon="-4.66918">
        <ele>584</ele>
        <time>2023-08-25T15:27:39.000Z</time>
      </trkpt>
      <trkpt lat="33.9818" lon="-4.66958">
        <ele>582.9</ele>
        <time>2023-08-25T15:27:43.000Z</time>
      </trkpt>
      <trkpt lat="33.98185" lon="-4.66988">
        <ele>581.5</ele>
        <time>2023-08-25T15:27:46.000Z</time>
      </trkpt>
      <trkpt lat="33.98191" lon="-4.67016">
        <ele>581.2</ele>
        <time>2023-08-25T15:27:49.000Z</time>
      </trkpt>
      <trkpt lat="33.98198" lon="-4.67055">
        <ele>580.7</ele>
        <time>2023-08-25T15:27:53.000Z</time>
      </trkpt>
      <trkpt lat="33.98205" lon="-4.67093">
        <ele>579.5</ele>
        <time>2023-08-25T15:27:57.000Z</time>
      </trkpt>
      <trkpt lat="33.98211" lon="-4.67121">
        <ele>577.1</ele>
        <time>2023-08-25T15:28:00.000Z</time>
      </trkpt>
      <trkpt lat="33.98216" lon="-4.67149">
        <ele>577.3</ele>
        <time>2023-08-25T15:28:03.000Z</time>
      </trkpt>
      <trkpt lat="33.98223" lon="-4.67189">
        <ele>576.4</ele>
        <time>2023-08-25T15:28:07.000Z</time>
      </trkpt>
      <trkpt lat="33.98228" lon="-4.6722">
        <ele>576</ele>
        <time>2023-08-25T15:28:10.000Z</time>
      </trkpt>
      <trkpt lat="33.98235" lon="-4.67259">
        <ele>574.2</ele>
        <time>2023-08-25T15:28:14.000Z</time>
      </trkpt>
      <trkpt lat="33.98243" lon="-4.67298">
        <ele>572.7</ele>
        <time>2023-08-25T15:28:18.000Z</time>
      </trkpt>
      <trkpt lat="33.98248" lon="-4.67328">
        <ele>571.8</ele>
        <time>2023-08-25T15:28:21.000Z</time>
      </trkpt>
      <trkpt lat="33.98253" lon="-4.67356">
        <ele>571</ele>
        <time>2023-08-25T15:28:24.000Z</time>
      </trkpt>
      <trkpt lat="33.98257" lon="-4.67386">
        <ele>570</ele>
        <time>2023-08-25T15:28:27.000Z</time>
      </trkpt>
      <trkpt lat="33.98264" lon="-4.67424">
        <ele>567.8</ele>
        <time>2023-08-25T15:28:31.000Z</time>
      </trkpt>
      <trkpt lat="33.98269" lon="-4.67464">
        <ele>566.7</ele>
        <time>2023-08-25T15:28:35.000Z</time>
      </trkpt>
      <trkpt lat="33.98275" lon="-4.67493">
        <ele>565.7</ele>
        <time>2023-08-25T15:28:38.000Z</time>
      </trkpt>
      <trkpt lat="33.98283" lon="-4.67531">
        <ele>564.2</ele>
        <time>2023-08-25T15:28:42.000Z</time>
      </trkpt>
      <trkpt lat="33.9829" lon="-4.6757">
        <ele>562.5</ele>
        <time>2023-08-25T15:28:46.000Z</time>
      </trkpt>
      <trkpt lat="33.98292" lon="-4.67601">
        <ele>562.8</ele>
        <time>2023-08-25T15:28:49.000Z</time>
      </trkpt>
      <trkpt lat="33.98294" lon="-4.67641">
        <ele>561.8</ele>
        <time>2023-08-25T15:28:53.000Z</time>
      </trkpt>
      <trkpt lat="33.98294" lon="-4.67681">
        <ele>561.5</ele>
        <time>2023-08-25T15:28:57.000Z</time>
      </trkpt>
      <trkpt lat="33.98292" lon="-4.6772">
        <ele>560.4</ele>
        <time>2023-08-25T15:29:01.000Z</time>
      </trkpt>
      <trkpt lat="33.98291" lon="-4.67747">
        <ele>560.3</ele>
        <time>2023-08-25T15:29:04.000Z</time>
      </trkpt>
      <trkpt lat="33.98287" lon="-4.67785">
        <ele>560.5</ele>
        <time>2023-08-25T15:29:08.000Z</time>
      </trkpt>
      <trkpt lat="33.98285" lon="-4.67813">
        <ele>560.7</ele>
        <time>2023-08-25T15:29:11.000Z</time>
      </trkpt>
      <trkpt lat="33.98281" lon="-4.67854">
        <ele>560.5</ele>
        <time>2023-08-25T15:29:15.000Z</time>
      </trkpt>
      <trkpt lat="33.98277" lon="-4.67895">
        <ele>561.7</ele>
        <time>2023-08-25T15:29:19.000Z</time>
      </trkpt>
      <trkpt lat="33.98273" lon="-4.67924">
        <ele>561.7</ele>
        <time>2023-08-25T15:29:22.000Z</time>
      </trkpt>
      <trkpt lat="33.98268" lon="-4.67965">
        <ele>561.8</ele>
        <time>2023-08-25T15:29:26.000Z</time>
      </trkpt>
      <trkpt lat="33.98266" lon="-4.68005">
        <ele>561.3</ele>
        <time>2023-08-25T15:29:30.000Z</time>
      </trkpt>
      <trkpt lat="33.98264" lon="-4.68043">
        <ele>560.9</ele>
        <time>2023-08-25T15:29:34.000Z</time>
      </trkpt>
      <trkpt lat="33.98261" lon="-4.68072">
        <ele>561</ele>
        <time>2023-08-25T15:29:37.000Z</time>
      </trkpt>
      <trkpt lat="33.9826" lon="-4.68102">
        <ele>560.8</ele>
        <time>2023-08-25T15:29:40.000Z</time>
      </trkpt>
      <trkpt lat="33.98256" lon="-4.68142">
        <ele>561.5</ele>
        <time>2023-08-25T15:29:44.000Z</time>
      </trkpt>
      <trkpt lat="33.98253" lon="-4.6818">
        <ele>563.7</ele>
        <time>2023-08-25T15:29:48.000Z</time>
      </trkpt>
      <trkpt lat="33.98251" lon="-4.68209">
        <ele>563.6</ele>
        <time>2023-08-25T15:29:51.000Z</time>
      </trkpt>
      <trkpt lat="33.98249" lon="-4.68235">
        <ele>564.8</ele>
        <time>2023-08-25T15:29:54.000Z</time>
      </trkpt>
      <trkpt lat="33.98245" lon="-4.6827">
        <ele>566.2</ele>
        <time>2023-08-25T15:29:58.000Z</time>
      </trkpt>
      <trkpt lat="33.98243" lon="-4.68297">
        <ele>566.7</ele>
        <time>2023-08-25T15:30:01.000Z</time>
      </trkpt>
      <trkpt lat="33.98241" lon="-4.68325">
        <ele>568.5</ele>
        <time>2023-08-25T15:30:04.000Z</time>
      </trkpt>
      <trkpt lat="33.98239" lon="-4.68352">
        <ele>569.3</ele>
        <time>2023-08-25T15:30:07.000Z</time>
      </trkpt>
      <trkpt lat="33.98237" lon="-4.68378">
        <ele>570.2</ele>
        <time>2023-08-25T15:30:10.000Z</time>
      </trkpt>
      <trkpt lat="33.98235" lon="-4.68415">
        <ele>571.8</ele>
        <time>2023-08-25T15:30:14.000Z</time>
      </trkpt>
      <trkpt lat="33.98232" lon="-4.68445">
        <ele>573.7</ele>
        <time>2023-08-25T15:30:17.000Z</time>
      </trkpt>
      <trkpt lat="33.98231" lon="-4.68482">
        <ele>574.5</ele>
        <time>2023-08-25T15:30:21.000Z</time>
      </trkpt>
      <trkpt lat="33.98235" lon="-4.68518">
        <ele>575.8</ele>
        <time>2023-08-25T15:30:25.000Z</time>
      </trkpt>
      <trkpt lat="33.98239" lon="-4.68556">
        <ele>576.2</ele>
        <time>2023-08-25T15:30:29.000Z</time>
      </trkpt>
      <trkpt lat="33.98245" lon="-4.68585">
        <ele>577.3</ele>
        <time>2023-08-25T15:30:32.000Z</time>
      </trkpt>
      <trkpt lat="33.98257" lon="-4.68621">
        <ele>578.2</ele>
        <time>2023-08-25T15:30:36.000Z</time>
      </trkpt>
      <trkpt lat="33.98269" lon="-4.68655">
        <ele>579.5</ele>
        <time>2023-08-25T15:30:40.000Z</time>
      </trkpt>
      <trkpt lat="33.9828" lon="-4.68679">
        <ele>580.1</ele>
        <time>2023-08-25T15:30:43.000Z</time>
      </trkpt>
      <trkpt lat="33.98293" lon="-4.68701">
        <ele>583.2</ele>
        <time>2023-08-25T15:30:46.000Z</time>
      </trkpt>
      <trkpt lat="33.98313" lon="-4.6873">
        <ele>584</ele>
        <time>2023-08-25T15:30:50.000Z</time>
      </trkpt>
      <trkpt lat="33.98328" lon="-4.6875">
        <ele>584.8</ele>
        <time>2023-08-25T15:30:53.000Z</time>
      </trkpt>
      <trkpt lat="33.98351" lon="-4.68776">
        <ele>586.2</ele>
        <time>2023-08-25T15:30:57.000Z</time>
      </trkpt>
      <trkpt lat="33.98369" lon="-4.68795">
        <ele>586.9</ele>
        <time>2023-08-25T15:31:00.000Z</time>
      </trkpt>
      <trkpt lat="33.98389" lon="-4.68811">
        <ele>588.7</ele>
        <time>2023-08-25T15:31:03.000Z</time>
      </trkpt>
      <trkpt lat="33.9841" lon="-4.68824">
        <ele>589.3</ele>
        <time>2023-08-25T15:31:06.000Z</time>
      </trkpt>
      <trkpt lat="33.98437" lon="-4.68839">
        <ele>590.1</ele>
        <time>2023-08-25T15:31:10.000Z</time>
      </trkpt>
      <trkpt lat="33.98466" lon="-4.68852">
        <ele>592.1</ele>
        <time>2023-08-25T15:31:14.000Z</time>
      </trkpt>
      <trkpt lat="33.98494" lon="-4.68865">
        <ele>594</ele>
        <time>2023-08-25T15:31:18.000Z</time>
      </trkpt>
      <trkpt lat="33.98523" lon="-4.68878">
        <ele>595</ele>
        <time>2023-08-25T15:31:22.000Z</time>
      </trkpt>
      <trkpt lat="33.98554" lon="-4.68893">
        <ele>595.9</ele>
        <time>2023-08-25T15:31:26.000Z</time>
      </trkpt>
      <trkpt lat="33.98584" lon="-4.68908">
        <ele>596.3</ele>
        <time>2023-08-25T15:31:30.000Z</time>
      </trkpt>
      <trkpt lat="33.98613" lon="-4.68926">
        <ele>597.4</ele>
        <time>2023-08-25T15:31:34.000Z</time>
      </trkpt>
      <trkpt lat="33.98638" lon="-4.68948">
        <ele>596.7</ele>
        <time>2023-08-25T15:31:38.000Z</time>
      </trkpt>
      <trkpt lat="33.98656" lon="-4.68967">
        <ele>598.9</ele>
        <time>2023-08-25T15:31:41.000Z</time>
      </trkpt>
      <trkpt lat="33.98672" lon="-4.68989">
        <ele>599.6</ele>
        <time>2023-08-25T15:31:44.000Z</time>
      </trkpt>
      <trkpt lat="33.98687" lon="-4.69012">
        <ele>600.7</ele>
        <time>2023-08-25T15:31:47.000Z</time>
      </trkpt>
      <trkpt lat="33.987" lon="-4.69037">
        <ele>601.4</ele>
        <time>2023-08-25T15:31:50.000Z</time>
      </trkpt>
      <trkpt lat="33.98716" lon="-4.69069">
        <ele>603</ele>
        <time>2023-08-25T15:31:54.000Z</time>
      </trkpt>
      <trkpt lat="33.98724" lon="-4.69094">
        <ele>604</ele>
        <time>2023-08-25T15:31:57.000Z</time>
      </trkpt>
      <trkpt lat="33.98729" lon="-4.69118">
        <ele>604.9</ele>
        <time>2023-08-25T15:32:00.000Z</time>
      </trkpt>
      <trkpt lat="33.98733" lon="-4.69144">
        <ele>606.2</ele>
        <time>2023-08-25T15:32:03.000Z</time>
      </trkpt>
      <trkpt lat="33.98736" lon="-4.69169">
        <ele>606.9</ele>
        <time>2023-08-25T15:32:06.000Z</time>
      </trkpt>
      <trkpt lat="33.98738" lon="-4.69201">
        <ele>609.8</ele>
        <time>2023-08-25T15:32:10.000Z</time>
      </trkpt>
      <trkpt lat="33.98739" lon="-4.69238">
        <ele>611.4</ele>
        <time>2023-08-25T15:32:14.000Z</time>
      </trkpt>
      <trkpt lat="33.9874" lon="-4.69276">
        <ele>612.7</ele>
        <time>2023-08-25T15:32:18.000Z</time>
      </trkpt>
      <trkpt lat="33.98744" lon="-4.69314">
        <ele>614</ele>
        <time>2023-08-25T15:32:22.000Z</time>
      </trkpt>
      <trkpt lat="33.98745" lon="-4.69343">
        <ele>614.3</ele>
        <time>2023-08-25T15:32:25.000Z</time>
      </trkpt>
      <trkpt lat="33.9875" lon="-4.6937">
        <ele>615.1</ele>
        <time>2023-08-25T15:32:28.000Z</time>
      </trkpt>
      <trkpt lat="33.98761" lon="-4.69406">
        <ele>616</ele>
        <time>2023-08-25T15:32:32.000Z</time>
      </trkpt>
      <trkpt lat="33.98771" lon="-4.69435">
        <ele>616.1</ele>
        <time>2023-08-25T15:32:35.000Z</time>
      </trkpt>
      <trkpt lat="33.98789" lon="-4.6947">
        <ele>617.3</ele>
        <time>2023-08-25T15:32:39.000Z</time>
      </trkpt>
      <trkpt lat="33.98805" lon="-4.69493">
        <ele>618.1</ele>
        <time>2023-08-25T15:32:42.000Z</time>
      </trkpt>
      <trkpt lat="33.98828" lon="-4.69519">
        <ele>617.9</ele>
        <time>2023-08-25T15:32:46.000Z</time>
      </trkpt>
      <trkpt lat="33.98853" lon="-4.69548">
        <ele>617.4</ele>
        <time>2023-08-25T15:32:50.000Z</time>
      </trkpt>
      <trkpt lat="33.98871" lon="-4.6957">
        <ele>616.8</ele>
        <time>2023-08-25T15:32:53.000Z</time>
      </trkpt>
      <trkpt lat="33.98889" lon="-4.69591">
        <ele>616.3</ele>
        <time>2023-08-25T15:32:56.000Z</time>
      </trkpt>
      <trkpt lat="33.98914" lon="-4.6962">
        <ele>615.5</ele>
        <time>2023-08-25T15:33:00.000Z</time>
      </trkpt>
      <trkpt lat="33.98931" lon="-4.6964">
        <ele>615.9</ele>
        <time>2023-08-25T15:33:03.000Z</time>
      </trkpt>
      <trkpt lat="33.98948" lon="-4.6966">
        <ele>615</ele>
        <time>2023-08-25T15:33:06.000Z</time>
      </trkpt>
      <trkpt lat="33.98971" lon="-4.69686">
        <ele>615</ele>
        <time>2023-08-25T15:33:10.000Z</time>
      </trkpt>
      <trkpt lat="33.98988" lon="-4.69707">
        <ele>615.6</ele>
        <time>2023-08-25T15:33:13.000Z</time>
      </trkpt>
      <trkpt lat="33.99011" lon="-4.69734">
        <ele>614.6</ele>
        <time>2023-08-25T15:33:17.000Z</time>
      </trkpt>
      <trkpt lat="33.99028" lon="-4.69754">
        <ele>613.8</ele>
        <time>2023-08-25T15:33:20.000Z</time>
      </trkpt>
      <trkpt lat="33.99051" lon="-4.69781">
        <ele>614.1</ele>
        <time>2023-08-25T15:33:24.000Z</time>
      </trkpt>
      <trkpt lat="33.99069" lon="-4.69802">
        <ele>613.4</ele>
        <time>2023-08-25T15:33:27.000Z</time>
      </trkpt>
      <trkpt lat="33.99094" lon="-4.69833">
        <ele>613.3</ele>
        <time>2023-08-25T15:33:31.000Z</time>
      </trkpt>
      <trkpt lat="33.99111" lon="-4.69855">
        <ele>613.3</ele>
        <time>2023-08-25T15:33:34.000Z</time>
      </trkpt>
      <trkpt lat="33.99134" lon="-4.69882">
        <ele>613.4</ele>
        <time>2023-08-25T15:33:38.000Z</time>
      </trkpt>
      <trkpt lat="33.99157" lon="-4.6991">
        <ele>612</ele>
        <time>2023-08-25T15:33:42.000Z</time>
      </trkpt>
      <trkpt lat="33.99174" lon="-4.69931">
        <ele>612.2</ele>
        <time>2023-08-25T15:33:45.000Z</time>
      </trkpt>
      <trkpt lat="33.99198" lon="-4.69959">
        <ele>612.2</ele>
        <time>2023-08-25T15:33:49.000Z</time>
      </trkpt>
      <trkpt lat="33.99222" lon="-4.69987">
        <ele>611.5</ele>
        <time>2023-08-25T15:33:53.000Z</time>
      </trkpt>
      <trkpt lat="33.99239" lon="-4.70009">
        <ele>612.3</ele>
        <time>2023-08-25T15:33:56.000Z</time>
      </trkpt>
      <trkpt lat="33.99262" lon="-4.70037">
        <ele>612.4</ele>
        <time>2023-08-25T15:34:00.000Z</time>
      </trkpt>
      <trkpt lat="33.99287" lon="-4.70066">
        <ele>611.4</ele>
        <time>2023-08-25T15:34:04.000Z</time>
      </trkpt>
      <trkpt lat="33.99305" lon="-4.70086">
        <ele>611.8</ele>
        <time>2023-08-25T15:34:07.000Z</time>
      </trkpt>
      <trkpt lat="33.99328" lon="-4.70113">
        <ele>611.7</ele>
        <time>2023-08-25T15:34:11.000Z</time>
      </trkpt>
      <trkpt lat="33.99345" lon="-4.70133">
        <ele>611.9</ele>
        <time>2023-08-25T15:34:14.000Z</time>
      </trkpt>
      <trkpt lat="33.99363" lon="-4.70154">
        <ele>611.2</ele>
        <time>2023-08-25T15:34:17.000Z</time>
      </trkpt>
      <trkpt lat="33.99386" lon="-4.70184">
        <ele>612.1</ele>
        <time>2023-08-25T15:34:21.000Z</time>
      </trkpt>
      <trkpt lat="33.99411" lon="-4.70213">
        <ele>611.8</ele>
        <time>2023-08-25T15:34:25.000Z</time>
      </trkpt>
      <trkpt lat="33.99435" lon="-4.70241">
        <ele>611.2</ele>
        <time>2023-08-25T15:34:29.000Z</time>
      </trkpt>
      <trkpt lat="33.99458" lon="-4.70267">
        <ele>610.3</ele>
        <time>2023-08-25T15:34:33.000Z</time>
      </trkpt>
      <trkpt lat="33.99476" lon="-4.70289">
        <ele>610.8</ele>
        <time>2023-08-25T15:34:36.000Z</time>
      </trkpt>
      <trkpt lat="33.99494" lon="-4.70311">
        <ele>609.6</ele>
        <time>2023-08-25T15:34:39.000Z</time>
      </trkpt>
      <trkpt lat="33.9951" lon="-4.70331">
        <ele>609.8</ele>
        <time>2023-08-25T15:34:42.000Z</time>
      </trkpt>
      <trkpt lat="33.9953" lon="-4.70355">
        <ele>609.1</ele>
        <time>2023-08-25T15:34:46.000Z</time>
      </trkpt>
      <trkpt lat="33.99545" lon="-4.70373">
        <ele>609.2</ele>
        <time>2023-08-25T15:34:49.000Z</time>
      </trkpt>
      <trkpt lat="33.99558" lon="-4.70388">
        <ele>609.5</ele>
        <time>2023-08-25T15:34:52.000Z</time>
      </trkpt>
      <trkpt lat="33.99578" lon="-4.70402">
        <ele>609.6</ele>
        <time>2023-08-25T15:34:56.000Z</time>
      </trkpt>
      <trkpt lat="33.99602" lon="-4.70409">
        <ele>609.4</ele>
        <time>2023-08-25T15:35:00.000Z</time>
      </trkpt>
      <trkpt lat="33.99614" lon="-4.70431">
        <ele>609.2</ele>
        <time>2023-08-25T15:35:04.000Z</time>
      </trkpt>
      <trkpt lat="33.99628" lon="-4.70467">
        <ele>608.4</ele>
        <time>2023-08-25T15:35:08.000Z</time>
      </trkpt>
      <trkpt lat="33.99646" lon="-4.7049">
        <ele>609.3</ele>
        <time>2023-08-25T15:35:11.000Z</time>
      </trkpt>
      <trkpt lat="33.9967" lon="-4.70521">
        <ele>608</ele>
        <time>2023-08-25T15:35:15.000Z</time>
      </trkpt>
      <trkpt lat="33.99694" lon="-4.70551">
        <ele>609.6</ele>
        <time>2023-08-25T15:35:19.000Z</time>
      </trkpt>
      <trkpt lat="33.99718" lon="-4.70579">
        <ele>608.4</ele>
        <time>2023-08-25T15:35:23.000Z</time>
      </trkpt>
      <trkpt lat="33.99735" lon="-4.706">
        <ele>608.6</ele>
        <time>2023-08-25T15:35:26.000Z</time>
      </trkpt>
      <trkpt lat="33.99759" lon="-4.70627">
        <ele>607.7</ele>
        <time>2023-08-25T15:35:30.000Z</time>
      </trkpt>
      <trkpt lat="33.99777" lon="-4.70649">
        <ele>608.2</ele>
        <time>2023-08-25T15:35:33.000Z</time>
      </trkpt>
      <trkpt lat="33.998" lon="-4.70677">
        <ele>607.5</ele>
        <time>2023-08-25T15:35:37.000Z</time>
      </trkpt>
      <trkpt lat="33.99823" lon="-4.70705">
        <ele>607.4</ele>
        <time>2023-08-25T15:35:41.000Z</time>
      </trkpt>
      <trkpt lat="33.9984" lon="-4.70728">
        <ele>608.3</ele>
        <time>2023-08-25T15:35:44.000Z</time>
      </trkpt>
      <trkpt lat="33.99857" lon="-4.70748">
        <ele>609.4</ele>
        <time>2023-08-25T15:35:47.000Z</time>
      </trkpt>
      <trkpt lat="33.99881" lon="-4.70776">
        <ele>609</ele>
        <time>2023-08-25T15:35:51.000Z</time>
      </trkpt>
      <trkpt lat="33.99906" lon="-4.70805">
        <ele>608.5</ele>
        <time>2023-08-25T15:35:55.000Z</time>
      </trkpt>
      <trkpt lat="33.99924" lon="-4.70825">
        <ele>607.3</ele>
        <time>2023-08-25T15:35:58.000Z</time>
      </trkpt>
      <trkpt lat="33.99948" lon="-4.70854">
        <ele>608.2</ele>
        <time>2023-08-25T15:36:02.000Z</time>
      </trkpt>
      <trkpt lat="33.99965" lon="-4.70875">
        <ele>608</ele>
        <time>2023-08-25T15:36:05.000Z</time>
      </trkpt>
      <trkpt lat="33.99982" lon="-4.70895">
        <ele>608.2</ele>
        <time>2023-08-25T15:36:08.000Z</time>
      </trkpt>
      <trkpt lat="34.00005" lon="-4.70923">
        <ele>609.1</ele>
        <time>2023-08-25T15:36:12.000Z</time>
      </trkpt>
      <trkpt lat="34.00023" lon="-4.70945">
        <ele>609.1</ele>
        <time>2023-08-25T15:36:15.000Z</time>
      </trkpt>
      <trkpt lat="34.00039" lon="-4.70966">
        <ele>610</ele>
        <time>2023-08-25T15:36:18.000Z</time>
      </trkpt>
      <trkpt lat="34.00057" lon="-4.70987">
        <ele>609.1</ele>
        <time>2023-08-25T15:36:21.000Z</time>
      </trkpt>
      <trkpt lat="34.00081" lon="-4.71015">
        <ele>609.3</ele>
        <time>2023-08-25T15:36:25.000Z</time>
      </trkpt>
      <trkpt lat="34.00105" lon="-4.71043">
        <ele>608</ele>
        <time>2023-08-25T15:36:29.000Z</time>
      </trkpt>
      <trkpt lat="34.00122" lon="-4.71065">
        <ele>609.4</ele>
        <time>2023-08-25T15:36:32.000Z</time>
      </trkpt>
      <trkpt lat="34.00145" lon="-4.71091">
        <ele>609.8</ele>
        <time>2023-08-25T15:36:36.000Z</time>
      </trkpt>
      <trkpt lat="34.00162" lon="-4.7111">
        <ele>611</ele>
        <time>2023-08-25T15:36:39.000Z</time>
      </trkpt>
      <trkpt lat="34.00186" lon="-4.71139">
        <ele>611.2</ele>
        <time>2023-08-25T15:36:43.000Z</time>
      </trkpt>
      <trkpt lat="34.0021" lon="-4.71167">
        <ele>612.3</ele>
        <time>2023-08-25T15:36:47.000Z</time>
      </trkpt>
      <trkpt lat="34.00227" lon="-4.71188">
        <ele>611.7</ele>
        <time>2023-08-25T15:36:50.000Z</time>
      </trkpt>
      <trkpt lat="34.00242" lon="-4.71208">
        <ele>612</ele>
        <time>2023-08-25T15:36:53.000Z</time>
      </trkpt>
      <trkpt lat="34.00256" lon="-4.71227">
        <ele>613.5</ele>
        <time>2023-08-25T15:36:57.000Z</time>
      </trkpt>
      <trkpt lat="34.00267" lon="-4.7124">
        <ele>612.7</ele>
        <time>2023-08-25T15:37:01.000Z</time>
      </trkpt>
      <trkpt lat="34.00275" lon="-4.71241">
        <ele>614.2</ele>
        <time>2023-08-25T15:37:05.000Z</time>
      </trkpt>
      <trkpt lat="34.00283" lon="-4.7124">
        <ele>614.2</ele>
        <time>2023-08-25T15:37:08.000Z</time>
      </trkpt>
      <trkpt lat="34.00289" lon="-4.71241">
        <ele>613.9</ele>
        <time>2023-08-25T15:37:12.000Z</time>
      </trkpt>
      <trkpt lat="34.0029" lon="-4.71241">
        <ele>614.9</ele>
        <time>2023-08-25T15:38:07.000Z</time>
      </trkpt>
      <trkpt lat="34.00289" lon="-4.71239">
        <ele>616.2</ele>
        <time>2023-08-25T15:38:11.000Z</time>
      </trkpt>
      <trkpt lat="34.00289" lon="-4.7123">
        <ele>617.5</ele>
        <time>2023-08-25T15:51:19.000Z</time>
      </trkpt>
      <trkpt lat="34.00293" lon="-4.7124">
        <ele>614.2</ele>
        <time>2023-08-25T15:52:07.000Z</time>
      </trkpt>
      <trkpt lat="34.00294" lon="-4.71245">
        <ele>615.7</ele>
        <time>2023-08-25T15:52:10.000Z</time>
      </trkpt>
      <trkpt lat="34.00297" lon="-4.71254">
        <ele>615.1</ele>
        <time>2023-08-25T15:52:13.000Z</time>
      </trkpt>
      <trkpt lat="34.00306" lon="-4.71269">
        <ele>614.8</ele>
        <time>2023-08-25T15:52:17.000Z</time>
      </trkpt>
      <trkpt lat="34.00319" lon="-4.71286">
        <ele>614.4</ele>
        <time>2023-08-25T15:52:21.000Z</time>
      </trkpt>
      <trkpt lat="34.00329" lon="-4.71297">
        <ele>614.6</ele>
        <time>2023-08-25T15:52:24.000Z</time>
      </trkpt>
      <trkpt lat="34.00344" lon="-4.71313">
        <ele>614.9</ele>
        <time>2023-08-25T15:52:28.000Z</time>
      </trkpt>
      <trkpt lat="34.00357" lon="-4.7133">
        <ele>615.8</ele>
        <time>2023-08-25T15:52:32.000Z</time>
      </trkpt>
      <trkpt lat="34.00368" lon="-4.71345">
        <ele>616.3</ele>
        <time>2023-08-25T15:52:35.000Z</time>
      </trkpt>
      <trkpt lat="34.00375" lon="-4.71357">
        <ele>616.8</ele>
        <time>2023-08-25T15:52:38.000Z</time>
      </trkpt>
      <trkpt lat="34.00386" lon="-4.71373">
        <ele>616.4</ele>
        <time>2023-08-25T15:52:42.000Z</time>
      </trkpt>
      <trkpt lat="34.00403" lon="-4.7139">
        <ele>615.7</ele>
        <time>2023-08-25T15:52:46.000Z</time>
      </trkpt>
      <trkpt lat="34.00423" lon="-4.71413">
        <ele>616.2</ele>
        <time>2023-08-25T15:52:50.000Z</time>
      </trkpt>
      <trkpt lat="34.00442" lon="-4.71438">
        <ele>615.9</ele>
        <time>2023-08-25T15:52:54.000Z</time>
      </trkpt>
      <trkpt lat="34.00457" lon="-4.71456">
        <ele>615.9</ele>
        <time>2023-08-25T15:52:57.000Z</time>
      </trkpt>
      <trkpt lat="34.00477" lon="-4.7148">
        <ele>616.8</ele>
        <time>2023-08-25T15:53:01.000Z</time>
      </trkpt>
      <trkpt lat="34.00492" lon="-4.71495">
        <ele>616.8</ele>
        <time>2023-08-25T15:53:04.000Z</time>
      </trkpt>
      <trkpt lat="34.00512" lon="-4.71518">
        <ele>617.2</ele>
        <time>2023-08-25T15:53:08.000Z</time>
      </trkpt>
      <trkpt lat="34.00526" lon="-4.71534">
        <ele>617.3</ele>
        <time>2023-08-25T15:53:11.000Z</time>
      </trkpt>
      <trkpt lat="34.00548" lon="-4.71561">
        <ele>616.7</ele>
        <time>2023-08-25T15:53:15.000Z</time>
      </trkpt>
      <trkpt lat="34.00567" lon="-4.71585">
        <ele>617</ele>
        <time>2023-08-25T15:53:18.000Z</time>
      </trkpt>
      <trkpt lat="34.00591" lon="-4.71616">
        <ele>616.5</ele>
        <time>2023-08-25T15:53:22.000Z</time>
      </trkpt>
      <trkpt lat="34.00609" lon="-4.71639">
        <ele>616.5</ele>
        <time>2023-08-25T15:53:25.000Z</time>
      </trkpt>
      <trkpt lat="34.00628" lon="-4.71662">
        <ele>616.3</ele>
        <time>2023-08-25T15:53:28.000Z</time>
      </trkpt>
      <trkpt lat="34.00653" lon="-4.71692">
        <ele>616.8</ele>
        <time>2023-08-25T15:53:32.000Z</time>
      </trkpt>
      <trkpt lat="34.0067" lon="-4.71713">
        <ele>617.6</ele>
        <time>2023-08-25T15:53:35.000Z</time>
      </trkpt>
      <trkpt lat="34.00695" lon="-4.71743">
        <ele>617.3</ele>
        <time>2023-08-25T15:53:39.000Z</time>
      </trkpt>
      <trkpt lat="34.00719" lon="-4.71772">
        <ele>616.2</ele>
        <time>2023-08-25T15:53:43.000Z</time>
      </trkpt>
      <trkpt lat="34.00742" lon="-4.71799">
        <ele>616.1</ele>
        <time>2023-08-25T15:53:47.000Z</time>
      </trkpt>
      <trkpt lat="34.00764" lon="-4.71826">
        <ele>615.9</ele>
        <time>2023-08-25T15:53:51.000Z</time>
      </trkpt>
      <trkpt lat="34.00787" lon="-4.71854">
        <ele>616.6</ele>
        <time>2023-08-25T15:53:55.000Z</time>
      </trkpt>
      <trkpt lat="34.0081" lon="-4.71882">
        <ele>617</ele>
        <time>2023-08-25T15:53:59.000Z</time>
      </trkpt>
      <trkpt lat="34.00834" lon="-4.71911">
        <ele>617.3</ele>
        <time>2023-08-25T15:54:03.000Z</time>
      </trkpt>
      <trkpt lat="34.00857" lon="-4.71938">
        <ele>617.7</ele>
        <time>2023-08-25T15:54:07.000Z</time>
      </trkpt>
      <trkpt lat="34.00875" lon="-4.71959">
        <ele>617.3</ele>
        <time>2023-08-25T15:54:10.000Z</time>
      </trkpt>
      <trkpt lat="34.00893" lon="-4.71981">
        <ele>616.9</ele>
        <time>2023-08-25T15:54:13.000Z</time>
      </trkpt>
      <trkpt lat="34.00917" lon="-4.72008">
        <ele>616.6</ele>
        <time>2023-08-25T15:54:17.000Z</time>
      </trkpt>
      <trkpt lat="34.0094" lon="-4.72036">
        <ele>617.2</ele>
        <time>2023-08-25T15:54:21.000Z</time>
      </trkpt>
      <trkpt lat="34.00964" lon="-4.72065">
        <ele>617.6</ele>
        <time>2023-08-25T15:54:25.000Z</time>
      </trkpt>
      <trkpt lat="34.00986" lon="-4.72093">
        <ele>618.1</ele>
        <time>2023-08-25T15:54:29.000Z</time>
      </trkpt>
      <trkpt lat="34.01009" lon="-4.7212">
        <ele>619</ele>
        <time>2023-08-25T15:54:33.000Z</time>
      </trkpt>
      <trkpt lat="34.01032" lon="-4.72147">
        <ele>618.6</ele>
        <time>2023-08-25T15:54:37.000Z</time>
      </trkpt>
      <trkpt lat="34.01054" lon="-4.72175">
        <ele>617.9</ele>
        <time>2023-08-25T15:54:41.000Z</time>
      </trkpt>
      <trkpt lat="34.01071" lon="-4.72195">
        <ele>618</ele>
        <time>2023-08-25T15:54:44.000Z</time>
      </trkpt>
      <trkpt lat="34.01094" lon="-4.72222">
        <ele>616.9</ele>
        <time>2023-08-25T15:54:48.000Z</time>
      </trkpt>
      <trkpt lat="34.01111" lon="-4.72243">
        <ele>617.4</ele>
        <time>2023-08-25T15:54:51.000Z</time>
      </trkpt>
      <trkpt lat="34.01136" lon="-4.72271">
        <ele>617.6</ele>
        <time>2023-08-25T15:54:55.000Z</time>
      </trkpt>
      <trkpt lat="34.01153" lon="-4.72292">
        <ele>618.1</ele>
        <time>2023-08-25T15:54:58.000Z</time>
      </trkpt>
      <trkpt lat="34.01177" lon="-4.72322">
        <ele>618.6</ele>
        <time>2023-08-25T15:55:02.000Z</time>
      </trkpt>
      <trkpt lat="34.01195" lon="-4.72342">
        <ele>618.4</ele>
        <time>2023-08-25T15:55:05.000Z</time>
      </trkpt>
      <trkpt lat="34.01218" lon="-4.72371">
        <ele>617.8</ele>
        <time>2023-08-25T15:55:09.000Z</time>
      </trkpt>
      <trkpt lat="34.01242" lon="-4.72398">
        <ele>618.3</ele>
        <time>2023-08-25T15:55:13.000Z</time>
      </trkpt>
      <trkpt lat="34.01264" lon="-4.72427">
        <ele>617.3</ele>
        <time>2023-08-25T15:55:17.000Z</time>
      </trkpt>
      <trkpt lat="34.01279" lon="-4.7245">
        <ele>617.1</ele>
        <time>2023-08-25T15:55:20.000Z</time>
      </trkpt>
      <trkpt lat="34.01298" lon="-4.72485">
        <ele>617.7</ele>
        <time>2023-08-25T15:55:24.000Z</time>
      </trkpt>
      <trkpt lat="34.01314" lon="-4.7252">
        <ele>618.4</ele>
        <time>2023-08-25T15:55:28.000Z</time>
      </trkpt>
      <trkpt lat="34.01328" lon="-4.72556">
        <ele>618.3</ele>
        <time>2023-08-25T15:55:32.000Z</time>
      </trkpt>
      <trkpt lat="34.01338" lon="-4.72584">
        <ele>618.4</ele>
        <time>2023-08-25T15:55:35.000Z</time>
      </trkpt>
      <trkpt lat="34.01347" lon="-4.72622">
        <ele>617.6</ele>
        <time>2023-08-25T15:55:39.000Z</time>
      </trkpt>
      <trkpt lat="34.01355" lon="-4.72661">
        <ele>617.7</ele>
        <time>2023-08-25T15:55:43.000Z</time>
      </trkpt>
      <trkpt lat="34.01362" lon="-4.72701">
        <ele>617</ele>
        <time>2023-08-25T15:55:47.000Z</time>
      </trkpt>
      <trkpt lat="34.01368" lon="-4.72731">
        <ele>617.3</ele>
        <time>2023-08-25T15:55:50.000Z</time>
      </trkpt>
      <trkpt lat="34.01376" lon="-4.7277">
        <ele>616.8</ele>
        <time>2023-08-25T15:55:54.000Z</time>
      </trkpt>
      <trkpt lat="34.01381" lon="-4.72808">
        <ele>617.4</ele>
        <time>2023-08-25T15:55:58.000Z</time>
      </trkpt>
      <trkpt lat="34.01389" lon="-4.72847">
        <ele>617.7</ele>
        <time>2023-08-25T15:56:02.000Z</time>
      </trkpt>
      <trkpt lat="34.01395" lon="-4.72885">
        <ele>616.4</ele>
        <time>2023-08-25T15:56:06.000Z</time>
      </trkpt>
      <trkpt lat="34.01402" lon="-4.72923">
        <ele>616.7</ele>
        <time>2023-08-25T15:56:10.000Z</time>
      </trkpt>
      <trkpt lat="34.01409" lon="-4.72962">
        <ele>615.5</ele>
        <time>2023-08-25T15:56:14.000Z</time>
      </trkpt>
      <trkpt lat="34.01414" lon="-4.72991">
        <ele>615.3</ele>
        <time>2023-08-25T15:56:17.000Z</time>
      </trkpt>
      <trkpt lat="34.01421" lon="-4.73031">
        <ele>615.2</ele>
        <time>2023-08-25T15:56:21.000Z</time>
      </trkpt>
      <trkpt lat="34.01427" lon="-4.7306">
        <ele>615.6</ele>
        <time>2023-08-25T15:56:24.000Z</time>
      </trkpt>
      <trkpt lat="34.01434" lon="-4.73098">
        <ele>616.3</ele>
        <time>2023-08-25T15:56:28.000Z</time>
      </trkpt>
      <trkpt lat="34.01439" lon="-4.73128">
        <ele>616.3</ele>
        <time>2023-08-25T15:56:31.000Z</time>
      </trkpt>
      <trkpt lat="34.01444" lon="-4.73167">
        <ele>615.3</ele>
        <time>2023-08-25T15:56:35.000Z</time>
      </trkpt>
      <trkpt lat="34.01451" lon="-4.73205">
        <ele>615.8</ele>
        <time>2023-08-25T15:56:39.000Z</time>
      </trkpt>
      <trkpt lat="34.01458" lon="-4.73243">
        <ele>614.9</ele>
        <time>2023-08-25T15:56:43.000Z</time>
      </trkpt>
      <trkpt lat="34.01464" lon="-4.73272">
        <ele>615</ele>
        <time>2023-08-25T15:56:46.000Z</time>
      </trkpt>
      <trkpt lat="34.01471" lon="-4.73302">
        <ele>615.1</ele>
        <time>2023-08-25T15:56:49.000Z</time>
      </trkpt>
      <trkpt lat="34.01479" lon="-4.73341">
        <ele>615.2</ele>
        <time>2023-08-25T15:56:53.000Z</time>
      </trkpt>
      <trkpt lat="34.01485" lon="-4.73379">
        <ele>615.6</ele>
        <time>2023-08-25T15:56:57.000Z</time>
      </trkpt>
      <trkpt lat="34.01491" lon="-4.73418">
        <ele>615</ele>
        <time>2023-08-25T15:57:01.000Z</time>
      </trkpt>
      <trkpt lat="34.01496" lon="-4.73448">
        <ele>614.5</ele>
        <time>2023-08-25T15:57:04.000Z</time>
      </trkpt>
      <trkpt lat="34.01502" lon="-4.73476">
        <ele>614.8</ele>
        <time>2023-08-25T15:57:07.000Z</time>
      </trkpt>
      <trkpt lat="34.01509" lon="-4.73515">
        <ele>614</ele>
        <time>2023-08-25T15:57:11.000Z</time>
      </trkpt>
      <trkpt lat="34.01516" lon="-4.73554">
        <ele>614.2</ele>
        <time>2023-08-25T15:57:15.000Z</time>
      </trkpt>
      <trkpt lat="34.01525" lon="-4.73592">
        <ele>614.8</ele>
        <time>2023-08-25T15:57:19.000Z</time>
      </trkpt>
      <trkpt lat="34.01532" lon="-4.73631">
        <ele>614.9</ele>
        <time>2023-08-25T15:57:23.000Z</time>
      </trkpt>
      <trkpt lat="34.01538" lon="-4.7366">
        <ele>615.3</ele>
        <time>2023-08-25T15:57:26.000Z</time>
      </trkpt>
      <trkpt lat="34.01543" lon="-4.73689">
        <ele>614.6</ele>
        <time>2023-08-25T15:57:29.000Z</time>
      </trkpt>
      <trkpt lat="34.01548" lon="-4.73719">
        <ele>613.9</ele>
        <time>2023-08-25T15:57:32.000Z</time>
      </trkpt>
      <trkpt lat="34.01554" lon="-4.73757">
        <ele>613.4</ele>
        <time>2023-08-25T15:57:36.000Z</time>
      </trkpt>
      <trkpt lat="34.0156" lon="-4.73796">
        <ele>613.1</ele>
        <time>2023-08-25T15:57:40.000Z</time>
      </trkpt>
      <trkpt lat="34.01567" lon="-4.73835">
        <ele>613.5</ele>
        <time>2023-08-25T15:57:44.000Z</time>
      </trkpt>
      <trkpt lat="34.01572" lon="-4.73865">
        <ele>613.5</ele>
        <time>2023-08-25T15:57:47.000Z</time>
      </trkpt>
      <trkpt lat="34.01579" lon="-4.73903">
        <ele>613.7</ele>
        <time>2023-08-25T15:57:51.000Z</time>
      </trkpt>
      <trkpt lat="34.01585" lon="-4.73942">
        <ele>613.5</ele>
        <time>2023-08-25T15:57:55.000Z</time>
      </trkpt>
      <trkpt lat="34.01592" lon="-4.73982">
        <ele>613.1</ele>
        <time>2023-08-25T15:57:59.000Z</time>
      </trkpt>
      <trkpt lat="34.01598" lon="-4.74012">
        <ele>612.3</ele>
        <time>2023-08-25T15:58:02.000Z</time>
      </trkpt>
      <trkpt lat="34.01603" lon="-4.74041">
        <ele>612.4</ele>
        <time>2023-08-25T15:58:05.000Z</time>
      </trkpt>
      <trkpt lat="34.01609" lon="-4.74069">
        <ele>611.1</ele>
        <time>2023-08-25T15:58:08.000Z</time>
      </trkpt>
      <trkpt lat="34.01615" lon="-4.74108">
        <ele>611.6</ele>
        <time>2023-08-25T15:58:12.000Z</time>
      </trkpt>
      <trkpt lat="34.01621" lon="-4.74138">
        <ele>611</ele>
        <time>2023-08-25T15:58:15.000Z</time>
      </trkpt>
      <trkpt lat="34.01627" lon="-4.74168">
        <ele>611.3</ele>
        <time>2023-08-25T15:58:18.000Z</time>
      </trkpt>
      <trkpt lat="34.01636" lon="-4.74206">
        <ele>611.4</ele>
        <time>2023-08-25T15:58:22.000Z</time>
      </trkpt>
      <trkpt lat="34.01643" lon="-4.74233">
        <ele>611.5</ele>
        <time>2023-08-25T15:58:25.000Z</time>
      </trkpt>
      <trkpt lat="34.01654" lon="-4.74269">
        <ele>611</ele>
        <time>2023-08-25T15:58:29.000Z</time>
      </trkpt>
      <trkpt lat="34.01664" lon="-4.74296">
        <ele>610.2</ele>
        <time>2023-08-25T15:58:32.000Z</time>
      </trkpt>
      <trkpt lat="34.01675" lon="-4.74323">
        <ele>609.6</ele>
        <time>2023-08-25T15:58:35.000Z</time>
      </trkpt>
      <trkpt lat="34.01689" lon="-4.74359">
        <ele>609.3</ele>
        <time>2023-08-25T15:58:39.000Z</time>
      </trkpt>
      <trkpt lat="34.01706" lon="-4.74393">
        <ele>609.5</ele>
        <time>2023-08-25T15:58:43.000Z</time>
      </trkpt>
      <trkpt lat="34.01724" lon="-4.74425">
        <ele>609.8</ele>
        <time>2023-08-25T15:58:47.000Z</time>
      </trkpt>
      <trkpt lat="34.01743" lon="-4.74459">
        <ele>609.7</ele>
        <time>2023-08-25T15:58:51.000Z</time>
      </trkpt>
      <trkpt lat="34.01757" lon="-4.74484">
        <ele>609.5</ele>
        <time>2023-08-25T15:58:54.000Z</time>
      </trkpt>
      <trkpt lat="34.0177" lon="-4.74508">
        <ele>609.6</ele>
        <time>2023-08-25T15:58:57.000Z</time>
      </trkpt>
      <trkpt lat="34.0179" lon="-4.74541">
        <ele>608.8</ele>
        <time>2023-08-25T15:59:01.000Z</time>
      </trkpt>
      <trkpt lat="34.01805" lon="-4.74566">
        <ele>609</ele>
        <time>2023-08-25T15:59:04.000Z</time>
      </trkpt>
      <trkpt lat="34.01825" lon="-4.74599">
        <ele>608</ele>
        <time>2023-08-25T15:59:08.000Z</time>
      </trkpt>
      <trkpt lat="34.01843" lon="-4.74631">
        <ele>608.6</ele>
        <time>2023-08-25T15:59:12.000Z</time>
      </trkpt>
      <trkpt lat="34.01858" lon="-4.74656">
        <ele>608.5</ele>
        <time>2023-08-25T15:59:15.000Z</time>
      </trkpt>
      <trkpt lat="34.01876" lon="-4.74688">
        <ele>608.6</ele>
        <time>2023-08-25T15:59:19.000Z</time>
      </trkpt>
      <trkpt lat="34.01895" lon="-4.74719">
        <ele>608.9</ele>
        <time>2023-08-25T15:59:23.000Z</time>
      </trkpt>
      <trkpt lat="34.01916" lon="-4.74754">
        <ele>608.2</ele>
        <time>2023-08-25T15:59:27.000Z</time>
      </trkpt>
      <trkpt lat="34.0193" lon="-4.74779">
        <ele>607.3</ele>
        <time>2023-08-25T15:59:30.000Z</time>
      </trkpt>
      <trkpt lat="34.01948" lon="-4.74811">
        <ele>606.4</ele>
        <time>2023-08-25T15:59:34.000Z</time>
      </trkpt>
      <trkpt lat="34.01963" lon="-4.74837">
        <ele>606.8</ele>
        <time>2023-08-25T15:59:37.000Z</time>
      </trkpt>
      <trkpt lat="34.01982" lon="-4.74872">
        <ele>607.2</ele>
        <time>2023-08-25T15:59:41.000Z</time>
      </trkpt>
      <trkpt lat="34.02001" lon="-4.74904">
        <ele>607</ele>
        <time>2023-08-25T15:59:45.000Z</time>
      </trkpt>
      <trkpt lat="34.02015" lon="-4.74929">
        <ele>607.2</ele>
        <time>2023-08-25T15:59:48.000Z</time>
      </trkpt>
      <trkpt lat="34.02033" lon="-4.74962">
        <ele>607.6</ele>
        <time>2023-08-25T15:59:52.000Z</time>
      </trkpt>
      <trkpt lat="34.02048" lon="-4.74987">
        <ele>607.2</ele>
        <time>2023-08-25T15:59:55.000Z</time>
      </trkpt>
      <trkpt lat="34.02068" lon="-4.7502">
        <ele>606.3</ele>
        <time>2023-08-25T15:59:59.000Z</time>
      </trkpt>
      <trkpt lat="34.02086" lon="-4.75051">
        <ele>605.2</ele>
        <time>2023-08-25T16:00:03.000Z</time>
      </trkpt>
      <trkpt lat="34.02105" lon="-4.75083">
        <ele>606</ele>
        <time>2023-08-25T16:00:07.000Z</time>
      </trkpt>
      <trkpt lat="34.02119" lon="-4.75106">
        <ele>605.8</ele>
        <time>2023-08-25T16:00:10.000Z</time>
      </trkpt>
      <trkpt lat="34.02139" lon="-4.75139">
        <ele>606</ele>
        <time>2023-08-25T16:00:14.000Z</time>
      </trkpt>
      <trkpt lat="34.02157" lon="-4.75171">
        <ele>606.8</ele>
        <time>2023-08-25T16:00:18.000Z</time>
      </trkpt>
      <trkpt lat="34.02176" lon="-4.75205">
        <ele>606.9</ele>
        <time>2023-08-25T16:00:22.000Z</time>
      </trkpt>
      <trkpt lat="34.0219" lon="-4.75231">
        <ele>607</ele>
        <time>2023-08-25T16:00:25.000Z</time>
      </trkpt>
      <trkpt lat="34.02202" lon="-4.75255">
        <ele>606.6</ele>
        <time>2023-08-25T16:00:28.000Z</time>
      </trkpt>
      <trkpt lat="34.02221" lon="-4.75289">
        <ele>606.7</ele>
        <time>2023-08-25T16:00:32.000Z</time>
      </trkpt>
      <trkpt lat="34.02239" lon="-4.75322">
        <ele>606.9</ele>
        <time>2023-08-25T16:00:36.000Z</time>
      </trkpt>
      <trkpt lat="34.02252" lon="-4.75346">
        <ele>607.7</ele>
        <time>2023-08-25T16:00:39.000Z</time>
      </trkpt>
      <trkpt lat="34.02272" lon="-4.75378">
        <ele>607.7</ele>
        <time>2023-08-25T16:00:43.000Z</time>
      </trkpt>
      <trkpt lat="34.02291" lon="-4.75411">
        <ele>608.3</ele>
        <time>2023-08-25T16:00:47.000Z</time>
      </trkpt>
      <trkpt lat="34.02305" lon="-4.75435">
        <ele>608.5</ele>
        <time>2023-08-25T16:00:50.000Z</time>
      </trkpt>
      <trkpt lat="34.02319" lon="-4.7546">
        <ele>608.6</ele>
        <time>2023-08-25T16:00:53.000Z</time>
      </trkpt>
      <trkpt lat="34.02337" lon="-4.75492">
        <ele>607.9</ele>
        <time>2023-08-25T16:00:57.000Z</time>
      </trkpt>
      <trkpt lat="34.0235" lon="-4.75518">
        <ele>607.9</ele>
        <time>2023-08-25T16:01:00.000Z</time>
      </trkpt>
      <trkpt lat="34.02364" lon="-4.75553">
        <ele>607.8</ele>
        <time>2023-08-25T16:01:04.000Z</time>
      </trkpt>
      <trkpt lat="34.02372" lon="-4.75581">
        <ele>607.5</ele>
        <time>2023-08-25T16:01:07.000Z</time>
      </trkpt>
      <trkpt lat="34.02378" lon="-4.7561">
        <ele>607</ele>
        <time>2023-08-25T16:01:10.000Z</time>
      </trkpt>
      <trkpt lat="34.02384" lon="-4.7565">
        <ele>606</ele>
        <time>2023-08-25T16:01:14.000Z</time>
      </trkpt>
      <trkpt lat="34.0239" lon="-4.75691">
        <ele>605.8</ele>
        <time>2023-08-25T16:01:18.000Z</time>
      </trkpt>
      <trkpt lat="34.02396" lon="-4.75729">
        <ele>604.5</ele>
        <time>2023-08-25T16:01:22.000Z</time>
      </trkpt>
      <trkpt lat="34.02403" lon="-4.75768">
        <ele>602.9</ele>
        <time>2023-08-25T16:01:26.000Z</time>
      </trkpt>
      <trkpt lat="34.02411" lon="-4.75806">
        <ele>602.1</ele>
        <time>2023-08-25T16:01:30.000Z</time>
      </trkpt>
      <trkpt lat="34.02417" lon="-4.75845">
        <ele>601.6</ele>
        <time>2023-08-25T16:01:34.000Z</time>
      </trkpt>
      <trkpt lat="34.02424" lon="-4.75882">
        <ele>600.7</ele>
        <time>2023-08-25T16:01:38.000Z</time>
      </trkpt>
      <trkpt lat="34.02429" lon="-4.75913">
        <ele>600</ele>
        <time>2023-08-25T16:01:41.000Z</time>
      </trkpt>
      <trkpt lat="34.02435" lon="-4.75953">
        <ele>599.4</ele>
        <time>2023-08-25T16:01:45.000Z</time>
      </trkpt>
      <trkpt lat="34.02442" lon="-4.75993">
        <ele>598.7</ele>
        <time>2023-08-25T16:01:49.000Z</time>
      </trkpt>
      <trkpt lat="34.0245" lon="-4.76032">
        <ele>597.1</ele>
        <time>2023-08-25T16:01:53.000Z</time>
      </trkpt>
      <trkpt lat="34.02455" lon="-4.76062">
        <ele>595.7</ele>
        <time>2023-08-25T16:01:56.000Z</time>
      </trkpt>
      <trkpt lat="34.02464" lon="-4.76099">
        <ele>595</ele>
        <time>2023-08-25T16:02:00.000Z</time>
      </trkpt>
      <trkpt lat="34.02472" lon="-4.76136">
        <ele>594.6</ele>
        <time>2023-08-25T16:02:04.000Z</time>
      </trkpt>
      <trkpt lat="34.02477" lon="-4.76164">
        <ele>594.2</ele>
        <time>2023-08-25T16:02:07.000Z</time>
      </trkpt>
      <trkpt lat="34.02483" lon="-4.76203">
        <ele>594</ele>
        <time>2023-08-25T16:02:11.000Z</time>
      </trkpt>
      <trkpt lat="34.02488" lon="-4.76233">
        <ele>593.5</ele>
        <time>2023-08-25T16:02:14.000Z</time>
      </trkpt>
      <trkpt lat="34.02494" lon="-4.76264">
        <ele>593.3</ele>
        <time>2023-08-25T16:02:17.000Z</time>
      </trkpt>
      <trkpt lat="34.02501" lon="-4.76304">
        <ele>593.2</ele>
        <time>2023-08-25T16:02:21.000Z</time>
      </trkpt>
      <trkpt lat="34.02507" lon="-4.76343">
        <ele>593</ele>
        <time>2023-08-25T16:02:25.000Z</time>
      </trkpt>
      <trkpt lat="34.02512" lon="-4.7637">
        <ele>594</ele>
        <time>2023-08-25T16:02:28.000Z</time>
      </trkpt>
      <trkpt lat="34.02518" lon="-4.76398">
        <ele>595.1</ele>
        <time>2023-08-25T16:02:31.000Z</time>
      </trkpt>
      <trkpt lat="34.02523" lon="-4.76425">
        <ele>596.3</ele>
        <time>2023-08-25T16:02:34.000Z</time>
      </trkpt>
      <trkpt lat="34.02529" lon="-4.76461">
        <ele>597</ele>
        <time>2023-08-25T16:02:38.000Z</time>
      </trkpt>
      <trkpt lat="34.02533" lon="-4.76489">
        <ele>597.7</ele>
        <time>2023-08-25T16:02:41.000Z</time>
      </trkpt>
      <trkpt lat="34.02538" lon="-4.76517">
        <ele>599.4</ele>
        <time>2023-08-25T16:02:44.000Z</time>
      </trkpt>
      <trkpt lat="34.02544" lon="-4.76554">
        <ele>600.3</ele>
        <time>2023-08-25T16:02:48.000Z</time>
      </trkpt>
      <trkpt lat="34.0255" lon="-4.76592">
        <ele>600.9</ele>
        <time>2023-08-25T16:02:52.000Z</time>
      </trkpt>
      <trkpt lat="34.02552" lon="-4.76633">
        <ele>601.2</ele>
        <time>2023-08-25T16:02:56.000Z</time>
      </trkpt>
      <trkpt lat="34.02549" lon="-4.76673">
        <ele>602.7</ele>
        <time>2023-08-25T16:03:00.000Z</time>
      </trkpt>
      <trkpt lat="34.02545" lon="-4.76713">
        <ele>603.1</ele>
        <time>2023-08-25T16:03:04.000Z</time>
      </trkpt>
      <trkpt lat="34.02541" lon="-4.76744">
        <ele>603.3</ele>
        <time>2023-08-25T16:03:07.000Z</time>
      </trkpt>
      <trkpt lat="34.02538" lon="-4.76782">
        <ele>602.4</ele>
        <time>2023-08-25T16:03:11.000Z</time>
      </trkpt>
      <trkpt lat="34.02542" lon="-4.76823">
        <ele>603.5</ele>
        <time>2023-08-25T16:03:15.000Z</time>
      </trkpt>
      <trkpt lat="34.02545" lon="-4.76852">
        <ele>602</ele>
        <time>2023-08-25T16:03:18.000Z</time>
      </trkpt>
      <trkpt lat="34.02551" lon="-4.76881">
        <ele>601.8</ele>
        <time>2023-08-25T16:03:21.000Z</time>
      </trkpt>
      <trkpt lat="34.02556" lon="-4.76912">
        <ele>600.7</ele>
        <time>2023-08-25T16:03:24.000Z</time>
      </trkpt>
      <trkpt lat="34.02563" lon="-4.76941">
        <ele>600.7</ele>
        <time>2023-08-25T16:03:27.000Z</time>
      </trkpt>
      <trkpt lat="34.02571" lon="-4.76967">
        <ele>599.1</ele>
        <time>2023-08-25T16:03:30.000Z</time>
      </trkpt>
      <trkpt lat="34.02585" lon="-4.77004">
        <ele>598</ele>
        <time>2023-08-25T16:03:34.000Z</time>
      </trkpt>
      <trkpt lat="34.02598" lon="-4.77029">
        <ele>597.1</ele>
        <time>2023-08-25T16:03:37.000Z</time>
      </trkpt>
      <trkpt lat="34.02611" lon="-4.77056">
        <ele>597</ele>
        <time>2023-08-25T16:03:40.000Z</time>
      </trkpt>
      <trkpt lat="34.02623" lon="-4.77083">
        <ele>596.3</ele>
        <time>2023-08-25T16:03:43.000Z</time>
      </trkpt>
      <trkpt lat="34.02637" lon="-4.77119">
        <ele>595.1</ele>
        <time>2023-08-25T16:03:47.000Z</time>
      </trkpt>
      <trkpt lat="34.02647" lon="-4.77145">
        <ele>595.2</ele>
        <time>2023-08-25T16:03:50.000Z</time>
      </trkpt>
      <trkpt lat="34.02661" lon="-4.77183">
        <ele>593.7</ele>
        <time>2023-08-25T16:03:54.000Z</time>
      </trkpt>
      <trkpt lat="34.02672" lon="-4.77219">
        <ele>593</ele>
        <time>2023-08-25T16:03:58.000Z</time>
      </trkpt>
      <trkpt lat="34.02681" lon="-4.77247">
        <ele>592.1</ele>
        <time>2023-08-25T16:04:01.000Z</time>
      </trkpt>
      <trkpt lat="34.02693" lon="-4.77282">
        <ele>590.9</ele>
        <time>2023-08-25T16:04:05.000Z</time>
      </trkpt>
      <trkpt lat="34.02701" lon="-4.7731">
        <ele>590.1</ele>
        <time>2023-08-25T16:04:08.000Z</time>
      </trkpt>
      <trkpt lat="34.02711" lon="-4.77348">
        <ele>589.4</ele>
        <time>2023-08-25T16:04:12.000Z</time>
      </trkpt>
      <trkpt lat="34.02716" lon="-4.77388">
        <ele>588.2</ele>
        <time>2023-08-25T16:04:16.000Z</time>
      </trkpt>
      <trkpt lat="34.0272" lon="-4.7743">
        <ele>587.9</ele>
        <time>2023-08-25T16:04:20.000Z</time>
      </trkpt>
      <trkpt lat="34.02725" lon="-4.7747">
        <ele>587.4</ele>
        <time>2023-08-25T16:04:24.000Z</time>
      </trkpt>
      <trkpt lat="34.02728" lon="-4.77509">
        <ele>587.1</ele>
        <time>2023-08-25T16:04:28.000Z</time>
      </trkpt>
      <trkpt lat="34.02732" lon="-4.77548">
        <ele>585.4</ele>
        <time>2023-08-25T16:04:32.000Z</time>
      </trkpt>
      <trkpt lat="34.02736" lon="-4.77588">
        <ele>584.8</ele>
        <time>2023-08-25T16:04:36.000Z</time>
      </trkpt>
      <trkpt lat="34.02741" lon="-4.77618">
        <ele>583.5</ele>
        <time>2023-08-25T16:04:39.000Z</time>
      </trkpt>
      <trkpt lat="34.02751" lon="-4.77655">
        <ele>583.9</ele>
        <time>2023-08-25T16:04:43.000Z</time>
      </trkpt>
      <trkpt lat="34.02766" lon="-4.7769">
        <ele>581.9</ele>
        <time>2023-08-25T16:04:47.000Z</time>
      </trkpt>
      <trkpt lat="34.02784" lon="-4.77724">
        <ele>579.8</ele>
        <time>2023-08-25T16:04:51.000Z</time>
      </trkpt>
      <trkpt lat="34.02802" lon="-4.77755">
        <ele>578.6</ele>
        <time>2023-08-25T16:04:55.000Z</time>
      </trkpt>
      <trkpt lat="34.02816" lon="-4.7778">
        <ele>577.4</ele>
        <time>2023-08-25T16:04:58.000Z</time>
      </trkpt>
      <trkpt lat="34.02833" lon="-4.77815">
        <ele>575.3</ele>
        <time>2023-08-25T16:05:02.000Z</time>
      </trkpt>
      <trkpt lat="34.02845" lon="-4.77841">
        <ele>574.2</ele>
        <time>2023-08-25T16:05:05.000Z</time>
      </trkpt>
      <trkpt lat="34.02859" lon="-4.77867">
        <ele>572.8</ele>
        <time>2023-08-25T16:05:08.000Z</time>
      </trkpt>
      <trkpt lat="34.02873" lon="-4.77894">
        <ele>571.5</ele>
        <time>2023-08-25T16:05:11.000Z</time>
      </trkpt>
      <trkpt lat="34.02891" lon="-4.7793">
        <ele>571.1</ele>
        <time>2023-08-25T16:05:15.000Z</time>
      </trkpt>
      <trkpt lat="34.02908" lon="-4.77964">
        <ele>569.4</ele>
        <time>2023-08-25T16:05:19.000Z</time>
      </trkpt>
      <trkpt lat="34.02919" lon="-4.77989">
        <ele>568.7</ele>
        <time>2023-08-25T16:05:22.000Z</time>
      </trkpt>
      <trkpt lat="34.02936" lon="-4.78023">
        <ele>568</ele>
        <time>2023-08-25T16:05:26.000Z</time>
      </trkpt>
      <trkpt lat="34.02949" lon="-4.78048">
        <ele>566.3</ele>
        <time>2023-08-25T16:05:29.000Z</time>
      </trkpt>
      <trkpt lat="34.02966" lon="-4.78082">
        <ele>564.2</ele>
        <time>2023-08-25T16:05:33.000Z</time>
      </trkpt>
      <trkpt lat="34.02983" lon="-4.78117">
        <ele>563.2</ele>
        <time>2023-08-25T16:05:37.000Z</time>
      </trkpt>
      <trkpt lat="34.02997" lon="-4.78153">
        <ele>563.8</ele>
        <time>2023-08-25T16:05:41.000Z</time>
      </trkpt>
      <trkpt lat="34.03004" lon="-4.78192">
        <ele>563</ele>
        <time>2023-08-25T16:05:45.000Z</time>
      </trkpt>
      <trkpt lat="34.03004" lon="-4.78222">
        <ele>562.6</ele>
        <time>2023-08-25T16:05:48.000Z</time>
      </trkpt>
      <trkpt lat="34.03" lon="-4.78249">
        <ele>562.5</ele>
        <time>2023-08-25T16:05:51.000Z</time>
      </trkpt>
      <trkpt lat="34.02992" lon="-4.78286">
        <ele>561.4</ele>
        <time>2023-08-25T16:05:55.000Z</time>
      </trkpt>
      <trkpt lat="34.02989" lon="-4.7831">
        <ele>559.6</ele>
        <time>2023-08-25T16:05:58.000Z</time>
      </trkpt>
      <trkpt lat="34.02989" lon="-4.78338">
        <ele>557.4</ele>
        <time>2023-08-25T16:06:01.000Z</time>
      </trkpt>
      <trkpt lat="34.02993" lon="-4.78374">
        <ele>554</ele>
        <time>2023-08-25T16:06:05.000Z</time>
      </trkpt>
      <trkpt lat="34.03004" lon="-4.78404">
        <ele>553.9</ele>
        <time>2023-08-25T16:06:09.000Z</time>
      </trkpt>
      <trkpt lat="34.03015" lon="-4.78434">
        <ele>551.4</ele>
        <time>2023-08-25T16:06:13.000Z</time>
      </trkpt>
      <trkpt lat="34.03028" lon="-4.78462">
        <ele>549.6</ele>
        <time>2023-08-25T16:06:17.000Z</time>
      </trkpt>
      <trkpt lat="34.03038" lon="-4.78483">
        <ele>549.4</ele>
        <time>2023-08-25T16:06:20.000Z</time>
      </trkpt>
      <trkpt lat="34.03056" lon="-4.78516">
        <ele>547.8</ele>
        <time>2023-08-25T16:06:24.000Z</time>
      </trkpt>
      <trkpt lat="34.03068" lon="-4.78542">
        <ele>546.5</ele>
        <time>2023-08-25T16:06:27.000Z</time>
      </trkpt>
      <trkpt lat="34.03083" lon="-4.78574">
        <ele>544.3</ele>
        <time>2023-08-25T16:06:31.000Z</time>
      </trkpt>
      <trkpt lat="34.03094" lon="-4.78598">
        <ele>543.2</ele>
        <time>2023-08-25T16:06:34.000Z</time>
      </trkpt>
      <trkpt lat="34.03108" lon="-4.7863">
        <ele>543.3</ele>
        <time>2023-08-25T16:06:38.000Z</time>
      </trkpt>
      <trkpt lat="34.03119" lon="-4.78654">
        <ele>541.6</ele>
        <time>2023-08-25T16:06:41.000Z</time>
      </trkpt>
      <trkpt lat="34.03135" lon="-4.78686">
        <ele>538.7</ele>
        <time>2023-08-25T16:06:45.000Z</time>
      </trkpt>
      <trkpt lat="34.03147" lon="-4.7871">
        <ele>538.2</ele>
        <time>2023-08-25T16:06:48.000Z</time>
      </trkpt>
      <trkpt lat="34.03163" lon="-4.78741">
        <ele>536.8</ele>
        <time>2023-08-25T16:06:52.000Z</time>
      </trkpt>
      <trkpt lat="34.03183" lon="-4.78772">
        <ele>535.9</ele>
        <time>2023-08-25T16:06:56.000Z</time>
      </trkpt>
      <trkpt lat="34.03202" lon="-4.7879">
        <ele>534.6</ele>
        <time>2023-08-25T16:06:59.000Z</time>
      </trkpt>
      <trkpt lat="34.03227" lon="-4.78807">
        <ele>533.6</ele>
        <time>2023-08-25T16:07:03.000Z</time>
      </trkpt>
      <trkpt lat="34.03242" lon="-4.7882">
        <ele>534.3</ele>
        <time>2023-08-25T16:07:06.000Z</time>
      </trkpt>
      <trkpt lat="34.03257" lon="-4.78848">
        <ele>533</ele>
        <time>2023-08-25T16:07:10.000Z</time>
      </trkpt>
      <trkpt lat="34.03258" lon="-4.78873">
        <ele>531.3</ele>
        <time>2023-08-25T16:07:13.000Z</time>
      </trkpt>
      <trkpt lat="34.03247" lon="-4.78898">
        <ele>529.6</ele>
        <time>2023-08-25T16:07:17.000Z</time>
      </trkpt>
      <trkpt lat="34.03228" lon="-4.78905">
        <ele>528.8</ele>
        <time>2023-08-25T16:07:20.000Z</time>
      </trkpt>
      <trkpt lat="34.03198" lon="-4.78898">
        <ele>527.1</ele>
        <time>2023-08-25T16:07:23.000Z</time>
      </trkpt>
      <trkpt lat="34.03164" lon="-4.78876">
        <ele>526.2</ele>
        <time>2023-08-25T16:07:27.000Z</time>
      </trkpt>
      <trkpt lat="34.03136" lon="-4.78852">
        <ele>525.7</ele>
        <time>2023-08-25T16:07:31.000Z</time>
      </trkpt>
      <trkpt lat="34.03111" lon="-4.7883">
        <ele>525.1</ele>
        <time>2023-08-25T16:07:35.000Z</time>
      </trkpt>
      <trkpt lat="34.03086" lon="-4.7881">
        <ele>524.4</ele>
        <time>2023-08-25T16:07:39.000Z</time>
      </trkpt>
      <trkpt lat="34.03068" lon="-4.78795">
        <ele>523</ele>
        <time>2023-08-25T16:07:42.000Z</time>
      </trkpt>
      <trkpt lat="34.03045" lon="-4.78777">
        <ele>522</ele>
        <time>2023-08-25T16:07:46.000Z</time>
      </trkpt>
      <trkpt lat="34.0303" lon="-4.78763">
        <ele>521.8</ele>
        <time>2023-08-25T16:07:49.000Z</time>
      </trkpt>
      <trkpt lat="34.03013" lon="-4.78752">
        <ele>521.7</ele>
        <time>2023-08-25T16:07:52.000Z</time>
      </trkpt>
      <trkpt lat="34.02991" lon="-4.78748">
        <ele>521.1</ele>
        <time>2023-08-25T16:07:56.000Z</time>
      </trkpt>
      <trkpt lat="34.02977" lon="-4.78758">
        <ele>520</ele>
        <time>2023-08-25T16:07:59.000Z</time>
      </trkpt>
      <trkpt lat="34.02965" lon="-4.78785">
        <ele>518.6</ele>
        <time>2023-08-25T16:08:03.000Z</time>
      </trkpt>
      <trkpt lat="34.02975" lon="-4.78819">
        <ele>516.5</ele>
        <time>2023-08-25T16:08:07.000Z</time>
      </trkpt>
      <trkpt lat="34.02997" lon="-4.78845">
        <ele>516</ele>
        <time>2023-08-25T16:08:11.000Z</time>
      </trkpt>
      <trkpt lat="34.03015" lon="-4.7886">
        <ele>514</ele>
        <time>2023-08-25T16:08:14.000Z</time>
      </trkpt>
      <trkpt lat="34.03032" lon="-4.78876">
        <ele>513.4</ele>
        <time>2023-08-25T16:08:17.000Z</time>
      </trkpt>
      <trkpt lat="34.03049" lon="-4.78902">
        <ele>512.2</ele>
        <time>2023-08-25T16:08:21.000Z</time>
      </trkpt>
      <trkpt lat="34.03061" lon="-4.78923">
        <ele>510.9</ele>
        <time>2023-08-25T16:08:24.000Z</time>
      </trkpt>
      <trkpt lat="34.03075" lon="-4.78951">
        <ele>509.4</ele>
        <time>2023-08-25T16:08:28.000Z</time>
      </trkpt>
      <trkpt lat="34.03087" lon="-4.78971">
        <ele>507.9</ele>
        <time>2023-08-25T16:08:31.000Z</time>
      </trkpt>
      <trkpt lat="34.03102" lon="-4.79001">
        <ele>507.8</ele>
        <time>2023-08-25T16:08:35.000Z</time>
      </trkpt>
      <trkpt lat="34.03116" lon="-4.7903">
        <ele>506.4</ele>
        <time>2023-08-25T16:08:39.000Z</time>
      </trkpt>
      <trkpt lat="34.03128" lon="-4.79052">
        <ele>504.8</ele>
        <time>2023-08-25T16:08:42.000Z</time>
      </trkpt>
      <trkpt lat="34.0314" lon="-4.79075">
        <ele>504.6</ele>
        <time>2023-08-25T16:08:45.000Z</time>
      </trkpt>
      <trkpt lat="34.03154" lon="-4.79106">
        <ele>503.5</ele>
        <time>2023-08-25T16:08:49.000Z</time>
      </trkpt>
      <trkpt lat="34.0316" lon="-4.79131">
        <ele>502.1</ele>
        <time>2023-08-25T16:08:52.000Z</time>
      </trkpt>
      <trkpt lat="34.03161" lon="-4.79166">
        <ele>500.3</ele>
        <time>2023-08-25T16:08:56.000Z</time>
      </trkpt>
      <trkpt lat="34.03158" lon="-4.79201">
        <ele>499</ele>
        <time>2023-08-25T16:09:00.000Z</time>
      </trkpt>
      <trkpt lat="34.03153" lon="-4.79229">
        <ele>498.4</ele>
        <time>2023-08-25T16:09:03.000Z</time>
      </trkpt>
      <trkpt lat="34.03147" lon="-4.79261">
        <ele>497.2</ele>
        <time>2023-08-25T16:09:07.000Z</time>
      </trkpt>
      <trkpt lat="34.03151" lon="-4.79294">
        <ele>494.6</ele>
        <time>2023-08-25T16:09:11.000Z</time>
      </trkpt>
      <trkpt lat="34.0316" lon="-4.79325">
        <ele>493.9</ele>
        <time>2023-08-25T16:09:15.000Z</time>
      </trkpt>
      <trkpt lat="34.03164" lon="-4.79351">
        <ele>493.3</ele>
        <time>2023-08-25T16:09:18.000Z</time>
      </trkpt>
      <trkpt lat="34.03164" lon="-4.79386">
        <ele>491</ele>
        <time>2023-08-25T16:09:22.000Z</time>
      </trkpt>
      <trkpt lat="34.03155" lon="-4.79422">
        <ele>489.7</ele>
        <time>2023-08-25T16:09:26.000Z</time>
      </trkpt>
      <trkpt lat="34.03143" lon="-4.79448">
        <ele>488.5</ele>
        <time>2023-08-25T16:09:30.000Z</time>
      </trkpt>
      <trkpt lat="34.03133" lon="-4.79468">
        <ele>487.6</ele>
        <time>2023-08-25T16:09:33.000Z</time>
      </trkpt>
      <trkpt lat="34.03126" lon="-4.79488">
        <ele>486</ele>
        <time>2023-08-25T16:09:36.000Z</time>
      </trkpt>
      <trkpt lat="34.03129" lon="-4.79518">
        <ele>484.3</ele>
        <time>2023-08-25T16:09:40.000Z</time>
      </trkpt>
      <trkpt lat="34.03143" lon="-4.79533">
        <ele>484.3</ele>
        <time>2023-08-25T16:09:43.000Z</time>
      </trkpt>
      <trkpt lat="34.03177" lon="-4.79539">
        <ele>483.5</ele>
        <time>2023-08-25T16:09:47.000Z</time>
      </trkpt>
      <trkpt lat="34.03201" lon="-4.79533">
        <ele>482.4</ele>
        <time>2023-08-25T16:09:50.000Z</time>
      </trkpt>
      <trkpt lat="34.03227" lon="-4.79517">
        <ele>481.9</ele>
        <time>2023-08-25T16:09:54.000Z</time>
      </trkpt>
      <trkpt lat="34.03245" lon="-4.79511">
        <ele>480.9</ele>
        <time>2023-08-25T16:09:57.000Z</time>
      </trkpt>
      <trkpt lat="34.03265" lon="-4.7952">
        <ele>480.1</ele>
        <time>2023-08-25T16:10:01.000Z</time>
      </trkpt>
      <trkpt lat="34.03274" lon="-4.79537">
        <ele>479.2</ele>
        <time>2023-08-25T16:10:04.000Z</time>
      </trkpt>
      <trkpt lat="34.03276" lon="-4.79561">
        <ele>478</ele>
        <time>2023-08-25T16:10:07.000Z</time>
      </trkpt>
      <trkpt lat="34.03264" lon="-4.7959">
        <ele>476</ele>
        <time>2023-08-25T16:10:11.000Z</time>
      </trkpt>
      <trkpt lat="34.03238" lon="-4.79607">
        <ele>475.1</ele>
        <time>2023-08-25T16:10:15.000Z</time>
      </trkpt>
      <trkpt lat="34.03216" lon="-4.79616">
        <ele>473.4</ele>
        <time>2023-08-25T16:10:18.000Z</time>
      </trkpt>
      <trkpt lat="34.03196" lon="-4.79627">
        <ele>472.3</ele>
        <time>2023-08-25T16:10:21.000Z</time>
      </trkpt>
      <trkpt lat="34.03171" lon="-4.79646">
        <ele>470.9</ele>
        <time>2023-08-25T16:10:25.000Z</time>
      </trkpt>
      <trkpt lat="34.03154" lon="-4.79661">
        <ele>469.4</ele>
        <time>2023-08-25T16:10:28.000Z</time>
      </trkpt>
      <trkpt lat="34.0313" lon="-4.79673">
        <ele>469.4</ele>
        <time>2023-08-25T16:10:32.000Z</time>
      </trkpt>
      <trkpt lat="34.0311" lon="-4.79672">
        <ele>468.5</ele>
        <time>2023-08-25T16:10:35.000Z</time>
      </trkpt>
      <trkpt lat="34.03092" lon="-4.7966">
        <ele>466.9</ele>
        <time>2023-08-25T16:10:38.000Z</time>
      </trkpt>
      <trkpt lat="34.03071" lon="-4.79649">
        <ele>465.6</ele>
        <time>2023-08-25T16:10:41.000Z</time>
      </trkpt>
      <trkpt lat="34.03043" lon="-4.79637">
        <ele>464.5</ele>
        <time>2023-08-25T16:10:45.000Z</time>
      </trkpt>
      <trkpt lat="34.03018" lon="-4.79623">
        <ele>463.1</ele>
        <time>2023-08-25T16:10:49.000Z</time>
      </trkpt>
      <trkpt lat="34.03001" lon="-4.79606">
        <ele>461.2</ele>
        <time>2023-08-25T16:10:52.000Z</time>
      </trkpt>
      <trkpt lat="34.02982" lon="-4.79577">
        <ele>459.3</ele>
        <time>2023-08-25T16:10:56.000Z</time>
      </trkpt>
      <trkpt lat="34.02969" lon="-4.79547">
        <ele>459</ele>
        <time>2023-08-25T16:11:00.000Z</time>
      </trkpt>
      <trkpt lat="34.02955" lon="-4.79517">
        <ele>457.2</ele>
        <time>2023-08-25T16:11:04.000Z</time>
      </trkpt>
      <trkpt lat="34.02944" lon="-4.79494">
        <ele>455.8</ele>
        <time>2023-08-25T16:11:07.000Z</time>
      </trkpt>
      <trkpt lat="34.02926" lon="-4.79468">
        <ele>456.2</ele>
        <time>2023-08-25T16:11:11.000Z</time>
      </trkpt>
      <trkpt lat="34.02909" lon="-4.79453">
        <ele>455.8</ele>
        <time>2023-08-25T16:11:14.000Z</time>
      </trkpt>
      <trkpt lat="34.02885" lon="-4.7944">
        <ele>454.3</ele>
        <time>2023-08-25T16:11:18.000Z</time>
      </trkpt>
      <trkpt lat="34.02868" lon="-4.79433">
        <ele>452.5</ele>
        <time>2023-08-25T16:11:21.000Z</time>
      </trkpt>
      <trkpt lat="34.02845" lon="-4.79435">
        <ele>451</ele>
        <time>2023-08-25T16:11:25.000Z</time>
      </trkpt>
      <trkpt lat="34.02833" lon="-4.7945">
        <ele>450.1</ele>
        <time>2023-08-25T16:11:28.000Z</time>
      </trkpt>
      <trkpt lat="34.02828" lon="-4.79487">
        <ele>448.7</ele>
        <time>2023-08-25T16:11:32.000Z</time>
      </trkpt>
      <trkpt lat="34.02834" lon="-4.79512">
        <ele>447.1</ele>
        <time>2023-08-25T16:11:35.000Z</time>
      </trkpt>
      <trkpt lat="34.02851" lon="-4.79528">
        <ele>446.9</ele>
        <time>2023-08-25T16:11:38.000Z</time>
      </trkpt>
      <trkpt lat="34.02882" lon="-4.79546">
        <ele>446.2</ele>
        <time>2023-08-25T16:11:42.000Z</time>
      </trkpt>
      <trkpt lat="34.02907" lon="-4.79571">
        <ele>443.9</ele>
        <time>2023-08-25T16:11:46.000Z</time>
      </trkpt>
      <trkpt lat="34.02924" lon="-4.7959">
        <ele>442.4</ele>
        <time>2023-08-25T16:11:49.000Z</time>
      </trkpt>
      <trkpt lat="34.02933" lon="-4.79622">
        <ele>441</ele>
        <time>2023-08-25T16:11:53.000Z</time>
      </trkpt>
      <trkpt lat="34.02938" lon="-4.79647">
        <ele>440.7</ele>
        <time>2023-08-25T16:11:56.000Z</time>
      </trkpt>
      <trkpt lat="34.02944" lon="-4.79682">
        <ele>439.7</ele>
        <time>2023-08-25T16:12:00.000Z</time>
      </trkpt>
      <trkpt lat="34.02949" lon="-4.79709">
        <ele>437.8</ele>
        <time>2023-08-25T16:12:03.000Z</time>
      </trkpt>
      <trkpt lat="34.02957" lon="-4.79755">
        <ele>436.4</ele>
        <time>2023-08-25T16:12:08.000Z</time>
      </trkpt>
      <trkpt lat="34.02962" lon="-4.79786">
        <ele>435.8</ele>
        <time>2023-08-25T16:12:11.000Z</time>
      </trkpt>
      <trkpt lat="34.02974" lon="-4.79824">
        <ele>433.1</ele>
        <time>2023-08-25T16:12:15.000Z</time>
      </trkpt>
      <trkpt lat="34.02986" lon="-4.79851">
        <ele>431.7</ele>
        <time>2023-08-25T16:12:18.000Z</time>
      </trkpt>
      <trkpt lat="34.03005" lon="-4.79887">
        <ele>430.1</ele>
        <time>2023-08-25T16:12:22.000Z</time>
      </trkpt>
      <trkpt lat="34.03021" lon="-4.7992">
        <ele>429</ele>
        <time>2023-08-25T16:12:26.000Z</time>
      </trkpt>
      <trkpt lat="34.03037" lon="-4.79952">
        <ele>427.6</ele>
        <time>2023-08-25T16:12:30.000Z</time>
      </trkpt>
      <trkpt lat="34.03051" lon="-4.79972">
        <ele>425.4</ele>
        <time>2023-08-25T16:12:33.000Z</time>
      </trkpt>
      <trkpt lat="34.03079" lon="-4.79991">
        <ele>424.9</ele>
        <time>2023-08-25T16:12:37.000Z</time>
      </trkpt>
      <trkpt lat="34.031" lon="-4.79997">
        <ele>423.9</ele>
        <time>2023-08-25T16:12:40.000Z</time>
      </trkpt>
      <trkpt lat="34.03126" lon="-4.80009">
        <ele>421.9</ele>
        <time>2023-08-25T16:12:44.000Z</time>
      </trkpt>
      <trkpt lat="34.03134" lon="-4.80025">
        <ele>421</ele>
        <time>2023-08-25T16:12:47.000Z</time>
      </trkpt>
      <trkpt lat="34.03133" lon="-4.80057">
        <ele>419.2</ele>
        <time>2023-08-25T16:12:51.000Z</time>
      </trkpt>
      <trkpt lat="34.03112" lon="-4.80087">
        <ele>418.8</ele>
        <time>2023-08-25T16:12:55.000Z</time>
      </trkpt>
      <trkpt lat="34.03089" lon="-4.80097">
        <ele>417.3</ele>
        <time>2023-08-25T16:12:58.000Z</time>
      </trkpt>
      <trkpt lat="34.03055" lon="-4.80104">
        <ele>415.1</ele>
        <time>2023-08-25T16:13:02.000Z</time>
      </trkpt>
      <trkpt lat="34.0303" lon="-4.80106">
        <ele>415.1</ele>
        <time>2023-08-25T16:13:05.000Z</time>
      </trkpt>
      <trkpt lat="34.02998" lon="-4.80105">
        <ele>413.7</ele>
        <time>2023-08-25T16:13:09.000Z</time>
      </trkpt>
      <trkpt lat="34.02976" lon="-4.80101">
        <ele>411.9</ele>
        <time>2023-08-25T16:13:12.000Z</time>
      </trkpt>
      <trkpt lat="34.02955" lon="-4.80097">
        <ele>410.7</ele>
        <time>2023-08-25T16:13:15.000Z</time>
      </trkpt>
      <trkpt lat="34.02927" lon="-4.801">
        <ele>408.5</ele>
        <time>2023-08-25T16:13:19.000Z</time>
      </trkpt>
      <trkpt lat="34.02907" lon="-4.80107">
        <ele>408.5</ele>
        <time>2023-08-25T16:13:22.000Z</time>
      </trkpt>
      <trkpt lat="34.02883" lon="-4.80119">
        <ele>406.9</ele>
        <time>2023-08-25T16:13:26.000Z</time>
      </trkpt>
      <trkpt lat="34.02864" lon="-4.80134">
        <ele>406</ele>
        <time>2023-08-25T16:13:30.000Z</time>
      </trkpt>
      <trkpt lat="34.02849" lon="-4.80148">
        <ele>405.1</ele>
        <time>2023-08-25T16:13:33.000Z</time>
      </trkpt>
      <trkpt lat="34.02831" lon="-4.80171">
        <ele>404.4</ele>
        <time>2023-08-25T16:13:37.000Z</time>
      </trkpt>
      <trkpt lat="34.02818" lon="-4.80202">
        <ele>402.2</ele>
        <time>2023-08-25T16:13:41.000Z</time>
      </trkpt>
      <trkpt lat="34.0281" lon="-4.80236">
        <ele>399.9</ele>
        <time>2023-08-25T16:13:45.000Z</time>
      </trkpt>
      <trkpt lat="34.02811" lon="-4.80263">
        <ele>398.4</ele>
        <time>2023-08-25T16:13:48.000Z</time>
      </trkpt>
      <trkpt lat="34.02822" lon="-4.803">
        <ele>397</ele>
        <time>2023-08-25T16:13:52.000Z</time>
      </trkpt>
      <trkpt lat="34.02835" lon="-4.80324">
        <ele>397.4</ele>
        <time>2023-08-25T16:13:55.000Z</time>
      </trkpt>
      <trkpt lat="34.02854" lon="-4.80355">
        <ele>395.2</ele>
        <time>2023-08-25T16:13:59.000Z</time>
      </trkpt>
      <trkpt lat="34.02866" lon="-4.8038">
        <ele>395</ele>
        <time>2023-08-25T16:14:02.000Z</time>
      </trkpt>
      <trkpt lat="34.02878" lon="-4.80404">
        <ele>393.7</ele>
        <time>2023-08-25T16:14:05.000Z</time>
      </trkpt>
      <trkpt lat="34.02889" lon="-4.80439">
        <ele>392.5</ele>
        <time>2023-08-25T16:14:09.000Z</time>
      </trkpt>
      <trkpt lat="34.02891" lon="-4.80476">
        <ele>389.7</ele>
        <time>2023-08-25T16:14:13.000Z</time>
      </trkpt>
      <trkpt lat="34.0289" lon="-4.80513">
        <ele>387.4</ele>
        <time>2023-08-25T16:14:17.000Z</time>
      </trkpt>
      <trkpt lat="34.02891" lon="-4.80551">
        <ele>385.8</ele>
        <time>2023-08-25T16:14:21.000Z</time>
      </trkpt>
      <trkpt lat="34.02891" lon="-4.80588">
        <ele>385.8</ele>
        <time>2023-08-25T16:14:25.000Z</time>
      </trkpt>
      <trkpt lat="34.02889" lon="-4.80626">
        <ele>383.6</ele>
        <time>2023-08-25T16:14:29.000Z</time>
      </trkpt>
      <trkpt lat="34.02882" lon="-4.80665">
        <ele>382.3</ele>
        <time>2023-08-25T16:14:33.000Z</time>
      </trkpt>
      <trkpt lat="34.02872" lon="-4.8069">
        <ele>381.6</ele>
        <time>2023-08-25T16:14:36.000Z</time>
      </trkpt>
      <trkpt lat="34.02859" lon="-4.80714">
        <ele>380.2</ele>
        <time>2023-08-25T16:14:39.000Z</time>
      </trkpt>
      <trkpt lat="34.02839" lon="-4.80744">
        <ele>376.9</ele>
        <time>2023-08-25T16:14:43.000Z</time>
      </trkpt>
      <trkpt lat="34.02822" lon="-4.80766">
        <ele>375.9</ele>
        <time>2023-08-25T16:14:46.000Z</time>
      </trkpt>
      <trkpt lat="34.02802" lon="-4.80793">
        <ele>373.7</ele>
        <time>2023-08-25T16:14:50.000Z</time>
      </trkpt>
      <trkpt lat="34.02783" lon="-4.80821">
        <ele>372.9</ele>
        <time>2023-08-25T16:14:54.000Z</time>
      </trkpt>
      <trkpt lat="34.02764" lon="-4.80836">
        <ele>372.3</ele>
        <time>2023-08-25T16:14:57.000Z</time>
      </trkpt>
      <trkpt lat="34.02743" lon="-4.80846">
        <ele>370.4</ele>
        <time>2023-08-25T16:15:00.000Z</time>
      </trkpt>
      <trkpt lat="34.02712" lon="-4.80853">
        <ele>369.6</ele>
        <time>2023-08-25T16:15:04.000Z</time>
      </trkpt>
      <trkpt lat="34.02689" lon="-4.80858">
        <ele>368.6</ele>
        <time>2023-08-25T16:15:07.000Z</time>
      </trkpt>
      <trkpt lat="34.02666" lon="-4.80864">
        <ele>366.3</ele>
        <time>2023-08-25T16:15:10.000Z</time>
      </trkpt>
      <trkpt lat="34.02634" lon="-4.80872">
        <ele>365</ele>
        <time>2023-08-25T16:15:14.000Z</time>
      </trkpt>
      <trkpt lat="34.02612" lon="-4.80879">
        <ele>364.3</ele>
        <time>2023-08-25T16:15:17.000Z</time>
      </trkpt>
      <trkpt lat="34.02583" lon="-4.80887">
        <ele>363.4</ele>
        <time>2023-08-25T16:15:21.000Z</time>
      </trkpt>
      <trkpt lat="34.02552" lon="-4.80895">
        <ele>361.9</ele>
        <time>2023-08-25T16:15:25.000Z</time>
      </trkpt>
      <trkpt lat="34.02521" lon="-4.80905">
        <ele>360</ele>
        <time>2023-08-25T16:15:29.000Z</time>
      </trkpt>
      <trkpt lat="34.02499" lon="-4.80912">
        <ele>360.2</ele>
        <time>2023-08-25T16:15:32.000Z</time>
      </trkpt>
      <trkpt lat="34.02478" lon="-4.8092">
        <ele>359</ele>
        <time>2023-08-25T16:15:35.000Z</time>
      </trkpt>
      <trkpt lat="34.02459" lon="-4.80933">
        <ele>356.9</ele>
        <time>2023-08-25T16:15:38.000Z</time>
      </trkpt>
      <trkpt lat="34.02434" lon="-4.80957">
        <ele>355.8</ele>
        <time>2023-08-25T16:15:42.000Z</time>
      </trkpt>
      <trkpt lat="34.02423" lon="-4.80982">
        <ele>354.7</ele>
        <time>2023-08-25T16:15:45.000Z</time>
      </trkpt>
      <trkpt lat="34.02422" lon="-4.81012">
        <ele>353.8</ele>
        <time>2023-08-25T16:15:48.000Z</time>
      </trkpt>
      <trkpt lat="34.0243" lon="-4.81037">
        <ele>353</ele>
        <time>2023-08-25T16:15:51.000Z</time>
      </trkpt>
      <trkpt lat="34.02455" lon="-4.81057">
        <ele>351.5</ele>
        <time>2023-08-25T16:15:55.000Z</time>
      </trkpt>
      <trkpt lat="34.02493" lon="-4.8106">
        <ele>349.6</ele>
        <time>2023-08-25T16:15:59.000Z</time>
      </trkpt>
      <trkpt lat="34.0253" lon="-4.81046">
        <ele>349.4</ele>
        <time>2023-08-25T16:16:03.000Z</time>
      </trkpt>
      <trkpt lat="34.02553" lon="-4.81036">
        <ele>347.5</ele>
        <time>2023-08-25T16:16:06.000Z</time>
      </trkpt>
      <trkpt lat="34.02582" lon="-4.81029">
        <ele>346.4</ele>
        <time>2023-08-25T16:16:10.000Z</time>
      </trkpt>
      <trkpt lat="34.02604" lon="-4.81032">
        <ele>345.2</ele>
        <time>2023-08-25T16:16:13.000Z</time>
      </trkpt>
      <trkpt lat="34.02626" lon="-4.81041">
        <ele>344.8</ele>
        <time>2023-08-25T16:16:16.000Z</time>
      </trkpt>
      <trkpt lat="34.02648" lon="-4.81052">
        <ele>342.5</ele>
        <time>2023-08-25T16:16:19.000Z</time>
      </trkpt>
      <trkpt lat="34.02666" lon="-4.81066">
        <ele>342</ele>
        <time>2023-08-25T16:16:22.000Z</time>
      </trkpt>
      <trkpt lat="34.02687" lon="-4.81092">
        <ele>340.8</ele>
        <time>2023-08-25T16:16:26.000Z</time>
      </trkpt>
      <trkpt lat="34.02701" lon="-4.81112">
        <ele>338.6</ele>
        <time>2023-08-25T16:16:29.000Z</time>
      </trkpt>
      <trkpt lat="34.02723" lon="-4.8114">
        <ele>337.8</ele>
        <time>2023-08-25T16:16:33.000Z</time>
      </trkpt>
      <trkpt lat="34.02746" lon="-4.81169">
        <ele>336.9</ele>
        <time>2023-08-25T16:16:37.000Z</time>
      </trkpt>
      <trkpt lat="34.02771" lon="-4.81199">
        <ele>335.2</ele>
        <time>2023-08-25T16:16:41.000Z</time>
      </trkpt>
      <trkpt lat="34.02795" lon="-4.81226">
        <ele>334.1</ele>
        <time>2023-08-25T16:16:45.000Z</time>
      </trkpt>
      <trkpt lat="34.02817" lon="-4.81254">
        <ele>334</ele>
        <time>2023-08-25T16:16:49.000Z</time>
      </trkpt>
      <trkpt lat="34.02836" lon="-4.81285">
        <ele>333.5</ele>
        <time>2023-08-25T16:16:53.000Z</time>
      </trkpt>
      <trkpt lat="34.02848" lon="-4.81309">
        <ele>332.3</ele>
        <time>2023-08-25T16:16:56.000Z</time>
      </trkpt>
      <trkpt lat="34.0286" lon="-4.81335">
        <ele>331.4</ele>
        <time>2023-08-25T16:16:59.000Z</time>
      </trkpt>
      <trkpt lat="34.02871" lon="-4.81361">
        <ele>330.5</ele>
        <time>2023-08-25T16:17:02.000Z</time>
      </trkpt>
      <trkpt lat="34.02886" lon="-4.81398">
        <ele>329</ele>
        <time>2023-08-25T16:17:06.000Z</time>
      </trkpt>
      <trkpt lat="34.02897" lon="-4.81424">
        <ele>329</ele>
        <time>2023-08-25T16:17:09.000Z</time>
      </trkpt>
      <trkpt lat="34.02911" lon="-4.81457">
        <ele>328.2</ele>
        <time>2023-08-25T16:17:13.000Z</time>
      </trkpt>
      <trkpt lat="34.02925" lon="-4.81489">
        <ele>329.9</ele>
        <time>2023-08-25T16:17:17.000Z</time>
      </trkpt>
      <trkpt lat="34.02936" lon="-4.81516">
        <ele>329.4</ele>
        <time>2023-08-25T16:17:20.000Z</time>
      </trkpt>
      <trkpt lat="34.02948" lon="-4.81542">
        <ele>329.2</ele>
        <time>2023-08-25T16:17:23.000Z</time>
      </trkpt>
      <trkpt lat="34.02963" lon="-4.81575">
        <ele>329.1</ele>
        <time>2023-08-25T16:17:27.000Z</time>
      </trkpt>
      <trkpt lat="34.02976" lon="-4.81601">
        <ele>329.2</ele>
        <time>2023-08-25T16:17:30.000Z</time>
      </trkpt>
      <trkpt lat="34.0299" lon="-4.81635">
        <ele>329</ele>
        <time>2023-08-25T16:17:34.000Z</time>
      </trkpt>
      <trkpt lat="34.03001" lon="-4.81659">
        <ele>329</ele>
        <time>2023-08-25T16:17:37.000Z</time>
      </trkpt>
      <trkpt lat="34.03016" lon="-4.81696">
        <ele>328.3</ele>
        <time>2023-08-25T16:17:41.000Z</time>
      </trkpt>
      <trkpt lat="34.03026" lon="-4.81723">
        <ele>328.9</ele>
        <time>2023-08-25T16:17:44.000Z</time>
      </trkpt>
      <trkpt lat="34.03035" lon="-4.81763">
        <ele>329.2</ele>
        <time>2023-08-25T16:17:48.000Z</time>
      </trkpt>
      <trkpt lat="34.03036" lon="-4.81805">
        <ele>329.8</ele>
        <time>2023-08-25T16:17:52.000Z</time>
      </trkpt>
      <trkpt lat="34.03029" lon="-4.81844">
        <ele>330.4</ele>
        <time>2023-08-25T16:17:56.000Z</time>
      </trkpt>
      <trkpt lat="34.03016" lon="-4.81882">
        <ele>331.4</ele>
        <time>2023-08-25T16:18:00.000Z</time>
      </trkpt>
      <trkpt lat="34.02999" lon="-4.81912">
        <ele>331.9</ele>
        <time>2023-08-25T16:18:04.000Z</time>
      </trkpt>
      <trkpt lat="34.02981" lon="-4.81936">
        <ele>334.4</ele>
        <time>2023-08-25T16:18:08.000Z</time>
      </trkpt>
      <trkpt lat="34.02963" lon="-4.81965">
        <ele>335.5</ele>
        <time>2023-08-25T16:18:12.000Z</time>
      </trkpt>
      <trkpt lat="34.02952" lon="-4.81988">
        <ele>337.1</ele>
        <time>2023-08-25T16:18:15.000Z</time>
      </trkpt>
      <trkpt lat="34.02946" lon="-4.82013">
        <ele>338.3</ele>
        <time>2023-08-25T16:18:18.000Z</time>
      </trkpt>
      <trkpt lat="34.02946" lon="-4.82039">
        <ele>339.3</ele>
        <time>2023-08-25T16:18:21.000Z</time>
      </trkpt>
      <trkpt lat="34.02952" lon="-4.82074">
        <ele>340.5</ele>
        <time>2023-08-25T16:18:25.000Z</time>
      </trkpt>
      <trkpt lat="34.0296" lon="-4.82098">
        <ele>341</ele>
        <time>2023-08-25T16:18:28.000Z</time>
      </trkpt>
      <trkpt lat="34.0297" lon="-4.82121">
        <ele>342.1</ele>
        <time>2023-08-25T16:18:31.000Z</time>
      </trkpt>
      <trkpt lat="34.02985" lon="-4.8215">
        <ele>343</ele>
        <time>2023-08-25T16:18:35.000Z</time>
      </trkpt>
      <trkpt lat="34.02997" lon="-4.82174">
        <ele>344.1</ele>
        <time>2023-08-25T16:18:38.000Z</time>
      </trkpt>
      <trkpt lat="34.03013" lon="-4.8221">
        <ele>344.1</ele>
        <time>2023-08-25T16:18:42.000Z</time>
      </trkpt>
      <trkpt lat="34.03024" lon="-4.82239">
        <ele>344.3</ele>
        <time>2023-08-25T16:18:45.000Z</time>
      </trkpt>
      <trkpt lat="34.0304" lon="-4.82277">
        <ele>344.8</ele>
        <time>2023-08-25T16:18:49.000Z</time>
      </trkpt>
      <trkpt lat="34.03056" lon="-4.82312">
        <ele>344.3</ele>
        <time>2023-08-25T16:18:53.000Z</time>
      </trkpt>
      <trkpt lat="34.03071" lon="-4.82349">
        <ele>343.6</ele>
        <time>2023-08-25T16:18:57.000Z</time>
      </trkpt>
      <trkpt lat="34.03086" lon="-4.82383">
        <ele>343.4</ele>
        <time>2023-08-25T16:19:01.000Z</time>
      </trkpt>
      <trkpt lat="34.03098" lon="-4.8241">
        <ele>343.1</ele>
        <time>2023-08-25T16:19:04.000Z</time>
      </trkpt>
      <trkpt lat="34.03112" lon="-4.82447">
        <ele>343.3</ele>
        <time>2023-08-25T16:19:08.000Z</time>
      </trkpt>
      <trkpt lat="34.03128" lon="-4.82484">
        <ele>342.3</ele>
        <time>2023-08-25T16:19:12.000Z</time>
      </trkpt>
      <trkpt lat="34.03145" lon="-4.82518">
        <ele>341.4</ele>
        <time>2023-08-25T16:19:16.000Z</time>
      </trkpt>
      <trkpt lat="34.03158" lon="-4.82543">
        <ele>340.6</ele>
        <time>2023-08-25T16:19:19.000Z</time>
      </trkpt>
      <trkpt lat="34.03171" lon="-4.82567">
        <ele>339</ele>
        <time>2023-08-25T16:19:22.000Z</time>
      </trkpt>
      <trkpt lat="34.03188" lon="-4.82598">
        <ele>336.3</ele>
        <time>2023-08-25T16:19:26.000Z</time>
      </trkpt>
      <trkpt lat="34.03205" lon="-4.82627">
        <ele>335.8</ele>
        <time>2023-08-25T16:19:30.000Z</time>
      </trkpt>
      <trkpt lat="34.0322" lon="-4.82648">
        <ele>333.7</ele>
        <time>2023-08-25T16:19:33.000Z</time>
      </trkpt>
      <trkpt lat="34.03247" lon="-4.82673">
        <ele>332</ele>
        <time>2023-08-25T16:19:37.000Z</time>
      </trkpt>
      <trkpt lat="34.03279" lon="-4.82686">
        <ele>329.1</ele>
        <time>2023-08-25T16:19:41.000Z</time>
      </trkpt>
      <trkpt lat="34.03304" lon="-4.82693">
        <ele>328.8</ele>
        <time>2023-08-25T16:19:44.000Z</time>
      </trkpt>
      <trkpt lat="34.03339" lon="-4.82704">
        <ele>328.7</ele>
        <time>2023-08-25T16:19:48.000Z</time>
      </trkpt>
      <trkpt lat="34.03364" lon="-4.82715">
        <ele>327.5</ele>
        <time>2023-08-25T16:19:51.000Z</time>
      </trkpt>
      <trkpt lat="34.03387" lon="-4.82728">
        <ele>325.6</ele>
        <time>2023-08-25T16:19:54.000Z</time>
      </trkpt>
      <trkpt lat="34.03413" lon="-4.82751">
        <ele>323.8</ele>
        <time>2023-08-25T16:19:58.000Z</time>
      </trkpt>
      <trkpt lat="34.03433" lon="-4.82778">
        <ele>323.4</ele>
        <time>2023-08-25T16:20:02.000Z</time>
      </trkpt>
      <trkpt lat="34.03451" lon="-4.82813">
        <ele>321.8</ele>
        <time>2023-08-25T16:20:06.000Z</time>
      </trkpt>
      <trkpt lat="34.03462" lon="-4.8284">
        <ele>321.2</ele>
        <time>2023-08-25T16:20:09.000Z</time>
      </trkpt>
      <trkpt lat="34.03474" lon="-4.82868">
        <ele>320.1</ele>
        <time>2023-08-25T16:20:12.000Z</time>
      </trkpt>
      <trkpt lat="34.03484" lon="-4.82907">
        <ele>318.7</ele>
        <time>2023-08-25T16:20:16.000Z</time>
      </trkpt>
      <trkpt lat="34.03491" lon="-4.82936">
        <ele>316.8</ele>
        <time>2023-08-25T16:20:19.000Z</time>
      </trkpt>
      <trkpt lat="34.03497" lon="-4.82965">
        <ele>315.2</ele>
        <time>2023-08-25T16:20:22.000Z</time>
      </trkpt>
      <trkpt lat="34.03504" lon="-4.82994">
        <ele>314.6</ele>
        <time>2023-08-25T16:20:25.000Z</time>
      </trkpt>
      <trkpt lat="34.03512" lon="-4.83031">
        <ele>313.5</ele>
        <time>2023-08-25T16:20:29.000Z</time>
      </trkpt>
      <trkpt lat="34.03519" lon="-4.8307">
        <ele>313.3</ele>
        <time>2023-08-25T16:20:33.000Z</time>
      </trkpt>
      <trkpt lat="34.03528" lon="-4.8311">
        <ele>310.3</ele>
        <time>2023-08-25T16:20:37.000Z</time>
      </trkpt>
      <trkpt lat="34.03534" lon="-4.83148">
        <ele>311.7</ele>
        <time>2023-08-25T16:20:41.000Z</time>
      </trkpt>
      <trkpt lat="34.0354" lon="-4.83177">
        <ele>312.5</ele>
        <time>2023-08-25T16:20:44.000Z</time>
      </trkpt>
      <trkpt lat="34.03547" lon="-4.83215">
        <ele>310.6</ele>
        <time>2023-08-25T16:20:48.000Z</time>
      </trkpt>
      <trkpt lat="34.03554" lon="-4.83244">
        <ele>310.8</ele>
        <time>2023-08-25T16:20:51.000Z</time>
      </trkpt>
      <trkpt lat="34.03563" lon="-4.83283">
        <ele>310.4</ele>
        <time>2023-08-25T16:20:55.000Z</time>
      </trkpt>
      <trkpt lat="34.03569" lon="-4.83312">
        <ele>309.8</ele>
        <time>2023-08-25T16:20:58.000Z</time>
      </trkpt>
      <trkpt lat="34.03577" lon="-4.8335">
        <ele>309.5</ele>
        <time>2023-08-25T16:21:02.000Z</time>
      </trkpt>
      <trkpt lat="34.03586" lon="-4.83388">
        <ele>307.4</ele>
        <time>2023-08-25T16:21:06.000Z</time>
      </trkpt>
      <trkpt lat="34.03593" lon="-4.83417">
        <ele>306.1</ele>
        <time>2023-08-25T16:21:09.000Z</time>
      </trkpt>
      <trkpt lat="34.03599" lon="-4.83446">
        <ele>309.5</ele>
        <time>2023-08-25T16:21:12.000Z</time>
      </trkpt>
      <trkpt lat="34.03605" lon="-4.83476">
        <ele>308.2</ele>
        <time>2023-08-25T16:21:15.000Z</time>
      </trkpt>
      <trkpt lat="34.03613" lon="-4.83514">
        <ele>306.6</ele>
        <time>2023-08-25T16:21:19.000Z</time>
      </trkpt>
      <trkpt lat="34.03622" lon="-4.83552">
        <ele>305.7</ele>
        <time>2023-08-25T16:21:23.000Z</time>
      </trkpt>
      <trkpt lat="34.03629" lon="-4.8358">
        <ele>307.1</ele>
        <time>2023-08-25T16:21:26.000Z</time>
      </trkpt>
      <trkpt lat="34.03638" lon="-4.83619">
        <ele>307.5</ele>
        <time>2023-08-25T16:21:30.000Z</time>
      </trkpt>
      <trkpt lat="34.03644" lon="-4.83648">
        <ele>306.4</ele>
        <time>2023-08-25T16:21:33.000Z</time>
      </trkpt>
      <trkpt lat="34.03652" lon="-4.83687">
        <ele>305.4</ele>
        <time>2023-08-25T16:21:37.000Z</time>
      </trkpt>
      <trkpt lat="34.0366" lon="-4.83725">
        <ele>304.7</ele>
        <time>2023-08-25T16:21:41.000Z</time>
      </trkpt>
      <trkpt lat="34.03666" lon="-4.83753">
        <ele>305.2</ele>
        <time>2023-08-25T16:21:44.000Z</time>
      </trkpt>
      <trkpt lat="34.03672" lon="-4.83782">
        <ele>307</ele>
        <time>2023-08-25T16:21:47.000Z</time>
      </trkpt>
      <trkpt lat="34.0368" lon="-4.8382">
        <ele>305.7</ele>
        <time>2023-08-25T16:21:51.000Z</time>
      </trkpt>
      <trkpt lat="34.03687" lon="-4.83848">
        <ele>307.1</ele>
        <time>2023-08-25T16:21:54.000Z</time>
      </trkpt>
      <trkpt lat="34.03697" lon="-4.83884">
        <ele>307.9</ele>
        <time>2023-08-25T16:21:58.000Z</time>
      </trkpt>
      <trkpt lat="34.03711" lon="-4.83922">
        <ele>306</ele>
        <time>2023-08-25T16:22:02.000Z</time>
      </trkpt>
      <trkpt lat="34.03726" lon="-4.83957">
        <ele>304.7</ele>
        <time>2023-08-25T16:22:06.000Z</time>
      </trkpt>
      <trkpt lat="34.03741" lon="-4.83982">
        <ele>303.4</ele>
        <time>2023-08-25T16:22:09.000Z</time>
      </trkpt>
      <trkpt lat="34.03755" lon="-4.84007">
        <ele>303.8</ele>
        <time>2023-08-25T16:22:12.000Z</time>
      </trkpt>
      <trkpt lat="34.03774" lon="-4.84039">
        <ele>304.9</ele>
        <time>2023-08-25T16:22:16.000Z</time>
      </trkpt>
      <trkpt lat="34.03788" lon="-4.84062">
        <ele>304.2</ele>
        <time>2023-08-25T16:22:19.000Z</time>
      </trkpt>
      <trkpt lat="34.03807" lon="-4.84095">
        <ele>304.6</ele>
        <time>2023-08-25T16:22:23.000Z</time>
      </trkpt>
      <trkpt lat="34.03827" lon="-4.84128">
        <ele>304.2</ele>
        <time>2023-08-25T16:22:27.000Z</time>
      </trkpt>
      <trkpt lat="34.03846" lon="-4.84163">
        <ele>303.3</ele>
        <time>2023-08-25T16:22:31.000Z</time>
      </trkpt>
      <trkpt lat="34.0386" lon="-4.84188">
        <ele>302.4</ele>
        <time>2023-08-25T16:22:34.000Z</time>
      </trkpt>
      <trkpt lat="34.03875" lon="-4.84212">
        <ele>301.7</ele>
        <time>2023-08-25T16:22:37.000Z</time>
      </trkpt>
      <trkpt lat="34.03892" lon="-4.84247">
        <ele>301.5</ele>
        <time>2023-08-25T16:22:41.000Z</time>
      </trkpt>
      <trkpt lat="34.03906" lon="-4.84283">
        <ele>301.9</ele>
        <time>2023-08-25T16:22:45.000Z</time>
      </trkpt>
      <trkpt lat="34.0392" lon="-4.84318">
        <ele>304.2</ele>
        <time>2023-08-25T16:22:49.000Z</time>
      </trkpt>
      <trkpt lat="34.03931" lon="-4.84345">
        <ele>304</ele>
        <time>2023-08-25T16:22:52.000Z</time>
      </trkpt>
      <trkpt lat="34.03944" lon="-4.84381">
        <ele>306.1</ele>
        <time>2023-08-25T16:22:56.000Z</time>
      </trkpt>
      <trkpt lat="34.03958" lon="-4.84415">
        <ele>305</ele>
        <time>2023-08-25T16:23:00.000Z</time>
      </trkpt>
      <trkpt lat="34.03971" lon="-4.84451">
        <ele>303.9</ele>
        <time>2023-08-25T16:23:04.000Z</time>
      </trkpt>
      <trkpt lat="34.03984" lon="-4.84488">
        <ele>302.9</ele>
        <time>2023-08-25T16:23:08.000Z</time>
      </trkpt>
      <trkpt lat="34.03996" lon="-4.84524">
        <ele>303.2</ele>
        <time>2023-08-25T16:23:12.000Z</time>
      </trkpt>
      <trkpt lat="34.04006" lon="-4.84561">
        <ele>303.5</ele>
        <time>2023-08-25T16:23:16.000Z</time>
      </trkpt>
      <trkpt lat="34.04012" lon="-4.8459">
        <ele>304.6</ele>
        <time>2023-08-25T16:23:19.000Z</time>
      </trkpt>
      <trkpt lat="34.04019" lon="-4.8463">
        <ele>304.2</ele>
        <time>2023-08-25T16:23:23.000Z</time>
      </trkpt>
      <trkpt lat="34.04023" lon="-4.84667">
        <ele>305</ele>
        <time>2023-08-25T16:23:27.000Z</time>
      </trkpt>
      <trkpt lat="34.04025" lon="-4.84693">
        <ele>304.6</ele>
        <time>2023-08-25T16:23:30.000Z</time>
      </trkpt>
      <trkpt lat="34.04026" lon="-4.84723">
        <ele>303.9</ele>
        <time>2023-08-25T16:23:33.000Z</time>
      </trkpt>
      <trkpt lat="34.04024" lon="-4.84763">
        <ele>302.5</ele>
        <time>2023-08-25T16:23:37.000Z</time>
      </trkpt>
      <trkpt lat="34.04021" lon="-4.84802">
        <ele>302.6</ele>
        <time>2023-08-25T16:23:41.000Z</time>
      </trkpt>
      <trkpt lat="34.04017" lon="-4.84831">
        <ele>303.5</ele>
        <time>2023-08-25T16:23:44.000Z</time>
      </trkpt>
      <trkpt lat="34.0401" lon="-4.84872">
        <ele>303.4</ele>
        <time>2023-08-25T16:23:48.000Z</time>
      </trkpt>
      <trkpt lat="34.04003" lon="-4.84908">
        <ele>303</ele>
        <time>2023-08-25T16:23:52.000Z</time>
      </trkpt>
      <trkpt lat="34.03997" lon="-4.84942">
        <ele>304.9</ele>
        <time>2023-08-25T16:23:56.000Z</time>
      </trkpt>
      <trkpt lat="34.03992" lon="-4.84977">
        <ele>303.8</ele>
        <time>2023-08-25T16:24:00.000Z</time>
      </trkpt>
      <trkpt lat="34.03987" lon="-4.85013">
        <ele>303.4</ele>
        <time>2023-08-25T16:24:04.000Z</time>
      </trkpt>
      <trkpt lat="34.03984" lon="-4.85041">
        <ele>302.7</ele>
        <time>2023-08-25T16:24:07.000Z</time>
      </trkpt>
      <trkpt lat="34.03979" lon="-4.85079">
        <ele>302.5</ele>
        <time>2023-08-25T16:24:11.000Z</time>
      </trkpt>
      <trkpt lat="34.0397" lon="-4.85116">
        <ele>302.9</ele>
        <time>2023-08-25T16:24:15.000Z</time>
      </trkpt>
      <trkpt lat="34.03962" lon="-4.85144">
        <ele>301.7</ele>
        <time>2023-08-25T16:24:18.000Z</time>
      </trkpt>
      <trkpt lat="34.03951" lon="-4.85181">
        <ele>301.2</ele>
        <time>2023-08-25T16:24:22.000Z</time>
      </trkpt>
      <trkpt lat="34.03936" lon="-4.85218">
        <ele>299.6</ele>
        <time>2023-08-25T16:24:26.000Z</time>
      </trkpt>
      <trkpt lat="34.03919" lon="-4.85251">
        <ele>299.9</ele>
        <time>2023-08-25T16:24:30.000Z</time>
      </trkpt>
      <trkpt lat="34.03907" lon="-4.85275">
        <ele>299.3</ele>
        <time>2023-08-25T16:24:33.000Z</time>
      </trkpt>
      <trkpt lat="34.03891" lon="-4.85308">
        <ele>298.1</ele>
        <time>2023-08-25T16:24:37.000Z</time>
      </trkpt>
      <trkpt lat="34.03881" lon="-4.85331">
        <ele>297.7</ele>
        <time>2023-08-25T16:24:40.000Z</time>
      </trkpt>
      <trkpt lat="34.03872" lon="-4.85355">
        <ele>297.8</ele>
        <time>2023-08-25T16:24:43.000Z</time>
      </trkpt>
      <trkpt lat="34.03857" lon="-4.85387">
        <ele>296.6</ele>
        <time>2023-08-25T16:24:47.000Z</time>
      </trkpt>
      <trkpt lat="34.03841" lon="-4.85406">
        <ele>297.8</ele>
        <time>2023-08-25T16:24:50.000Z</time>
      </trkpt>
      <trkpt lat="34.03815" lon="-4.85436">
        <ele>297</ele>
        <time>2023-08-25T16:24:54.000Z</time>
      </trkpt>
      <trkpt lat="34.03794" lon="-4.85468">
        <ele>297.6</ele>
        <time>2023-08-25T16:24:58.000Z</time>
      </trkpt>
      <trkpt lat="34.03776" lon="-4.85505">
        <ele>297.6</ele>
        <time>2023-08-25T16:25:02.000Z</time>
      </trkpt>
      <trkpt lat="34.03768" lon="-4.85534">
        <ele>297.9</ele>
        <time>2023-08-25T16:25:05.000Z</time>
      </trkpt>
      <trkpt lat="34.0376" lon="-4.85572">
        <ele>297.8</ele>
        <time>2023-08-25T16:25:09.000Z</time>
      </trkpt>
      <trkpt lat="34.03757" lon="-4.85601">
        <ele>298.6</ele>
        <time>2023-08-25T16:25:12.000Z</time>
      </trkpt>
      <trkpt lat="34.03758" lon="-4.85636">
        <ele>298.2</ele>
        <time>2023-08-25T16:25:16.000Z</time>
      </trkpt>
      <trkpt lat="34.03763" lon="-4.85678">
        <ele>299.4</ele>
        <time>2023-08-25T16:25:20.000Z</time>
      </trkpt>
      <trkpt lat="34.03772" lon="-4.85717">
        <ele>298</ele>
        <time>2023-08-25T16:25:24.000Z</time>
      </trkpt>
      <trkpt lat="34.03781" lon="-4.85744">
        <ele>298.7</ele>
        <time>2023-08-25T16:25:27.000Z</time>
      </trkpt>
      <trkpt lat="34.03794" lon="-4.85778">
        <ele>298.8</ele>
        <time>2023-08-25T16:25:31.000Z</time>
      </trkpt>
      <trkpt lat="34.0381" lon="-4.85813">
        <ele>300.4</ele>
        <time>2023-08-25T16:25:35.000Z</time>
      </trkpt>
      <trkpt lat="34.03824" lon="-4.85848">
        <ele>300.6</ele>
        <time>2023-08-25T16:25:39.000Z</time>
      </trkpt>
      <trkpt lat="34.03839" lon="-4.85885">
        <ele>299.7</ele>
        <time>2023-08-25T16:25:43.000Z</time>
      </trkpt>
      <trkpt lat="34.03854" lon="-4.85921">
        <ele>300.1</ele>
        <time>2023-08-25T16:25:47.000Z</time>
      </trkpt>
      <trkpt lat="34.03866" lon="-4.85947">
        <ele>300.4</ele>
        <time>2023-08-25T16:25:50.000Z</time>
      </trkpt>
      <trkpt lat="34.03881" lon="-4.85981">
        <ele>300.7</ele>
        <time>2023-08-25T16:25:54.000Z</time>
      </trkpt>
      <trkpt lat="34.03892" lon="-4.86007">
        <ele>301.1</ele>
        <time>2023-08-25T16:25:57.000Z</time>
      </trkpt>
      <trkpt lat="34.03905" lon="-4.86045">
        <ele>300</ele>
        <time>2023-08-25T16:26:01.000Z</time>
      </trkpt>
      <trkpt lat="34.03915" lon="-4.86083">
        <ele>299.6</ele>
        <time>2023-08-25T16:26:05.000Z</time>
      </trkpt>
      <trkpt lat="34.03921" lon="-4.86123">
        <ele>298.8</ele>
        <time>2023-08-25T16:26:09.000Z</time>
      </trkpt>
      <trkpt lat="34.03923" lon="-4.86152">
        <ele>293.7</ele>
        <time>2023-08-25T16:26:12.000Z</time>
      </trkpt>
      <trkpt lat="34.03923" lon="-4.86183">
        <ele>298.7</ele>
        <time>2023-08-25T16:26:15.000Z</time>
      </trkpt>
      <trkpt lat="34.03921" lon="-4.86213">
        <ele>297.8</ele>
        <time>2023-08-25T16:26:18.000Z</time>
      </trkpt>
      <trkpt lat="34.03913" lon="-4.86252">
        <ele>298.2</ele>
        <time>2023-08-25T16:26:22.000Z</time>
      </trkpt>
      <trkpt lat="34.03905" lon="-4.86282">
        <ele>297.1</ele>
        <time>2023-08-25T16:26:25.000Z</time>
      </trkpt>
      <trkpt lat="34.03894" lon="-4.86318">
        <ele>296.8</ele>
        <time>2023-08-25T16:26:29.000Z</time>
      </trkpt>
      <trkpt lat="34.03882" lon="-4.86357">
        <ele>296.2</ele>
        <time>2023-08-25T16:26:33.000Z</time>
      </trkpt>
      <trkpt lat="34.03873" lon="-4.86384">
        <ele>296.3</ele>
        <time>2023-08-25T16:26:36.000Z</time>
      </trkpt>
      <trkpt lat="34.03864" lon="-4.86412">
        <ele>294.9</ele>
        <time>2023-08-25T16:26:39.000Z</time>
      </trkpt>
      <trkpt lat="34.03857" lon="-4.86441">
        <ele>294.8</ele>
        <time>2023-08-25T16:26:42.000Z</time>
      </trkpt>
      <trkpt lat="34.03848" lon="-4.8647">
        <ele>295.7</ele>
        <time>2023-08-25T16:26:45.000Z</time>
      </trkpt>
      <trkpt lat="34.0384" lon="-4.86509">
        <ele>295.6</ele>
        <time>2023-08-25T16:26:49.000Z</time>
      </trkpt>
      <trkpt lat="34.03837" lon="-4.86547">
        <ele>295.9</ele>
        <time>2023-08-25T16:26:53.000Z</time>
      </trkpt>
      <trkpt lat="34.03835" lon="-4.86585">
        <ele>295.6</ele>
        <time>2023-08-25T16:26:57.000Z</time>
      </trkpt>
      <trkpt lat="34.03831" lon="-4.86613">
        <ele>295.8</ele>
        <time>2023-08-25T16:27:00.000Z</time>
      </trkpt>
      <trkpt lat="34.03828" lon="-4.86643">
        <ele>296</ele>
        <time>2023-08-25T16:27:03.000Z</time>
      </trkpt>
      <trkpt lat="34.03825" lon="-4.86671">
        <ele>295.5</ele>
        <time>2023-08-25T16:27:06.000Z</time>
      </trkpt>
      <trkpt lat="34.03823" lon="-4.86701">
        <ele>295.6</ele>
        <time>2023-08-25T16:27:09.000Z</time>
      </trkpt>
      <trkpt lat="34.03818" lon="-4.86741">
        <ele>296.1</ele>
        <time>2023-08-25T16:27:13.000Z</time>
      </trkpt>
      <trkpt lat="34.03814" lon="-4.86781">
        <ele>296.2</ele>
        <time>2023-08-25T16:27:17.000Z</time>
      </trkpt>
      <trkpt lat="34.0381" lon="-4.8681">
        <ele>297</ele>
        <time>2023-08-25T16:27:20.000Z</time>
      </trkpt>
      <trkpt lat="34.03805" lon="-4.86851">
        <ele>296.6</ele>
        <time>2023-08-25T16:27:24.000Z</time>
      </trkpt>
      <trkpt lat="34.03802" lon="-4.8688">
        <ele>296.9</ele>
        <time>2023-08-25T16:27:27.000Z</time>
      </trkpt>
      <trkpt lat="34.03798" lon="-4.86919">
        <ele>298.2</ele>
        <time>2023-08-25T16:27:31.000Z</time>
      </trkpt>
      <trkpt lat="34.03794" lon="-4.86949">
        <ele>297.6</ele>
        <time>2023-08-25T16:27:34.000Z</time>
      </trkpt>
      <trkpt lat="34.03792" lon="-4.86979">
        <ele>297.5</ele>
        <time>2023-08-25T16:27:37.000Z</time>
      </trkpt>
      <trkpt lat="34.03787" lon="-4.87019">
        <ele>298</ele>
        <time>2023-08-25T16:27:41.000Z</time>
      </trkpt>
      <trkpt lat="34.03783" lon="-4.87058">
        <ele>297.6</ele>
        <time>2023-08-25T16:27:45.000Z</time>
      </trkpt>
      <trkpt lat="34.0378" lon="-4.87087">
        <ele>296.6</ele>
        <time>2023-08-25T16:27:48.000Z</time>
      </trkpt>
      <trkpt lat="34.03777" lon="-4.87117">
        <ele>297</ele>
        <time>2023-08-25T16:27:51.000Z</time>
      </trkpt>
      <trkpt lat="34.03772" lon="-4.87156">
        <ele>296.2</ele>
        <time>2023-08-25T16:27:55.000Z</time>
      </trkpt>
      <trkpt lat="34.03767" lon="-4.87196">
        <ele>297.8</ele>
        <time>2023-08-25T16:27:59.000Z</time>
      </trkpt>
      <trkpt lat="34.03764" lon="-4.87225">
        <ele>297.4</ele>
        <time>2023-08-25T16:28:02.000Z</time>
      </trkpt>
      <trkpt lat="34.0376" lon="-4.87264">
        <ele>297.2</ele>
        <time>2023-08-25T16:28:06.000Z</time>
      </trkpt>
      <trkpt lat="34.03757" lon="-4.87291">
        <ele>296.5</ele>
        <time>2023-08-25T16:28:09.000Z</time>
      </trkpt>
      <trkpt lat="34.03754" lon="-4.87317">
        <ele>297.5</ele>
        <time>2023-08-25T16:28:12.000Z</time>
      </trkpt>
      <trkpt lat="34.03752" lon="-4.87349">
        <ele>296.9</ele>
        <time>2023-08-25T16:28:16.000Z</time>
      </trkpt>
      <trkpt lat="34.03748" lon="-4.87381">
        <ele>298.4</ele>
        <time>2023-08-25T16:28:20.000Z</time>
      </trkpt>
      <trkpt lat="34.03745" lon="-4.87416">
        <ele>298</ele>
        <time>2023-08-25T16:28:24.000Z</time>
      </trkpt>
      <trkpt lat="34.03746" lon="-4.87456">
        <ele>299.5</ele>
        <time>2023-08-25T16:28:28.000Z</time>
      </trkpt>
      <trkpt lat="34.03749" lon="-4.87487">
        <ele>299.8</ele>
        <time>2023-08-25T16:28:31.000Z</time>
      </trkpt>
      <trkpt lat="34.03757" lon="-4.87526">
        <ele>299.4</ele>
        <time>2023-08-25T16:28:35.000Z</time>
      </trkpt>
      <trkpt lat="34.03767" lon="-4.87562">
        <ele>298.5</ele>
        <time>2023-08-25T16:28:39.000Z</time>
      </trkpt>
      <trkpt lat="34.03777" lon="-4.87586">
        <ele>299.8</ele>
        <time>2023-08-25T16:28:42.000Z</time>
      </trkpt>
      <trkpt lat="34.03795" lon="-4.87615">
        <ele>299.3</ele>
        <time>2023-08-25T16:28:46.000Z</time>
      </trkpt>
      <trkpt lat="34.03815" lon="-4.87647">
        <ele>300.8</ele>
        <time>2023-08-25T16:28:50.000Z</time>
      </trkpt>
      <trkpt lat="34.03839" lon="-4.87678">
        <ele>300.5</ele>
        <time>2023-08-25T16:28:54.000Z</time>
      </trkpt>
      <trkpt lat="34.03858" lon="-4.87697">
        <ele>299.3</ele>
        <time>2023-08-25T16:28:57.000Z</time>
      </trkpt>
      <trkpt lat="34.03885" lon="-4.8772">
        <ele>300.1</ele>
        <time>2023-08-25T16:29:01.000Z</time>
      </trkpt>
      <trkpt lat="34.03913" lon="-4.87742">
        <ele>301.1</ele>
        <time>2023-08-25T16:29:05.000Z</time>
      </trkpt>
      <trkpt lat="34.03934" lon="-4.8776">
        <ele>300.2</ele>
        <time>2023-08-25T16:29:08.000Z</time>
      </trkpt>
      <trkpt lat="34.0396" lon="-4.87782">
        <ele>298.7</ele>
        <time>2023-08-25T16:29:12.000Z</time>
      </trkpt>
      <trkpt lat="34.03986" lon="-4.87805">
        <ele>298.7</ele>
        <time>2023-08-25T16:29:16.000Z</time>
      </trkpt>
      <trkpt lat="34.04012" lon="-4.87831">
        <ele>298.2</ele>
        <time>2023-08-25T16:29:20.000Z</time>
      </trkpt>
      <trkpt lat="34.0403" lon="-4.87852">
        <ele>296.4</ele>
        <time>2023-08-25T16:29:23.000Z</time>
      </trkpt>
      <trkpt lat="34.04044" lon="-4.87876">
        <ele>293.8</ele>
        <time>2023-08-25T16:29:26.000Z</time>
      </trkpt>
      <trkpt lat="34.04057" lon="-4.87902">
        <ele>291.9</ele>
        <time>2023-08-25T16:29:29.000Z</time>
      </trkpt>
      <trkpt lat="34.04068" lon="-4.87929">
        <ele>291</ele>
        <time>2023-08-25T16:29:32.000Z</time>
      </trkpt>
      <trkpt lat="34.04078" lon="-4.87957">
        <ele>289.4</ele>
        <time>2023-08-25T16:29:35.000Z</time>
      </trkpt>
      <trkpt lat="34.0409" lon="-4.87995">
        <ele>288.2</ele>
        <time>2023-08-25T16:29:39.000Z</time>
      </trkpt>
      <trkpt lat="34.04102" lon="-4.88032">
        <ele>288.9</ele>
        <time>2023-08-25T16:29:43.000Z</time>
      </trkpt>
      <trkpt lat="34.04112" lon="-4.88068">
        <ele>287.8</ele>
        <time>2023-08-25T16:29:47.000Z</time>
      </trkpt>
      <trkpt lat="34.04122" lon="-4.88094">
        <ele>288</ele>
        <time>2023-08-25T16:29:50.000Z</time>
      </trkpt>
      <trkpt lat="34.04132" lon="-4.8812">
        <ele>287.8</ele>
        <time>2023-08-25T16:29:53.000Z</time>
      </trkpt>
      <trkpt lat="34.04145" lon="-4.88157">
        <ele>286.8</ele>
        <time>2023-08-25T16:29:57.000Z</time>
      </trkpt>
      <trkpt lat="34.04155" lon="-4.88188">
        <ele>286.2</ele>
        <time>2023-08-25T16:30:00.000Z</time>
      </trkpt>
      <trkpt lat="34.04165" lon="-4.88214">
        <ele>285.4</ele>
        <time>2023-08-25T16:30:03.000Z</time>
      </trkpt>
      <trkpt lat="34.04174" lon="-4.88241">
        <ele>284.8</ele>
        <time>2023-08-25T16:30:06.000Z</time>
      </trkpt>
      <trkpt lat="34.04183" lon="-4.88268">
        <ele>284.9</ele>
        <time>2023-08-25T16:30:09.000Z</time>
      </trkpt>
      <trkpt lat="34.04196" lon="-4.88305">
        <ele>285.4</ele>
        <time>2023-08-25T16:30:13.000Z</time>
      </trkpt>
      <trkpt lat="34.04208" lon="-4.88341">
        <ele>284.6</ele>
        <time>2023-08-25T16:30:17.000Z</time>
      </trkpt>
      <trkpt lat="34.04218" lon="-4.88367">
        <ele>285.2</ele>
        <time>2023-08-25T16:30:20.000Z</time>
      </trkpt>
      <trkpt lat="34.04234" lon="-4.88403">
        <ele>285</ele>
        <time>2023-08-25T16:30:24.000Z</time>
      </trkpt>
      <trkpt lat="34.04247" lon="-4.88428">
        <ele>284.3</ele>
        <time>2023-08-25T16:30:27.000Z</time>
      </trkpt>
      <trkpt lat="34.04263" lon="-4.88461">
        <ele>283.6</ele>
        <time>2023-08-25T16:30:31.000Z</time>
      </trkpt>
      <trkpt lat="34.04276" lon="-4.88488">
        <ele>284.4</ele>
        <time>2023-08-25T16:30:34.000Z</time>
      </trkpt>
      <trkpt lat="34.04292" lon="-4.88523">
        <ele>282.9</ele>
        <time>2023-08-25T16:30:38.000Z</time>
      </trkpt>
      <trkpt lat="34.04307" lon="-4.88558">
        <ele>284</ele>
        <time>2023-08-25T16:30:42.000Z</time>
      </trkpt>
      <trkpt lat="34.04318" lon="-4.88587">
        <ele>283.1</ele>
        <time>2023-08-25T16:30:45.000Z</time>
      </trkpt>
      <trkpt lat="34.0433" lon="-4.88623">
        <ele>283.6</ele>
        <time>2023-08-25T16:30:49.000Z</time>
      </trkpt>
      <trkpt lat="34.04344" lon="-4.8867">
        <ele>282.9</ele>
        <time>2023-08-25T16:30:54.000Z</time>
      </trkpt>
      <trkpt lat="34.04355" lon="-4.88707">
        <ele>282.4</ele>
        <time>2023-08-25T16:30:58.000Z</time>
      </trkpt>
      <trkpt lat="34.04366" lon="-4.88744">
        <ele>282</ele>
        <time>2023-08-25T16:31:02.000Z</time>
      </trkpt>
      <trkpt lat="34.04377" lon="-4.88781">
        <ele>281.9</ele>
        <time>2023-08-25T16:31:06.000Z</time>
      </trkpt>
      <trkpt lat="34.0439" lon="-4.8882">
        <ele>281.1</ele>
        <time>2023-08-25T16:31:10.000Z</time>
      </trkpt>
      <trkpt lat="34.04401" lon="-4.88857">
        <ele>281.8</ele>
        <time>2023-08-25T16:31:14.000Z</time>
      </trkpt>
      <trkpt lat="34.04412" lon="-4.88895">
        <ele>282.2</ele>
        <time>2023-08-25T16:31:18.000Z</time>
      </trkpt>
      <trkpt lat="34.04421" lon="-4.88924">
        <ele>282.5</ele>
        <time>2023-08-25T16:31:21.000Z</time>
      </trkpt>
      <trkpt lat="34.04432" lon="-4.88962">
        <ele>281.6</ele>
        <time>2023-08-25T16:31:25.000Z</time>
      </trkpt>
      <trkpt lat="34.04441" lon="-4.88989">
        <ele>280.5</ele>
        <time>2023-08-25T16:31:28.000Z</time>
      </trkpt>
      <trkpt lat="34.04452" lon="-4.89027">
        <ele>280</ele>
        <time>2023-08-25T16:31:32.000Z</time>
      </trkpt>
      <trkpt lat="34.04464" lon="-4.89064">
        <ele>279.2</ele>
        <time>2023-08-25T16:31:36.000Z</time>
      </trkpt>
      <trkpt lat="34.04475" lon="-4.89102">
        <ele>278.8</ele>
        <time>2023-08-25T16:31:40.000Z</time>
      </trkpt>
      <trkpt lat="34.04486" lon="-4.89139">
        <ele>278.9</ele>
        <time>2023-08-25T16:31:44.000Z</time>
      </trkpt>
      <trkpt lat="34.04497" lon="-4.89176">
        <ele>279.2</ele>
        <time>2023-08-25T16:31:48.000Z</time>
      </trkpt>
      <trkpt lat="34.04509" lon="-4.89213">
        <ele>279.1</ele>
        <time>2023-08-25T16:31:52.000Z</time>
      </trkpt>
      <trkpt lat="34.04517" lon="-4.8924">
        <ele>279.1</ele>
        <time>2023-08-25T16:31:55.000Z</time>
      </trkpt>
      <trkpt lat="34.04529" lon="-4.89278">
        <ele>278.1</ele>
        <time>2023-08-25T16:31:59.000Z</time>
      </trkpt>
      <trkpt lat="34.04537" lon="-4.89306">
        <ele>277.4</ele>
        <time>2023-08-25T16:32:02.000Z</time>
      </trkpt>
      <trkpt lat="34.04549" lon="-4.89344">
        <ele>277.6</ele>
        <time>2023-08-25T16:32:06.000Z</time>
      </trkpt>
      <trkpt lat="34.04558" lon="-4.89372">
        <ele>278.2</ele>
        <time>2023-08-25T16:32:09.000Z</time>
      </trkpt>
      <trkpt lat="34.04569" lon="-4.8941">
        <ele>278.5</ele>
        <time>2023-08-25T16:32:13.000Z</time>
      </trkpt>
      <trkpt lat="34.04581" lon="-4.89448">
        <ele>278.5</ele>
        <time>2023-08-25T16:32:17.000Z</time>
      </trkpt>
      <trkpt lat="34.0459" lon="-4.89477">
        <ele>278.4</ele>
        <time>2023-08-25T16:32:20.000Z</time>
      </trkpt>
      <trkpt lat="34.04598" lon="-4.89504">
        <ele>278.7</ele>
        <time>2023-08-25T16:32:23.000Z</time>
      </trkpt>
      <trkpt lat="34.04607" lon="-4.89532">
        <ele>277.8</ele>
        <time>2023-08-25T16:32:26.000Z</time>
      </trkpt>
      <trkpt lat="34.04618" lon="-4.89568">
        <ele>277.6</ele>
        <time>2023-08-25T16:32:30.000Z</time>
      </trkpt>
      <trkpt lat="34.0463" lon="-4.89606">
        <ele>278</ele>
        <time>2023-08-25T16:32:34.000Z</time>
      </trkpt>
      <trkpt lat="34.04638" lon="-4.89633">
        <ele>277.9</ele>
        <time>2023-08-25T16:32:37.000Z</time>
      </trkpt>
      <trkpt lat="34.04649" lon="-4.8967">
        <ele>277.6</ele>
        <time>2023-08-25T16:32:41.000Z</time>
      </trkpt>
      <trkpt lat="34.04661" lon="-4.89708">
        <ele>278.6</ele>
        <time>2023-08-25T16:32:45.000Z</time>
      </trkpt>
      <trkpt lat="34.04673" lon="-4.89746">
        <ele>278.8</ele>
        <time>2023-08-25T16:32:49.000Z</time>
      </trkpt>
      <trkpt lat="34.04684" lon="-4.89783">
        <ele>278.6</ele>
        <time>2023-08-25T16:32:53.000Z</time>
      </trkpt>
      <trkpt lat="34.04696" lon="-4.89821">
        <ele>278.4</ele>
        <time>2023-08-25T16:32:57.000Z</time>
      </trkpt>
      <trkpt lat="34.04707" lon="-4.89858">
        <ele>278.4</ele>
        <time>2023-08-25T16:33:01.000Z</time>
      </trkpt>
      <trkpt lat="34.04718" lon="-4.89896">
        <ele>278.4</ele>
        <time>2023-08-25T16:33:05.000Z</time>
      </trkpt>
      <trkpt lat="34.04729" lon="-4.89932">
        <ele>278.5</ele>
        <time>2023-08-25T16:33:09.000Z</time>
      </trkpt>
      <trkpt lat="34.04737" lon="-4.8996">
        <ele>278.5</ele>
        <time>2023-08-25T16:33:12.000Z</time>
      </trkpt>
      <trkpt lat="34.04749" lon="-4.89998">
        <ele>278.4</ele>
        <time>2023-08-25T16:33:16.000Z</time>
      </trkpt>
      <trkpt lat="34.0476" lon="-4.90034">
        <ele>278.9</ele>
        <time>2023-08-25T16:33:20.000Z</time>
      </trkpt>
      <trkpt lat="34.04771" lon="-4.9007">
        <ele>278.7</ele>
        <time>2023-08-25T16:33:24.000Z</time>
      </trkpt>
      <trkpt lat="34.04782" lon="-4.90107">
        <ele>278.4</ele>
        <time>2023-08-25T16:33:28.000Z</time>
      </trkpt>
      <trkpt lat="34.04791" lon="-4.90135">
        <ele>278.8</ele>
        <time>2023-08-25T16:33:31.000Z</time>
      </trkpt>
      <trkpt lat="34.048" lon="-4.90164">
        <ele>278.6</ele>
        <time>2023-08-25T16:33:34.000Z</time>
      </trkpt>
      <trkpt lat="34.04811" lon="-4.90201">
        <ele>279.5</ele>
        <time>2023-08-25T16:33:38.000Z</time>
      </trkpt>
      <trkpt lat="34.04822" lon="-4.90238">
        <ele>280.2</ele>
        <time>2023-08-25T16:33:42.000Z</time>
      </trkpt>
      <trkpt lat="34.0483" lon="-4.90267">
        <ele>280.1</ele>
        <time>2023-08-25T16:33:45.000Z</time>
      </trkpt>
      <trkpt lat="34.04842" lon="-4.90304">
        <ele>280.9</ele>
        <time>2023-08-25T16:33:49.000Z</time>
      </trkpt>
      <trkpt lat="34.04851" lon="-4.90331">
        <ele>281.3</ele>
        <time>2023-08-25T16:33:52.000Z</time>
      </trkpt>
      <trkpt lat="34.04862" lon="-4.90369">
        <ele>281.1</ele>
        <time>2023-08-25T16:33:56.000Z</time>
      </trkpt>
      <trkpt lat="34.04874" lon="-4.90405">
        <ele>282.8</ele>
        <time>2023-08-25T16:34:00.000Z</time>
      </trkpt>
      <trkpt lat="34.04883" lon="-4.90435">
        <ele>282.2</ele>
        <time>2023-08-25T16:34:03.000Z</time>
      </trkpt>
      <trkpt lat="34.04891" lon="-4.90463">
        <ele>283</ele>
        <time>2023-08-25T16:34:06.000Z</time>
      </trkpt>
      <trkpt lat="34.04902" lon="-4.90502">
        <ele>283.5</ele>
        <time>2023-08-25T16:34:10.000Z</time>
      </trkpt>
      <trkpt lat="34.04914" lon="-4.90542">
        <ele>283.9</ele>
        <time>2023-08-25T16:34:14.000Z</time>
      </trkpt>
      <trkpt lat="34.04925" lon="-4.90578">
        <ele>284.4</ele>
        <time>2023-08-25T16:34:18.000Z</time>
      </trkpt>
      <trkpt lat="34.04937" lon="-4.90615">
        <ele>286</ele>
        <time>2023-08-25T16:34:22.000Z</time>
      </trkpt>
      <trkpt lat="34.04948" lon="-4.9065">
        <ele>285.9</ele>
        <time>2023-08-25T16:34:26.000Z</time>
      </trkpt>
      <trkpt lat="34.04956" lon="-4.90675">
        <ele>287.7</ele>
        <time>2023-08-25T16:34:29.000Z</time>
      </trkpt>
      <trkpt lat="34.04966" lon="-4.90708">
        <ele>287.4</ele>
        <time>2023-08-25T16:34:33.000Z</time>
      </trkpt>
      <trkpt lat="34.04976" lon="-4.90741">
        <ele>290</ele>
        <time>2023-08-25T16:34:37.000Z</time>
      </trkpt>
      <trkpt lat="34.04984" lon="-4.90763">
        <ele>291</ele>
        <time>2023-08-25T16:34:40.000Z</time>
      </trkpt>
      <trkpt lat="34.04994" lon="-4.90793">
        <ele>291.4</ele>
        <time>2023-08-25T16:34:44.000Z</time>
      </trkpt>
      <trkpt lat="34.05004" lon="-4.90826">
        <ele>295.1</ele>
        <time>2023-08-25T16:34:48.000Z</time>
      </trkpt>
      <trkpt lat="34.05012" lon="-4.90858">
        <ele>296.6</ele>
        <time>2023-08-25T16:34:52.000Z</time>
      </trkpt>
      <trkpt lat="34.05019" lon="-4.90883">
        <ele>297.6</ele>
        <time>2023-08-25T16:34:55.000Z</time>
      </trkpt>
      <trkpt lat="34.05026" lon="-4.90908">
        <ele>299.1</ele>
        <time>2023-08-25T16:34:58.000Z</time>
      </trkpt>
      <trkpt lat="34.05032" lon="-4.90933">
        <ele>298.8</ele>
        <time>2023-08-25T16:35:01.000Z</time>
      </trkpt>
      <trkpt lat="34.05036" lon="-4.9096">
        <ele>302</ele>
        <time>2023-08-25T16:35:04.000Z</time>
      </trkpt>
      <trkpt lat="34.05041" lon="-4.90997">
        <ele>303.5</ele>
        <time>2023-08-25T16:35:08.000Z</time>
      </trkpt>
      <trkpt lat="34.05045" lon="-4.91033">
        <ele>305</ele>
        <time>2023-08-25T16:35:12.000Z</time>
      </trkpt>
      <trkpt lat="34.05047" lon="-4.9106">
        <ele>306</ele>
        <time>2023-08-25T16:35:15.000Z</time>
      </trkpt>
      <trkpt lat="34.0505" lon="-4.91088">
        <ele>306.8</ele>
        <time>2023-08-25T16:35:18.000Z</time>
      </trkpt>
      <trkpt lat="34.05052" lon="-4.91117">
        <ele>307.4</ele>
        <time>2023-08-25T16:35:21.000Z</time>
      </trkpt>
      <trkpt lat="34.05054" lon="-4.91153">
        <ele>308.9</ele>
        <time>2023-08-25T16:35:25.000Z</time>
      </trkpt>
      <trkpt lat="34.05054" lon="-4.91179">
        <ele>308.7</ele>
        <time>2023-08-25T16:35:28.000Z</time>
      </trkpt>
      <trkpt lat="34.05054" lon="-4.91217">
        <ele>309.2</ele>
        <time>2023-08-25T16:35:32.000Z</time>
      </trkpt>
      <trkpt lat="34.05054" lon="-4.91244">
        <ele>310.5</ele>
        <time>2023-08-25T16:35:35.000Z</time>
      </trkpt>
      <trkpt lat="34.05053" lon="-4.91282">
        <ele>310.8</ele>
        <time>2023-08-25T16:35:39.000Z</time>
      </trkpt>
      <trkpt lat="34.05053" lon="-4.91319">
        <ele>311.3</ele>
        <time>2023-08-25T16:35:43.000Z</time>
      </trkpt>
      <trkpt lat="34.05052" lon="-4.91346">
        <ele>310.8</ele>
        <time>2023-08-25T16:35:46.000Z</time>
      </trkpt>
      <trkpt lat="34.05052" lon="-4.91384">
        <ele>311.4</ele>
        <time>2023-08-25T16:35:50.000Z</time>
      </trkpt>
      <trkpt lat="34.05052" lon="-4.9142">
        <ele>311.7</ele>
        <time>2023-08-25T16:35:54.000Z</time>
      </trkpt>
      <trkpt lat="34.05052" lon="-4.91447">
        <ele>310.9</ele>
        <time>2023-08-25T16:35:57.000Z</time>
      </trkpt>
      <trkpt lat="34.05052" lon="-4.91484">
        <ele>311.1</ele>
        <time>2023-08-25T16:36:01.000Z</time>
      </trkpt>
      <trkpt lat="34.05051" lon="-4.91511">
        <ele>312.2</ele>
        <time>2023-08-25T16:36:04.000Z</time>
      </trkpt>
      <trkpt lat="34.05052" lon="-4.91547">
        <ele>311.3</ele>
        <time>2023-08-25T16:36:08.000Z</time>
      </trkpt>
      <trkpt lat="34.05052" lon="-4.91584">
        <ele>311.6</ele>
        <time>2023-08-25T16:36:12.000Z</time>
      </trkpt>
      <trkpt lat="34.05052" lon="-4.91612">
        <ele>311.3</ele>
        <time>2023-08-25T16:36:15.000Z</time>
      </trkpt>
      <trkpt lat="34.05052" lon="-4.91649">
        <ele>312</ele>
        <time>2023-08-25T16:36:19.000Z</time>
      </trkpt>
      <trkpt lat="34.05051" lon="-4.91677">
        <ele>311.5</ele>
        <time>2023-08-25T16:36:22.000Z</time>
      </trkpt>
      <trkpt lat="34.05051" lon="-4.91713">
        <ele>312.5</ele>
        <time>2023-08-25T16:36:26.000Z</time>
      </trkpt>
      <trkpt lat="34.05051" lon="-4.9174">
        <ele>312.5</ele>
        <time>2023-08-25T16:36:29.000Z</time>
      </trkpt>
      <trkpt lat="34.05052" lon="-4.91765">
        <ele>313.9</ele>
        <time>2023-08-25T16:36:32.000Z</time>
      </trkpt>
      <trkpt lat="34.05054" lon="-4.91793">
        <ele>314.8</ele>
        <time>2023-08-25T16:36:36.000Z</time>
      </trkpt>
      <trkpt lat="34.05059" lon="-4.91812">
        <ele>314.9</ele>
        <time>2023-08-25T16:36:39.000Z</time>
      </trkpt>
      <trkpt lat="34.05068" lon="-4.9183">
        <ele>315.3</ele>
        <time>2023-08-25T16:36:42.000Z</time>
      </trkpt>
      <trkpt lat="34.0507" lon="-4.91854">
        <ele>315.7</ele>
        <time>2023-08-25T16:36:46.000Z</time>
      </trkpt>
      <trkpt lat="34.0506" lon="-4.91881">
        <ele>315.4</ele>
        <time>2023-08-25T16:36:50.000Z</time>
      </trkpt>
      <trkpt lat="34.05056" lon="-4.91908">
        <ele>316.1</ele>
        <time>2023-08-25T16:36:53.000Z</time>
      </trkpt>
      <trkpt lat="34.05055" lon="-4.91945">
        <ele>317.7</ele>
        <time>2023-08-25T16:36:57.000Z</time>
      </trkpt>
      <trkpt lat="34.05056" lon="-4.91982">
        <ele>318.7</ele>
        <time>2023-08-25T16:37:01.000Z</time>
      </trkpt>
      <trkpt lat="34.05059" lon="-4.92018">
        <ele>319.1</ele>
        <time>2023-08-25T16:37:05.000Z</time>
      </trkpt>
      <trkpt lat="34.05062" lon="-4.92046">
        <ele>319.4</ele>
        <time>2023-08-25T16:37:08.000Z</time>
      </trkpt>
      <trkpt lat="34.05069" lon="-4.92081">
        <ele>319.5</ele>
        <time>2023-08-25T16:37:12.000Z</time>
      </trkpt>
      <trkpt lat="34.05075" lon="-4.92107">
        <ele>320.6</ele>
        <time>2023-08-25T16:37:15.000Z</time>
      </trkpt>
      <trkpt lat="34.05083" lon="-4.92141">
        <ele>320.3</ele>
        <time>2023-08-25T16:37:19.000Z</time>
      </trkpt>
      <trkpt lat="34.05095" lon="-4.92174">
        <ele>320.1</ele>
        <time>2023-08-25T16:37:23.000Z</time>
      </trkpt>
      <trkpt lat="34.05109" lon="-4.92208">
        <ele>320.6</ele>
        <time>2023-08-25T16:37:27.000Z</time>
      </trkpt>
      <trkpt lat="34.05126" lon="-4.92239">
        <ele>321.5</ele>
        <time>2023-08-25T16:37:31.000Z</time>
      </trkpt>
      <trkpt lat="34.05144" lon="-4.9227">
        <ele>321.6</ele>
        <time>2023-08-25T16:37:35.000Z</time>
      </trkpt>
      <trkpt lat="34.05159" lon="-4.92292">
        <ele>321.3</ele>
        <time>2023-08-25T16:37:38.000Z</time>
      </trkpt>
      <trkpt lat="34.05174" lon="-4.92313">
        <ele>321.6</ele>
        <time>2023-08-25T16:37:41.000Z</time>
      </trkpt>
      <trkpt lat="34.05189" lon="-4.92332">
        <ele>322.1</ele>
        <time>2023-08-25T16:37:44.000Z</time>
      </trkpt>
      <trkpt lat="34.05209" lon="-4.92357">
        <ele>320.7</ele>
        <time>2023-08-25T16:37:48.000Z</time>
      </trkpt>
      <trkpt lat="34.05225" lon="-4.92376">
        <ele>320.7</ele>
        <time>2023-08-25T16:37:51.000Z</time>
      </trkpt>
      <trkpt lat="34.05243" lon="-4.92396">
        <ele>320.4</ele>
        <time>2023-08-25T16:37:54.000Z</time>
      </trkpt>
      <trkpt lat="34.05265" lon="-4.92422">
        <ele>320.6</ele>
        <time>2023-08-25T16:37:58.000Z</time>
      </trkpt>
      <trkpt lat="34.05287" lon="-4.92449">
        <ele>320.1</ele>
        <time>2023-08-25T16:38:02.000Z</time>
      </trkpt>
      <trkpt lat="34.05309" lon="-4.92476">
        <ele>318.8</ele>
        <time>2023-08-25T16:38:06.000Z</time>
      </trkpt>
      <trkpt lat="34.0533" lon="-4.92502">
        <ele>317.5</ele>
        <time>2023-08-25T16:38:10.000Z</time>
      </trkpt>
      <trkpt lat="34.05345" lon="-4.92522">
        <ele>316.7</ele>
        <time>2023-08-25T16:38:13.000Z</time>
      </trkpt>
      <trkpt lat="34.05368" lon="-4.92549">
        <ele>314.9</ele>
        <time>2023-08-25T16:38:17.000Z</time>
      </trkpt>
      <trkpt lat="34.0539" lon="-4.92576">
        <ele>313.5</ele>
        <time>2023-08-25T16:38:21.000Z</time>
      </trkpt>
      <trkpt lat="34.05411" lon="-4.92602">
        <ele>313.4</ele>
        <time>2023-08-25T16:38:25.000Z</time>
      </trkpt>
      <trkpt lat="34.05427" lon="-4.92622">
        <ele>312.8</ele>
        <time>2023-08-25T16:38:28.000Z</time>
      </trkpt>
      <trkpt lat="34.05447" lon="-4.92646">
        <ele>312.4</ele>
        <time>2023-08-25T16:38:32.000Z</time>
      </trkpt>
      <trkpt lat="34.05462" lon="-4.92664">
        <ele>311.7</ele>
        <time>2023-08-25T16:38:35.000Z</time>
      </trkpt>
      <trkpt lat="34.05483" lon="-4.92691">
        <ele>311.8</ele>
        <time>2023-08-25T16:38:39.000Z</time>
      </trkpt>
      <trkpt lat="34.05507" lon="-4.92719">
        <ele>310.9</ele>
        <time>2023-08-25T16:38:43.000Z</time>
      </trkpt>
      <trkpt lat="34.05524" lon="-4.9274">
        <ele>310.3</ele>
        <time>2023-08-25T16:38:46.000Z</time>
      </trkpt>
      <trkpt lat="34.0554" lon="-4.9276">
        <ele>311.1</ele>
        <time>2023-08-25T16:38:49.000Z</time>
      </trkpt>
      <trkpt lat="34.05562" lon="-4.92787">
        <ele>311.5</ele>
        <time>2023-08-25T16:38:53.000Z</time>
      </trkpt>
      <trkpt lat="34.05583" lon="-4.92813">
        <ele>312</ele>
        <time>2023-08-25T16:38:57.000Z</time>
      </trkpt>
      <trkpt lat="34.056" lon="-4.92833">
        <ele>312.7</ele>
        <time>2023-08-25T16:39:00.000Z</time>
      </trkpt>
      <trkpt lat="34.05621" lon="-4.92859">
        <ele>312.3</ele>
        <time>2023-08-25T16:39:04.000Z</time>
      </trkpt>
      <trkpt lat="34.05637" lon="-4.92878">
        <ele>312.1</ele>
        <time>2023-08-25T16:39:07.000Z</time>
      </trkpt>
      <trkpt lat="34.05658" lon="-4.92904">
        <ele>311.6</ele>
        <time>2023-08-25T16:39:11.000Z</time>
      </trkpt>
      <trkpt lat="34.05679" lon="-4.9293">
        <ele>311.2</ele>
        <time>2023-08-25T16:39:15.000Z</time>
      </trkpt>
      <trkpt lat="34.057" lon="-4.92955">
        <ele>311.2</ele>
        <time>2023-08-25T16:39:19.000Z</time>
      </trkpt>
      <trkpt lat="34.05722" lon="-4.92981">
        <ele>310.9</ele>
        <time>2023-08-25T16:39:23.000Z</time>
      </trkpt>
      <trkpt lat="34.05744" lon="-4.93008">
        <ele>311.1</ele>
        <time>2023-08-25T16:39:27.000Z</time>
      </trkpt>
      <trkpt lat="34.05766" lon="-4.93035">
        <ele>309.7</ele>
        <time>2023-08-25T16:39:31.000Z</time>
      </trkpt>
      <trkpt lat="34.05782" lon="-4.93054">
        <ele>310</ele>
        <time>2023-08-25T16:39:34.000Z</time>
      </trkpt>
      <trkpt lat="34.05804" lon="-4.9308">
        <ele>309.1</ele>
        <time>2023-08-25T16:39:38.000Z</time>
      </trkpt>
      <trkpt lat="34.0582" lon="-4.93101">
        <ele>308.3</ele>
        <time>2023-08-25T16:39:41.000Z</time>
      </trkpt>
      <trkpt lat="34.05837" lon="-4.93121">
        <ele>307.9</ele>
        <time>2023-08-25T16:39:44.000Z</time>
      </trkpt>
      <trkpt lat="34.05858" lon="-4.93149">
        <ele>308.3</ele>
        <time>2023-08-25T16:39:48.000Z</time>
      </trkpt>
      <trkpt lat="34.05874" lon="-4.93168">
        <ele>308.7</ele>
        <time>2023-08-25T16:39:51.000Z</time>
      </trkpt>
      <trkpt lat="34.05895" lon="-4.93194">
        <ele>309</ele>
        <time>2023-08-25T16:39:55.000Z</time>
      </trkpt>
      <trkpt lat="34.05916" lon="-4.9322">
        <ele>309.2</ele>
        <time>2023-08-25T16:39:59.000Z</time>
      </trkpt>
      <trkpt lat="34.05938" lon="-4.93246">
        <ele>308.8</ele>
        <time>2023-08-25T16:40:03.000Z</time>
      </trkpt>
      <trkpt lat="34.05959" lon="-4.93272">
        <ele>309.2</ele>
        <time>2023-08-25T16:40:07.000Z</time>
      </trkpt>
      <trkpt lat="34.05982" lon="-4.933">
        <ele>309.1</ele>
        <time>2023-08-25T16:40:11.000Z</time>
      </trkpt>
      <trkpt lat="34.05998" lon="-4.9332">
        <ele>309.2</ele>
        <time>2023-08-25T16:40:14.000Z</time>
      </trkpt>
      <trkpt lat="34.06014" lon="-4.93339">
        <ele>309.3</ele>
        <time>2023-08-25T16:40:17.000Z</time>
      </trkpt>
      <trkpt lat="34.06029" lon="-4.93357">
        <ele>309.7</ele>
        <time>2023-08-25T16:40:20.000Z</time>
      </trkpt>
      <trkpt lat="34.06047" lon="-4.93379">
        <ele>310</ele>
        <time>2023-08-25T16:40:24.000Z</time>
      </trkpt>
      <trkpt lat="34.06063" lon="-4.93397">
        <ele>310.5</ele>
        <time>2023-08-25T16:40:27.000Z</time>
      </trkpt>
      <trkpt lat="34.06082" lon="-4.9342">
        <ele>310</ele>
        <time>2023-08-25T16:40:31.000Z</time>
      </trkpt>
      <trkpt lat="34.06103" lon="-4.9345">
        <ele>310.5</ele>
        <time>2023-08-25T16:40:35.000Z</time>
      </trkpt>
      <trkpt lat="34.06116" lon="-4.93476">
        <ele>310.7</ele>
        <time>2023-08-25T16:40:38.000Z</time>
      </trkpt>
      <trkpt lat="34.06131" lon="-4.93509">
        <ele>310.5</ele>
        <time>2023-08-25T16:40:42.000Z</time>
      </trkpt>
      <trkpt lat="34.06142" lon="-4.9354">
        <ele>310.5</ele>
        <time>2023-08-25T16:40:46.000Z</time>
      </trkpt>
      <trkpt lat="34.0615" lon="-4.93566">
        <ele>311.5</ele>
        <time>2023-08-25T16:40:49.000Z</time>
      </trkpt>
      <trkpt lat="34.06159" lon="-4.93603">
        <ele>311.2</ele>
        <time>2023-08-25T16:40:53.000Z</time>
      </trkpt>
      <trkpt lat="34.06164" lon="-4.93639">
        <ele>311.2</ele>
        <time>2023-08-25T16:40:57.000Z</time>
      </trkpt>
      <trkpt lat="34.06167" lon="-4.93666">
        <ele>312.4</ele>
        <time>2023-08-25T16:41:00.000Z</time>
      </trkpt>
      <trkpt lat="34.06166" lon="-4.93703">
        <ele>313.6</ele>
        <time>2023-08-25T16:41:04.000Z</time>
      </trkpt>
      <trkpt lat="34.06161" lon="-4.9374">
        <ele>315.5</ele>
        <time>2023-08-25T16:41:08.000Z</time>
      </trkpt>
      <trkpt lat="34.06157" lon="-4.93766">
        <ele>316.9</ele>
        <time>2023-08-25T16:41:11.000Z</time>
      </trkpt>
      <trkpt lat="34.06153" lon="-4.93792">
        <ele>318.5</ele>
        <time>2023-08-25T16:41:14.000Z</time>
      </trkpt>
      <trkpt lat="34.06145" lon="-4.93828">
        <ele>320.2</ele>
        <time>2023-08-25T16:41:18.000Z</time>
      </trkpt>
      <trkpt lat="34.06138" lon="-4.93861">
        <ele>320.8</ele>
        <time>2023-08-25T16:41:22.000Z</time>
      </trkpt>
      <trkpt lat="34.06132" lon="-4.93893">
        <ele>321.6</ele>
        <time>2023-08-25T16:41:26.000Z</time>
      </trkpt>
      <trkpt lat="34.06128" lon="-4.93929">
        <ele>322.5</ele>
        <time>2023-08-25T16:41:30.000Z</time>
      </trkpt>
      <trkpt lat="34.06124" lon="-4.93956">
        <ele>323.6</ele>
        <time>2023-08-25T16:41:33.000Z</time>
      </trkpt>
      <trkpt lat="34.06119" lon="-4.93982">
        <ele>324.4</ele>
        <time>2023-08-25T16:41:36.000Z</time>
      </trkpt>
      <trkpt lat="34.06115" lon="-4.94009">
        <ele>324.2</ele>
        <time>2023-08-25T16:41:39.000Z</time>
      </trkpt>
      <trkpt lat="34.06111" lon="-4.94045">
        <ele>325.7</ele>
        <time>2023-08-25T16:41:43.000Z</time>
      </trkpt>
      <trkpt lat="34.06105" lon="-4.94084">
        <ele>326.5</ele>
        <time>2023-08-25T16:41:47.000Z</time>
      </trkpt>
      <trkpt lat="34.06101" lon="-4.94118">
        <ele>326.4</ele>
        <time>2023-08-25T16:41:51.000Z</time>
      </trkpt>
      <trkpt lat="34.06097" lon="-4.94143">
        <ele>327.3</ele>
        <time>2023-08-25T16:41:54.000Z</time>
      </trkpt>
      <trkpt lat="34.06093" lon="-4.94177">
        <ele>328.5</ele>
        <time>2023-08-25T16:41:58.000Z</time>
      </trkpt>
      <trkpt lat="34.06091" lon="-4.94211">
        <ele>330.7</ele>
        <time>2023-08-25T16:42:02.000Z</time>
      </trkpt>
      <trkpt lat="34.06086" lon="-4.94244">
        <ele>332.4</ele>
        <time>2023-08-25T16:42:06.000Z</time>
      </trkpt>
      <trkpt lat="34.06082" lon="-4.94284">
        <ele>334.8</ele>
        <time>2023-08-25T16:42:10.000Z</time>
      </trkpt>
      <trkpt lat="34.06076" lon="-4.94321">
        <ele>335.9</ele>
        <time>2023-08-25T16:42:14.000Z</time>
      </trkpt>
      <trkpt lat="34.06067" lon="-4.94355">
        <ele>338.5</ele>
        <time>2023-08-25T16:42:18.000Z</time>
      </trkpt>
      <trkpt lat="34.0606" lon="-4.94381">
        <ele>338.5</ele>
        <time>2023-08-25T16:42:21.000Z</time>
      </trkpt>
      <trkpt lat="34.06054" lon="-4.94411">
        <ele>339.4</ele>
        <time>2023-08-25T16:42:25.000Z</time>
      </trkpt>
      <trkpt lat="34.06049" lon="-4.94432">
        <ele>340.2</ele>
        <time>2023-08-25T16:42:28.000Z</time>
      </trkpt>
      <trkpt lat="34.06043" lon="-4.94461">
        <ele>341.6</ele>
        <time>2023-08-25T16:42:32.000Z</time>
      </trkpt>
      <trkpt lat="34.06038" lon="-4.94482">
        <ele>342.6</ele>
        <time>2023-08-25T16:42:35.000Z</time>
      </trkpt>
      <trkpt lat="34.06033" lon="-4.94508">
        <ele>342.9</ele>
        <time>2023-08-25T16:42:39.000Z</time>
      </trkpt>
      <trkpt lat="34.06027" lon="-4.9453">
        <ele>343</ele>
        <time>2023-08-25T16:42:42.000Z</time>
      </trkpt>
      <trkpt lat="34.06024" lon="-4.94554">
        <ele>343.3</ele>
        <time>2023-08-25T16:42:45.000Z</time>
      </trkpt>
      <trkpt lat="34.06018" lon="-4.94589">
        <ele>342.6</ele>
        <time>2023-08-25T16:42:49.000Z</time>
      </trkpt>
      <trkpt lat="34.0601" lon="-4.94623">
        <ele>342.4</ele>
        <time>2023-08-25T16:42:53.000Z</time>
      </trkpt>
      <trkpt lat="34.06005" lon="-4.94658">
        <ele>341.8</ele>
        <time>2023-08-25T16:42:57.000Z</time>
      </trkpt>
      <trkpt lat="34.06001" lon="-4.94682">
        <ele>341.6</ele>
        <time>2023-08-25T16:43:00.000Z</time>
      </trkpt>
      <trkpt lat="34.05998" lon="-4.94708">
        <ele>341.1</ele>
        <time>2023-08-25T16:43:04.000Z</time>
      </trkpt>
      <trkpt lat="34.05998" lon="-4.94731">
        <ele>341.1</ele>
        <time>2023-08-25T16:43:07.000Z</time>
      </trkpt>
      <trkpt lat="34.05993" lon="-4.94766">
        <ele>340.6</ele>
        <time>2023-08-25T16:43:11.000Z</time>
      </trkpt>
      <trkpt lat="34.05993" lon="-4.94804">
        <ele>339.9</ele>
        <time>2023-08-25T16:43:15.000Z</time>
      </trkpt>
      <trkpt lat="34.05995" lon="-4.94835">
        <ele>340.5</ele>
        <time>2023-08-25T16:43:19.000Z</time>
      </trkpt>
      <trkpt lat="34.05998" lon="-4.94864">
        <ele>341.1</ele>
        <time>2023-08-25T16:43:23.000Z</time>
      </trkpt>
      <trkpt lat="34.06002" lon="-4.94888">
        <ele>342.4</ele>
        <time>2023-08-25T16:43:26.000Z</time>
      </trkpt>
      <trkpt lat="34.06008" lon="-4.9492">
        <ele>343.7</ele>
        <time>2023-08-25T16:43:30.000Z</time>
      </trkpt>
      <trkpt lat="34.06017" lon="-4.94951">
        <ele>345.1</ele>
        <time>2023-08-25T16:43:34.000Z</time>
      </trkpt>
      <trkpt lat="34.06027" lon="-4.94981">
        <ele>345.6</ele>
        <time>2023-08-25T16:43:38.000Z</time>
      </trkpt>
      <trkpt lat="34.06038" lon="-4.95011">
        <ele>346.9</ele>
        <time>2023-08-25T16:43:42.000Z</time>
      </trkpt>
      <trkpt lat="34.06049" lon="-4.9504">
        <ele>347.8</ele>
        <time>2023-08-25T16:43:46.000Z</time>
      </trkpt>
      <trkpt lat="34.06058" lon="-4.95064">
        <ele>349.1</ele>
        <time>2023-08-25T16:43:49.000Z</time>
      </trkpt>
      <trkpt lat="34.0607" lon="-4.95095">
        <ele>349.9</ele>
        <time>2023-08-25T16:43:53.000Z</time>
      </trkpt>
      <trkpt lat="34.06082" lon="-4.9513">
        <ele>350.6</ele>
        <time>2023-08-25T16:43:57.000Z</time>
      </trkpt>
      <trkpt lat="34.0609" lon="-4.95152">
        <ele>350.7</ele>
        <time>2023-08-25T16:44:00.000Z</time>
      </trkpt>
      <trkpt lat="34.061" lon="-4.9518">
        <ele>349.8</ele>
        <time>2023-08-25T16:44:04.000Z</time>
      </trkpt>
      <trkpt lat="34.06104" lon="-4.95191">
        <ele>350.5</ele>
        <time>2023-08-25T16:44:07.000Z</time>
      </trkpt>
      <trkpt lat="34.06112" lon="-4.95206">
        <ele>349.5</ele>
        <time>2023-08-25T16:44:11.000Z</time>
      </trkpt>
      <trkpt lat="34.0612" lon="-4.95218">
        <ele>349.5</ele>
        <time>2023-08-25T16:44:14.000Z</time>
      </trkpt>
      <trkpt lat="34.06129" lon="-4.95229">
        <ele>349.4</ele>
        <time>2023-08-25T16:44:17.000Z</time>
      </trkpt>
      <trkpt lat="34.06136" lon="-4.95241">
        <ele>349.5</ele>
        <time>2023-08-25T16:44:20.000Z</time>
      </trkpt>
      <trkpt lat="34.0614" lon="-4.95272">
        <ele>349.7</ele>
        <time>2023-08-25T16:44:24.000Z</time>
      </trkpt>
      <trkpt lat="34.06144" lon="-4.95296">
        <ele>350.6</ele>
        <time>2023-08-25T16:44:27.000Z</time>
      </trkpt>
      <trkpt lat="34.06149" lon="-4.95317">
        <ele>350.1</ele>
        <time>2023-08-25T16:44:30.000Z</time>
      </trkpt>
      <trkpt lat="34.06159" lon="-4.95347">
        <ele>350.4</ele>
        <time>2023-08-25T16:44:34.000Z</time>
      </trkpt>
      <trkpt lat="34.06168" lon="-4.9537">
        <ele>350.6</ele>
        <time>2023-08-25T16:44:37.000Z</time>
      </trkpt>
      <trkpt lat="34.06177" lon="-4.95394">
        <ele>350.7</ele>
        <time>2023-08-25T16:44:40.000Z</time>
      </trkpt>
      <trkpt lat="34.06186" lon="-4.95422">
        <ele>351</ele>
        <time>2023-08-25T16:44:44.000Z</time>
      </trkpt>
      <trkpt lat="34.06192" lon="-4.95443">
        <ele>351.8</ele>
        <time>2023-08-25T16:44:47.000Z</time>
      </trkpt>
      <trkpt lat="34.06202" lon="-4.95465">
        <ele>351.7</ele>
        <time>2023-08-25T16:44:50.000Z</time>
      </trkpt>
      <trkpt lat="34.0621" lon="-4.95489">
        <ele>352.1</ele>
        <time>2023-08-25T16:44:53.000Z</time>
      </trkpt>
      <trkpt lat="34.06224" lon="-4.95525">
        <ele>353.1</ele>
        <time>2023-08-25T16:44:57.000Z</time>
      </trkpt>
      <trkpt lat="34.06235" lon="-4.95558">
        <ele>352.7</ele>
        <time>2023-08-25T16:45:01.000Z</time>
      </trkpt>
      <trkpt lat="34.06247" lon="-4.95592">
        <ele>354.2</ele>
        <time>2023-08-25T16:45:05.000Z</time>
      </trkpt>
      <trkpt lat="34.06258" lon="-4.95622">
        <ele>354.5</ele>
        <time>2023-08-25T16:45:09.000Z</time>
      </trkpt>
      <trkpt lat="34.06266" lon="-4.95647">
        <ele>355.8</ele>
        <time>2023-08-25T16:45:12.000Z</time>
      </trkpt>
      <trkpt lat="34.06277" lon="-4.9568">
        <ele>357.2</ele>
        <time>2023-08-25T16:45:16.000Z</time>
      </trkpt>
      <trkpt lat="34.06285" lon="-4.95713">
        <ele>357.7</ele>
        <time>2023-08-25T16:45:20.000Z</time>
      </trkpt>
      <trkpt lat="34.06289" lon="-4.95745">
        <ele>358.8</ele>
        <time>2023-08-25T16:45:24.000Z</time>
      </trkpt>
      <trkpt lat="34.06289" lon="-4.95779">
        <ele>359.4</ele>
        <time>2023-08-25T16:45:28.000Z</time>
      </trkpt>
      <trkpt lat="34.06289" lon="-4.95814">
        <ele>360.2</ele>
        <time>2023-08-25T16:45:32.000Z</time>
      </trkpt>
      <trkpt lat="34.06291" lon="-4.95845">
        <ele>361.5</ele>
        <time>2023-08-25T16:45:36.000Z</time>
      </trkpt>
      <trkpt lat="34.06289" lon="-4.95877">
        <ele>362.3</ele>
        <time>2023-08-25T16:45:40.000Z</time>
      </trkpt>
      <trkpt lat="34.06287" lon="-4.95906">
        <ele>362.6</ele>
        <time>2023-08-25T16:45:44.000Z</time>
      </trkpt>
      <trkpt lat="34.06288" lon="-4.95924">
        <ele>362.8</ele>
        <time>2023-08-25T16:45:48.000Z</time>
      </trkpt>
      <trkpt lat="34.0629" lon="-4.95928">
        <ele>362.8</ele>
        <time>2023-08-25T16:45:51.000Z</time>
      </trkpt>
      <trkpt lat="34.06296" lon="-4.9594">
        <ele>362.4</ele>
        <time>2023-08-25T16:45:55.000Z</time>
      </trkpt>
      <trkpt lat="34.06295" lon="-4.95961">
        <ele>362.2</ele>
        <time>2023-08-25T16:45:59.000Z</time>
      </trkpt>
      <trkpt lat="34.06289" lon="-4.95981">
        <ele>364.3</ele>
        <time>2023-08-25T16:46:02.000Z</time>
      </trkpt>
      <trkpt lat="34.06282" lon="-4.96007">
        <ele>364.9</ele>
        <time>2023-08-25T16:46:06.000Z</time>
      </trkpt>
      <trkpt lat="34.06275" lon="-4.96028">
        <ele>366</ele>
        <time>2023-08-25T16:46:09.000Z</time>
      </trkpt>
      <trkpt lat="34.06266" lon="-4.96058">
        <ele>367.3</ele>
        <time>2023-08-25T16:46:13.000Z</time>
      </trkpt>
      <trkpt lat="34.06258" lon="-4.96089">
        <ele>368.6</ele>
        <time>2023-08-25T16:46:17.000Z</time>
      </trkpt>
      <trkpt lat="34.06253" lon="-4.96111">
        <ele>369.5</ele>
        <time>2023-08-25T16:46:20.000Z</time>
      </trkpt>
      <trkpt lat="34.06247" lon="-4.96134">
        <ele>371</ele>
        <time>2023-08-25T16:46:23.000Z</time>
      </trkpt>
      <trkpt lat="34.06236" lon="-4.96163">
        <ele>371.5</ele>
        <time>2023-08-25T16:46:27.000Z</time>
      </trkpt>
      <trkpt lat="34.06228" lon="-4.96183">
        <ele>372.9</ele>
        <time>2023-08-25T16:46:30.000Z</time>
      </trkpt>
      <trkpt lat="34.06212" lon="-4.96211">
        <ele>374.4</ele>
        <time>2023-08-25T16:46:34.000Z</time>
      </trkpt>
      <trkpt lat="34.06198" lon="-4.96229">
        <ele>375.9</ele>
        <time>2023-08-25T16:46:37.000Z</time>
      </trkpt>
      <trkpt lat="34.06184" lon="-4.96244">
        <ele>376.2</ele>
        <time>2023-08-25T16:46:40.000Z</time>
      </trkpt>
      <trkpt lat="34.06163" lon="-4.9626">
        <ele>377.6</ele>
        <time>2023-08-25T16:46:44.000Z</time>
      </trkpt>
      <trkpt lat="34.06141" lon="-4.96274">
        <ele>378.5</ele>
        <time>2023-08-25T16:46:48.000Z</time>
      </trkpt>
      <trkpt lat="34.06115" lon="-4.96286">
        <ele>379.4</ele>
        <time>2023-08-25T16:46:52.000Z</time>
      </trkpt>
      <trkpt lat="34.06098" lon="-4.96294">
        <ele>379.4</ele>
        <time>2023-08-25T16:46:55.000Z</time>
      </trkpt>
      <trkpt lat="34.06085" lon="-4.963">
        <ele>379.1</ele>
        <time>2023-08-25T16:46:58.000Z</time>
      </trkpt>
      <trkpt lat="34.06081" lon="-4.96304">
        <ele>379.3</ele>
        <time>2023-08-25T16:47:02.000Z</time>
      </trkpt>
      <trkpt lat="34.0608" lon="-4.96306">
        <ele>379.8</ele>
        <time>2023-08-25T16:47:05.000Z</time>
      </trkpt>
      <trkpt lat="34.0608" lon="-4.96307">
        <ele>379.9</ele>
        <time>2023-08-25T16:47:09.000Z</time>
      </trkpt>
      <trkpt lat="34.06079" lon="-4.96306">
        <ele>379.4</ele>
        <time>2023-08-25T16:47:27.000Z</time>
      </trkpt>
      <trkpt lat="34.06073" lon="-4.9631">
        <ele>379.4</ele>
        <time>2023-08-25T16:47:30.000Z</time>
      </trkpt>
      <trkpt lat="34.06062" lon="-4.96323">
        <ele>380</ele>
        <time>2023-08-25T16:47:34.000Z</time>
      </trkpt>
      <trkpt lat="34.06047" lon="-4.96342">
        <ele>380.4</ele>
        <time>2023-08-25T16:47:38.000Z</time>
      </trkpt>
      <trkpt lat="34.06038" lon="-4.96358">
        <ele>380.3</ele>
        <time>2023-08-25T16:47:41.000Z</time>
      </trkpt>
      <trkpt lat="34.0603" lon="-4.96375">
        <ele>379.7</ele>
        <time>2023-08-25T16:47:44.000Z</time>
      </trkpt>
      <trkpt lat="34.06021" lon="-4.96391">
        <ele>379.8</ele>
        <time>2023-08-25T16:47:47.000Z</time>
      </trkpt>
      <trkpt lat="34.06013" lon="-4.96407">
        <ele>378.9</ele>
        <time>2023-08-25T16:47:51.000Z</time>
      </trkpt>
      <trkpt lat="34.06007" lon="-4.96426">
        <ele>378.6</ele>
        <time>2023-08-25T16:47:55.000Z</time>
      </trkpt>
      <trkpt lat="34.06001" lon="-4.96442">
        <ele>378.5</ele>
        <time>2023-08-25T16:47:58.000Z</time>
      </trkpt>
      <trkpt lat="34.05986" lon="-4.96465">
        <ele>378.7</ele>
        <time>2023-08-25T16:48:02.000Z</time>
      </trkpt>
      <trkpt lat="34.05968" lon="-4.96487">
        <ele>380</ele>
        <time>2023-08-25T16:48:06.000Z</time>
      </trkpt>
      <trkpt lat="34.05954" lon="-4.96505">
        <ele>380.1</ele>
        <time>2023-08-25T16:48:09.000Z</time>
      </trkpt>
      <trkpt lat="34.05939" lon="-4.96527">
        <ele>381.3</ele>
        <time>2023-08-25T16:48:13.000Z</time>
      </trkpt>
      <trkpt lat="34.05926" lon="-4.9655">
        <ele>383</ele>
        <time>2023-08-25T16:48:17.000Z</time>
      </trkpt>
      <trkpt lat="34.05916" lon="-4.96578">
        <ele>383.7</ele>
        <time>2023-08-25T16:48:21.000Z</time>
      </trkpt>
      <trkpt lat="34.05907" lon="-4.96606">
        <ele>384.9</ele>
        <time>2023-08-25T16:48:25.000Z</time>
      </trkpt>
      <trkpt lat="34.05897" lon="-4.96632">
        <ele>386.7</ele>
        <time>2023-08-25T16:48:29.000Z</time>
      </trkpt>
      <trkpt lat="34.05887" lon="-4.96652">
        <ele>388</ele>
        <time>2023-08-25T16:48:32.000Z</time>
      </trkpt>
      <trkpt lat="34.05876" lon="-4.96669">
        <ele>389.9</ele>
        <time>2023-08-25T16:48:35.000Z</time>
      </trkpt>
      <trkpt lat="34.05863" lon="-4.96685">
        <ele>390.9</ele>
        <time>2023-08-25T16:48:38.000Z</time>
      </trkpt>
      <trkpt lat="34.05844" lon="-4.96706">
        <ele>392.3</ele>
        <time>2023-08-25T16:48:42.000Z</time>
      </trkpt>
      <trkpt lat="34.05814" lon="-4.96731">
        <ele>393.9</ele>
        <time>2023-08-25T16:48:47.000Z</time>
      </trkpt>
      <trkpt lat="34.05795" lon="-4.96747">
        <ele>394.9</ele>
        <time>2023-08-25T16:48:50.000Z</time>
      </trkpt>
      <trkpt lat="34.05773" lon="-4.96772">
        <ele>394.8</ele>
        <time>2023-08-25T16:48:54.000Z</time>
      </trkpt>
      <trkpt lat="34.05761" lon="-4.96796">
        <ele>394.6</ele>
        <time>2023-08-25T16:48:57.000Z</time>
      </trkpt>
      <trkpt lat="34.05748" lon="-4.9683">
        <ele>395.2</ele>
        <time>2023-08-25T16:49:01.000Z</time>
      </trkpt>
      <trkpt lat="34.0574" lon="-4.96855">
        <ele>396.1</ele>
        <time>2023-08-25T16:49:04.000Z</time>
      </trkpt>
      <trkpt lat="34.05732" lon="-4.96881">
        <ele>396.1</ele>
        <time>2023-08-25T16:49:07.000Z</time>
      </trkpt>
      <trkpt lat="34.0572" lon="-4.96915">
        <ele>395.7</ele>
        <time>2023-08-25T16:49:11.000Z</time>
      </trkpt>
      <trkpt lat="34.0571" lon="-4.96951">
        <ele>395.1</ele>
        <time>2023-08-25T16:49:15.000Z</time>
      </trkpt>
      <trkpt lat="34.05702" lon="-4.96975">
        <ele>394.3</ele>
        <time>2023-08-25T16:49:18.000Z</time>
      </trkpt>
      <trkpt lat="34.05694" lon="-4.97">
        <ele>393.2</ele>
        <time>2023-08-25T16:49:22.000Z</time>
      </trkpt>
      <trkpt lat="34.05684" lon="-4.97029">
        <ele>391.7</ele>
        <time>2023-08-25T16:49:26.000Z</time>
      </trkpt>
      <trkpt lat="34.05677" lon="-4.97056">
        <ele>391</ele>
        <time>2023-08-25T16:49:30.000Z</time>
      </trkpt>
      <trkpt lat="34.05669" lon="-4.9708">
        <ele>390.8</ele>
        <time>2023-08-25T16:49:33.000Z</time>
      </trkpt>
      <trkpt lat="34.05657" lon="-4.97115">
        <ele>389.9</ele>
        <time>2023-08-25T16:49:37.000Z</time>
      </trkpt>
      <trkpt lat="34.05645" lon="-4.97138">
        <ele>388.8</ele>
        <time>2023-08-25T16:49:40.000Z</time>
      </trkpt>
      <trkpt lat="34.05629" lon="-4.97158">
        <ele>388.4</ele>
        <time>2023-08-25T16:49:43.000Z</time>
      </trkpt>
      <trkpt lat="34.05611" lon="-4.97175">
        <ele>387.8</ele>
        <time>2023-08-25T16:49:46.000Z</time>
      </trkpt>
      <trkpt lat="34.05591" lon="-4.97188">
        <ele>386.3</ele>
        <time>2023-08-25T16:49:49.000Z</time>
      </trkpt>
      <trkpt lat="34.05563" lon="-4.97204">
        <ele>385.2</ele>
        <time>2023-08-25T16:49:53.000Z</time>
      </trkpt>
      <trkpt lat="34.05534" lon="-4.9722">
        <ele>384.3</ele>
        <time>2023-08-25T16:49:57.000Z</time>
      </trkpt>
      <trkpt lat="34.05506" lon="-4.97237">
        <ele>383.7</ele>
        <time>2023-08-25T16:50:01.000Z</time>
      </trkpt>
      <trkpt lat="34.05485" lon="-4.97249">
        <ele>382.5</ele>
        <time>2023-08-25T16:50:04.000Z</time>
      </trkpt>
      <trkpt lat="34.05456" lon="-4.97264">
        <ele>381.3</ele>
        <time>2023-08-25T16:50:08.000Z</time>
      </trkpt>
      <trkpt lat="34.05435" lon="-4.97276">
        <ele>380.6</ele>
        <time>2023-08-25T16:50:11.000Z</time>
      </trkpt>
      <trkpt lat="34.05408" lon="-4.97292">
        <ele>379.3</ele>
        <time>2023-08-25T16:50:15.000Z</time>
      </trkpt>
      <trkpt lat="34.05389" lon="-4.97307">
        <ele>378.1</ele>
        <time>2023-08-25T16:50:18.000Z</time>
      </trkpt>
      <trkpt lat="34.05368" lon="-4.97334">
        <ele>376</ele>
        <time>2023-08-25T16:50:22.000Z</time>
      </trkpt>
      <trkpt lat="34.05357" lon="-4.97358">
        <ele>374.8</ele>
        <time>2023-08-25T16:50:25.000Z</time>
      </trkpt>
      <trkpt lat="34.05348" lon="-4.97395">
        <ele>373.9</ele>
        <time>2023-08-25T16:50:29.000Z</time>
      </trkpt>
      <trkpt lat="34.05348" lon="-4.97433">
        <ele>372.4</ele>
        <time>2023-08-25T16:50:33.000Z</time>
      </trkpt>
      <trkpt lat="34.05353" lon="-4.9746">
        <ele>372.6</ele>
        <time>2023-08-25T16:50:36.000Z</time>
      </trkpt>
      <trkpt lat="34.05363" lon="-4.97484">
        <ele>371.6</ele>
        <time>2023-08-25T16:50:39.000Z</time>
      </trkpt>
      <trkpt lat="34.05382" lon="-4.97508">
        <ele>371.5</ele>
        <time>2023-08-25T16:50:43.000Z</time>
      </trkpt>
      <trkpt lat="34.05398" lon="-4.97521">
        <ele>371.6</ele>
        <time>2023-08-25T16:50:46.000Z</time>
      </trkpt>
      <trkpt lat="34.05417" lon="-4.97533">
        <ele>370.8</ele>
        <time>2023-08-25T16:50:50.000Z</time>
      </trkpt>
      <trkpt lat="34.05427" lon="-4.97535">
        <ele>371</ele>
        <time>2023-08-25T16:50:53.000Z</time>
      </trkpt>
      <trkpt lat="34.05434" lon="-4.97526">
        <ele>371</ele>
        <time>2023-08-25T16:50:56.000Z</time>
      </trkpt>
      <trkpt lat="34.05445" lon="-4.97501">
        <ele>369.9</ele>
        <time>2023-08-25T16:51:00.000Z</time>
      </trkpt>
      <trkpt lat="34.05464" lon="-4.97478">
        <ele>369</ele>
        <time>2023-08-25T16:51:04.000Z</time>
      </trkpt>
      <trkpt lat="34.05479" lon="-4.97464">
        <ele>368.1</ele>
        <time>2023-08-25T16:51:07.000Z</time>
      </trkpt>
      <trkpt lat="34.05493" lon="-4.97455">
        <ele>367.4</ele>
        <time>2023-08-25T16:51:10.000Z</time>
      </trkpt>
      <trkpt lat="34.05507" lon="-4.97449">
        <ele>366.3</ele>
        <time>2023-08-25T16:51:13.000Z</time>
      </trkpt>
      <trkpt lat="34.05525" lon="-4.97443">
        <ele>365.2</ele>
        <time>2023-08-25T16:51:17.000Z</time>
      </trkpt>
      <trkpt lat="34.05543" lon="-4.97438">
        <ele>364</ele>
        <time>2023-08-25T16:51:21.000Z</time>
      </trkpt>
      <trkpt lat="34.05556" lon="-4.97433">
        <ele>363.5</ele>
        <time>2023-08-25T16:51:25.000Z</time>
      </trkpt>
      <trkpt lat="34.05565" lon="-4.97432">
        <ele>363.2</ele>
        <time>2023-08-25T16:51:29.000Z</time>
      </trkpt>
      <trkpt lat="34.05566" lon="-4.97438">
        <ele>362.9</ele>
        <time>2023-08-25T16:51:32.000Z</time>
      </trkpt>
      <trkpt lat="34.05565" lon="-4.97457">
        <ele>363.3</ele>
        <time>2023-08-25T16:51:36.000Z</time>
      </trkpt>
      <trkpt lat="34.05564" lon="-4.97475">
        <ele>363.6</ele>
        <time>2023-08-25T16:51:39.000Z</time>
      </trkpt>
      <trkpt lat="34.05562" lon="-4.97491">
        <ele>363.5</ele>
        <time>2023-08-25T16:51:42.000Z</time>
      </trkpt>
      <trkpt lat="34.05561" lon="-4.97508">
        <ele>363.5</ele>
        <time>2023-08-25T16:51:45.000Z</time>
      </trkpt>
      <trkpt lat="34.05561" lon="-4.97534">
        <ele>363.7</ele>
        <time>2023-08-25T16:51:49.000Z</time>
      </trkpt>
      <trkpt lat="34.05562" lon="-4.97561">
        <ele>365.5</ele>
        <time>2023-08-25T16:51:53.000Z</time>
      </trkpt>
      <trkpt lat="34.05565" lon="-4.97584">
        <ele>367.4</ele>
        <time>2023-08-25T16:51:56.000Z</time>
      </trkpt>
      <trkpt lat="34.05569" lon="-4.97613">
        <ele>370.8</ele>
        <time>2023-08-25T16:52:00.000Z</time>
      </trkpt>
      <trkpt lat="34.05583" lon="-4.9764">
        <ele>370.8</ele>
        <time>2023-08-25T16:52:04.000Z</time>
      </trkpt>
      <trkpt lat="34.05599" lon="-4.97656">
        <ele>373.5</ele>
        <time>2023-08-25T16:52:07.000Z</time>
      </trkpt>
      <trkpt lat="34.05615" lon="-4.9768">
        <ele>374.5</ele>
        <time>2023-08-25T16:52:11.000Z</time>
      </trkpt>
      <trkpt lat="34.05625" lon="-4.9771">
        <ele>376.5</ele>
        <time>2023-08-25T16:52:15.000Z</time>
      </trkpt>
      <trkpt lat="34.05635" lon="-4.97745">
        <ele>377.9</ele>
        <time>2023-08-25T16:52:19.000Z</time>
      </trkpt>
      <trkpt lat="34.05637" lon="-4.9777">
        <ele>380.1</ele>
        <time>2023-08-25T16:52:22.000Z</time>
      </trkpt>
      <trkpt lat="34.05635" lon="-4.97804">
        <ele>381.6</ele>
        <time>2023-08-25T16:52:26.000Z</time>
      </trkpt>
      <trkpt lat="34.05637" lon="-4.97833">
        <ele>382.7</ele>
        <time>2023-08-25T16:52:30.000Z</time>
      </trkpt>
      <trkpt lat="34.05637" lon="-4.97847">
        <ele>384.6</ele>
        <time>2023-08-25T16:52:33.000Z</time>
      </trkpt>
      <trkpt lat="34.0564" lon="-4.97855">
        <ele>385.3</ele>
        <time>2023-08-25T16:52:36.000Z</time>
      </trkpt>
      <trkpt lat="34.05649" lon="-4.9785">
        <ele>386</ele>
        <time>2023-08-25T16:52:40.000Z</time>
      </trkpt>
      <trkpt lat="34.0565" lon="-4.97827">
        <ele>387.4</ele>
        <time>2023-08-25T16:52:44.000Z</time>
      </trkpt>
      <trkpt lat="34.05654" lon="-4.97799">
        <ele>388.5</ele>
        <time>2023-08-25T16:52:48.000Z</time>
      </trkpt>
      <trkpt lat="34.05658" lon="-4.97774">
        <ele>390</ele>
        <time>2023-08-25T16:52:51.000Z</time>
      </trkpt>
      <trkpt lat="34.05668" lon="-4.97743">
        <ele>391.9</ele>
        <time>2023-08-25T16:52:55.000Z</time>
      </trkpt>
      <trkpt lat="34.05679" lon="-4.97721">
        <ele>393.1</ele>
        <time>2023-08-25T16:52:58.000Z</time>
      </trkpt>
      <trkpt lat="34.05688" lon="-4.97701">
        <ele>395.3</ele>
        <time>2023-08-25T16:53:01.000Z</time>
      </trkpt>
      <trkpt lat="34.05701" lon="-4.97675">
        <ele>396.2</ele>
        <time>2023-08-25T16:53:05.000Z</time>
      </trkpt>
      <trkpt lat="34.05711" lon="-4.9765">
        <ele>397.2</ele>
        <time>2023-08-25T16:53:09.000Z</time>
      </trkpt>
      <trkpt lat="34.05721" lon="-4.97632">
        <ele>398.4</ele>
        <time>2023-08-25T16:53:13.000Z</time>
      </trkpt>
      <trkpt lat="34.05736" lon="-4.97633">
        <ele>399.2</ele>
        <time>2023-08-25T16:53:17.000Z</time>
      </trkpt>
      <trkpt lat="34.05734" lon="-4.97644">
        <ele>400.7</ele>
        <time>2023-08-25T16:53:21.000Z</time>
      </trkpt>
      <trkpt lat="34.05725" lon="-4.97677">
        <ele>402.8</ele>
        <time>2023-08-25T16:53:25.000Z</time>
      </trkpt>
      <trkpt lat="34.05724" lon="-4.97694">
        <ele>403.1</ele>
        <time>2023-08-25T16:53:29.000Z</time>
      </trkpt>
      <trkpt lat="34.05726" lon="-4.97693">
        <ele>404.4</ele>
        <time>2023-08-25T16:53:32.000Z</time>
      </trkpt>
      <trkpt lat="34.05733" lon="-4.9769">
        <ele>405</ele>
        <time>2023-08-25T16:53:35.000Z</time>
      </trkpt>
      <trkpt lat="34.05746" lon="-4.97689">
        <ele>405.5</ele>
        <time>2023-08-25T16:53:39.000Z</time>
      </trkpt>
      <trkpt lat="34.05755" lon="-4.97694">
        <ele>405.9</ele>
        <time>2023-08-25T16:53:42.000Z</time>
      </trkpt>
      <trkpt lat="34.0577" lon="-4.97694">
        <ele>406.1</ele>
        <time>2023-08-25T16:53:46.000Z</time>
      </trkpt>
      <trkpt lat="34.05776" lon="-4.97695">
        <ele>406</ele>
        <time>2023-08-25T16:53:49.000Z</time>
      </trkpt>
      <trkpt lat="34.05789" lon="-4.97702">
        <ele>406.5</ele>
        <time>2023-08-25T16:54:17.000Z</time>
      </trkpt>
      <trkpt lat="34.05795" lon="-4.97705">
        <ele>406.3</ele>
        <time>2023-08-25T16:54:20.000Z</time>
      </trkpt>
      <trkpt lat="34.05803" lon="-4.97708">
        <ele>406.3</ele>
        <time>2023-08-25T16:54:24.000Z</time>
      </trkpt>
      <trkpt lat="34.05811" lon="-4.97709">
        <ele>407</ele>
        <time>2023-08-25T16:54:28.000Z</time>
      </trkpt>
      <trkpt lat="34.05814" lon="-4.97709">
        <ele>406.5</ele>
        <time>2023-08-25T16:54:31.000Z</time>
      </trkpt>
      <trkpt lat="34.05816" lon="-4.97707">
        <ele>406.3</ele>
        <time>2023-08-25T16:54:34.000Z</time>
      </trkpt>
      <trkpt lat="34.0582" lon="-4.97709">
        <ele>406.4</ele>
        <time>2023-08-25T16:55:49.000Z</time>
      </trkpt>
      <trkpt lat="34.05814" lon="-4.97713">
        <ele>407.4</ele>
        <time>2023-08-25T16:56:18.000Z</time>
      </trkpt>
      <trkpt lat="34.05804" lon="-4.97711">
        <ele>406.5</ele>
        <time>2023-08-25T16:56:21.000Z</time>
      </trkpt>
      <trkpt lat="34.05794" lon="-4.9771">
        <ele>406.3</ele>
        <time>2023-08-25T16:56:24.000Z</time>
      </trkpt>
      <trkpt lat="34.05783" lon="-4.9771">
        <ele>407.1</ele>
        <time>2023-08-25T16:56:28.000Z</time>
      </trkpt>
      <trkpt lat="34.05776" lon="-4.97707">
        <ele>406.7</ele>
        <time>2023-08-25T16:56:31.000Z</time>
      </trkpt>
      <trkpt lat="34.05766" lon="-4.97704">
        <ele>406</ele>
        <time>2023-08-25T16:56:34.000Z</time>
      </trkpt>
      <trkpt lat="34.05753" lon="-4.977">
        <ele>405.7</ele>
        <time>2023-08-25T16:56:38.000Z</time>
      </trkpt>
      <trkpt lat="34.05748" lon="-4.977">
        <ele>405.1</ele>
        <time>2023-08-25T16:56:41.000Z</time>
      </trkpt>
      <trkpt lat="34.05744" lon="-4.977">
        <ele>405.5</ele>
        <time>2023-08-25T16:56:45.000Z</time>
      </trkpt>
      <trkpt lat="34.05741" lon="-4.97699">
        <ele>404.9</ele>
        <time>2023-08-25T16:56:58.000Z</time>
      </trkpt>
      <trkpt lat="34.05737" lon="-4.97698">
        <ele>405.1</ele>
        <time>2023-08-25T16:57:01.000Z</time>
      </trkpt>
      <trkpt lat="34.05733" lon="-4.97697">
        <ele>404</ele>
        <time>2023-08-25T16:57:04.000Z</time>
      </trkpt>
      <trkpt lat="34.05724" lon="-4.97697">
        <ele>404.1</ele>
        <time>2023-08-25T16:57:08.000Z</time>
      </trkpt>
      <trkpt lat="34.05721" lon="-4.977">
        <ele>404.7</ele>
        <time>2023-08-25T16:57:12.000Z</time>
      </trkpt>
      <trkpt lat="34.05721" lon="-4.97707">
        <ele>405.5</ele>
        <time>2023-08-25T16:57:15.000Z</time>
      </trkpt>
      <trkpt lat="34.05722" lon="-4.97718">
        <ele>405.6</ele>
        <time>2023-08-25T16:57:18.000Z</time>
      </trkpt>
      <trkpt lat="34.0572" lon="-4.97721">
        <ele>407.4</ele>
        <time>2023-08-25T17:01:04.000Z</time>
      </trkpt>
      <trkpt lat="34.05717" lon="-4.97721">
        <ele>407</ele>
        <time>2023-08-25T17:01:07.000Z</time>
      </trkpt>
      <trkpt lat="34.05716" lon="-4.9772">
        <ele>407.1</ele>
        <time>2023-08-25T17:01:10.000Z</time>
      </trkpt>
      <trkpt lat="34.05715" lon="-4.9772">
        <ele>405.7</ele>
        <time>2023-08-25T17:01:13.000Z</time>
      </trkpt>
      <trkpt lat="34.05714" lon="-4.97721">
        <ele>405.9</ele>
        <time>2023-08-25T17:01:16.000Z</time>
      </trkpt>
      <trkpt lat="34.05719" lon="-4.97721">
        <ele>400.3</ele>
        <time>2023-08-25T17:05:07.000Z</time>
      </trkpt>
      <trkpt lat="34.05717" lon="-4.97729">
        <ele>400.3</ele>
        <time>2023-08-25T17:05:11.000Z</time>
      </trkpt>
      <trkpt lat="34.05715" lon="-4.97741">
        <ele>400.3</ele>
        <time>2023-08-25T17:05:14.000Z</time>
      </trkpt>
      <trkpt lat="34.05713" lon="-4.97757">
        <ele>400.3</ele>
        <time>2023-08-25T17:05:18.000Z</time>
      </trkpt>
      <trkpt lat="34.05713" lon="-4.97771">
        <ele>402.9</ele>
        <time>2023-08-25T17:05:22.000Z</time>
      </trkpt>
      <trkpt lat="34.05713" lon="-4.97784">
        <ele>402.8</ele>
        <time>2023-08-25T17:05:25.000Z</time>
      </trkpt>
      <trkpt lat="34.05713" lon="-4.97797">
        <ele>403.2</ele>
        <time>2023-08-25T17:05:29.000Z</time>
      </trkpt>
      <trkpt lat="34.05714" lon="-4.97814">
        <ele>404.3</ele>
        <time>2023-08-25T17:05:33.000Z</time>
      </trkpt>
      <trkpt lat="34.05714" lon="-4.97843">
        <ele>406.5</ele>
        <time>2023-08-25T17:05:37.000Z</time>
      </trkpt>
      <trkpt lat="34.05714" lon="-4.97868">
        <ele>405.1</ele>
        <time>2023-08-25T17:05:40.000Z</time>
      </trkpt>
      <trkpt lat="34.05713" lon="-4.97898">
        <ele>406.2</ele>
        <time>2023-08-25T17:05:44.000Z</time>
      </trkpt>
      <trkpt lat="34.05713" lon="-4.97925">
        <ele>407.9</ele>
        <time>2023-08-25T17:05:48.000Z</time>
      </trkpt>
      <trkpt lat="34.05713" lon="-4.97953">
        <ele>409.8</ele>
        <time>2023-08-25T17:05:52.000Z</time>
      </trkpt>
      <trkpt lat="34.05718" lon="-4.97977">
        <ele>411.3</ele>
        <time>2023-08-25T17:05:56.000Z</time>
      </trkpt>
      <trkpt lat="34.05723" lon="-4.98001">
        <ele>411.8</ele>
        <time>2023-08-25T17:06:00.000Z</time>
      </trkpt>
      <trkpt lat="34.05728" lon="-4.98022">
        <ele>413.1</ele>
        <time>2023-08-25T17:06:04.000Z</time>
      </trkpt>
      <trkpt lat="34.05726" lon="-4.98036">
        <ele>412.7</ele>
        <time>2023-08-25T17:06:07.000Z</time>
      </trkpt>
      <trkpt lat="34.05712" lon="-4.98059">
        <ele>411.9</ele>
        <time>2023-08-25T17:06:11.000Z</time>
      </trkpt>
      <trkpt lat="34.05699" lon="-4.98072">
        <ele>411.2</ele>
        <time>2023-08-25T17:06:14.000Z</time>
      </trkpt>
      <trkpt lat="34.05681" lon="-4.98081">
        <ele>412.5</ele>
        <time>2023-08-25T17:06:18.000Z</time>
      </trkpt>
      <trkpt lat="34.05666" lon="-4.98089">
        <ele>410</ele>
        <time>2023-08-25T17:06:21.000Z</time>
      </trkpt>
      <trkpt lat="34.05651" lon="-4.98097">
        <ele>410.3</ele>
        <time>2023-08-25T17:06:24.000Z</time>
      </trkpt>
      <trkpt lat="34.05633" lon="-4.98107">
        <ele>406.6</ele>
        <time>2023-08-25T17:06:27.000Z</time>
      </trkpt>
      <trkpt lat="34.05612" lon="-4.9812">
        <ele>406.7</ele>
        <time>2023-08-25T17:06:31.000Z</time>
      </trkpt>
      <trkpt lat="34.05598" lon="-4.98128">
        <ele>407</ele>
        <time>2023-08-25T17:06:34.000Z</time>
      </trkpt>
      <trkpt lat="34.05581" lon="-4.9814">
        <ele>407.3</ele>
        <time>2023-08-25T17:06:37.000Z</time>
      </trkpt>
      <trkpt lat="34.05562" lon="-4.98159">
        <ele>408</ele>
        <time>2023-08-25T17:06:41.000Z</time>
      </trkpt>
      <trkpt lat="34.05552" lon="-4.98169">
        <ele>410.1</ele>
        <time>2023-08-25T17:06:44.000Z</time>
      </trkpt>
      <trkpt lat="34.05546" lon="-4.98184">
        <ele>413.2</ele>
        <time>2023-08-25T17:06:47.000Z</time>
      </trkpt>
      <trkpt lat="34.05554" lon="-4.98209">
        <ele>413.8</ele>
        <time>2023-08-25T17:06:51.000Z</time>
      </trkpt>
      <trkpt lat="34.05562" lon="-4.98223">
        <ele>415.3</ele>
        <time>2023-08-25T17:06:54.000Z</time>
      </trkpt>
      <trkpt lat="34.0557" lon="-4.98236">
        <ele>414.4</ele>
        <time>2023-08-25T17:06:57.000Z</time>
      </trkpt>
      <trkpt lat="34.0558" lon="-4.98257">
        <ele>414.6</ele>
        <time>2023-08-25T17:07:01.000Z</time>
      </trkpt>
      <trkpt lat="34.05587" lon="-4.9827">
        <ele>415.3</ele>
        <time>2023-08-25T17:07:04.000Z</time>
      </trkpt>
      <trkpt lat="34.05595" lon="-4.98284">
        <ele>416.1</ele>
        <time>2023-08-25T17:07:07.000Z</time>
      </trkpt>
      <trkpt lat="34.05605" lon="-4.98307">
        <ele>417.5</ele>
        <time>2023-08-25T17:07:11.000Z</time>
      </trkpt>
      <trkpt lat="34.05613" lon="-4.98323">
        <ele>419.6</ele>
        <time>2023-08-25T17:07:14.000Z</time>
      </trkpt>
      <trkpt lat="34.05624" lon="-4.98345">
        <ele>420.2</ele>
        <time>2023-08-25T17:07:18.000Z</time>
      </trkpt>
      <trkpt lat="34.05636" lon="-4.98361">
        <ele>424.2</ele>
        <time>2023-08-25T17:07:22.000Z</time>
      </trkpt>
      <trkpt lat="34.05641" lon="-4.98369">
        <ele>424.4</ele>
        <time>2023-08-25T17:07:25.000Z</time>
      </trkpt>
      <trkpt lat="34.05648" lon="-4.98381">
        <ele>422.8</ele>
        <time>2023-08-25T17:07:28.000Z</time>
      </trkpt>
      <trkpt lat="34.05656" lon="-4.98395">
        <ele>423.1</ele>
        <time>2023-08-25T17:07:32.000Z</time>
      </trkpt>
      <trkpt lat="34.0565" lon="-4.98411">
        <ele>426</ele>
        <time>2023-08-25T17:07:36.000Z</time>
      </trkpt>
      <trkpt lat="34.05637" lon="-4.98425">
        <ele>423</ele>
        <time>2023-08-25T17:07:39.000Z</time>
      </trkpt>
      <trkpt lat="34.05621" lon="-4.98448">
        <ele>426.7</ele>
        <time>2023-08-25T17:07:43.000Z</time>
      </trkpt>
      <trkpt lat="34.05605" lon="-4.98471">
        <ele>426.6</ele>
        <time>2023-08-25T17:07:47.000Z</time>
      </trkpt>
      <trkpt lat="34.05595" lon="-4.98488">
        <ele>425.9</ele>
        <time>2023-08-25T17:07:50.000Z</time>
      </trkpt>
      <trkpt lat="34.05583" lon="-4.98504">
        <ele>425.9</ele>
        <time>2023-08-25T17:07:53.000Z</time>
      </trkpt>
      <trkpt lat="34.05566" lon="-4.98523">
        <ele>425.4</ele>
        <time>2023-08-25T17:07:57.000Z</time>
      </trkpt>
      <trkpt lat="34.05547" lon="-4.98538">
        <ele>422.7</ele>
        <time>2023-08-25T17:08:01.000Z</time>
      </trkpt>
      <trkpt lat="34.05527" lon="-4.98552">
        <ele>425.1</ele>
        <time>2023-08-25T17:08:05.000Z</time>
      </trkpt>
      <trkpt lat="34.05511" lon="-4.98563">
        <ele>420.4</ele>
        <time>2023-08-25T17:08:08.000Z</time>
      </trkpt>
      <trkpt lat="34.0549" lon="-4.98577">
        <ele>422.5</ele>
        <time>2023-08-25T17:08:12.000Z</time>
      </trkpt>
      <trkpt lat="34.05469" lon="-4.98591">
        <ele>422.2</ele>
        <time>2023-08-25T17:08:16.000Z</time>
      </trkpt>
      <trkpt lat="34.05453" lon="-4.98601">
        <ele>420.9</ele>
        <time>2023-08-25T17:08:19.000Z</time>
      </trkpt>
      <trkpt lat="34.05433" lon="-4.98614">
        <ele>420.3</ele>
        <time>2023-08-25T17:08:23.000Z</time>
      </trkpt>
      <trkpt lat="34.05412" lon="-4.98628">
        <ele>418.4</ele>
        <time>2023-08-25T17:08:27.000Z</time>
      </trkpt>
      <trkpt lat="34.05389" lon="-4.9864">
        <ele>415.2</ele>
        <time>2023-08-25T17:08:31.000Z</time>
      </trkpt>
      <trkpt lat="34.05367" lon="-4.98653">
        <ele>418</ele>
        <time>2023-08-25T17:08:35.000Z</time>
      </trkpt>
      <trkpt lat="34.05346" lon="-4.98667">
        <ele>416.6</ele>
        <time>2023-08-25T17:08:39.000Z</time>
      </trkpt>
      <trkpt lat="34.05323" lon="-4.98683">
        <ele>416</ele>
        <time>2023-08-25T17:08:43.000Z</time>
      </trkpt>
      <trkpt lat="34.05304" lon="-4.98704">
        <ele>414.9</ele>
        <time>2023-08-25T17:08:47.000Z</time>
      </trkpt>
      <trkpt lat="34.05294" lon="-4.98725">
        <ele>415.8</ele>
        <time>2023-08-25T17:08:50.000Z</time>
      </trkpt>
      <trkpt lat="34.05285" lon="-4.98755">
        <ele>414.5</ele>
        <time>2023-08-25T17:08:54.000Z</time>
      </trkpt>
      <trkpt lat="34.05278" lon="-4.98777">
        <ele>413.6</ele>
        <time>2023-08-25T17:08:57.000Z</time>
      </trkpt>
      <trkpt lat="34.05272" lon="-4.98798">
        <ele>410.7</ele>
        <time>2023-08-25T17:09:00.000Z</time>
      </trkpt>
      <trkpt lat="34.05266" lon="-4.9882">
        <ele>409.9</ele>
        <time>2023-08-25T17:09:03.000Z</time>
      </trkpt>
      <trkpt lat="34.05255" lon="-4.9885">
        <ele>409.1</ele>
        <time>2023-08-25T17:09:07.000Z</time>
      </trkpt>
      <trkpt lat="34.05248" lon="-4.98872">
        <ele>408.6</ele>
        <time>2023-08-25T17:09:10.000Z</time>
      </trkpt>
      <trkpt lat="34.05239" lon="-4.98901">
        <ele>412.1</ele>
        <time>2023-08-25T17:09:14.000Z</time>
      </trkpt>
      <trkpt lat="34.05228" lon="-4.98929">
        <ele>410.8</ele>
        <time>2023-08-25T17:09:18.000Z</time>
      </trkpt>
      <trkpt lat="34.05215" lon="-4.98947">
        <ele>409.3</ele>
        <time>2023-08-25T17:09:21.000Z</time>
      </trkpt>
      <trkpt lat="34.05195" lon="-4.98968">
        <ele>408.8</ele>
        <time>2023-08-25T17:09:25.000Z</time>
      </trkpt>
      <trkpt lat="34.05176" lon="-4.9899">
        <ele>404.7</ele>
        <time>2023-08-25T17:09:29.000Z</time>
      </trkpt>
      <trkpt lat="34.05156" lon="-4.99012">
        <ele>406.3</ele>
        <time>2023-08-25T17:09:33.000Z</time>
      </trkpt>
      <trkpt lat="34.05136" lon="-4.99032">
        <ele>402.5</ele>
        <time>2023-08-25T17:09:37.000Z</time>
      </trkpt>
      <trkpt lat="34.05116" lon="-4.99052">
        <ele>406.1</ele>
        <time>2023-08-25T17:09:41.000Z</time>
      </trkpt>
      <trkpt lat="34.05099" lon="-4.99074">
        <ele>405.1</ele>
        <time>2023-08-25T17:09:45.000Z</time>
      </trkpt>
      <trkpt lat="34.05085" lon="-4.9909">
        <ele>405.3</ele>
        <time>2023-08-25T17:09:48.000Z</time>
      </trkpt>
      <trkpt lat="34.05072" lon="-4.99104">
        <ele>404.6</ele>
        <time>2023-08-25T17:09:51.000Z</time>
      </trkpt>
      <trkpt lat="34.05055" lon="-4.99126">
        <ele>404.8</ele>
        <time>2023-08-25T17:09:55.000Z</time>
      </trkpt>
      <trkpt lat="34.0504" lon="-4.99152">
        <ele>402.1</ele>
        <time>2023-08-25T17:09:59.000Z</time>
      </trkpt>
      <trkpt lat="34.05029" lon="-4.99169">
        <ele>402.1</ele>
        <time>2023-08-25T17:10:02.000Z</time>
      </trkpt>
      <trkpt lat="34.05015" lon="-4.99189">
        <ele>405.4</ele>
        <time>2023-08-25T17:10:06.000Z</time>
      </trkpt>
      <trkpt lat="34.05005" lon="-4.99203">
        <ele>405.5</ele>
        <time>2023-08-25T17:10:09.000Z</time>
      </trkpt>
      <trkpt lat="34.04996" lon="-4.99215">
        <ele>406.8</ele>
        <time>2023-08-25T17:10:12.000Z</time>
      </trkpt>
      <trkpt lat="34.0499" lon="-4.99227">
        <ele>406.9</ele>
        <time>2023-08-25T17:10:15.000Z</time>
      </trkpt>
      <trkpt lat="34.04991" lon="-4.99226">
        <ele>406.9</ele>
        <time>2023-08-25T17:10:33.000Z</time>
      </trkpt>
      <trkpt lat="34.04991" lon="-4.99231">
        <ele>403.1</ele>
        <time>2023-08-25T17:10:38.000Z</time>
      </trkpt>
      <trkpt lat="34.04992" lon="-4.99231">
        <ele>408</ele>
        <time>2023-08-25T17:10:43.000Z</time>
      </trkpt>
      <trkpt lat="34.04995" lon="-4.99233">
        <ele>407.1</ele>
        <time>2023-08-25T17:10:48.000Z</time>
      </trkpt>
      <trkpt lat="34.04998" lon="-4.99233">
        <ele>406.7</ele>
        <time>2023-08-25T17:10:51.000Z</time>
      </trkpt>
      <trkpt lat="34.05003" lon="-4.9923">
        <ele>406.6</ele>
        <time>2023-08-25T17:10:54.000Z</time>
      </trkpt>
      <trkpt lat="34.05007" lon="-4.99229">
        <ele>404.6</ele>
        <time>2023-08-25T17:10:57.000Z</time>
      </trkpt>
      <trkpt lat="34.05011" lon="-4.9923">
        <ele>405.2</ele>
        <time>2023-08-25T17:11:01.000Z</time>
      </trkpt>
      <trkpt lat="34.05015" lon="-4.99232">
        <ele>410.5</ele>
        <time>2023-08-25T17:11:04.000Z</time>
      </trkpt>
      <trkpt lat="34.05019" lon="-4.99234">
        <ele>409.4</ele>
        <time>2023-08-25T17:11:07.000Z</time>
      </trkpt>
      <trkpt lat="34.05023" lon="-4.99236">
        <ele>410.9</ele>
        <time>2023-08-25T17:11:11.000Z</time>
      </trkpt>
      <trkpt lat="34.05027" lon="-4.99238">
        <ele>411.4</ele>
        <time>2023-08-25T17:11:14.000Z</time>
      </trkpt>
      <trkpt lat="34.05032" lon="-4.9924">
        <ele>410.9</ele>
        <time>2023-08-25T17:11:18.000Z</time>
      </trkpt>
      <trkpt lat="34.05038" lon="-4.99243">
        <ele>410.7</ele>
        <time>2023-08-25T17:11:21.000Z</time>
      </trkpt>
      <trkpt lat="34.05045" lon="-4.99247">
        <ele>412.2</ele>
        <time>2023-08-25T17:11:25.000Z</time>
      </trkpt>
      <trkpt lat="34.0505" lon="-4.99249">
        <ele>409.1</ele>
        <time>2023-08-25T17:11:28.000Z</time>
      </trkpt>
      <trkpt lat="34.05054" lon="-4.99252">
        <ele>409.6</ele>
        <time>2023-08-25T17:11:31.000Z</time>
      </trkpt>
      <trkpt lat="34.05058" lon="-4.99254">
        <ele>414.3</ele>
        <time>2023-08-25T17:11:34.000Z</time>
      </trkpt>
      <trkpt lat="34.05062" lon="-4.99257">
        <ele>413.7</ele>
        <time>2023-08-25T17:11:38.000Z</time>
      </trkpt>
      <trkpt lat="34.05065" lon="-4.99259">
        <ele>415.3</ele>
        <time>2023-08-25T17:11:41.000Z</time>
      </trkpt>
      <trkpt lat="34.05067" lon="-4.99262">
        <ele>415.9</ele>
        <time>2023-08-25T17:11:44.000Z</time>
      </trkpt>
      <trkpt lat="34.0507" lon="-4.99266">
        <ele>415.3</ele>
        <time>2023-08-25T17:11:48.000Z</time>
      </trkpt>
      <trkpt lat="34.05073" lon="-4.9927">
        <ele>416.6</ele>
        <time>2023-08-25T17:11:51.000Z</time>
      </trkpt>
      <trkpt lat="34.05077" lon="-4.99275">
        <ele>416</ele>
        <time>2023-08-25T17:11:54.000Z</time>
      </trkpt>
      <trkpt lat="34.05081" lon="-4.99278">
        <ele>413.9</ele>
        <time>2023-08-25T17:11:58.000Z</time>
      </trkpt>
      <trkpt lat="34.05084" lon="-4.99282">
        <ele>414.5</ele>
        <time>2023-08-25T17:12:01.000Z</time>
      </trkpt>
      <trkpt lat="34.05087" lon="-4.99285">
        <ele>419.3</ele>
        <time>2023-08-25T17:12:05.000Z</time>
      </trkpt>
      <trkpt lat="34.05091" lon="-4.9929">
        <ele>419.7</ele>
        <time>2023-08-25T17:12:08.000Z</time>
      </trkpt>
      <trkpt lat="34.05094" lon="-4.99294">
        <ele>420.5</ele>
        <time>2023-08-25T17:12:12.000Z</time>
      </trkpt>
      <trkpt lat="34.05097" lon="-4.99297">
        <ele>421.2</ele>
        <time>2023-08-25T17:12:15.000Z</time>
      </trkpt>
      <trkpt lat="34.05101" lon="-4.99299">
        <ele>420.8</ele>
        <time>2023-08-25T17:12:19.000Z</time>
      </trkpt>
      <trkpt lat="34.05103" lon="-4.99302">
        <ele>421.6</ele>
        <time>2023-08-25T17:12:22.000Z</time>
      </trkpt>
      <trkpt lat="34.05105" lon="-4.99307">
        <ele>421.6</ele>
        <time>2023-08-25T17:12:26.000Z</time>
      </trkpt>
      <trkpt lat="34.05106" lon="-4.99311">
        <ele>419.5</ele>
        <time>2023-08-25T17:12:29.000Z</time>
      </trkpt>
      <trkpt lat="34.05108" lon="-4.99316">
        <ele>424.3</ele>
        <time>2023-08-25T17:12:33.000Z</time>
      </trkpt>
      <trkpt lat="34.0511" lon="-4.99321">
        <ele>424.8</ele>
        <time>2023-08-25T17:12:36.000Z</time>
      </trkpt>
      <trkpt lat="34.0511" lon="-4.99325">
        <ele>424.3</ele>
        <time>2023-08-25T17:12:40.000Z</time>
      </trkpt>
      <trkpt lat="34.0511" lon="-4.99328">
        <ele>426.4</ele>
        <time>2023-08-25T17:12:43.000Z</time>
      </trkpt>
      <trkpt lat="34.05111" lon="-4.99331">
        <ele>426.2</ele>
        <time>2023-08-25T17:12:47.000Z</time>
      </trkpt>
      <trkpt lat="34.0511" lon="-4.99336">
        <ele>427.5</ele>
        <time>2023-08-25T17:12:50.000Z</time>
      </trkpt>
      <trkpt lat="34.05111" lon="-4.99341">
        <ele>427.6</ele>
        <time>2023-08-25T17:12:54.000Z</time>
      </trkpt>
      <trkpt lat="34.05113" lon="-4.99347">
        <ele>425.2</ele>
        <time>2023-08-25T17:12:57.000Z</time>
      </trkpt>
      <trkpt lat="34.05114" lon="-4.99353">
        <ele>424.7</ele>
        <time>2023-08-25T17:13:00.000Z</time>
      </trkpt>
      <trkpt lat="34.05116" lon="-4.9936">
        <ele>429.5</ele>
        <time>2023-08-25T17:13:03.000Z</time>
      </trkpt>
      <trkpt lat="34.05117" lon="-4.99369">
        <ele>432.9</ele>
        <time>2023-08-25T17:13:06.000Z</time>
      </trkpt>
      <trkpt lat="34.05119" lon="-4.99373">
        <ele>432.5</ele>
        <time>2023-08-25T17:13:09.000Z</time>
      </trkpt>
      <trkpt lat="34.05121" lon="-4.99374">
        <ele>431.1</ele>
        <time>2023-08-25T17:13:12.000Z</time>
      </trkpt>
      <trkpt lat="34.05125" lon="-4.99376">
        <ele>430.6</ele>
        <time>2023-08-25T17:13:16.000Z</time>
      </trkpt>
      <trkpt lat="34.05128" lon="-4.99379">
        <ele>431.3</ele>
        <time>2023-08-25T17:13:19.000Z</time>
      </trkpt>
      <trkpt lat="34.05131" lon="-4.99377">
        <ele>430.9</ele>
        <time>2023-08-25T17:13:23.000Z</time>
      </trkpt>
      <trkpt lat="34.05135" lon="-4.99373">
        <ele>427.5</ele>
        <time>2023-08-25T17:13:26.000Z</time>
      </trkpt>
      <trkpt lat="34.05138" lon="-4.99368">
        <ele>427.4</ele>
        <time>2023-08-25T17:13:30.000Z</time>
      </trkpt>
      <trkpt lat="34.05141" lon="-4.99363">
        <ele>432.1</ele>
        <time>2023-08-25T17:13:33.000Z</time>
      </trkpt>
      <trkpt lat="34.05143" lon="-4.99358">
        <ele>429.7</ele>
        <time>2023-08-25T17:13:36.000Z</time>
      </trkpt>
      <trkpt lat="34.05143" lon="-4.99354">
        <ele>429.8</ele>
        <time>2023-08-25T17:13:40.000Z</time>
      </trkpt>
      <trkpt lat="34.05144" lon="-4.99348">
        <ele>430.7</ele>
        <time>2023-08-25T17:13:43.000Z</time>
      </trkpt>
      <trkpt lat="34.05146" lon="-4.99344">
        <ele>430.4</ele>
        <time>2023-08-25T17:13:46.000Z</time>
      </trkpt>
      <trkpt lat="34.05149" lon="-4.99339">
        <ele>430.7</ele>
        <time>2023-08-25T17:13:50.000Z</time>
      </trkpt>
      <trkpt lat="34.05152" lon="-4.99335">
        <ele>429.5</ele>
        <time>2023-08-25T17:13:53.000Z</time>
      </trkpt>
      <trkpt lat="34.05155" lon="-4.99331">
        <ele>428.7</ele>
        <time>2023-08-25T17:13:56.000Z</time>
      </trkpt>
      <trkpt lat="34.05159" lon="-4.99327">
        <ele>426.5</ele>
        <time>2023-08-25T17:14:00.000Z</time>
      </trkpt>
      <trkpt lat="34.0516" lon="-4.99326">
        <ele>431.9</ele>
        <time>2023-08-25T17:14:03.000Z</time>
      </trkpt>
      <trkpt lat="34.0516" lon="-4.99326">
        <ele>430.2</ele>
        <time>2023-08-25T17:14:06.000Z</time>
      </trkpt>
      <trkpt lat="34.05162" lon="-4.99327">
        <ele>429.8</ele>
        <time>2023-08-25T17:14:09.000Z</time>
      </trkpt>
      <trkpt lat="34.05165" lon="-4.99323">
        <ele>430.8</ele>
        <time>2023-08-25T17:14:13.000Z</time>
      </trkpt>
      <trkpt lat="34.0517" lon="-4.99317">
        <ele>430.5</ele>
        <time>2023-08-25T17:14:17.000Z</time>
      </trkpt>
      <trkpt lat="34.05173" lon="-4.99315">
        <ele>429.1</ele>
        <time>2023-08-25T17:14:20.000Z</time>
      </trkpt>
      <trkpt lat="34.05176" lon="-4.99313">
        <ele>429.7</ele>
        <time>2023-08-25T17:14:24.000Z</time>
      </trkpt>
      <trkpt lat="34.0518" lon="-4.99314">
        <ele>426.9</ele>
        <time>2023-08-25T17:14:27.000Z</time>
      </trkpt>
      <trkpt lat="34.05183" lon="-4.99317">
        <ele>431.5</ele>
        <time>2023-08-25T17:14:31.000Z</time>
      </trkpt>
      <trkpt lat="34.05187" lon="-4.9932">
        <ele>431.6</ele>
        <time>2023-08-25T17:14:34.000Z</time>
      </trkpt>
      <trkpt lat="34.05191" lon="-4.99328">
        <ele>429.8</ele>
        <time>2023-08-25T17:14:38.000Z</time>
      </trkpt>
      <trkpt lat="34.05196" lon="-4.99334">
        <ele>431.5</ele>
        <time>2023-08-25T17:14:41.000Z</time>
      </trkpt>
      <trkpt lat="34.05198" lon="-4.99335">
        <ele>432.1</ele>
        <time>2023-08-25T17:14:45.000Z</time>
      </trkpt>
      <trkpt lat="34.05203" lon="-4.99339">
        <ele>431.2</ele>
        <time>2023-08-25T17:14:48.000Z</time>
      </trkpt>
      <trkpt lat="34.05205" lon="-4.99345">
        <ele>431.3</ele>
        <time>2023-08-25T17:14:52.000Z</time>
      </trkpt>
      <trkpt lat="34.05199" lon="-4.99349">
        <ele>427.6</ele>
        <time>2023-08-25T17:14:56.000Z</time>
      </trkpt>
      <trkpt lat="34.05195" lon="-4.9935">
        <ele>427.9</ele>
        <time>2023-08-25T17:14:59.000Z</time>
      </trkpt>
      <trkpt lat="34.05192" lon="-4.99354">
        <ele>431.6</ele>
        <time>2023-08-25T17:15:03.000Z</time>
      </trkpt>
      <trkpt lat="34.05191" lon="-4.99357">
        <ele>426.6</ele>
        <time>2023-08-25T17:15:06.000Z</time>
      </trkpt>
      <trkpt lat="34.05189" lon="-4.99361">
        <ele>431.2</ele>
        <time>2023-08-25T17:15:10.000Z</time>
      </trkpt>
      <trkpt lat="34.05188" lon="-4.99365">
        <ele>432.7</ele>
        <time>2023-08-25T17:15:14.000Z</time>
      </trkpt>
      <trkpt lat="34.05187" lon="-4.99368">
        <ele>433.3</ele>
        <time>2023-08-25T17:15:17.000Z</time>
      </trkpt>
      <trkpt lat="34.05185" lon="-4.9937">
        <ele>432.2</ele>
        <time>2023-08-25T17:15:20.000Z</time>
      </trkpt>
      <trkpt lat="34.05178" lon="-4.99372">
        <ele>431.7</ele>
        <time>2023-08-25T17:15:23.000Z</time>
      </trkpt>
      <trkpt lat="34.05173" lon="-4.99374">
        <ele>428.3</ele>
        <time>2023-08-25T17:15:26.000Z</time>
      </trkpt>
      <trkpt lat="34.0517" lon="-4.99377">
        <ele>428.2</ele>
        <time>2023-08-25T17:15:29.000Z</time>
      </trkpt>
      <trkpt lat="34.05164" lon="-4.99379">
        <ele>433.1</ele>
        <time>2023-08-25T17:15:33.000Z</time>
      </trkpt>
      <trkpt lat="34.05158" lon="-4.99382">
        <ele>431.9</ele>
        <time>2023-08-25T17:15:36.000Z</time>
      </trkpt>
      <trkpt lat="34.05154" lon="-4.99388">
        <ele>431.7</ele>
        <time>2023-08-25T17:15:39.000Z</time>
      </trkpt>
      <trkpt lat="34.0515" lon="-4.9939">
        <ele>432.4</ele>
        <time>2023-08-25T17:15:42.000Z</time>
      </trkpt>
      <trkpt lat="34.05146" lon="-4.99393">
        <ele>434</ele>
        <time>2023-08-25T17:15:45.000Z</time>
      </trkpt>
      <trkpt lat="34.05138" lon="-4.99394">
        <ele>431.8</ele>
        <time>2023-08-25T17:15:49.000Z</time>
      </trkpt>
      <trkpt lat="34.05131" lon="-4.99391">
        <ele>431.7</ele>
        <time>2023-08-25T17:15:52.000Z</time>
      </trkpt>
      <trkpt lat="34.05126" lon="-4.99388">
        <ele>430.4</ele>
        <time>2023-08-25T17:15:56.000Z</time>
      </trkpt>
      <trkpt lat="34.05121" lon="-4.99384">
        <ele>427.6</ele>
        <time>2023-08-25T17:15:59.000Z</time>
      </trkpt>
      <trkpt lat="34.05117" lon="-4.99381">
        <ele>432.4</ele>
        <time>2023-08-25T17:16:02.000Z</time>
      </trkpt>
      <trkpt lat="34.05114" lon="-4.99377">
        <ele>430.5</ele>
        <time>2023-08-25T17:16:05.000Z</time>
      </trkpt>
      <trkpt lat="34.05112" lon="-4.99373">
        <ele>429.8</ele>
        <time>2023-08-25T17:16:08.000Z</time>
      </trkpt>
      <trkpt lat="34.05109" lon="-4.99368">
        <ele>428.9</ele>
        <time>2023-08-25T17:16:11.000Z</time>
      </trkpt>
      <trkpt lat="34.05108" lon="-4.99363">
        <ele>430.3</ele>
        <time>2023-08-25T17:16:14.000Z</time>
      </trkpt>
      <trkpt lat="34.05106" lon="-4.99358">
        <ele>428.3</ele>
        <time>2023-08-25T17:16:17.000Z</time>
      </trkpt>
      <trkpt lat="34.05105" lon="-4.99351">
        <ele>427.8</ele>
        <time>2023-08-25T17:16:20.000Z</time>
      </trkpt>
      <trkpt lat="34.05105" lon="-4.99345">
        <ele>428.3</ele>
        <time>2023-08-25T17:16:24.000Z</time>
      </trkpt>
      <trkpt lat="34.05105" lon="-4.9934">
        <ele>423.1</ele>
        <time>2023-08-25T17:16:27.000Z</time>
      </trkpt>
      <trkpt lat="34.05105" lon="-4.99336">
        <ele>422.4</ele>
        <time>2023-08-25T17:16:30.000Z</time>
      </trkpt>
      <trkpt lat="34.05104" lon="-4.99331">
        <ele>427.2</ele>
        <time>2023-08-25T17:16:33.000Z</time>
      </trkpt>
      <trkpt lat="34.05103" lon="-4.99326">
        <ele>424.5</ele>
        <time>2023-08-25T17:16:36.000Z</time>
      </trkpt>
      <trkpt lat="34.05101" lon="-4.99321">
        <ele>424.4</ele>
        <time>2023-08-25T17:16:39.000Z</time>
      </trkpt>
      <trkpt lat="34.051" lon="-4.99317">
        <ele>423.7</ele>
        <time>2023-08-25T17:16:42.000Z</time>
      </trkpt>
      <trkpt lat="34.05098" lon="-4.99312">
        <ele>424.6</ele>
        <time>2023-08-25T17:16:45.000Z</time>
      </trkpt>
      <trkpt lat="34.05096" lon="-4.99308">
        <ele>422.2</ele>
        <time>2023-08-25T17:16:48.000Z</time>
      </trkpt>
      <trkpt lat="34.05093" lon="-4.99306">
        <ele>422</ele>
        <time>2023-08-25T17:16:51.000Z</time>
      </trkpt>
      <trkpt lat="34.0509" lon="-4.99303">
        <ele>419.4</ele>
        <time>2023-08-25T17:16:55.000Z</time>
      </trkpt>
      <trkpt lat="34.05087" lon="-4.993">
        <ele>416.3</ele>
        <time>2023-08-25T17:16:58.000Z</time>
      </trkpt>
      <trkpt lat="34.05084" lon="-4.99296">
        <ele>419.9</ele>
        <time>2023-08-25T17:17:02.000Z</time>
      </trkpt>
      <trkpt lat="34.0508" lon="-4.99292">
        <ele>417.5</ele>
        <time>2023-08-25T17:17:05.000Z</time>
      </trkpt>
      <trkpt lat="34.05076" lon="-4.99289">
        <ele>417.7</ele>
        <time>2023-08-25T17:17:08.000Z</time>
      </trkpt>
      <trkpt lat="34.05073" lon="-4.99286">
        <ele>418.9</ele>
        <time>2023-08-25T17:17:12.000Z</time>
      </trkpt>
      <trkpt lat="34.0507" lon="-4.99282">
        <ele>417.8</ele>
        <time>2023-08-25T17:17:15.000Z</time>
      </trkpt>
      <trkpt lat="34.05067" lon="-4.99278">
        <ele>415.5</ele>
        <time>2023-08-25T17:17:18.000Z</time>
      </trkpt>
      <trkpt lat="34.05064" lon="-4.99275">
        <ele>415.8</ele>
        <time>2023-08-25T17:17:22.000Z</time>
      </trkpt>
      <trkpt lat="34.0506" lon="-4.99272">
        <ele>415.4</ele>
        <time>2023-08-25T17:17:25.000Z</time>
      </trkpt>
      <trkpt lat="34.05057" lon="-4.99268">
        <ele>409.6</ele>
        <time>2023-08-25T17:17:28.000Z</time>
      </trkpt>
      <trkpt lat="34.05054" lon="-4.99263">
        <ele>409.2</ele>
        <time>2023-08-25T17:17:31.000Z</time>
      </trkpt>
      <trkpt lat="34.0505" lon="-4.99259">
        <ele>414</ele>
        <time>2023-08-25T17:17:34.000Z</time>
      </trkpt>
      <trkpt lat="34.05046" lon="-4.99255">
        <ele>413.3</ele>
        <time>2023-08-25T17:17:37.000Z</time>
      </trkpt>
      <trkpt lat="34.05042" lon="-4.99252">
        <ele>411.9</ele>
        <time>2023-08-25T17:17:41.000Z</time>
      </trkpt>
      <trkpt lat="34.05038" lon="-4.99247">
        <ele>413.1</ele>
        <time>2023-08-25T17:17:44.000Z</time>
      </trkpt>
      <trkpt lat="34.05032" lon="-4.99245">
        <ele>412.1</ele>
        <time>2023-08-25T17:17:48.000Z</time>
      </trkpt>
      <trkpt lat="34.05028" lon="-4.99243">
        <ele>411.2</ele>
        <time>2023-08-25T17:17:51.000Z</time>
      </trkpt>
      <trkpt lat="34.05023" lon="-4.99242">
        <ele>409.9</ele>
        <time>2023-08-25T17:17:55.000Z</time>
      </trkpt>
      <trkpt lat="34.05018" lon="-4.99241">
        <ele>405.2</ele>
        <time>2023-08-25T17:17:58.000Z</time>
      </trkpt>
      <trkpt lat="34.05014" lon="-4.9924">
        <ele>405.2</ele>
        <time>2023-08-25T17:18:01.000Z</time>
      </trkpt>
      <trkpt lat="34.0501" lon="-4.99239">
        <ele>410.3</ele>
        <time>2023-08-25T17:18:04.000Z</time>
      </trkpt>
      <trkpt lat="34.05006" lon="-4.99238">
        <ele>410</ele>
        <time>2023-08-25T17:18:07.000Z</time>
      </trkpt>
      <trkpt lat="34.05002" lon="-4.99236">
        <ele>408.7</ele>
        <time>2023-08-25T17:18:11.000Z</time>
      </trkpt>
      <trkpt lat="34.04998" lon="-4.99235">
        <ele>409.8</ele>
        <time>2023-08-25T17:18:14.000Z</time>
      </trkpt>
      <trkpt lat="34.04993" lon="-4.99234">
        <ele>408.5</ele>
        <time>2023-08-25T17:18:17.000Z</time>
      </trkpt>
      <trkpt lat="34.04991" lon="-4.99231">
        <ele>409.8</ele>
        <time>2023-08-25T17:18:21.000Z</time>
      </trkpt>
      <trkpt lat="34.04987" lon="-4.99227">
        <ele>414.1</ele>
        <time>2023-08-25T17:18:24.000Z</time>
      </trkpt>
      <trkpt lat="34.04989" lon="-4.99222">
        <ele>406.8</ele>
        <time>2023-08-25T17:18:27.000Z</time>
      </trkpt>
      <trkpt lat="34.04989" lon="-4.99225">
        <ele>407.4</ele>
        <time>2023-08-25T17:19:10.000Z</time>
      </trkpt>
      <trkpt lat="34.04986" lon="-4.9923">
        <ele>408.1</ele>
        <time>2023-08-25T17:19:13.000Z</time>
      </trkpt>
      <trkpt lat="34.0498" lon="-4.99238">
        <ele>408.1</ele>
        <time>2023-08-25T17:19:17.000Z</time>
      </trkpt>
      <trkpt lat="34.0497" lon="-4.99251">
        <ele>409.3</ele>
        <time>2023-08-25T17:19:21.000Z</time>
      </trkpt>
      <trkpt lat="34.0496" lon="-4.99265">
        <ele>410.3</ele>
        <time>2023-08-25T17:19:24.000Z</time>
      </trkpt>
      <trkpt lat="34.04945" lon="-4.99286">
        <ele>406.3</ele>
        <time>2023-08-25T17:19:28.000Z</time>
      </trkpt>
      <trkpt lat="34.0493" lon="-4.99303">
        <ele>410.3</ele>
        <time>2023-08-25T17:19:31.000Z</time>
      </trkpt>
      <trkpt lat="34.04911" lon="-4.99325">
        <ele>413.7</ele>
        <time>2023-08-25T17:19:35.000Z</time>
      </trkpt>
      <trkpt lat="34.04896" lon="-4.9934">
        <ele>413.6</ele>
        <time>2023-08-25T17:19:38.000Z</time>
      </trkpt>
      <trkpt lat="34.04882" lon="-4.99353">
        <ele>415.5</ele>
        <time>2023-08-25T17:19:42.000Z</time>
      </trkpt>
      <trkpt lat="34.04869" lon="-4.99365">
        <ele>416.1</ele>
        <time>2023-08-25T17:19:46.000Z</time>
      </trkpt>
      <trkpt lat="34.04855" lon="-4.99377">
        <ele>417.7</ele>
        <time>2023-08-25T17:19:50.000Z</time>
      </trkpt>
      <trkpt lat="34.04849" lon="-4.99382">
        <ele>417</ele>
        <time>2023-08-25T17:19:53.000Z</time>
      </trkpt>
      <trkpt lat="34.04839" lon="-4.99389">
        <ele>414.5</ele>
        <time>2023-08-25T17:19:57.000Z</time>
      </trkpt>
      <trkpt lat="34.0483" lon="-4.99396">
        <ele>415.4</ele>
        <time>2023-08-25T17:20:00.000Z</time>
      </trkpt>
      <trkpt lat="34.0482" lon="-4.99405">
        <ele>421</ele>
        <time>2023-08-25T17:20:03.000Z</time>
      </trkpt>
      <trkpt lat="34.04805" lon="-4.9942">
        <ele>421.4</ele>
        <time>2023-08-25T17:20:07.000Z</time>
      </trkpt>
      <trkpt lat="34.04788" lon="-4.99431">
        <ele>422</ele>
        <time>2023-08-25T17:20:10.000Z</time>
      </trkpt>
      <trkpt lat="34.04769" lon="-4.99442">
        <ele>423.4</ele>
        <time>2023-08-25T17:20:13.000Z</time>
      </trkpt>
      <trkpt lat="34.04745" lon="-4.9946">
        <ele>426.1</ele>
        <time>2023-08-25T17:20:17.000Z</time>
      </trkpt>
      <trkpt lat="34.04724" lon="-4.99476">
        <ele>426.4</ele>
        <time>2023-08-25T17:20:21.000Z</time>
      </trkpt>
      <trkpt lat="34.04708" lon="-4.99487">
        <ele>427.6</ele>
        <time>2023-08-25T17:20:24.000Z</time>
      </trkpt>
      <trkpt lat="34.04688" lon="-4.99505">
        <ele>424.8</ele>
        <time>2023-08-25T17:20:28.000Z</time>
      </trkpt>
      <trkpt lat="34.04666" lon="-4.99522">
        <ele>431</ele>
        <time>2023-08-25T17:20:32.000Z</time>
      </trkpt>
      <trkpt lat="34.04645" lon="-4.99541">
        <ele>432.5</ele>
        <time>2023-08-25T17:20:36.000Z</time>
      </trkpt>
      <trkpt lat="34.04623" lon="-4.99557">
        <ele>433.5</ele>
        <time>2023-08-25T17:20:40.000Z</time>
      </trkpt>
      <trkpt lat="34.04603" lon="-4.99573">
        <ele>434.9</ele>
        <time>2023-08-25T17:20:44.000Z</time>
      </trkpt>
      <trkpt lat="34.04588" lon="-4.99583">
        <ele>435.8</ele>
        <time>2023-08-25T17:20:47.000Z</time>
      </trkpt>
      <trkpt lat="34.0457" lon="-4.99593">
        <ele>435.9</ele>
        <time>2023-08-25T17:20:51.000Z</time>
      </trkpt>
      <trkpt lat="34.04561" lon="-4.99599">
        <ele>436.4</ele>
        <time>2023-08-25T17:20:54.000Z</time>
      </trkpt>
      <trkpt lat="34.04554" lon="-4.99606">
        <ele>431.4</ele>
        <time>2023-08-25T17:20:58.000Z</time>
      </trkpt>
      <trkpt lat="34.04554" lon="-4.99608">
        <ele>436.4</ele>
        <time>2023-08-25T17:21:34.000Z</time>
      </trkpt>
      <trkpt lat="34.04548" lon="-4.99613">
        <ele>431.4</ele>
        <time>2023-08-25T17:21:37.000Z</time>
      </trkpt>
      <trkpt lat="34.04538" lon="-4.99623">
        <ele>436.4</ele>
        <time>2023-08-25T17:21:40.000Z</time>
      </trkpt>
      <trkpt lat="34.04524" lon="-4.99636">
        <ele>437.6</ele>
        <time>2023-08-25T17:21:43.000Z</time>
      </trkpt>
      <trkpt lat="34.0451" lon="-4.99653">
        <ele>437.2</ele>
        <time>2023-08-25T17:21:47.000Z</time>
      </trkpt>
      <trkpt lat="34.04502" lon="-4.99672">
        <ele>433.5</ele>
        <time>2023-08-25T17:21:51.000Z</time>
      </trkpt>
      <trkpt lat="34.04498" lon="-4.99686">
        <ele>433</ele>
        <time>2023-08-25T17:21:54.000Z</time>
      </trkpt>
      <trkpt lat="34.04491" lon="-4.997">
        <ele>433.1</ele>
        <time>2023-08-25T17:21:58.000Z</time>
      </trkpt>
      <trkpt lat="34.04484" lon="-4.99707">
        <ele>437.9</ele>
        <time>2023-08-25T17:22:01.000Z</time>
      </trkpt>
      <trkpt lat="34.04476" lon="-4.99706">
        <ele>433</ele>
        <time>2023-08-25T17:22:04.000Z</time>
      </trkpt>
      <trkpt lat="34.04475" lon="-4.99704">
        <ele>437.3</ele>
        <time>2023-08-25T17:22:10.000Z</time>
      </trkpt>
      <trkpt lat="34.04465" lon="-4.99696">
        <ele>437.3</ele>
        <time>2023-08-25T17:22:14.000Z</time>
      </trkpt>
      <trkpt lat="34.04456" lon="-4.99688">
        <ele>432.9</ele>
        <time>2023-08-25T17:22:17.000Z</time>
      </trkpt>
      <trkpt lat="34.04441" lon="-4.99684">
        <ele>433</ele>
        <time>2023-08-25T17:22:21.000Z</time>
      </trkpt>
      <trkpt lat="34.04425" lon="-4.99685">
        <ele>433.1</ele>
        <time>2023-08-25T17:22:24.000Z</time>
      </trkpt>
      <trkpt lat="34.04406" lon="-4.99685">
        <ele>437.5</ele>
        <time>2023-08-25T17:22:28.000Z</time>
      </trkpt>
      <trkpt lat="34.04389" lon="-4.99685">
        <ele>433</ele>
        <time>2023-08-25T17:22:31.000Z</time>
      </trkpt>
      <trkpt lat="34.04373" lon="-4.99684">
        <ele>433</ele>
        <time>2023-08-25T17:22:34.000Z</time>
      </trkpt>
      <trkpt lat="34.0436" lon="-4.99682">
        <ele>433.1</ele>
        <time>2023-08-25T17:22:37.000Z</time>
      </trkpt>
      <trkpt lat="34.04337" lon="-4.99678">
        <ele>439.4</ele>
        <time>2023-08-25T17:22:41.000Z</time>
      </trkpt>
      <trkpt lat="34.04314" lon="-4.99677">
        <ele>434.6</ele>
        <time>2023-08-25T17:22:45.000Z</time>
      </trkpt>
      <trkpt lat="34.04287" lon="-4.99678">
        <ele>434.7</ele>
        <time>2023-08-25T17:22:49.000Z</time>
      </trkpt>
      <trkpt lat="34.04267" lon="-4.99678">
        <ele>435.5</ele>
        <time>2023-08-25T17:22:52.000Z</time>
      </trkpt>
      <trkpt lat="34.04248" lon="-4.99675">
        <ele>435</ele>
        <time>2023-08-25T17:22:56.000Z</time>
      </trkpt>
      <trkpt lat="34.04235" lon="-4.99676">
        <ele>435.6</ele>
        <time>2023-08-25T17:22:59.000Z</time>
      </trkpt>
      <trkpt lat="34.04216" lon="-4.99672">
        <ele>439.4</ele>
        <time>2023-08-25T17:23:03.000Z</time>
      </trkpt>
      <trkpt lat="34.04199" lon="-4.99668">
        <ele>436.5</ele>
        <time>2023-08-25T17:23:07.000Z</time>
      </trkpt>
      <trkpt lat="34.0418" lon="-4.9967">
        <ele>436.5</ele>
        <time>2023-08-25T17:23:10.000Z</time>
      </trkpt>
      <trkpt lat="34.04154" lon="-4.9967">
        <ele>436.8</ele>
        <time>2023-08-25T17:23:14.000Z</time>
      </trkpt>
      <trkpt lat="34.04137" lon="-4.99669">
        <ele>436.8</ele>
        <time>2023-08-25T17:23:17.000Z</time>
      </trkpt>
      <trkpt lat="34.04121" lon="-4.9967">
        <ele>436.8</ele>
        <time>2023-08-25T17:23:20.000Z</time>
      </trkpt>
      <trkpt lat="34.04101" lon="-4.99665">
        <ele>436.8</ele>
        <time>2023-08-25T17:23:24.000Z</time>
      </trkpt>
      <trkpt lat="34.04087" lon="-4.99662">
        <ele>436.8</ele>
        <time>2023-08-25T17:23:28.000Z</time>
      </trkpt>
      <trkpt lat="34.04065" lon="-4.99664">
        <ele>436.8</ele>
        <time>2023-08-25T17:23:32.000Z</time>
      </trkpt>
      <trkpt lat="34.04048" lon="-4.99662">
        <ele>436.8</ele>
        <time>2023-08-25T17:23:36.000Z</time>
      </trkpt>
      <trkpt lat="34.04033" lon="-4.99669">
        <ele>436.8</ele>
        <time>2023-08-25T17:23:39.000Z</time>
      </trkpt>
      <trkpt lat="34.04007" lon="-4.99672">
        <ele>436.8</ele>
        <time>2023-08-25T17:23:43.000Z</time>
      </trkpt>
      <trkpt lat="34.03987" lon="-4.99676">
        <ele>436.8</ele>
        <time>2023-08-25T17:23:47.000Z</time>
      </trkpt>
      <trkpt lat="34.03967" lon="-4.99685">
        <ele>436.8</ele>
        <time>2023-08-25T17:23:51.000Z</time>
      </trkpt>
      <trkpt lat="34.03954" lon="-4.99691">
        <ele>436.8</ele>
        <time>2023-08-25T17:23:54.000Z</time>
      </trkpt>
      <trkpt lat="34.03939" lon="-4.99704">
        <ele>436.8</ele>
        <time>2023-08-25T17:23:58.000Z</time>
      </trkpt>
      <trkpt lat="34.03931" lon="-4.99731">
        <ele>436.8</ele>
        <time>2023-08-25T17:24:02.000Z</time>
      </trkpt>
      <trkpt lat="34.03924" lon="-4.99747">
        <ele>436.8</ele>
        <time>2023-08-25T17:24:05.000Z</time>
      </trkpt>
      <trkpt lat="34.03909" lon="-4.99751">
        <ele>436.8</ele>
        <time>2023-08-25T17:24:09.000Z</time>
      </trkpt>
      <trkpt lat="34.03901" lon="-4.99749">
        <ele>436.8</ele>
        <time>2023-08-25T17:24:12.000Z</time>
      </trkpt>
      <trkpt lat="34.03899" lon="-4.99747">
        <ele>438.6</ele>
        <time>2023-08-25T17:24:33.000Z</time>
      </trkpt>
      <trkpt lat="34.03894" lon="-4.99751">
        <ele>438.6</ele>
        <time>2023-08-25T17:24:37.000Z</time>
      </trkpt>
      <trkpt lat="34.03894" lon="-4.99748">
        <ele>438.6</ele>
        <time>2023-08-25T17:25:24.000Z</time>
      </trkpt>
      <trkpt lat="34.03883" lon="-4.99746">
        <ele>438.6</ele>
        <time>2023-08-25T17:25:27.000Z</time>
      </trkpt>
      <trkpt lat="34.03865" lon="-4.99752">
        <ele>438.6</ele>
        <time>2023-08-25T17:25:31.000Z</time>
      </trkpt>
      <trkpt lat="34.0385" lon="-4.9976">
        <ele>438.6</ele>
        <time>2023-08-25T17:25:35.000Z</time>
      </trkpt>
      <trkpt lat="34.03843" lon="-4.99768">
        <ele>438.6</ele>
        <time>2023-08-25T17:25:39.000Z</time>
      </trkpt>
      <trkpt lat="34.03841" lon="-4.9977">
        <ele>438.6</ele>
        <time>2023-08-25T17:25:43.000Z</time>
      </trkpt>
      <trkpt lat="34.03835" lon="-4.99774">
        <ele>439.5</ele>
        <time>2023-08-25T17:25:46.000Z</time>
      </trkpt>
      <trkpt lat="34.03815" lon="-4.99783">
        <ele>439.5</ele>
        <time>2023-08-25T17:25:50.000Z</time>
      </trkpt>
      <trkpt lat="34.03797" lon="-4.99793">
        <ele>440</ele>
        <time>2023-08-25T17:25:54.000Z</time>
      </trkpt>
      <trkpt lat="34.03791" lon="-4.99801">
        <ele>439.8</ele>
        <time>2023-08-25T17:25:57.000Z</time>
      </trkpt>
      <trkpt lat="34.03784" lon="-4.99811">
        <ele>440.1</ele>
        <time>2023-08-25T17:26:01.000Z</time>
      </trkpt>
      <trkpt lat="34.03773" lon="-4.99809">
        <ele>440.1</ele>
        <time>2023-08-25T17:26:04.000Z</time>
      </trkpt>
      <trkpt lat="34.0376" lon="-4.99801">
        <ele>440.2</ele>
        <time>2023-08-25T17:26:07.000Z</time>
      </trkpt>
      <trkpt lat="34.03739" lon="-4.99795">
        <ele>440</ele>
        <time>2023-08-25T17:26:11.000Z</time>
      </trkpt>
      <trkpt lat="34.03721" lon="-4.99793">
        <ele>440</ele>
        <time>2023-08-25T17:26:14.000Z</time>
      </trkpt>
      <trkpt lat="34.03706" lon="-4.99788">
        <ele>440</ele>
        <time>2023-08-25T17:26:18.000Z</time>
      </trkpt>
      <trkpt lat="34.03698" lon="-4.99787">
        <ele>441.2</ele>
        <time>2023-08-25T17:26:21.000Z</time>
      </trkpt>
      <trkpt lat="34.03702" lon="-4.99782">
        <ele>441.3</ele>
        <time>2023-08-25T17:26:37.000Z</time>
      </trkpt>
      <trkpt lat="34.03706" lon="-4.99786">
        <ele>441.3</ele>
        <time>2023-08-25T17:26:41.000Z</time>
      </trkpt>
      <trkpt lat="34.03708" lon="-4.99788">
        <ele>441.3</ele>
        <time>2023-08-25T17:26:45.000Z</time>
      </trkpt>
      <trkpt lat="34.03707" lon="-4.99792">
        <ele>441.3</ele>
        <time>2023-08-25T17:26:48.000Z</time>
      </trkpt>
      <trkpt lat="34.03701" lon="-4.99785">
        <ele>441.3</ele>
        <time>2023-08-25T17:26:52.000Z</time>
      </trkpt>
      <trkpt lat="34.03696" lon="-4.99783">
        <ele>441.3</ele>
        <time>2023-08-25T17:26:55.000Z</time>
      </trkpt>
      <trkpt lat="34.03704" lon="-4.99807">
        <ele>441.3</ele>
        <time>2023-08-25T17:28:26.000Z</time>
      </trkpt>
      <trkpt lat="34.037" lon="-4.99814">
        <ele>441.3</ele>
        <time>2023-08-25T17:28:40.000Z</time>
      </trkpt>
      <trkpt lat="34.03703" lon="-4.99809">
        <ele>441.3</ele>
        <time>2023-08-25T17:28:45.000Z</time>
      </trkpt>
      <trkpt lat="34.03694" lon="-4.99833">
        <ele>441.9</ele>
        <time>2023-08-25T17:28:50.000Z</time>
      </trkpt>
      <trkpt lat="34.03702" lon="-4.9981">
        <ele>439.3</ele>
        <time>2023-08-25T17:28:55.000Z</time>
      </trkpt>
      <trkpt lat="34.037" lon="-4.99815">
        <ele>441.3</ele>
        <time>2023-08-25T17:29:06.000Z</time>
      </trkpt>
      <trkpt lat="34.03704" lon="-4.99807">
        <ele>441.3</ele>
        <time>2023-08-25T17:29:11.000Z</time>
      </trkpt>
      <trkpt lat="34.03707" lon="-4.99809">
        <ele>441.3</ele>
        <time>2023-08-25T17:29:34.000Z</time>
      </trkpt>
      <trkpt lat="34.0371" lon="-4.99809">
        <ele>443.6</ele>
        <time>2023-08-25T17:29:37.000Z</time>
      </trkpt>
      <trkpt lat="34.03707" lon="-4.99804">
        <ele>444.8</ele>
        <time>2023-08-25T17:29:45.000Z</time>
      </trkpt>
      <trkpt lat="34.03709" lon="-4.99807">
        <ele>446.5</ele>
        <time>2023-08-25T17:29:53.000Z</time>
      </trkpt>
      <trkpt lat="34.03707" lon="-4.99803">
        <ele>447.9</ele>
        <time>2023-08-25T17:30:00.000Z</time>
      </trkpt>
      <trkpt lat="34.03704" lon="-4.99802">
        <ele>449.7</ele>
        <time>2023-08-25T17:30:03.000Z</time>
      </trkpt>
      <trkpt lat="34.03702" lon="-4.99804">
        <ele>449.1</ele>
        <time>2023-08-25T17:30:07.000Z</time>
      </trkpt>
      <trkpt lat="34.037" lon="-4.99809">
        <ele>448.4</ele>
        <time>2023-08-25T17:30:10.000Z</time>
      </trkpt>
      <trkpt lat="34.037" lon="-4.99808">
        <ele>441.6</ele>
        <time>2023-08-25T17:32:03.000Z</time>
      </trkpt>
      <trkpt lat="34.03698" lon="-4.99808">
        <ele>441.6</ele>
        <time>2023-08-25T17:32:06.000Z</time>
      </trkpt>
      <trkpt lat="34.03692" lon="-4.99812">
        <ele>441.6</ele>
        <time>2023-08-25T17:32:10.000Z</time>
      </trkpt>
      <trkpt lat="34.03691" lon="-4.99812">
        <ele>441.3</ele>
        <time>2023-08-25T17:32:13.000Z</time>
      </trkpt>
      <trkpt lat="34.0369" lon="-4.99808">
        <ele>441.6</ele>
        <time>2023-08-25T17:32:16.000Z</time>
      </trkpt>
      <trkpt lat="34.03689" lon="-4.99806">
        <ele>441.6</ele>
        <time>2023-08-25T17:32:20.000Z</time>
      </trkpt>
      <trkpt lat="34.03702" lon="-4.9978">
        <ele>441.3</ele>
        <time>2023-08-25T17:33:19.000Z</time>
      </trkpt>
      <trkpt lat="34.037" lon="-4.9978">
        <ele>443.5</ele>
        <time>2023-08-25T17:33:22.000Z</time>
      </trkpt>
      <trkpt lat="34.03677" lon="-4.99772">
        <ele>441.3</ele>
        <time>2023-08-25T17:33:26.000Z</time>
      </trkpt>
      <trkpt lat="34.03661" lon="-4.9977">
        <ele>442.4</ele>
        <time>2023-08-25T17:33:29.000Z</time>
      </trkpt>
      <trkpt lat="34.03645" lon="-4.99769">
        <ele>442.4</ele>
        <time>2023-08-25T17:33:32.000Z</time>
      </trkpt>
      <trkpt lat="34.03625" lon="-4.99765">
        <ele>442.4</ele>
        <time>2023-08-25T17:33:36.000Z</time>
      </trkpt>
      <trkpt lat="34.03609" lon="-4.99764">
        <ele>442.4</ele>
        <time>2023-08-25T17:33:39.000Z</time>
      </trkpt>
      <trkpt lat="34.0359" lon="-4.99765">
        <ele>442.4</ele>
        <time>2023-08-25T17:33:43.000Z</time>
      </trkpt>
      <trkpt lat="34.03574" lon="-4.99764">
        <ele>442.4</ele>
        <time>2023-08-25T17:33:46.000Z</time>
      </trkpt>
      <trkpt lat="34.03556" lon="-4.99764">
        <ele>442.4</ele>
        <time>2023-08-25T17:33:49.000Z</time>
      </trkpt>
      <trkpt lat="34.03537" lon="-4.99763">
        <ele>442.4</ele>
        <time>2023-08-25T17:33:52.000Z</time>
      </trkpt>
      <trkpt lat="34.03517" lon="-4.99762">
        <ele>442.4</ele>
        <time>2023-08-25T17:33:55.000Z</time>
      </trkpt>
      <trkpt lat="34.03497" lon="-4.9976">
        <ele>442.4</ele>
        <time>2023-08-25T17:33:58.000Z</time>
      </trkpt>
      <trkpt lat="34.03483" lon="-4.99756">
        <ele>442.4</ele>
        <time>2023-08-25T17:34:01.000Z</time>
      </trkpt>
      <trkpt lat="34.03466" lon="-4.99756">
        <ele>442.4</ele>
        <time>2023-08-25T17:34:04.000Z</time>
      </trkpt>
      <trkpt lat="34.03452" lon="-4.99756">
        <ele>442.4</ele>
        <time>2023-08-25T17:34:08.000Z</time>
      </trkpt>
      <trkpt lat="34.0345" lon="-4.99755">
        <ele>442.4</ele>
        <time>2023-08-25T17:34:12.000Z</time>
      </trkpt>
      <trkpt lat="34.03454" lon="-4.99762">
        <ele>441.1</ele>
        <time>2023-08-25T17:35:36.000Z</time>
      </trkpt>
      <trkpt lat="34.03442" lon="-4.99762">
        <ele>444.6</ele>
        <time>2023-08-25T17:35:40.000Z</time>
      </trkpt>
      <trkpt lat="34.03427" lon="-4.99758">
        <ele>444.5</ele>
        <time>2023-08-25T17:35:43.000Z</time>
      </trkpt>
      <trkpt lat="34.03414" lon="-4.99754">
        <ele>443.6</ele>
        <time>2023-08-25T17:35:46.000Z</time>
      </trkpt>
      <trkpt lat="34.03401" lon="-4.99742">
        <ele>443.9</ele>
        <time>2023-08-25T17:35:50.000Z</time>
      </trkpt>
      <trkpt lat="34.03398" lon="-4.99729">
        <ele>443.9</ele>
        <time>2023-08-25T17:35:53.000Z</time>
      </trkpt>
      <trkpt lat="34.03391" lon="-4.99714">
        <ele>443.5</ele>
        <time>2023-08-25T17:35:56.000Z</time>
      </trkpt>
      <trkpt lat="34.03384" lon="-4.99698">
        <ele>442.8</ele>
        <time>2023-08-25T17:36:00.000Z</time>
      </trkpt>
      <trkpt lat="34.03376" lon="-4.99687">
        <ele>443.2</ele>
        <time>2023-08-25T17:36:03.000Z</time>
      </trkpt>
      <trkpt lat="34.03369" lon="-4.99671">
        <ele>443</ele>
        <time>2023-08-25T17:36:06.000Z</time>
      </trkpt>
      <trkpt lat="34.03358" lon="-4.99648">
        <ele>442.6</ele>
        <time>2023-08-25T17:36:10.000Z</time>
      </trkpt>
      <trkpt lat="34.03348" lon="-4.99632">
        <ele>442.5</ele>
        <time>2023-08-25T17:36:13.000Z</time>
      </trkpt>
      <trkpt lat="34.03338" lon="-4.99607">
        <ele>441.7</ele>
        <time>2023-08-25T17:36:17.000Z</time>
      </trkpt>
      <trkpt lat="34.03327" lon="-4.9959">
        <ele>441.5</ele>
        <time>2023-08-25T17:36:20.000Z</time>
      </trkpt>
      <trkpt lat="34.03312" lon="-4.99566">
        <ele>441.4</ele>
        <time>2023-08-25T17:36:24.000Z</time>
      </trkpt>
      <trkpt lat="34.03299" lon="-4.9955">
        <ele>441.7</ele>
        <time>2023-08-25T17:36:27.000Z</time>
      </trkpt>
      <trkpt lat="34.03285" lon="-4.9953">
        <ele>441.1</ele>
        <time>2023-08-25T17:36:31.000Z</time>
      </trkpt>
      <trkpt lat="34.03278" lon="-4.9952">
        <ele>441</ele>
        <time>2023-08-25T17:36:35.000Z</time>
      </trkpt>
      <trkpt lat="34.03262" lon="-4.99516">
        <ele>441.4</ele>
        <time>2023-08-25T17:36:39.000Z</time>
      </trkpt>
      <trkpt lat="34.03244" lon="-4.99514">
        <ele>441.5</ele>
        <time>2023-08-25T17:36:43.000Z</time>
      </trkpt>
      <trkpt lat="34.03226" lon="-4.9951">
        <ele>442.1</ele>
        <time>2023-08-25T17:36:47.000Z</time>
      </trkpt>
      <trkpt lat="34.03216" lon="-4.99505">
        <ele>442.8</ele>
        <time>2023-08-25T17:36:50.000Z</time>
      </trkpt>
      <trkpt lat="34.03212" lon="-4.99496">
        <ele>442.7</ele>
        <time>2023-08-25T17:36:53.000Z</time>
      </trkpt>
      <trkpt lat="34.03211" lon="-4.9949">
        <ele>442.8</ele>
        <time>2023-08-25T17:36:59.000Z</time>
      </trkpt>
      <trkpt lat="34.03208" lon="-4.9948">
        <ele>442.9</ele>
        <time>2023-08-25T17:37:02.000Z</time>
      </trkpt>
      <trkpt lat="34.03207" lon="-4.99466">
        <ele>442.9</ele>
        <time>2023-08-25T17:37:06.000Z</time>
      </trkpt>
      <trkpt lat="34.03206" lon="-4.99458">
        <ele>443.2</ele>
        <time>2023-08-25T17:37:09.000Z</time>
      </trkpt>
      <trkpt lat="34.03203" lon="-4.99446">
        <ele>445.6</ele>
        <time>2023-08-25T17:37:12.000Z</time>
      </trkpt>
      <trkpt lat="34.03194" lon="-4.99429">
        <ele>445.6</ele>
        <time>2023-08-25T17:37:16.000Z</time>
      </trkpt>
      <trkpt lat="34.03184" lon="-4.99416">
        <ele>445.6</ele>
        <time>2023-08-25T17:37:20.000Z</time>
      </trkpt>
      <trkpt lat="34.03176" lon="-4.99408">
        <ele>445.6</ele>
        <time>2023-08-25T17:37:23.000Z</time>
      </trkpt>
      <trkpt lat="34.03168" lon="-4.994">
        <ele>445.6</ele>
        <time>2023-08-25T17:37:26.000Z</time>
      </trkpt>
      <trkpt lat="34.03159" lon="-4.99388">
        <ele>445.6</ele>
        <time>2023-08-25T17:37:30.000Z</time>
      </trkpt>
      <trkpt lat="34.03143" lon="-4.99385">
        <ele>445.6</ele>
        <time>2023-08-25T17:37:34.000Z</time>
      </trkpt>
      <trkpt lat="34.0313" lon="-4.99375">
        <ele>445.6</ele>
        <time>2023-08-25T17:37:38.000Z</time>
      </trkpt>
      <trkpt lat="34.0312" lon="-4.99366">
        <ele>445.6</ele>
        <time>2023-08-25T17:37:41.000Z</time>
      </trkpt>
      <trkpt lat="34.03102" lon="-4.99355">
        <ele>445.6</ele>
        <time>2023-08-25T17:37:45.000Z</time>
      </trkpt>
      <trkpt lat="34.03087" lon="-4.99347">
        <ele>445.6</ele>
        <time>2023-08-25T17:37:48.000Z</time>
      </trkpt>
      <trkpt lat="34.03068" lon="-4.99336">
        <ele>445.6</ele>
        <time>2023-08-25T17:37:52.000Z</time>
      </trkpt>
      <trkpt lat="34.03056" lon="-4.9933">
        <ele>445.6</ele>
        <time>2023-08-25T17:37:55.000Z</time>
      </trkpt>
      <trkpt lat="34.0304" lon="-4.99321">
        <ele>445.6</ele>
        <time>2023-08-25T17:37:59.000Z</time>
      </trkpt>
      <trkpt lat="34.03025" lon="-4.9931">
        <ele>445.6</ele>
        <time>2023-08-25T17:38:02.000Z</time>
      </trkpt>
      <trkpt lat="34.03009" lon="-4.99297">
        <ele>445.6</ele>
        <time>2023-08-25T17:38:06.000Z</time>
      </trkpt>
      <trkpt lat="34.02993" lon="-4.99286">
        <ele>445.6</ele>
        <time>2023-08-25T17:38:10.000Z</time>
      </trkpt>
      <trkpt lat="34.0298" lon="-4.99281">
        <ele>445.6</ele>
        <time>2023-08-25T17:38:13.000Z</time>
      </trkpt>
      <trkpt lat="34.02962" lon="-4.9927">
        <ele>445.6</ele>
        <time>2023-08-25T17:38:17.000Z</time>
      </trkpt>
      <trkpt lat="34.02951" lon="-4.99264">
        <ele>445.6</ele>
        <time>2023-08-25T17:38:20.000Z</time>
      </trkpt>
      <trkpt lat="34.02932" lon="-4.99258">
        <ele>445.6</ele>
        <time>2023-08-25T17:38:24.000Z</time>
      </trkpt>
      <trkpt lat="34.02924" lon="-4.99255">
        <ele>445.6</ele>
        <time>2023-08-25T17:38:27.000Z</time>
      </trkpt>
      <trkpt lat="34.02918" lon="-4.99252">
        <ele>445.6</ele>
        <time>2023-08-25T17:38:31.000Z</time>
      </trkpt>
      <trkpt lat="34.02923" lon="-4.99245">
        <ele>445.6</ele>
        <time>2023-08-25T17:39:04.000Z</time>
      </trkpt>
      <trkpt lat="34.02914" lon="-4.99239">
        <ele>445.6</ele>
        <time>2023-08-25T17:39:07.000Z</time>
      </trkpt>
      <trkpt lat="34.02896" lon="-4.99233">
        <ele>445.9</ele>
        <time>2023-08-25T17:39:11.000Z</time>
      </trkpt>
      <trkpt lat="34.02877" lon="-4.99224">
        <ele>446.1</ele>
        <time>2023-08-25T17:39:15.000Z</time>
      </trkpt>
      <trkpt lat="34.02861" lon="-4.99219">
        <ele>446.7</ele>
        <time>2023-08-25T17:39:19.000Z</time>
      </trkpt>
      <trkpt lat="34.02849" lon="-4.99217">
        <ele>446.6</ele>
        <time>2023-08-25T17:39:22.000Z</time>
      </trkpt>
      <trkpt lat="34.02837" lon="-4.99212">
        <ele>447.3</ele>
        <time>2023-08-25T17:39:26.000Z</time>
      </trkpt>
      <trkpt lat="34.02825" lon="-4.99202">
        <ele>447.4</ele>
        <time>2023-08-25T17:39:30.000Z</time>
      </trkpt>
      <trkpt lat="34.02812" lon="-4.99194">
        <ele>446.6</ele>
        <time>2023-08-25T17:39:34.000Z</time>
      </trkpt>
      <trkpt lat="34.02801" lon="-4.9919">
        <ele>446.9</ele>
        <time>2023-08-25T17:39:37.000Z</time>
      </trkpt>
      <trkpt lat="34.02798" lon="-4.99189">
        <ele>446.9</ele>
        <time>2023-08-25T17:39:58.000Z</time>
      </trkpt>
      <trkpt lat="34.02796" lon="-4.99185">
        <ele>447.1</ele>
        <time>2023-08-25T17:40:01.000Z</time>
      </trkpt>
      <trkpt lat="34.02782" lon="-4.99176">
        <ele>447.3</ele>
        <time>2023-08-25T17:40:05.000Z</time>
      </trkpt>
      <trkpt lat="34.02766" lon="-4.99168">
        <ele>447.4</ele>
        <time>2023-08-25T17:40:08.000Z</time>
      </trkpt>
      <trkpt lat="34.02747" lon="-4.99157">
        <ele>447</ele>
        <time>2023-08-25T17:40:12.000Z</time>
      </trkpt>
      <trkpt lat="34.02728" lon="-4.99146">
        <ele>447.6</ele>
        <time>2023-08-25T17:40:16.000Z</time>
      </trkpt>
      <trkpt lat="34.02711" lon="-4.99136">
        <ele>447.4</ele>
        <time>2023-08-25T17:40:20.000Z</time>
      </trkpt>
      <trkpt lat="34.02697" lon="-4.99127">
        <ele>447.1</ele>
        <time>2023-08-25T17:40:24.000Z</time>
      </trkpt>
      <trkpt lat="34.02685" lon="-4.9912">
        <ele>447.3</ele>
        <time>2023-08-25T17:40:27.000Z</time>
      </trkpt>
      <trkpt lat="34.02669" lon="-4.9911">
        <ele>447.4</ele>
        <time>2023-08-25T17:40:31.000Z</time>
      </trkpt>
      <trkpt lat="34.02656" lon="-4.99101">
        <ele>447.1</ele>
        <time>2023-08-25T17:40:34.000Z</time>
      </trkpt>
      <trkpt lat="34.02636" lon="-4.99088">
        <ele>447</ele>
        <time>2023-08-25T17:40:38.000Z</time>
      </trkpt>
      <trkpt lat="34.02619" lon="-4.99077">
        <ele>446.9</ele>
        <time>2023-08-25T17:40:42.000Z</time>
      </trkpt>
      <trkpt lat="34.02598" lon="-4.99064">
        <ele>447.1</ele>
        <time>2023-08-25T17:40:46.000Z</time>
      </trkpt>
      <trkpt lat="34.02581" lon="-4.99055">
        <ele>446.9</ele>
        <time>2023-08-25T17:40:49.000Z</time>
      </trkpt>
      <trkpt lat="34.0256" lon="-4.99043">
        <ele>447.3</ele>
        <time>2023-08-25T17:40:53.000Z</time>
      </trkpt>
      <trkpt lat="34.02544" lon="-4.99035">
        <ele>447</ele>
        <time>2023-08-25T17:40:56.000Z</time>
      </trkpt>
      <trkpt lat="34.02526" lon="-4.99024">
        <ele>447</ele>
        <time>2023-08-25T17:41:00.000Z</time>
      </trkpt>
      <trkpt lat="34.02508" lon="-4.99015">
        <ele>447.2</ele>
        <time>2023-08-25T17:41:04.000Z</time>
      </trkpt>
      <trkpt lat="34.0249" lon="-4.99004">
        <ele>447.5</ele>
        <time>2023-08-25T17:41:08.000Z</time>
      </trkpt>
      <trkpt lat="34.02477" lon="-4.98993">
        <ele>447.5</ele>
        <time>2023-08-25T17:41:12.000Z</time>
      </trkpt>
      <trkpt lat="34.02462" lon="-4.98987">
        <ele>447.5</ele>
        <time>2023-08-25T17:41:15.000Z</time>
      </trkpt>
      <trkpt lat="34.02444" lon="-4.98977">
        <ele>447.6</ele>
        <time>2023-08-25T17:41:19.000Z</time>
      </trkpt>
      <trkpt lat="34.02433" lon="-4.98972">
        <ele>448.1</ele>
        <time>2023-08-25T17:41:22.000Z</time>
      </trkpt>
      <trkpt lat="34.0242" lon="-4.98966">
        <ele>447.7</ele>
        <time>2023-08-25T17:41:26.000Z</time>
      </trkpt>
      <trkpt lat="34.02405" lon="-4.98957">
        <ele>448.1</ele>
        <time>2023-08-25T17:41:29.000Z</time>
      </trkpt>
      <trkpt lat="34.02389" lon="-4.98948">
        <ele>447.8</ele>
        <time>2023-08-25T17:41:32.000Z</time>
      </trkpt>
      <trkpt lat="34.02369" lon="-4.98937">
        <ele>448.7</ele>
        <time>2023-08-25T17:41:36.000Z</time>
      </trkpt>
      <trkpt lat="34.02355" lon="-4.98929">
        <ele>452.1</ele>
        <time>2023-08-25T17:41:39.000Z</time>
      </trkpt>
      <trkpt lat="34.02337" lon="-4.98916">
        <ele>449.2</ele>
        <time>2023-08-25T17:41:43.000Z</time>
      </trkpt>
      <trkpt lat="34.02322" lon="-4.98906">
        <ele>449.5</ele>
        <time>2023-08-25T17:41:47.000Z</time>
      </trkpt>
      <trkpt lat="34.02307" lon="-4.98895">
        <ele>449.9</ele>
        <time>2023-08-25T17:41:51.000Z</time>
      </trkpt>
      <trkpt lat="34.02295" lon="-4.98887">
        <ele>450.4</ele>
        <time>2023-08-25T17:41:55.000Z</time>
      </trkpt>
      <trkpt lat="34.02284" lon="-4.98881">
        <ele>450.2</ele>
        <time>2023-08-25T17:41:58.000Z</time>
      </trkpt>
      <trkpt lat="34.02266" lon="-4.98875">
        <ele>454.6</ele>
        <time>2023-08-25T17:42:02.000Z</time>
      </trkpt>
      <trkpt lat="34.0225" lon="-4.9887">
        <ele>454.6</ele>
        <time>2023-08-25T17:42:05.000Z</time>
      </trkpt>
      <trkpt lat="34.02234" lon="-4.98858">
        <ele>451.7</ele>
        <time>2023-08-25T17:42:09.000Z</time>
      </trkpt>
      <trkpt lat="34.02222" lon="-4.9885">
        <ele>453.7</ele>
        <time>2023-08-25T17:42:12.000Z</time>
      </trkpt>
      <trkpt lat="34.02208" lon="-4.9884">
        <ele>452.8</ele>
        <time>2023-08-25T17:42:15.000Z</time>
      </trkpt>
      <trkpt lat="34.02189" lon="-4.98828">
        <ele>454.5</ele>
        <time>2023-08-25T17:42:19.000Z</time>
      </trkpt>
      <trkpt lat="34.02169" lon="-4.98817">
        <ele>454.6</ele>
        <time>2023-08-25T17:42:23.000Z</time>
      </trkpt>
      <trkpt lat="34.02148" lon="-4.98806">
        <ele>454.6</ele>
        <time>2023-08-25T17:42:27.000Z</time>
      </trkpt>
      <trkpt lat="34.02134" lon="-4.98799">
        <ele>457.3</ele>
        <time>2023-08-25T17:42:30.000Z</time>
      </trkpt>
      <trkpt lat="34.02116" lon="-4.98788">
        <ele>454.6</ele>
        <time>2023-08-25T17:42:34.000Z</time>
      </trkpt>
      <trkpt lat="34.02098" lon="-4.98777">
        <ele>454.6</ele>
        <time>2023-08-25T17:42:38.000Z</time>
      </trkpt>
      <trkpt lat="34.02078" lon="-4.98765">
        <ele>455.6</ele>
        <time>2023-08-25T17:42:42.000Z</time>
      </trkpt>
      <trkpt lat="34.02061" lon="-4.98754">
        <ele>457.3</ele>
        <time>2023-08-25T17:42:46.000Z</time>
      </trkpt>
      <trkpt lat="34.02045" lon="-4.98744">
        <ele>457.3</ele>
        <time>2023-08-25T17:42:50.000Z</time>
      </trkpt>
      <trkpt lat="34.02033" lon="-4.98738">
        <ele>457.3</ele>
        <time>2023-08-25T17:42:54.000Z</time>
      </trkpt>
      <trkpt lat="34.02027" lon="-4.98735">
        <ele>454.6</ele>
        <time>2023-08-25T17:42:58.000Z</time>
      </trkpt>
      <trkpt lat="34.02028" lon="-4.98736">
        <ele>457.3</ele>
        <time>2023-08-25T17:43:11.000Z</time>
      </trkpt>
      <trkpt lat="34.02016" lon="-4.98727">
        <ele>457.3</ele>
        <time>2023-08-25T17:43:15.000Z</time>
      </trkpt>
      <trkpt lat="34.02" lon="-4.98717">
        <ele>457.3</ele>
        <time>2023-08-25T17:43:18.000Z</time>
      </trkpt>
      <trkpt lat="34.0198" lon="-4.98705">
        <ele>457.3</ele>
        <time>2023-08-25T17:43:22.000Z</time>
      </trkpt>
      <trkpt lat="34.01965" lon="-4.98696">
        <ele>455.4</ele>
        <time>2023-08-25T17:43:26.000Z</time>
      </trkpt>
      <trkpt lat="34.01954" lon="-4.98693">
        <ele>457.3</ele>
        <time>2023-08-25T17:43:29.000Z</time>
      </trkpt>
      <trkpt lat="34.01937" lon="-4.98691">
        <ele>457.3</ele>
        <time>2023-08-25T17:43:33.000Z</time>
      </trkpt>
      <trkpt lat="34.01923" lon="-4.98687">
        <ele>457.3</ele>
        <time>2023-08-25T17:43:37.000Z</time>
      </trkpt>
      <trkpt lat="34.01916" lon="-4.98669">
        <ele>458.4</ele>
        <time>2023-08-25T17:43:41.000Z</time>
      </trkpt>
      <trkpt lat="34.01906" lon="-4.98652">
        <ele>458.6</ele>
        <time>2023-08-25T17:43:45.000Z</time>
      </trkpt>
      <trkpt lat="34.01891" lon="-4.9864">
        <ele>460.4</ele>
        <time>2023-08-25T17:43:49.000Z</time>
      </trkpt>
      <trkpt lat="34.01882" lon="-4.98634">
        <ele>460.5</ele>
        <time>2023-08-25T17:43:52.000Z</time>
      </trkpt>
      <trkpt lat="34.01867" lon="-4.98624">
        <ele>460.5</ele>
        <time>2023-08-25T17:43:56.000Z</time>
      </trkpt>
      <trkpt lat="34.01856" lon="-4.98617">
        <ele>461.5</ele>
        <time>2023-08-25T17:44:00.000Z</time>
      </trkpt>
      <trkpt lat="34.01845" lon="-4.98609">
        <ele>461.5</ele>
        <time>2023-08-25T17:44:03.000Z</time>
      </trkpt>
      <trkpt lat="34.01831" lon="-4.98598">
        <ele>461.5</ele>
        <time>2023-08-25T17:44:07.000Z</time>
      </trkpt>
      <trkpt lat="34.0182" lon="-4.98589">
        <ele>461.5</ele>
        <time>2023-08-25T17:44:11.000Z</time>
      </trkpt>
      <trkpt lat="34.01809" lon="-4.98581">
        <ele>461.5</ele>
        <time>2023-08-25T17:44:15.000Z</time>
      </trkpt>
      <trkpt lat="34.01797" lon="-4.98571">
        <ele>461.5</ele>
        <time>2023-08-25T17:44:19.000Z</time>
      </trkpt>
      <trkpt lat="34.01788" lon="-4.98562">
        <ele>461.5</ele>
        <time>2023-08-25T17:44:22.000Z</time>
      </trkpt>
      <trkpt lat="34.01773" lon="-4.9855">
        <ele>461.5</ele>
        <time>2023-08-25T17:44:25.000Z</time>
      </trkpt>
      <trkpt lat="34.01757" lon="-4.98539">
        <ele>461.5</ele>
        <time>2023-08-25T17:44:29.000Z</time>
      </trkpt>
      <trkpt lat="34.01738" lon="-4.98524">
        <ele>461.5</ele>
        <time>2023-08-25T17:44:33.000Z</time>
      </trkpt>
      <trkpt lat="34.0172" lon="-4.98509">
        <ele>464.5</ele>
        <time>2023-08-25T17:44:37.000Z</time>
      </trkpt>
      <trkpt lat="34.01706" lon="-4.98499">
        <ele>464.5</ele>
        <time>2023-08-25T17:44:40.000Z</time>
      </trkpt>
      <trkpt lat="34.01691" lon="-4.98488">
        <ele>464.5</ele>
        <time>2023-08-25T17:44:43.000Z</time>
      </trkpt>
      <trkpt lat="34.0167" lon="-4.9847">
        <ele>464.5</ele>
        <time>2023-08-25T17:44:47.000Z</time>
      </trkpt>
      <trkpt lat="34.01648" lon="-4.98454">
        <ele>464.5</ele>
        <time>2023-08-25T17:44:51.000Z</time>
      </trkpt>
      <trkpt lat="34.01627" lon="-4.98438">
        <ele>464.5</ele>
        <time>2023-08-25T17:44:55.000Z</time>
      </trkpt>
      <trkpt lat="34.01611" lon="-4.98426">
        <ele>464.5</ele>
        <time>2023-08-25T17:44:58.000Z</time>
      </trkpt>
      <trkpt lat="34.01595" lon="-4.98415">
        <ele>464.5</ele>
        <time>2023-08-25T17:45:01.000Z</time>
      </trkpt>
      <trkpt lat="34.01577" lon="-4.98402">
        <ele>466.4</ele>
        <time>2023-08-25T17:45:05.000Z</time>
      </trkpt>
      <trkpt lat="34.01564" lon="-4.98391">
        <ele>466.9</ele>
        <time>2023-08-25T17:45:09.000Z</time>
      </trkpt>
      <trkpt lat="34.01543" lon="-4.98375">
        <ele>468.3</ele>
        <time>2023-08-25T17:45:13.000Z</time>
      </trkpt>
      <trkpt lat="34.01529" lon="-4.98363">
        <ele>468.2</ele>
        <time>2023-08-25T17:45:16.000Z</time>
      </trkpt>
      <trkpt lat="34.0151" lon="-4.98348">
        <ele>468.8</ele>
        <time>2023-08-25T17:45:20.000Z</time>
      </trkpt>
      <trkpt lat="34.01497" lon="-4.98337">
        <ele>469.2</ele>
        <time>2023-08-25T17:45:23.000Z</time>
      </trkpt>
      <trkpt lat="34.01485" lon="-4.98327">
        <ele>470.8</ele>
        <time>2023-08-25T17:45:26.000Z</time>
      </trkpt>
      <trkpt lat="34.01467" lon="-4.98314">
        <ele>470.8</ele>
        <time>2023-08-25T17:45:30.000Z</time>
      </trkpt>
      <trkpt lat="34.01455" lon="-4.98306">
        <ele>470.8</ele>
        <time>2023-08-25T17:45:33.000Z</time>
      </trkpt>
      <trkpt lat="34.01444" lon="-4.983">
        <ele>470.8</ele>
        <time>2023-08-25T17:45:36.000Z</time>
      </trkpt>
      <trkpt lat="34.01437" lon="-4.98294">
        <ele>470.8</ele>
        <time>2023-08-25T17:45:40.000Z</time>
      </trkpt>
      <trkpt lat="34.01426" lon="-4.98285">
        <ele>470.8</ele>
        <time>2023-08-25T17:45:44.000Z</time>
      </trkpt>
      <trkpt lat="34.01419" lon="-4.98279">
        <ele>470.8</ele>
        <time>2023-08-25T17:45:47.000Z</time>
      </trkpt>
      <trkpt lat="34.01415" lon="-4.98277">
        <ele>470.8</ele>
        <time>2023-08-25T17:45:50.000Z</time>
      </trkpt>
      <trkpt lat="34.01408" lon="-4.98273">
        <ele>470.8</ele>
        <time>2023-08-25T17:45:54.000Z</time>
      </trkpt>
      <trkpt lat="34.01401" lon="-4.98269">
        <ele>470.8</ele>
        <time>2023-08-25T17:45:57.000Z</time>
      </trkpt>
      <trkpt lat="34.01397" lon="-4.98266">
        <ele>470.8</ele>
        <time>2023-08-25T17:46:01.000Z</time>
      </trkpt>
      <trkpt lat="34.01396" lon="-4.98263">
        <ele>471.6</ele>
        <time>2023-08-25T17:46:25.000Z</time>
      </trkpt>
      <trkpt lat="34.01388" lon="-4.98257">
        <ele>471.3</ele>
        <time>2023-08-25T17:46:28.000Z</time>
      </trkpt>
      <trkpt lat="34.01375" lon="-4.98244">
        <ele>471.6</ele>
        <time>2023-08-25T17:46:32.000Z</time>
      </trkpt>
      <trkpt lat="34.01364" lon="-4.98235">
        <ele>471.4</ele>
        <time>2023-08-25T17:46:36.000Z</time>
      </trkpt>
      <trkpt lat="34.01357" lon="-4.98232">
        <ele>472.1</ele>
        <time>2023-08-25T17:46:39.000Z</time>
      </trkpt>
      <trkpt lat="34.01353" lon="-4.98231">
        <ele>471.8</ele>
        <time>2023-08-25T17:46:43.000Z</time>
      </trkpt>
      <trkpt lat="34.0135" lon="-4.98228">
        <ele>472.5</ele>
        <time>2023-08-25T17:46:50.000Z</time>
      </trkpt>
      <trkpt lat="34.01345" lon="-4.98226">
        <ele>472.6</ele>
        <time>2023-08-25T17:46:56.000Z</time>
      </trkpt>
      <trkpt lat="34.01343" lon="-4.98227">
        <ele>471.8</ele>
        <time>2023-08-25T17:47:00.000Z</time>
      </trkpt>
      <trkpt lat="34.01341" lon="-4.98229">
        <ele>472.7</ele>
        <time>2023-08-25T17:47:05.000Z</time>
      </trkpt>
      <trkpt lat="34.01338" lon="-4.98228">
        <ele>475.3</ele>
        <time>2023-08-25T17:47:09.000Z</time>
      </trkpt>
      <trkpt lat="34.01334" lon="-4.98227">
        <ele>475.3</ele>
        <time>2023-08-25T17:47:12.000Z</time>
      </trkpt>
      <trkpt lat="34.01331" lon="-4.98224">
        <ele>475.3</ele>
        <time>2023-08-25T17:47:15.000Z</time>
      </trkpt>
      <trkpt lat="34.01328" lon="-4.98222">
        <ele>475.3</ele>
        <time>2023-08-25T17:47:18.000Z</time>
      </trkpt>
      <trkpt lat="34.0132" lon="-4.98231">
        <ele>477.7</ele>
        <time>2023-08-25T17:47:44.000Z</time>
      </trkpt>
      <trkpt lat="34.01318" lon="-4.98235">
        <ele>477.7</ele>
        <time>2023-08-25T17:47:49.000Z</time>
      </trkpt>
      <trkpt lat="34.01318" lon="-4.98236">
        <ele>477.7</ele>
        <time>2023-08-25T17:47:54.000Z</time>
      </trkpt>
      <trkpt lat="34.01321" lon="-4.98237">
        <ele>478.9</ele>
        <time>2023-08-25T17:48:33.000Z</time>
      </trkpt>
      <trkpt lat="34.01325" lon="-4.98239">
        <ele>479.4</ele>
        <time>2023-08-25T17:48:59.000Z</time>
      </trkpt>
      <trkpt lat="34.01324" lon="-4.98239">
        <ele>479.4</ele>
        <time>2023-08-25T17:49:34.000Z</time>
      </trkpt>
      <trkpt lat="34.01324" lon="-4.98244">
        <ele>479.4</ele>
        <time>2023-08-25T17:49:38.000Z</time>
      </trkpt>
      <trkpt lat="34.0132" lon="-4.98242">
        <ele>479.5</ele>
        <time>2023-08-25T17:49:44.000Z</time>
      </trkpt>
      <trkpt lat="34.01324" lon="-4.98244">
        <ele>481.7</ele>
        <time>2023-08-25T17:49:53.000Z</time>
      </trkpt>
      <trkpt lat="34.01333" lon="-4.98232">
        <ele>478.1</ele>
        <time>2023-08-25T17:51:36.000Z</time>
      </trkpt>
      <trkpt lat="34.01331" lon="-4.98235">
        <ele>478.1</ele>
        <time>2023-08-25T17:51:40.000Z</time>
      </trkpt>
      <trkpt lat="34.01335" lon="-4.98231">
        <ele>478.7</ele>
        <time>2023-08-25T17:53:04.000Z</time>
      </trkpt>
      <trkpt lat="34.01334" lon="-4.98227">
        <ele>478.1</ele>
        <time>2023-08-25T17:53:07.000Z</time>
      </trkpt>
      <trkpt lat="34.0133" lon="-4.98223">
        <ele>478.6</ele>
        <time>2023-08-25T17:53:10.000Z</time>
      </trkpt>
      <trkpt lat="34.01326" lon="-4.98222">
        <ele>479.5</ele>
        <time>2023-08-25T17:53:13.000Z</time>
      </trkpt>
      <trkpt lat="34.01321" lon="-4.9822">
        <ele>479.3</ele>
        <time>2023-08-25T17:53:17.000Z</time>
      </trkpt>
      <trkpt lat="34.01317" lon="-4.98218">
        <ele>479.3</ele>
        <time>2023-08-25T17:53:20.000Z</time>
      </trkpt>
      <trkpt lat="34.01309" lon="-4.98205">
        <ele>479.3</ele>
        <time>2023-08-25T18:01:11.000Z</time>
      </trkpt>
      <trkpt lat="34.01311" lon="-4.98204">
        <ele>479.7</ele>
        <time>2023-08-25T18:01:14.000Z</time>
      </trkpt>
      <trkpt lat="34.01321" lon="-4.98203">
        <ele>478.9</ele>
        <time>2023-08-25T18:01:26.000Z</time>
      </trkpt>
      <trkpt lat="34.01325" lon="-4.98205">
        <ele>478.9</ele>
        <time>2023-08-25T18:01:30.000Z</time>
      </trkpt>
      <trkpt lat="34.01319" lon="-4.98245">
        <ele>479.4</ele>
        <time>2023-08-25T18:02:42.000Z</time>
      </trkpt>
      <trkpt lat="34.01318" lon="-4.98249">
        <ele>479.4</ele>
        <time>2023-08-25T18:03:17.000Z</time>
      </trkpt>
      <trkpt lat="34.01321" lon="-4.98244">
        <ele>479.4</ele>
        <time>2023-08-25T18:03:22.000Z</time>
      </trkpt>
      <trkpt lat="34.01318" lon="-4.98249">
        <ele>479.4</ele>
        <time>2023-08-25T18:03:27.000Z</time>
      </trkpt>
      <trkpt lat="34.01323" lon="-4.98242">
        <ele>479.4</ele>
        <time>2023-08-25T18:03:32.000Z</time>
      </trkpt>
      <trkpt lat="34.01319" lon="-4.98247">
        <ele>479.4</ele>
        <time>2023-08-25T18:03:37.000Z</time>
      </trkpt>
      <trkpt lat="34.01328" lon="-4.98239">
        <ele>479.4</ele>
        <time>2023-08-25T18:03:42.000Z</time>
      </trkpt>
      <trkpt lat="34.0132" lon="-4.98239">
        <ele>479.5</ele>
        <time>2023-08-25T18:03:47.000Z</time>
      </trkpt>
      <trkpt lat="34.01319" lon="-4.98243">
        <ele>479.4</ele>
        <time>2023-08-25T18:03:52.000Z</time>
      </trkpt>
      <trkpt lat="34.01318" lon="-4.98248">
        <ele>479.4</ele>
        <time>2023-08-25T18:04:02.000Z</time>
      </trkpt>
      <trkpt lat="34.01318" lon="-4.98241">
        <ele>479.4</ele>
        <time>2023-08-25T18:04:07.000Z</time>
      </trkpt>
      <trkpt lat="34.01323" lon="-4.98238">
        <ele>479.4</ele>
        <time>2023-08-25T18:04:12.000Z</time>
      </trkpt>
      <trkpt lat="34.01319" lon="-4.98242">
        <ele>479.4</ele>
        <time>2023-08-25T18:04:22.000Z</time>
      </trkpt>
      <trkpt lat="34.0132" lon="-4.98236">
        <ele>479.5</ele>
        <time>2023-08-25T18:04:47.000Z</time>
      </trkpt>
      <trkpt lat="34.01323" lon="-4.98227">
        <ele>479.4</ele>
        <time>2023-08-25T18:04:54.000Z</time>
      </trkpt>
      <trkpt lat="34.01321" lon="-4.98224">
        <ele>479.4</ele>
        <time>2023-08-25T18:04:57.000Z</time>
      </trkpt>
      <trkpt lat="34.01317" lon="-4.98221">
        <ele>479.3</ele>
        <time>2023-08-25T18:05:01.000Z</time>
      </trkpt>
      <trkpt lat="34.01313" lon="-4.98219">
        <ele>478.5</ele>
        <time>2023-08-25T18:05:04.000Z</time>
      </trkpt>
      <trkpt lat="34.01309" lon="-4.98216">
        <ele>478.5</ele>
        <time>2023-08-25T18:05:07.000Z</time>
      </trkpt>
      <trkpt lat="34.01308" lon="-4.98213">
        <ele>479.3</ele>
        <time>2023-08-25T18:05:11.000Z</time>
      </trkpt>
      <trkpt lat="34.01308" lon="-4.98212">
        <ele>479.1</ele>
        <time>2023-08-25T18:05:43.000Z</time>
      </trkpt>
      <trkpt lat="34.01311" lon="-4.98212">
        <ele>479.1</ele>
        <time>2023-08-25T18:05:47.000Z</time>
      </trkpt>
      <trkpt lat="34.01314" lon="-4.9821">
        <ele>478.9</ele>
        <time>2023-08-25T18:05:50.000Z</time>
      </trkpt>
      <trkpt lat="34.01316" lon="-4.98209">
        <ele>478.9</ele>
        <time>2023-08-25T18:05:53.000Z</time>
      </trkpt>
      <trkpt lat="34.01322" lon="-4.98209">
        <ele>478.9</ele>
        <time>2023-08-25T18:05:56.000Z</time>
      </trkpt>
      <trkpt lat="34.01325" lon="-4.98211">
        <ele>477.5</ele>
        <time>2023-08-25T18:05:59.000Z</time>
      </trkpt>
      <trkpt lat="34.01325" lon="-4.98217">
        <ele>477.5</ele>
        <time>2023-08-25T18:06:02.000Z</time>
      </trkpt>
      <trkpt lat="34.01328" lon="-4.98219">
        <ele>479.3</ele>
        <time>2023-08-25T18:06:07.000Z</time>
      </trkpt>
      <trkpt lat="34.0133" lon="-4.98222">
        <ele>476.6</ele>
        <time>2023-08-25T18:06:11.000Z</time>
      </trkpt>
      <trkpt lat="34.01329" lon="-4.98226">
        <ele>478.9</ele>
        <time>2023-08-25T18:06:14.000Z</time>
      </trkpt>
      <trkpt lat="34.01327" lon="-4.98228">
        <ele>478.9</ele>
        <time>2023-08-25T18:06:17.000Z</time>
      </trkpt>
      <trkpt lat="34.01326" lon="-4.98233">
        <ele>479.4</ele>
        <time>2023-08-25T18:06:21.000Z</time>
      </trkpt>
      <trkpt lat="34.01325" lon="-4.98235">
        <ele>479.5</ele>
        <time>2023-08-25T18:06:25.000Z</time>
      </trkpt>
      <trkpt lat="34.01325" lon="-4.98236">
        <ele>479.4</ele>
        <time>2023-08-25T18:06:29.000Z</time>
      </trkpt>
      <trkpt lat="34.01325" lon="-4.98237">
        <ele>479.4</ele>
        <time>2023-08-25T18:06:32.000Z</time>
      </trkpt>
      <trkpt lat="34.01325" lon="-4.98239">
        <ele>479.5</ele>
        <time>2023-08-25T18:06:38.000Z</time>
      </trkpt>
      <trkpt lat="34.01324" lon="-4.98242">
        <ele>479.5</ele>
        <time>2023-08-25T18:06:43.000Z</time>
      </trkpt>
      <trkpt lat="34.01325" lon="-4.98239">
        <ele>479.5</ele>
        <time>2023-08-25T18:06:48.000Z</time>
      </trkpt>
      <trkpt lat="34.01326" lon="-4.98237">
        <ele>478.7</ele>
        <time>2023-08-25T18:07:33.000Z</time>
      </trkpt>
      <trkpt lat="34.01319" lon="-4.98244">
        <ele>479.5</ele>
        <time>2023-08-25T18:07:53.000Z</time>
      </trkpt>
      <trkpt lat="34.01323" lon="-4.98242">
        <ele>479.4</ele>
        <time>2023-08-25T18:08:03.000Z</time>
      </trkpt>
      <trkpt lat="34.01321" lon="-4.98242">
        <ele>478.7</ele>
        <time>2023-08-25T18:08:23.000Z</time>
      </trkpt>
      <trkpt lat="34.01326" lon="-4.98238">
        <ele>479.4</ele>
        <time>2023-08-25T18:08:33.000Z</time>
      </trkpt>
      <trkpt lat="34.01318" lon="-4.98238">
        <ele>477.5</ele>
        <time>2023-08-25T18:13:26.000Z</time>
      </trkpt>
      <trkpt lat="34.01327" lon="-4.9822">
        <ele>478.9</ele>
        <time>2023-08-25T18:14:02.000Z</time>
      </trkpt>
      <trkpt lat="34.01325" lon="-4.98221">
        <ele>478.9</ele>
        <time>2023-08-25T18:14:05.000Z</time>
      </trkpt>
      <trkpt lat="34.01325" lon="-4.98224">
        <ele>478.9</ele>
        <time>2023-08-25T18:14:08.000Z</time>
      </trkpt>
      <trkpt lat="34.01324" lon="-4.98221">
        <ele>478.6</ele>
        <time>2023-08-25T18:14:27.000Z</time>
      </trkpt>
      <trkpt lat="34.0132" lon="-4.98221">
        <ele>478.7</ele>
        <time>2023-08-25T18:14:31.000Z</time>
      </trkpt>
      <trkpt lat="34.01324" lon="-4.98219">
        <ele>479.3</ele>
        <time>2023-08-25T18:33:13.000Z</time>
      </trkpt>
      <trkpt lat="34.01323" lon="-4.98216">
        <ele>479.5</ele>
        <time>2023-08-25T18:33:16.000Z</time>
      </trkpt>
      <trkpt lat="34.01329" lon="-4.98215">
        <ele>479.7</ele>
        <time>2023-08-25T18:34:23.000Z</time>
      </trkpt>
      <trkpt lat="34.01341" lon="-4.98208">
        <ele>479.3</ele>
        <time>2023-08-25T18:34:32.000Z</time>
      </trkpt>
      <trkpt lat="34.01361" lon="-4.98186">
        <ele>477.7</ele>
        <time>2023-08-25T18:34:56.000Z</time>
      </trkpt>
      <trkpt lat="34.0137" lon="-4.98181">
        <ele>477.7</ele>
        <time>2023-08-25T18:35:15.000Z</time>
      </trkpt>
      <trkpt lat="34.01375" lon="-4.98187">
        <ele>477.7</ele>
        <time>2023-08-25T18:35:22.000Z</time>
      </trkpt>
      <trkpt lat="34.01384" lon="-4.98189">
        <ele>477.7</ele>
        <time>2023-08-25T18:35:32.000Z</time>
      </trkpt>
      <trkpt lat="34.01389" lon="-4.98189">
        <ele>477.7</ele>
        <time>2023-08-25T18:35:36.000Z</time>
      </trkpt>
      <trkpt lat="34.01394" lon="-4.9819">
        <ele>477.7</ele>
        <time>2023-08-25T18:35:39.000Z</time>
      </trkpt>
      <trkpt lat="34.01399" lon="-4.98193">
        <ele>477.7</ele>
        <time>2023-08-25T18:35:42.000Z</time>
      </trkpt>
      <trkpt lat="34.01402" lon="-4.98194">
        <ele>478.1</ele>
        <time>2023-08-25T18:35:46.000Z</time>
      </trkpt>
      <trkpt lat="34.01404" lon="-4.98194">
        <ele>478.1</ele>
        <time>2023-08-25T18:35:50.000Z</time>
      </trkpt>
      <trkpt lat="34.01408" lon="-4.98192">
        <ele>478.4</ele>
        <time>2023-08-25T18:35:53.000Z</time>
      </trkpt>
      <trkpt lat="34.01415" lon="-4.9819">
        <ele>478.2</ele>
        <time>2023-08-25T18:36:00.000Z</time>
      </trkpt>
      <trkpt lat="34.01419" lon="-4.98189">
        <ele>478.4</ele>
        <time>2023-08-25T18:36:03.000Z</time>
      </trkpt>
      <trkpt lat="34.01452" lon="-4.98174">
        <ele>478.2</ele>
        <time>2023-08-25T18:36:44.000Z</time>
      </trkpt>
      <trkpt lat="34.01457" lon="-4.98173">
        <ele>478.3</ele>
        <time>2023-08-25T18:36:48.000Z</time>
      </trkpt>
      <trkpt lat="34.0146" lon="-4.98173">
        <ele>478.3</ele>
        <time>2023-08-25T18:36:51.000Z</time>
      </trkpt>
      <trkpt lat="34.0149" lon="-4.98179">
        <ele>478.2</ele>
        <time>2023-08-25T18:37:17.000Z</time>
      </trkpt>
      <trkpt lat="34.01516" lon="-4.98184">
        <ele>478</ele>
        <time>2023-08-25T18:38:51.000Z</time>
      </trkpt>
      <trkpt lat="34.01517" lon="-4.98185">
        <ele>478</ele>
        <time>2023-08-25T18:39:18.000Z</time>
      </trkpt>
      <trkpt lat="34.015" lon="-4.98181">
        <ele>478.2</ele>
        <time>2023-08-25T18:39:29.000Z</time>
      </trkpt>
      <trkpt lat="34.01494" lon="-4.98178">
        <ele>478.2</ele>
        <time>2023-08-25T18:39:32.000Z</time>
      </trkpt>
      <trkpt lat="34.01487" lon="-4.98175">
        <ele>478.2</ele>
        <time>2023-08-25T18:39:36.000Z</time>
      </trkpt>
      <trkpt lat="34.01462" lon="-4.98168">
        <ele>478.4</ele>
        <time>2023-08-25T18:40:05.000Z</time>
      </trkpt>
      <trkpt lat="34.01457" lon="-4.98168">
        <ele>478.2</ele>
        <time>2023-08-25T18:40:08.000Z</time>
      </trkpt>
      <trkpt lat="34.01452" lon="-4.98168">
        <ele>478.2</ele>
        <time>2023-08-25T18:40:11.000Z</time>
      </trkpt>
      <trkpt lat="34.01435" lon="-4.9818">
        <ele>478.4</ele>
        <time>2023-08-25T18:40:50.000Z</time>
      </trkpt>
      <trkpt lat="34.01434" lon="-4.98182">
        <ele>478.2</ele>
        <time>2023-08-25T18:40:53.000Z</time>
      </trkpt>
      <trkpt lat="34.01431" lon="-4.98183">
        <ele>478.2</ele>
        <time>2023-08-25T18:40:57.000Z</time>
      </trkpt>
      <trkpt lat="34.01426" lon="-4.98184">
        <ele>478.1</ele>
        <time>2023-08-25T18:41:00.000Z</time>
      </trkpt>
      <trkpt lat="34.01423" lon="-4.98184">
        <ele>478.2</ele>
        <time>2023-08-25T18:41:04.000Z</time>
      </trkpt>
      <trkpt lat="34.01418" lon="-4.98184">
        <ele>478.7</ele>
        <time>2023-08-25T18:41:12.000Z</time>
      </trkpt>
      <trkpt lat="34.01416" lon="-4.98183">
        <ele>477.6</ele>
        <time>2023-08-25T18:41:15.000Z</time>
      </trkpt>
      <trkpt lat="34.01344" lon="-4.98216">
        <ele>478.9</ele>
        <time>2023-08-25T18:43:03.000Z</time>
      </trkpt>
      <trkpt lat="34.01339" lon="-4.98215">
        <ele>478.9</ele>
        <time>2023-08-25T18:43:06.000Z</time>
      </trkpt>
      <trkpt lat="34.01332" lon="-4.98219">
        <ele>479.4</ele>
        <time>2023-08-25T18:43:45.000Z</time>
      </trkpt>
      <trkpt lat="34.01326" lon="-4.98223">
        <ele>479.4</ele>
        <time>2023-08-25T18:43:55.000Z</time>
      </trkpt>
      <trkpt lat="34.01357" lon="-4.98146">
        <ele>479.5</ele>
        <time>2023-08-25T18:44:06.000Z</time>
      </trkpt>
      <trkpt lat="34.0137" lon="-4.98109">
        <ele>479.5</ele>
        <time>2023-08-25T18:44:11.000Z</time>
      </trkpt>
      <trkpt lat="34.01335" lon="-4.9821">
        <ele>479.5</ele>
        <time>2023-08-25T18:44:15.000Z</time>
      </trkpt>
      <trkpt lat="34.0133" lon="-4.9822">
        <ele>479.4</ele>
        <time>2023-08-25T18:44:20.000Z</time>
      </trkpt>
      <trkpt lat="34.01325" lon="-4.98229">
        <ele>482</ele>
        <time>2023-08-25T18:44:25.000Z</time>
      </trkpt>
      <trkpt lat="34.01323" lon="-4.98233">
        <ele>479.4</ele>
        <time>2023-08-25T18:44:29.000Z</time>
      </trkpt>
      <trkpt lat="34.01337" lon="-4.98232">
        <ele>479.4</ele>
        <time>2023-08-25T18:45:31.000Z</time>
      </trkpt>
      <trkpt lat="34.01333" lon="-4.9823">
        <ele>479.5</ele>
        <time>2023-08-25T18:45:46.000Z</time>
      </trkpt>
      <trkpt lat="34.01321" lon="-4.98234">
        <ele>479.5</ele>
        <time>2023-08-25T18:45:58.000Z</time>
      </trkpt>
      <trkpt lat="34.01318" lon="-4.98239">
        <ele>479.5</ele>
        <time>2023-08-25T18:46:07.000Z</time>
      </trkpt>
      <trkpt lat="34.01318" lon="-4.98241">
        <ele>479.4</ele>
        <time>2023-08-25T18:49:17.000Z</time>
      </trkpt>
      <trkpt lat="34.01323" lon="-4.98236">
        <ele>479.4</ele>
        <time>2023-08-25T18:56:18.000Z</time>
      </trkpt>
      <trkpt lat="34.01322" lon="-4.98242">
        <ele>479.4</ele>
        <time>2023-08-25T18:57:34.000Z</time>
      </trkpt>
      <trkpt lat="34.0133" lon="-4.98237">
        <ele>475.8</ele>
        <time>2023-08-25T18:59:34.000Z</time>
      </trkpt>
      <trkpt lat="34.01317" lon="-4.9824">
        <ele>481.6</ele>
        <time>2023-08-25T18:59:44.000Z</time>
      </trkpt>
      <trkpt lat="34.01318" lon="-4.98243">
        <ele>482.6</ele>
        <time>2023-08-25T18:59:59.000Z</time>
      </trkpt>
      <trkpt lat="34.01318" lon="-4.98242">
        <ele>484</ele>
        <time>2023-08-25T19:34:24.000Z</time>
      </trkpt>
      <trkpt lat="34.01319" lon="-4.98237">
        <ele>481.2</ele>
        <time>2023-08-25T19:34:29.000Z</time>
      </trkpt>
      <trkpt lat="34.01324" lon="-4.98238">
        <ele>475.7</ele>
        <time>2023-08-25T19:34:49.000Z</time>
      </trkpt>
      <trkpt lat="34.01327" lon="-4.98237">
        <ele>478.9</ele>
        <time>2023-08-25T19:34:54.000Z</time>
      </trkpt>
      <trkpt lat="34.01332" lon="-4.9823">
        <ele>476</ele>
        <time>2023-08-25T19:35:05.000Z</time>
      </trkpt>
      <trkpt lat="34.01333" lon="-4.98223">
        <ele>474.7</ele>
        <time>2023-08-25T19:35:15.000Z</time>
      </trkpt>
      <trkpt lat="34.01333" lon="-4.98219">
        <ele>474.5</ele>
        <time>2023-08-25T19:35:18.000Z</time>
      </trkpt>
      <trkpt lat="34.01334" lon="-4.98213">
        <ele>475</ele>
        <time>2023-08-25T19:35:21.000Z</time>
      </trkpt>
      <trkpt lat="34.01336" lon="-4.98208">
        <ele>476.3</ele>
        <time>2023-08-25T19:35:24.000Z</time>
      </trkpt>
      <trkpt lat="34.01338" lon="-4.98206">
        <ele>476.3</ele>
        <time>2023-08-25T19:35:28.000Z</time>
      </trkpt>
      <trkpt lat="34.01337" lon="-4.98203">
        <ele>476.3</ele>
        <time>2023-08-25T19:35:32.000Z</time>
      </trkpt>
      <trkpt lat="34.01337" lon="-4.98197">
        <ele>474.8</ele>
        <time>2023-08-25T19:35:35.000Z</time>
      </trkpt>
      <trkpt lat="34.01339" lon="-4.98192">
        <ele>474.8</ele>
        <time>2023-08-25T19:35:39.000Z</time>
      </trkpt>
      <trkpt lat="34.01341" lon="-4.9819">
        <ele>474.8</ele>
        <time>2023-08-25T19:35:42.000Z</time>
      </trkpt>
      <trkpt lat="34.0134" lon="-4.98187">
        <ele>475.3</ele>
        <time>2023-08-25T19:35:46.000Z</time>
      </trkpt>
      <trkpt lat="34.01342" lon="-4.98187">
        <ele>475.9</ele>
        <time>2023-08-25T19:35:50.000Z</time>
      </trkpt>
      <trkpt lat="34.01344" lon="-4.98186">
        <ele>475.1</ele>
        <time>2023-08-25T19:35:53.000Z</time>
      </trkpt>
      <trkpt lat="34.01347" lon="-4.98184">
        <ele>476</ele>
        <time>2023-08-25T19:35:56.000Z</time>
      </trkpt>
      <trkpt lat="34.01351" lon="-4.98184">
        <ele>476</ele>
        <time>2023-08-25T19:36:00.000Z</time>
      </trkpt>
      <trkpt lat="34.01355" lon="-4.98184">
        <ele>475.4</ele>
        <time>2023-08-25T19:36:07.000Z</time>
      </trkpt>
      <trkpt lat="34.0136" lon="-4.98175">
        <ele>476</ele>
        <time>2023-08-25T19:36:13.000Z</time>
      </trkpt>
      <trkpt lat="34.01364" lon="-4.98172">
        <ele>475.3</ele>
        <time>2023-08-25T19:36:16.000Z</time>
      </trkpt>
      <trkpt lat="34.01361" lon="-4.98175">
        <ele>474.6</ele>
        <time>2023-08-25T19:36:31.000Z</time>
      </trkpt>
      <trkpt lat="34.01363" lon="-4.98175">
        <ele>477.7</ele>
        <time>2023-08-25T19:36:35.000Z</time>
      </trkpt>
      <trkpt lat="34.01365" lon="-4.98174">
        <ele>477.8</ele>
        <time>2023-08-25T19:36:38.000Z</time>
      </trkpt>
      <trkpt lat="34.01367" lon="-4.98176">
        <ele>477.8</ele>
        <time>2023-08-25T19:36:41.000Z</time>
      </trkpt>
      <trkpt lat="34.01369" lon="-4.98179">
        <ele>477.5</ele>
        <time>2023-08-25T19:36:45.000Z</time>
      </trkpt>
      <trkpt lat="34.01372" lon="-4.9818">
        <ele>477.7</ele>
        <time>2023-08-25T19:36:49.000Z</time>
      </trkpt>
      <trkpt lat="34.01376" lon="-4.98178">
        <ele>477.7</ele>
        <time>2023-08-25T19:36:52.000Z</time>
      </trkpt>
      <trkpt lat="34.01381" lon="-4.98178">
        <ele>477.7</ele>
        <time>2023-08-25T19:36:56.000Z</time>
      </trkpt>
      <trkpt lat="34.01389" lon="-4.98178">
        <ele>477.7</ele>
        <time>2023-08-25T19:37:06.000Z</time>
      </trkpt>
      <trkpt lat="34.01393" lon="-4.98177">
        <ele>477.7</ele>
        <time>2023-08-25T19:37:10.000Z</time>
      </trkpt>
      <trkpt lat="34.01397" lon="-4.98177">
        <ele>477.7</ele>
        <time>2023-08-25T19:37:13.000Z</time>
      </trkpt>
      <trkpt lat="34.014" lon="-4.98178">
        <ele>477.7</ele>
        <time>2023-08-25T19:37:16.000Z</time>
      </trkpt>
      <trkpt lat="34.01403" lon="-4.98181">
        <ele>477.7</ele>
        <time>2023-08-25T19:37:20.000Z</time>
      </trkpt>
      <trkpt lat="34.01404" lon="-4.98182">
        <ele>477.7</ele>
        <time>2023-08-25T19:37:23.000Z</time>
      </trkpt>
      <trkpt lat="34.01406" lon="-4.98184">
        <ele>477.9</ele>
        <time>2023-08-25T19:37:27.000Z</time>
      </trkpt>
      <trkpt lat="34.01409" lon="-4.98192">
        <ele>478.4</ele>
        <time>2023-08-25T19:37:39.000Z</time>
      </trkpt>
      <trkpt lat="34.01425" lon="-4.98193">
        <ele>478.4</ele>
        <time>2023-08-25T19:38:46.000Z</time>
      </trkpt>
      <trkpt lat="34.01424" lon="-4.98193">
        <ele>478.4</ele>
        <time>2023-08-25T19:40:28.000Z</time>
      </trkpt>
      <trkpt lat="34.01427" lon="-4.98194">
        <ele>482.5</ele>
        <time>2023-08-25T19:40:31.000Z</time>
      </trkpt>
      <trkpt lat="34.01428" lon="-4.98196">
        <ele>478.4</ele>
        <time>2023-08-25T19:40:35.000Z</time>
      </trkpt>
      <trkpt lat="34.01423" lon="-4.9819">
        <ele>478.2</ele>
        <time>2023-08-25T19:40:56.000Z</time>
      </trkpt>
      <trkpt lat="34.01428" lon="-4.98189">
        <ele>479.3</ele>
        <time>2023-08-25T19:41:01.000Z</time>
      </trkpt>
      <trkpt lat="34.01434" lon="-4.98188">
        <ele>478.3</ele>
        <time>2023-08-25T19:41:08.000Z</time>
      </trkpt>
      <trkpt lat="34.01436" lon="-4.98191">
        <ele>478.3</ele>
        <time>2023-08-25T19:41:11.000Z</time>
      </trkpt>
      <trkpt lat="34.0144" lon="-4.98192">
        <ele>478.7</ele>
        <time>2023-08-25T19:41:14.000Z</time>
      </trkpt>
      <trkpt lat="34.01446" lon="-4.98188">
        <ele>478.2</ele>
        <time>2023-08-25T19:41:18.000Z</time>
      </trkpt>
      <trkpt lat="34.01451" lon="-4.98186">
        <ele>478.2</ele>
        <time>2023-08-25T19:41:21.000Z</time>
      </trkpt>
      <trkpt lat="34.01454" lon="-4.98184">
        <ele>478.5</ele>
        <time>2023-08-25T19:41:25.000Z</time>
      </trkpt>
      <trkpt lat="34.01455" lon="-4.98182">
        <ele>479.3</ele>
        <time>2023-08-25T19:41:29.000Z</time>
      </trkpt>
      <trkpt lat="34.01479" lon="-4.98189">
        <ele>478.3</ele>
        <time>2023-08-25T19:42:09.000Z</time>
      </trkpt>
      <trkpt lat="34.01485" lon="-4.98189">
        <ele>478.3</ele>
        <time>2023-08-25T19:42:13.000Z</time>
      </trkpt>
      <trkpt lat="34.0149" lon="-4.98188">
        <ele>477.9</ele>
        <time>2023-08-25T19:42:17.000Z</time>
      </trkpt>
      <trkpt lat="34.01499" lon="-4.98183">
        <ele>478.2</ele>
        <time>2023-08-25T19:42:37.000Z</time>
      </trkpt>
      <trkpt lat="34.01501" lon="-4.98182">
        <ele>478</ele>
        <time>2023-08-25T19:42:40.000Z</time>
      </trkpt>
      <trkpt lat="34.01503" lon="-4.98183">
        <ele>478</ele>
        <time>2023-08-25T19:42:45.000Z</time>
      </trkpt>
      <trkpt lat="34.01507" lon="-4.98185">
        <ele>478.1</ele>
        <time>2023-08-25T19:42:58.000Z</time>
      </trkpt>
      <trkpt lat="34.01509" lon="-4.98186">
        <ele>478.1</ele>
        <time>2023-08-25T19:43:01.000Z</time>
      </trkpt>
      <trkpt lat="34.01512" lon="-4.98186">
        <ele>478.1</ele>
        <time>2023-08-25T19:43:04.000Z</time>
      </trkpt>
      <trkpt lat="34.01515" lon="-4.98183">
        <ele>478.1</ele>
        <time>2023-08-25T19:43:08.000Z</time>
      </trkpt>
      <trkpt lat="34.01518" lon="-4.98182">
        <ele>478.1</ele>
        <time>2023-08-25T19:43:11.000Z</time>
      </trkpt>
      <trkpt lat="34.01522" lon="-4.98179">
        <ele>478.1</ele>
        <time>2023-08-25T19:43:15.000Z</time>
      </trkpt>
      <trkpt lat="34.01524" lon="-4.98181">
        <ele>478.1</ele>
        <time>2023-08-25T19:43:19.000Z</time>
      </trkpt>
      <trkpt lat="34.01527" lon="-4.9818">
        <ele>478.1</ele>
        <time>2023-08-25T19:43:22.000Z</time>
      </trkpt>
      <trkpt lat="34.01531" lon="-4.98177">
        <ele>478.1</ele>
        <time>2023-08-25T19:43:26.000Z</time>
      </trkpt>
      <trkpt lat="34.01534" lon="-4.98176">
        <ele>478.1</ele>
        <time>2023-08-25T19:43:29.000Z</time>
      </trkpt>
      <trkpt lat="34.01538" lon="-4.98176">
        <ele>478.1</ele>
        <time>2023-08-25T19:43:33.000Z</time>
      </trkpt>
      <trkpt lat="34.0154" lon="-4.98177">
        <ele>478.1</ele>
        <time>2023-08-25T19:43:37.000Z</time>
      </trkpt>
      <trkpt lat="34.01547" lon="-4.98181">
        <ele>478.1</ele>
        <time>2023-08-25T19:43:43.000Z</time>
      </trkpt>
      <trkpt lat="34.01551" lon="-4.98181">
        <ele>478.3</ele>
        <time>2023-08-25T19:43:46.000Z</time>
      </trkpt>
      <trkpt lat="34.01552" lon="-4.9818">
        <ele>478.3</ele>
        <time>2023-08-25T19:43:50.000Z</time>
      </trkpt>
      <trkpt lat="34.01555" lon="-4.98176">
        <ele>478.3</ele>
        <time>2023-08-25T19:43:54.000Z</time>
      </trkpt>
      <trkpt lat="34.01557" lon="-4.98176">
        <ele>478.1</ele>
        <time>2023-08-25T19:43:58.000Z</time>
      </trkpt>
      <trkpt lat="34.01559" lon="-4.98175">
        <ele>478.1</ele>
        <time>2023-08-25T19:44:02.000Z</time>
      </trkpt>
      <trkpt lat="34.01561" lon="-4.98174">
        <ele>478.1</ele>
        <time>2023-08-25T19:44:05.000Z</time>
      </trkpt>
      <trkpt lat="34.01563" lon="-4.98173">
        <ele>478.1</ele>
        <time>2023-08-25T19:44:09.000Z</time>
      </trkpt>
      <trkpt lat="34.01566" lon="-4.98171">
        <ele>478.1</ele>
        <time>2023-08-25T19:44:13.000Z</time>
      </trkpt>
      <trkpt lat="34.01569" lon="-4.9817">
        <ele>478.1</ele>
        <time>2023-08-25T19:44:16.000Z</time>
      </trkpt>
      <trkpt lat="34.0157" lon="-4.98169">
        <ele>478.1</ele>
        <time>2023-08-25T19:44:20.000Z</time>
      </trkpt>
      <trkpt lat="34.01577" lon="-4.98168">
        <ele>478.1</ele>
        <time>2023-08-25T19:44:42.000Z</time>
      </trkpt>
      <trkpt lat="34.01583" lon="-4.98169">
        <ele>478.1</ele>
        <time>2023-08-25T19:44:47.000Z</time>
      </trkpt>
      <trkpt lat="34.01607" lon="-4.98166">
        <ele>478.1</ele>
        <time>2023-08-25T19:45:55.000Z</time>
      </trkpt>
      <trkpt lat="34.01609" lon="-4.98166">
        <ele>478.1</ele>
        <time>2023-08-25T19:45:58.000Z</time>
      </trkpt>
      <trkpt lat="34.01637" lon="-4.98166">
        <ele>478.1</ele>
        <time>2023-08-25T19:47:51.000Z</time>
      </trkpt>
      <trkpt lat="34.0164" lon="-4.98167">
        <ele>478.1</ele>
        <time>2023-08-25T19:47:56.000Z</time>
      </trkpt>
      <trkpt lat="34.01643" lon="-4.98167">
        <ele>478.1</ele>
        <time>2023-08-25T19:48:00.000Z</time>
      </trkpt>
      <trkpt lat="34.01647" lon="-4.98167">
        <ele>477.9</ele>
        <time>2023-08-25T19:48:04.000Z</time>
      </trkpt>
      <trkpt lat="34.01649" lon="-4.98166">
        <ele>478.1</ele>
        <time>2023-08-25T19:48:07.000Z</time>
      </trkpt>
      <trkpt lat="34.01652" lon="-4.98166">
        <ele>478.1</ele>
        <time>2023-08-25T19:48:11.000Z</time>
      </trkpt>
      <trkpt lat="34.01656" lon="-4.98165">
        <ele>478.1</ele>
        <time>2023-08-25T19:48:14.000Z</time>
      </trkpt>
      <trkpt lat="34.01658" lon="-4.98163">
        <ele>478.1</ele>
        <time>2023-08-25T19:48:17.000Z</time>
      </trkpt>
      <trkpt lat="34.0166" lon="-4.98161">
        <ele>478.1</ele>
        <time>2023-08-25T19:48:21.000Z</time>
      </trkpt>
      <trkpt lat="34.01663" lon="-4.98159">
        <ele>478.1</ele>
        <time>2023-08-25T19:48:24.000Z</time>
      </trkpt>
      <trkpt lat="34.01666" lon="-4.98159">
        <ele>478.1</ele>
        <time>2023-08-25T19:48:27.000Z</time>
      </trkpt>
      <trkpt lat="34.0167" lon="-4.98159">
        <ele>478.1</ele>
        <time>2023-08-25T19:48:31.000Z</time>
      </trkpt>
      <trkpt lat="34.01672" lon="-4.98158">
        <ele>478.1</ele>
        <time>2023-08-25T19:48:34.000Z</time>
      </trkpt>
      <trkpt lat="34.01676" lon="-4.98159">
        <ele>478.1</ele>
        <time>2023-08-25T19:48:38.000Z</time>
      </trkpt>
      <trkpt lat="34.01677" lon="-4.98159">
        <ele>478.1</ele>
        <time>2023-08-25T19:48:41.000Z</time>
      </trkpt>
      <trkpt lat="34.0168" lon="-4.98157">
        <ele>478.1</ele>
        <time>2023-08-25T19:48:45.000Z</time>
      </trkpt>
      <trkpt lat="34.01684" lon="-4.98157">
        <ele>478.1</ele>
        <time>2023-08-25T19:48:49.000Z</time>
      </trkpt>
      <trkpt lat="34.01694" lon="-4.98161">
        <ele>478.1</ele>
        <time>2023-08-25T19:48:59.000Z</time>
      </trkpt>
      <trkpt lat="34.01698" lon="-4.98161">
        <ele>478.1</ele>
        <time>2023-08-25T19:49:02.000Z</time>
      </trkpt>
      <trkpt lat="34.01702" lon="-4.9816">
        <ele>478.1</ele>
        <time>2023-08-25T19:49:06.000Z</time>
      </trkpt>
      <trkpt lat="34.01714" lon="-4.98158">
        <ele>478.1</ele>
        <time>2023-08-25T19:49:27.000Z</time>
      </trkpt>
      <trkpt lat="34.01726" lon="-4.98157">
        <ele>478.1</ele>
        <time>2023-08-25T19:49:34.000Z</time>
      </trkpt>
      <trkpt lat="34.01732" lon="-4.98157">
        <ele>478.1</ele>
        <time>2023-08-25T19:49:38.000Z</time>
      </trkpt>
      <trkpt lat="34.01737" lon="-4.98155">
        <ele>478.1</ele>
        <time>2023-08-25T19:50:03.000Z</time>
      </trkpt>
      <trkpt lat="34.01741" lon="-4.98155">
        <ele>478.1</ele>
        <time>2023-08-25T19:50:07.000Z</time>
      </trkpt>
      <trkpt lat="34.01744" lon="-4.98152">
        <ele>478.1</ele>
        <time>2023-08-25T19:50:11.000Z</time>
      </trkpt>
      <trkpt lat="34.01748" lon="-4.98152">
        <ele>478.1</ele>
        <time>2023-08-25T19:50:14.000Z</time>
      </trkpt>
      <trkpt lat="34.01758" lon="-4.98152">
        <ele>478.1</ele>
        <time>2023-08-25T19:50:28.000Z</time>
      </trkpt>
      <trkpt lat="34.01763" lon="-4.98152">
        <ele>478.1</ele>
        <time>2023-08-25T19:50:31.000Z</time>
      </trkpt>
      <trkpt lat="34.01767" lon="-4.98153">
        <ele>478.1</ele>
        <time>2023-08-25T19:50:35.000Z</time>
      </trkpt>
      <trkpt lat="34.01773" lon="-4.9815">
        <ele>478.1</ele>
        <time>2023-08-25T19:50:43.000Z</time>
      </trkpt>
      <trkpt lat="34.01775" lon="-4.9815">
        <ele>478.1</ele>
        <time>2023-08-25T19:50:47.000Z</time>
      </trkpt>
      <trkpt lat="34.01792" lon="-4.98148">
        <ele>479.1</ele>
        <time>2023-08-25T19:51:25.000Z</time>
      </trkpt>
      <trkpt lat="34.01794" lon="-4.98142">
        <ele>478.9</ele>
        <time>2023-08-25T19:51:28.000Z</time>
      </trkpt>
      <trkpt lat="34.01796" lon="-4.98136">
        <ele>478.6</ele>
        <time>2023-08-25T19:51:32.000Z</time>
      </trkpt>
      <trkpt lat="34.01798" lon="-4.98131">
        <ele>479.8</ele>
        <time>2023-08-25T19:51:35.000Z</time>
      </trkpt>
      <trkpt lat="34.01799" lon="-4.98127">
        <ele>479.3</ele>
        <time>2023-08-25T19:51:38.000Z</time>
      </trkpt>
      <trkpt lat="34.01792" lon="-4.98119">
        <ele>479.3</ele>
        <time>2023-08-25T19:51:47.000Z</time>
      </trkpt>
      <trkpt lat="34.01769" lon="-4.98089">
        <ele>479.5</ele>
        <time>2023-08-25T19:52:39.000Z</time>
      </trkpt>
      <trkpt lat="34.01768" lon="-4.98086">
        <ele>478.8</ele>
        <time>2023-08-25T19:52:42.000Z</time>
      </trkpt>
      <trkpt lat="34.01768" lon="-4.98083">
        <ele>478.9</ele>
        <time>2023-08-25T19:52:45.000Z</time>
      </trkpt>
      <trkpt lat="34.01767" lon="-4.9808">
        <ele>478.6</ele>
        <time>2023-08-25T19:52:49.000Z</time>
      </trkpt>
      <trkpt lat="34.01772" lon="-4.98065">
        <ele>480.9</ele>
        <time>2023-08-25T19:53:15.000Z</time>
      </trkpt>
      <trkpt lat="34.01774" lon="-4.9806">
        <ele>480.5</ele>
        <time>2023-08-25T19:53:18.000Z</time>
      </trkpt>
      <trkpt lat="34.01775" lon="-4.98056">
        <ele>480.3</ele>
        <time>2023-08-25T19:53:22.000Z</time>
      </trkpt>
      <trkpt lat="34.01774" lon="-4.98052">
        <ele>479.8</ele>
        <time>2023-08-25T19:53:25.000Z</time>
      </trkpt>
      <trkpt lat="34.01773" lon="-4.9805">
        <ele>480.1</ele>
        <time>2023-08-25T19:53:28.000Z</time>
      </trkpt>
      <trkpt lat="34.01771" lon="-4.98048">
        <ele>480.5</ele>
        <time>2023-08-25T19:53:31.000Z</time>
      </trkpt>
      <trkpt lat="34.01771" lon="-4.98047">
        <ele>480.2</ele>
        <time>2023-08-25T19:53:35.000Z</time>
      </trkpt>
      <trkpt lat="34.01769" lon="-4.98045">
        <ele>480.3</ele>
        <time>2023-08-25T19:53:38.000Z</time>
      </trkpt>
      <trkpt lat="34.01767" lon="-4.98043">
        <ele>480.5</ele>
        <time>2023-08-25T19:53:41.000Z</time>
      </trkpt>
      <trkpt lat="34.01758" lon="-4.98032">
        <ele>480.5</ele>
        <time>2023-08-25T19:53:59.000Z</time>
      </trkpt>
      <trkpt lat="34.01759" lon="-4.98037">
        <ele>481.6</ele>
        <time>2023-08-25T19:54:46.000Z</time>
      </trkpt>
      <trkpt lat="34.01753" lon="-4.98018">
        <ele>481.1</ele>
        <time>2023-08-25T19:55:11.000Z</time>
      </trkpt>
      <trkpt lat="34.01755" lon="-4.98012">
        <ele>481.7</ele>
        <time>2023-08-25T19:55:14.000Z</time>
      </trkpt>
      <trkpt lat="34.01755" lon="-4.98006">
        <ele>482.1</ele>
        <time>2023-08-25T19:55:18.000Z</time>
      </trkpt>
      <trkpt lat="34.01755" lon="-4.98002">
        <ele>481.5</ele>
        <time>2023-08-25T19:55:21.000Z</time>
      </trkpt>
      <trkpt lat="34.01755" lon="-4.98">
        <ele>481.6</ele>
        <time>2023-08-25T19:55:24.000Z</time>
      </trkpt>
      <trkpt lat="34.01755" lon="-4.97996">
        <ele>482</ele>
        <time>2023-08-25T19:55:27.000Z</time>
      </trkpt>
      <trkpt lat="34.01754" lon="-4.97993">
        <ele>481.6</ele>
        <time>2023-08-25T19:55:30.000Z</time>
      </trkpt>
      <trkpt lat="34.01755" lon="-4.97989">
        <ele>481.7</ele>
        <time>2023-08-25T19:55:34.000Z</time>
      </trkpt>
      <trkpt lat="34.01754" lon="-4.97983">
        <ele>481.9</ele>
        <time>2023-08-25T19:55:40.000Z</time>
      </trkpt>
      <trkpt lat="34.01753" lon="-4.97978">
        <ele>481.7</ele>
        <time>2023-08-25T19:55:45.000Z</time>
      </trkpt>
      <trkpt lat="34.0175" lon="-4.97977">
        <ele>481.4</ele>
        <time>2023-08-25T19:55:49.000Z</time>
      </trkpt>
      <trkpt lat="34.01748" lon="-4.97973">
        <ele>482.8</ele>
        <time>2023-08-25T19:55:53.000Z</time>
      </trkpt>
      <trkpt lat="34.01747" lon="-4.9797">
        <ele>482.3</ele>
        <time>2023-08-25T19:55:56.000Z</time>
      </trkpt>
      <trkpt lat="34.01746" lon="-4.97967">
        <ele>481.9</ele>
        <time>2023-08-25T19:55:59.000Z</time>
      </trkpt>
      <trkpt lat="34.0174" lon="-4.97965">
        <ele>482</ele>
        <time>2023-08-25T19:56:03.000Z</time>
      </trkpt>
      <trkpt lat="34.0173" lon="-4.97963">
        <ele>482</ele>
        <time>2023-08-25T19:56:07.000Z</time>
      </trkpt>
      <trkpt lat="34.01725" lon="-4.97963">
        <ele>481.3</ele>
        <time>2023-08-25T19:56:10.000Z</time>
      </trkpt>
      <trkpt lat="34.01724" lon="-4.9796">
        <ele>481.9</ele>
        <time>2023-08-25T19:56:21.000Z</time>
      </trkpt>
      <trkpt lat="34.01725" lon="-4.97956">
        <ele>482</ele>
        <time>2023-08-25T19:56:24.000Z</time>
      </trkpt>
      <trkpt lat="34.01723" lon="-4.97945">
        <ele>482.8</ele>
        <time>2023-08-25T19:56:58.000Z</time>
      </trkpt>
      <trkpt lat="34.0172" lon="-4.97937">
        <ele>483</ele>
        <time>2023-08-25T19:57:01.000Z</time>
      </trkpt>
      <trkpt lat="34.01719" lon="-4.97918">
        <ele>483.4</ele>
        <time>2023-08-25T19:57:25.000Z</time>
      </trkpt>
      <trkpt lat="34.01717" lon="-4.97913">
        <ele>482.3</ele>
        <time>2023-08-25T19:57:28.000Z</time>
      </trkpt>
      <trkpt lat="34.01713" lon="-4.97907">
        <ele>483.4</ele>
        <time>2023-08-25T19:57:32.000Z</time>
      </trkpt>
      <trkpt lat="34.01708" lon="-4.97903">
        <ele>482.9</ele>
        <time>2023-08-25T19:57:46.000Z</time>
      </trkpt>
      <trkpt lat="34.01702" lon="-4.97901">
        <ele>483.4</ele>
        <time>2023-08-25T19:57:58.000Z</time>
      </trkpt>
      <trkpt lat="34.01698" lon="-4.979">
        <ele>483.1</ele>
        <time>2023-08-25T19:58:01.000Z</time>
      </trkpt>
      <trkpt lat="34.01694" lon="-4.97896">
        <ele>483.6</ele>
        <time>2023-08-25T19:58:05.000Z</time>
      </trkpt>
      <trkpt lat="34.01693" lon="-4.97894">
        <ele>482.6</ele>
        <time>2023-08-25T19:58:08.000Z</time>
      </trkpt>
      <trkpt lat="34.01688" lon="-4.97883">
        <ele>483.3</ele>
        <time>2023-08-25T19:58:50.000Z</time>
      </trkpt>
      <trkpt lat="34.01685" lon="-4.97881">
        <ele>483.9</ele>
        <time>2023-08-25T19:58:54.000Z</time>
      </trkpt>
      <trkpt lat="34.01683" lon="-4.97879">
        <ele>483.8</ele>
        <time>2023-08-25T19:58:57.000Z</time>
      </trkpt>
      <trkpt lat="34.01681" lon="-4.97876">
        <ele>484.4</ele>
        <time>2023-08-25T19:59:01.000Z</time>
      </trkpt>
      <trkpt lat="34.01679" lon="-4.97873">
        <ele>483.6</ele>
        <time>2023-08-25T19:59:07.000Z</time>
      </trkpt>
      <trkpt lat="34.01677" lon="-4.9787">
        <ele>484.3</ele>
        <time>2023-08-25T19:59:11.000Z</time>
      </trkpt>
      <trkpt lat="34.01676" lon="-4.97866">
        <ele>483.8</ele>
        <time>2023-08-25T19:59:15.000Z</time>
      </trkpt>
      <trkpt lat="34.01678" lon="-4.97862">
        <ele>484.7</ele>
        <time>2023-08-25T19:59:19.000Z</time>
      </trkpt>
      <trkpt lat="34.01678" lon="-4.97857">
        <ele>484.4</ele>
        <time>2023-08-25T19:59:23.000Z</time>
      </trkpt>
      <trkpt lat="34.01678" lon="-4.97854">
        <ele>482.7</ele>
        <time>2023-08-25T19:59:26.000Z</time>
      </trkpt>
      <trkpt lat="34.01677" lon="-4.97853">
        <ele>482</ele>
        <time>2023-08-25T19:59:29.000Z</time>
      </trkpt>
      <trkpt lat="34.01676" lon="-4.9785">
        <ele>484.4</ele>
        <time>2023-08-25T19:59:33.000Z</time>
      </trkpt>
      <trkpt lat="34.01669" lon="-4.97843">
        <ele>483.5</ele>
        <time>2023-08-25T20:00:09.000Z</time>
      </trkpt>
      <trkpt lat="34.01669" lon="-4.97838">
        <ele>483.4</ele>
        <time>2023-08-25T20:00:13.000Z</time>
      </trkpt>
      <trkpt lat="34.01672" lon="-4.97838">
        <ele>484.8</ele>
        <time>2023-08-25T20:00:16.000Z</time>
      </trkpt>
      <trkpt lat="34.01673" lon="-4.97837">
        <ele>483.2</ele>
        <time>2023-08-25T20:00:21.000Z</time>
      </trkpt>
      <trkpt lat="34.01672" lon="-4.97837">
        <ele>482.7</ele>
        <time>2023-08-25T20:00:24.000Z</time>
      </trkpt>
      <trkpt lat="34.0167" lon="-4.97836">
        <ele>484.4</ele>
        <time>2023-08-25T20:00:28.000Z</time>
      </trkpt>
      <trkpt lat="34.01668" lon="-4.97823">
        <ele>483.6</ele>
        <time>2023-08-25T20:00:48.000Z</time>
      </trkpt>
      <trkpt lat="34.01669" lon="-4.97821">
        <ele>483.9</ele>
        <time>2023-08-25T20:00:51.000Z</time>
      </trkpt>
      <trkpt lat="34.01669" lon="-4.97815">
        <ele>484.4</ele>
        <time>2023-08-25T20:00:55.000Z</time>
      </trkpt>
      <trkpt lat="34.01669" lon="-4.97809">
        <ele>484.8</ele>
        <time>2023-08-25T20:00:59.000Z</time>
      </trkpt>
      <trkpt lat="34.01669" lon="-4.97806">
        <ele>484.7</ele>
        <time>2023-08-25T20:01:02.000Z</time>
      </trkpt>
      <trkpt lat="34.01668" lon="-4.97801">
        <ele>483.9</ele>
        <time>2023-08-25T20:01:06.000Z</time>
      </trkpt>
      <trkpt lat="34.01666" lon="-4.97797">
        <ele>485.1</ele>
        <time>2023-08-25T20:01:10.000Z</time>
      </trkpt>
      <trkpt lat="34.01666" lon="-4.97794">
        <ele>484.9</ele>
        <time>2023-08-25T20:01:13.000Z</time>
      </trkpt>
      <trkpt lat="34.01666" lon="-4.9779">
        <ele>483.9</ele>
        <time>2023-08-25T20:01:17.000Z</time>
      </trkpt>
      <trkpt lat="34.01665" lon="-4.97785">
        <ele>483.7</ele>
        <time>2023-08-25T20:01:21.000Z</time>
      </trkpt>
      <trkpt lat="34.01666" lon="-4.97782">
        <ele>485.5</ele>
        <time>2023-08-25T20:01:24.000Z</time>
      </trkpt>
      <trkpt lat="34.01666" lon="-4.97778">
        <ele>485.1</ele>
        <time>2023-08-25T20:01:27.000Z</time>
      </trkpt>
      <trkpt lat="34.01666" lon="-4.97774">
        <ele>485</ele>
        <time>2023-08-25T20:01:31.000Z</time>
      </trkpt>
      <trkpt lat="34.01664" lon="-4.97772">
        <ele>484.6</ele>
        <time>2023-08-25T20:01:35.000Z</time>
      </trkpt>
      <trkpt lat="34.01662" lon="-4.97769">
        <ele>485</ele>
        <time>2023-08-25T20:01:38.000Z</time>
      </trkpt>
      <trkpt lat="34.0166" lon="-4.97764">
        <ele>485.5</ele>
        <time>2023-08-25T20:01:41.000Z</time>
      </trkpt>
      <trkpt lat="34.01656" lon="-4.9776">
        <ele>485.4</ele>
        <time>2023-08-25T20:01:45.000Z</time>
      </trkpt>
      <trkpt lat="34.01651" lon="-4.97755">
        <ele>485.3</ele>
        <time>2023-08-25T20:01:49.000Z</time>
      </trkpt>
      <trkpt lat="34.0165" lon="-4.97753">
        <ele>485.7</ele>
        <time>2023-08-25T20:01:52.000Z</time>
      </trkpt>
      <trkpt lat="34.0165" lon="-4.97752">
        <ele>484.8</ele>
        <time>2023-08-25T20:01:55.000Z</time>
      </trkpt>
      <trkpt lat="34.01633" lon="-4.97736">
        <ele>484.5</ele>
        <time>2023-08-25T20:06:52.000Z</time>
      </trkpt>
      <trkpt lat="34.01628" lon="-4.97729">
        <ele>485.7</ele>
        <time>2023-08-25T20:06:56.000Z</time>
      </trkpt>
      <trkpt lat="34.01625" lon="-4.97724">
        <ele>485.3</ele>
        <time>2023-08-25T20:06:59.000Z</time>
      </trkpt>
      <trkpt lat="34.01623" lon="-4.9772">
        <ele>485.9</ele>
        <time>2023-08-25T20:07:02.000Z</time>
      </trkpt>
      <trkpt lat="34.01622" lon="-4.97716">
        <ele>486.2</ele>
        <time>2023-08-25T20:07:06.000Z</time>
      </trkpt>
      <trkpt lat="34.01626" lon="-4.97709">
        <ele>484.5</ele>
        <time>2023-08-25T20:07:10.000Z</time>
      </trkpt>
      <trkpt lat="34.01627" lon="-4.97702">
        <ele>485.9</ele>
        <time>2023-08-25T20:07:13.000Z</time>
      </trkpt>
      <trkpt lat="34.01626" lon="-4.97699">
        <ele>484.6</ele>
        <time>2023-08-25T20:07:16.000Z</time>
      </trkpt>
      <trkpt lat="34.01626" lon="-4.97694">
        <ele>486.4</ele>
        <time>2023-08-25T20:07:20.000Z</time>
      </trkpt>
      <trkpt lat="34.01626" lon="-4.97692">
        <ele>486.9</ele>
        <time>2023-08-25T20:07:24.000Z</time>
      </trkpt>
      <trkpt lat="34.01625" lon="-4.97689">
        <ele>486</ele>
        <time>2023-08-25T20:07:27.000Z</time>
      </trkpt>
      <trkpt lat="34.01623" lon="-4.97685">
        <ele>484.9</ele>
        <time>2023-08-25T20:07:31.000Z</time>
      </trkpt>
      <trkpt lat="34.01622" lon="-4.97682">
        <ele>486.3</ele>
        <time>2023-08-25T20:07:34.000Z</time>
      </trkpt>
      <trkpt lat="34.01622" lon="-4.97679">
        <ele>487.7</ele>
        <time>2023-08-25T20:07:37.000Z</time>
      </trkpt>
      <trkpt lat="34.01622" lon="-4.97677">
        <ele>486.8</ele>
        <time>2023-08-25T20:07:40.000Z</time>
      </trkpt>
      <trkpt lat="34.01622" lon="-4.97673">
        <ele>486.5</ele>
        <time>2023-08-25T20:07:43.000Z</time>
      </trkpt>
      <trkpt lat="34.01618" lon="-4.97665">
        <ele>486.8</ele>
        <time>2023-08-25T20:07:47.000Z</time>
      </trkpt>
      <trkpt lat="34.01615" lon="-4.9766">
        <ele>487.8</ele>
        <time>2023-08-25T20:07:50.000Z</time>
      </trkpt>
      <trkpt lat="34.01613" lon="-4.97656">
        <ele>486.7</ele>
        <time>2023-08-25T20:07:58.000Z</time>
      </trkpt>
      <trkpt lat="34.01612" lon="-4.97653">
        <ele>486.9</ele>
        <time>2023-08-25T20:08:01.000Z</time>
      </trkpt>
      <trkpt lat="34.01612" lon="-4.97651">
        <ele>486.4</ele>
        <time>2023-08-25T20:08:05.000Z</time>
      </trkpt>
      <trkpt lat="34.0161" lon="-4.97646">
        <ele>487.6</ele>
        <time>2023-08-25T20:08:11.000Z</time>
      </trkpt>
      <trkpt lat="34.01608" lon="-4.97642">
        <ele>486.9</ele>
        <time>2023-08-25T20:08:14.000Z</time>
      </trkpt>
      <trkpt lat="34.01606" lon="-4.97637">
        <ele>488.2</ele>
        <time>2023-08-25T20:08:18.000Z</time>
      </trkpt>
      <trkpt lat="34.01602" lon="-4.9763">
        <ele>488.1</ele>
        <time>2023-08-25T20:08:22.000Z</time>
      </trkpt>
      <trkpt lat="34.016" lon="-4.97627">
        <ele>487.7</ele>
        <time>2023-08-25T20:08:25.000Z</time>
      </trkpt>
      <trkpt lat="34.01599" lon="-4.97623">
        <ele>487.4</ele>
        <time>2023-08-25T20:08:29.000Z</time>
      </trkpt>
      <trkpt lat="34.01598" lon="-4.9762">
        <ele>488.4</ele>
        <time>2023-08-25T20:08:33.000Z</time>
      </trkpt>
      <trkpt lat="34.01596" lon="-4.97616">
        <ele>488.9</ele>
        <time>2023-08-25T20:08:37.000Z</time>
      </trkpt>
      <trkpt lat="34.01593" lon="-4.97611">
        <ele>488.2</ele>
        <time>2023-08-25T20:08:41.000Z</time>
      </trkpt>
      <trkpt lat="34.01591" lon="-4.97609">
        <ele>487.5</ele>
        <time>2023-08-25T20:08:44.000Z</time>
      </trkpt>
      <trkpt lat="34.01589" lon="-4.97607">
        <ele>488.3</ele>
        <time>2023-08-25T20:08:48.000Z</time>
      </trkpt>
      <trkpt lat="34.01585" lon="-4.97602">
        <ele>489.8</ele>
        <time>2023-08-25T20:08:52.000Z</time>
      </trkpt>
      <trkpt lat="34.01582" lon="-4.97599">
        <ele>489.8</ele>
        <time>2023-08-25T20:08:55.000Z</time>
      </trkpt>
      <trkpt lat="34.01578" lon="-4.97597">
        <ele>489</ele>
        <time>2023-08-25T20:08:58.000Z</time>
      </trkpt>
      <trkpt lat="34.01574" lon="-4.97594">
        <ele>488.4</ele>
        <time>2023-08-25T20:09:02.000Z</time>
      </trkpt>
      <trkpt lat="34.01572" lon="-4.97588">
        <ele>487.8</ele>
        <time>2023-08-25T20:09:05.000Z</time>
      </trkpt>
      <trkpt lat="34.01573" lon="-4.97584">
        <ele>487.4</ele>
        <time>2023-08-25T20:09:25.000Z</time>
      </trkpt>
      <trkpt lat="34.0157" lon="-4.97583">
        <ele>489.6</ele>
        <time>2023-08-25T20:09:28.000Z</time>
      </trkpt>
      <trkpt lat="34.01565" lon="-4.97583">
        <ele>489.7</ele>
        <time>2023-08-25T20:09:32.000Z</time>
      </trkpt>
      <trkpt lat="34.01561" lon="-4.97583">
        <ele>489.4</ele>
        <time>2023-08-25T20:09:35.000Z</time>
      </trkpt>
      <trkpt lat="34.01557" lon="-4.97582">
        <ele>488.7</ele>
        <time>2023-08-25T20:09:38.000Z</time>
      </trkpt>
      <trkpt lat="34.01553" lon="-4.97578">
        <ele>489.3</ele>
        <time>2023-08-25T20:09:42.000Z</time>
      </trkpt>
      <trkpt lat="34.01552" lon="-4.97575">
        <ele>488.9</ele>
        <time>2023-08-25T20:09:45.000Z</time>
      </trkpt>
      <trkpt lat="34.01551" lon="-4.97571">
        <ele>489.4</ele>
        <time>2023-08-25T20:09:49.000Z</time>
      </trkpt>
      <trkpt lat="34.0155" lon="-4.97569">
        <ele>489.2</ele>
        <time>2023-08-25T20:09:52.000Z</time>
      </trkpt>
      <trkpt lat="34.01547" lon="-4.97568">
        <ele>490.2</ele>
        <time>2023-08-25T20:09:56.000Z</time>
      </trkpt>
      <trkpt lat="34.01545" lon="-4.97566">
        <ele>489.4</ele>
        <time>2023-08-25T20:09:59.000Z</time>
      </trkpt>
      <trkpt lat="34.01542" lon="-4.97565">
        <ele>490.1</ele>
        <time>2023-08-25T20:10:03.000Z</time>
      </trkpt>
      <trkpt lat="34.01538" lon="-4.97564">
        <ele>488.9</ele>
        <time>2023-08-25T20:10:07.000Z</time>
      </trkpt>
      <trkpt lat="34.01535" lon="-4.97561">
        <ele>490</ele>
        <time>2023-08-25T20:10:11.000Z</time>
      </trkpt>
      <trkpt lat="34.01533" lon="-4.97558">
        <ele>490.7</ele>
        <time>2023-08-25T20:10:14.000Z</time>
      </trkpt>
      <trkpt lat="34.01531" lon="-4.97555">
        <ele>490</ele>
        <time>2023-08-25T20:10:17.000Z</time>
      </trkpt>
      <trkpt lat="34.01529" lon="-4.9755">
        <ele>490.4</ele>
        <time>2023-08-25T20:10:21.000Z</time>
      </trkpt>
      <trkpt lat="34.01528" lon="-4.97546">
        <ele>490.8</ele>
        <time>2023-08-25T20:10:24.000Z</time>
      </trkpt>
      <trkpt lat="34.01527" lon="-4.97541">
        <ele>489.8</ele>
        <time>2023-08-25T20:10:28.000Z</time>
      </trkpt>
      <trkpt lat="34.01527" lon="-4.97538">
        <ele>489.7</ele>
        <time>2023-08-25T20:10:31.000Z</time>
      </trkpt>
      <trkpt lat="34.01524" lon="-4.97529">
        <ele>490.4</ele>
        <time>2023-08-25T20:10:35.000Z</time>
      </trkpt>
      <trkpt lat="34.01523" lon="-4.97522">
        <ele>489.1</ele>
        <time>2023-08-25T20:10:39.000Z</time>
      </trkpt>
      <trkpt lat="34.01523" lon="-4.97517">
        <ele>490.5</ele>
        <time>2023-08-25T20:10:43.000Z</time>
      </trkpt>
      <trkpt lat="34.01522" lon="-4.97513">
        <ele>489.1</ele>
        <time>2023-08-25T20:10:47.000Z</time>
      </trkpt>
      <trkpt lat="34.01521" lon="-4.97507">
        <ele>490.1</ele>
        <time>2023-08-25T20:10:51.000Z</time>
      </trkpt>
      <trkpt lat="34.01519" lon="-4.97504">
        <ele>490.3</ele>
        <time>2023-08-25T20:10:54.000Z</time>
      </trkpt>
      <trkpt lat="34.01531" lon="-4.97483">
        <ele>485.6</ele>
        <time>2023-08-25T20:15:03.000Z</time>
      </trkpt>
      <trkpt lat="34.0153" lon="-4.9748">
        <ele>485.9</ele>
        <time>2023-08-25T20:15:15.000Z</time>
      </trkpt>
      <trkpt lat="34.01528" lon="-4.97482">
        <ele>485.9</ele>
        <time>2023-08-25T20:15:21.000Z</time>
      </trkpt>
      <trkpt lat="34.01525" lon="-4.97482">
        <ele>485.7</ele>
        <time>2023-08-25T20:15:43.000Z</time>
      </trkpt>
      <trkpt lat="34.01519" lon="-4.97481">
        <ele>485</ele>
        <time>2023-08-25T20:16:20.000Z</time>
      </trkpt>
      <trkpt lat="34.0152" lon="-4.97481">
        <ele>501.8</ele>
        <time>2023-08-25T20:16:23.000Z</time>
      </trkpt>
      <trkpt lat="34.01527" lon="-4.97478">
        <ele>500.1</ele>
        <time>2023-08-25T20:16:36.000Z</time>
      </trkpt>
      <trkpt lat="34.01535" lon="-4.97484">
        <ele>490.8</ele>
        <time>2023-08-25T20:16:57.000Z</time>
      </trkpt>
      <trkpt lat="34.01518" lon="-4.9748">
        <ele>490.8</ele>
        <time>2023-08-25T20:18:20.000Z</time>
      </trkpt>
      <trkpt lat="34.01532" lon="-4.97497">
        <ele>490.8</ele>
        <time>2023-08-25T20:19:04.000Z</time>
      </trkpt>
      <trkpt lat="34.01525" lon="-4.97486">
        <ele>490.9</ele>
        <time>2023-08-25T20:20:01.000Z</time>
      </trkpt>
      <trkpt lat="34.01523" lon="-4.97486">
        <ele>490.9</ele>
        <time>2023-08-25T20:20:04.000Z</time>
      </trkpt>
      <trkpt lat="34.01534" lon="-4.97507">
        <ele>491.3</ele>
        <time>2023-08-25T20:21:43.000Z</time>
      </trkpt>
      <trkpt lat="34.01523" lon="-4.97492">
        <ele>490.8</ele>
        <time>2023-08-25T20:23:16.000Z</time>
      </trkpt>
      <trkpt lat="34.01517" lon="-4.97497">
        <ele>490.8</ele>
        <time>2023-08-25T20:23:30.000Z</time>
      </trkpt>
      <trkpt lat="34.01517" lon="-4.97492">
        <ele>490.8</ele>
        <time>2023-08-25T20:23:33.000Z</time>
      </trkpt>
      <trkpt lat="34.01525" lon="-4.97498">
        <ele>490.9</ele>
        <time>2023-08-25T20:24:05.000Z</time>
      </trkpt>
      <trkpt lat="34.01525" lon="-4.97488">
        <ele>490.8</ele>
        <time>2023-08-25T20:24:31.000Z</time>
      </trkpt>
      <trkpt lat="34.01523" lon="-4.97487">
        <ele>490.9</ele>
        <time>2023-08-25T20:24:38.000Z</time>
      </trkpt>
      <trkpt lat="34.0153" lon="-4.97489">
        <ele>490.8</ele>
        <time>2023-08-25T20:25:18.000Z</time>
      </trkpt>
      <trkpt lat="34.01528" lon="-4.97486">
        <ele>490.8</ele>
        <time>2023-08-25T20:26:52.000Z</time>
      </trkpt>
      <trkpt lat="34.01527" lon="-4.97481">
        <ele>490.8</ele>
        <time>2023-08-25T20:26:56.000Z</time>
      </trkpt>
      <trkpt lat="34.01521" lon="-4.97487">
        <ele>490.9</ele>
        <time>2023-08-25T20:28:39.000Z</time>
      </trkpt>
      <trkpt lat="34.0152" lon="-4.97484">
        <ele>490.9</ele>
        <time>2023-08-25T20:28:42.000Z</time>
      </trkpt>
      <trkpt lat="34.01519" lon="-4.9749">
        <ele>490.8</ele>
        <time>2023-08-25T20:30:35.000Z</time>
      </trkpt>
      <trkpt lat="34.01521" lon="-4.97491">
        <ele>490.8</ele>
        <time>2023-08-25T20:31:22.000Z</time>
      </trkpt>
      <trkpt lat="34.0152" lon="-4.9749">
        <ele>490.8</ele>
        <time>2023-08-25T20:31:25.000Z</time>
      </trkpt>
      <trkpt lat="34.01522" lon="-4.97503">
        <ele>490.7</ele>
        <time>2023-08-25T20:32:14.000Z</time>
      </trkpt>
      <trkpt lat="34.0152" lon="-4.97499">
        <ele>490.7</ele>
        <time>2023-08-25T20:32:18.000Z</time>
      </trkpt>
      <trkpt lat="34.01517" lon="-4.97497">
        <ele>490.8</ele>
        <time>2023-08-25T20:32:28.000Z</time>
      </trkpt>
      <trkpt lat="34.01514" lon="-4.97495">
        <ele>490.8</ele>
        <time>2023-08-25T20:32:31.000Z</time>
      </trkpt>
      <trkpt lat="34.01515" lon="-4.97492">
        <ele>490.8</ele>
        <time>2023-08-25T20:32:36.000Z</time>
      </trkpt>
      <trkpt lat="34.01521" lon="-4.97489">
        <ele>490.9</ele>
        <time>2023-08-25T20:33:27.000Z</time>
      </trkpt>
      <trkpt lat="34.01521" lon="-4.97487">
        <ele>490.5</ele>
        <time>2023-08-25T20:33:30.000Z</time>
      </trkpt>
      <trkpt lat="34.01523" lon="-4.97488">
        <ele>490.8</ele>
        <time>2023-08-25T20:33:34.000Z</time>
      </trkpt>
      <trkpt lat="34.01527" lon="-4.97497">
        <ele>490.8</ele>
        <time>2023-08-25T20:33:37.000Z</time>
      </trkpt>
      <trkpt lat="34.01531" lon="-4.97506">
        <ele>490.8</ele>
        <time>2023-08-25T20:33:41.000Z</time>
      </trkpt>
      <trkpt lat="34.01533" lon="-4.9751">
        <ele>490.8</ele>
        <time>2023-08-25T20:33:44.000Z</time>
      </trkpt>
      <trkpt lat="34.01538" lon="-4.97519">
        <ele>493.5</ele>
        <time>2023-08-25T20:33:50.000Z</time>
      </trkpt>
      <trkpt lat="34.01528" lon="-4.97512">
        <ele>490.3</ele>
        <time>2023-08-25T20:33:58.000Z</time>
      </trkpt>
    </trkseg>
  </trk>
</gpx>